<?xml version="1.0" encoding="UTF-8" standalone="no" ?>
<gpx xmlns="http://www.topografix.com/GPX/1/1" xmlns:xsi="http://www.w3.org/2001/XMLSchema-instance" xsi:schemaLocation="http://www.topografix.com/GPX/1/1 http://www.topografix.com/GPX/1/1/gpx.xsd" version="1.1" creator="VisuGPX - https://www.visugpx.com">
  <metadata>
    <name>Sauvagnas </name>
    <desc><![CDATA[sauvagnas]]></desc>
  </metadata>
  <trk>
    <name><![CDATA[Sauvagnas ]]></name>
    <extensions>
      <line xmlns="http://www.topografix.com/GPX/gpx_style/0/2">
        <color>0000FF</color>
        <width>4</width>
      </line>
    </extensions>
    <trkseg>
      <trkpt lat="44.24889" lon="0.73857">
        <ele>171.2</ele>
        <time>2021-05-09T07:01:03Z</time>
      </trkpt>
      <trkpt lat="44.24891" lon="0.73859">
        <ele>175</ele>
        <time>2021-05-09T07:01:23Z</time>
      </trkpt>
      <trkpt lat="44.24892" lon="0.73859">
        <ele>175.2</ele>
        <time>2021-05-09T07:01:24Z</time>
      </trkpt>
      <trkpt lat="44.24894" lon="0.73859">
        <ele>175.4</ele>
        <time>2021-05-09T07:01:25Z</time>
      </trkpt>
      <trkpt lat="44.24897" lon="0.7386">
        <ele>175.6</ele>
        <time>2021-05-09T07:01:27Z</time>
      </trkpt>
      <trkpt lat="44.24899" lon="0.73861">
        <ele>176</ele>
        <time>2021-05-09T07:01:29Z</time>
      </trkpt>
      <trkpt lat="44.24902" lon="0.73862">
        <ele>176.4</ele>
        <time>2021-05-09T07:01:31Z</time>
      </trkpt>
      <trkpt lat="44.24904" lon="0.73864">
        <ele>176.6</ele>
        <time>2021-05-09T07:01:33Z</time>
      </trkpt>
      <trkpt lat="44.24906" lon="0.73864">
        <ele>176.4</ele>
        <time>2021-05-09T07:01:39Z</time>
      </trkpt>
      <trkpt lat="44.24908" lon="0.73863">
        <ele>176.4</ele>
        <time>2021-05-09T07:01:42Z</time>
      </trkpt>
      <trkpt lat="44.2491" lon="0.73864">
        <ele>176.2</ele>
        <time>2021-05-09T07:01:45Z</time>
      </trkpt>
      <trkpt lat="44.24912" lon="0.73863">
        <ele>176.2</ele>
        <time>2021-05-09T07:01:47Z</time>
      </trkpt>
      <trkpt lat="44.24915" lon="0.73862">
        <ele>176</ele>
        <time>2021-05-09T07:01:50Z</time>
      </trkpt>
      <trkpt lat="44.24921" lon="0.73863">
        <ele>175.8</ele>
        <time>2021-05-09T07:01:57Z</time>
      </trkpt>
      <trkpt lat="44.24921" lon="0.73865">
        <ele>175.6</ele>
        <time>2021-05-09T07:02:02Z</time>
      </trkpt>
      <trkpt lat="44.24922" lon="0.73863">
        <ele>175.8</ele>
        <time>2021-05-09T07:02:05Z</time>
      </trkpt>
      <trkpt lat="44.24924" lon="0.73862">
        <ele>175.8</ele>
        <time>2021-05-09T07:02:07Z</time>
      </trkpt>
      <trkpt lat="44.24926" lon="0.73861">
        <ele>176</ele>
        <time>2021-05-09T07:02:09Z</time>
      </trkpt>
      <trkpt lat="44.24928" lon="0.73861">
        <ele>176</ele>
        <time>2021-05-09T07:02:11Z</time>
      </trkpt>
      <trkpt lat="44.24931" lon="0.73861">
        <ele>176.2</ele>
        <time>2021-05-09T07:02:15Z</time>
      </trkpt>
      <trkpt lat="44.24937" lon="0.73863">
        <ele>176.4</ele>
        <time>2021-05-09T07:02:23Z</time>
      </trkpt>
      <trkpt lat="44.24939" lon="0.73864">
        <ele>176.6</ele>
        <time>2021-05-09T07:02:25Z</time>
      </trkpt>
      <trkpt lat="44.2494" lon="0.73865">
        <ele>176.6</ele>
        <time>2021-05-09T07:02:27Z</time>
      </trkpt>
      <trkpt lat="44.24942" lon="0.73865">
        <ele>176.6</ele>
        <time>2021-05-09T07:02:29Z</time>
      </trkpt>
      <trkpt lat="44.24944" lon="0.73865">
        <ele>176.4</ele>
        <time>2021-05-09T07:02:32Z</time>
      </trkpt>
      <trkpt lat="44.24949" lon="0.73863">
        <ele>176.2</ele>
        <time>2021-05-09T07:02:37Z</time>
      </trkpt>
      <trkpt lat="44.24951" lon="0.73863">
        <ele>176.2</ele>
        <time>2021-05-09T07:02:38Z</time>
      </trkpt>
      <trkpt lat="44.24954" lon="0.73863">
        <ele>176</ele>
        <time>2021-05-09T07:02:40Z</time>
      </trkpt>
      <trkpt lat="44.24956" lon="0.73863">
        <ele>175.8</ele>
        <time>2021-05-09T07:02:42Z</time>
      </trkpt>
      <trkpt lat="44.24958" lon="0.73863">
        <ele>175.6</ele>
        <time>2021-05-09T07:02:44Z</time>
      </trkpt>
      <trkpt lat="44.2496" lon="0.73863">
        <ele>175.4</ele>
        <time>2021-05-09T07:02:46Z</time>
      </trkpt>
      <trkpt lat="44.24962" lon="0.73865">
        <ele>175</ele>
        <time>2021-05-09T07:02:49Z</time>
      </trkpt>
      <trkpt lat="44.24964" lon="0.73864">
        <ele>174.8</ele>
        <time>2021-05-09T07:02:51Z</time>
      </trkpt>
      <trkpt lat="44.24967" lon="0.73863">
        <ele>174.6</ele>
        <time>2021-05-09T07:02:53Z</time>
      </trkpt>
      <trkpt lat="44.2497" lon="0.73862">
        <ele>174.2</ele>
        <time>2021-05-09T07:02:55Z</time>
      </trkpt>
      <trkpt lat="44.24972" lon="0.73861">
        <ele>174</ele>
        <time>2021-05-09T07:02:57Z</time>
      </trkpt>
      <trkpt lat="44.24974" lon="0.7386">
        <ele>173.6</ele>
        <time>2021-05-09T07:02:59Z</time>
      </trkpt>
      <trkpt lat="44.24976" lon="0.7386">
        <ele>173.4</ele>
        <time>2021-05-09T07:03:01Z</time>
      </trkpt>
      <trkpt lat="44.24979" lon="0.7386">
        <ele>173.2</ele>
        <time>2021-05-09T07:03:03Z</time>
      </trkpt>
      <trkpt lat="44.2498" lon="0.7386">
        <ele>173</ele>
        <time>2021-05-09T07:03:05Z</time>
      </trkpt>
      <trkpt lat="44.24982" lon="0.7386">
        <ele>172.8</ele>
        <time>2021-05-09T07:03:07Z</time>
      </trkpt>
      <trkpt lat="44.24985" lon="0.7386">
        <ele>172.6</ele>
        <time>2021-05-09T07:03:09Z</time>
      </trkpt>
      <trkpt lat="44.24987" lon="0.7386">
        <ele>172.4</ele>
        <time>2021-05-09T07:03:11Z</time>
      </trkpt>
      <trkpt lat="44.24989" lon="0.73859">
        <ele>172.2</ele>
        <time>2021-05-09T07:03:13Z</time>
      </trkpt>
      <trkpt lat="44.24991" lon="0.73859">
        <ele>172.2</ele>
        <time>2021-05-09T07:03:15Z</time>
      </trkpt>
      <trkpt lat="44.24993" lon="0.73859">
        <ele>172</ele>
        <time>2021-05-09T07:03:17Z</time>
      </trkpt>
      <trkpt lat="44.24995" lon="0.73859">
        <ele>171.8</ele>
        <time>2021-05-09T07:03:19Z</time>
      </trkpt>
      <trkpt lat="44.24998" lon="0.73859">
        <ele>171.4</ele>
        <time>2021-05-09T07:03:22Z</time>
      </trkpt>
      <trkpt lat="44.25" lon="0.7386">
        <ele>171.4</ele>
        <time>2021-05-09T07:03:24Z</time>
      </trkpt>
      <trkpt lat="44.25003" lon="0.73861">
        <ele>171.4</ele>
        <time>2021-05-09T07:03:26Z</time>
      </trkpt>
      <trkpt lat="44.25005" lon="0.73861">
        <ele>171.2</ele>
        <time>2021-05-09T07:03:28Z</time>
      </trkpt>
      <trkpt lat="44.25007" lon="0.73861">
        <ele>171.2</ele>
        <time>2021-05-09T07:03:30Z</time>
      </trkpt>
      <trkpt lat="44.25009" lon="0.73861">
        <ele>171.2</ele>
        <time>2021-05-09T07:03:33Z</time>
      </trkpt>
      <trkpt lat="44.25015" lon="0.73865">
        <ele>170.6</ele>
        <time>2021-05-09T07:03:43Z</time>
      </trkpt>
      <trkpt lat="44.25016" lon="0.73868">
        <ele>170.2</ele>
        <time>2021-05-09T07:03:46Z</time>
      </trkpt>
      <trkpt lat="44.25018" lon="0.73868">
        <ele>170</ele>
        <time>2021-05-09T07:03:49Z</time>
      </trkpt>
      <trkpt lat="44.2502" lon="0.73869">
        <ele>169.8</ele>
        <time>2021-05-09T07:03:52Z</time>
      </trkpt>
      <trkpt lat="44.25022" lon="0.73869">
        <ele>169.6</ele>
        <time>2021-05-09T07:03:54Z</time>
      </trkpt>
      <trkpt lat="44.25025" lon="0.73869">
        <ele>169.4</ele>
        <time>2021-05-09T07:03:57Z</time>
      </trkpt>
      <trkpt lat="44.25032" lon="0.7387">
        <ele>167.8</ele>
        <time>2021-05-09T07:04:10Z</time>
      </trkpt>
      <trkpt lat="44.25034" lon="0.73872">
        <ele>167.8</ele>
        <time>2021-05-09T07:04:13Z</time>
      </trkpt>
      <trkpt lat="44.25036" lon="0.73872">
        <ele>167.6</ele>
        <time>2021-05-09T07:04:15Z</time>
      </trkpt>
      <trkpt lat="44.25039" lon="0.73873">
        <ele>167.4</ele>
        <time>2021-05-09T07:04:18Z</time>
      </trkpt>
      <trkpt lat="44.25041" lon="0.73875">
        <ele>167.4</ele>
        <time>2021-05-09T07:04:19Z</time>
      </trkpt>
      <trkpt lat="44.25044" lon="0.73876">
        <ele>167.4</ele>
        <time>2021-05-09T07:04:21Z</time>
      </trkpt>
      <trkpt lat="44.25046" lon="0.73876">
        <ele>167.2</ele>
        <time>2021-05-09T07:04:23Z</time>
      </trkpt>
      <trkpt lat="44.25049" lon="0.73878">
        <ele>167.2</ele>
        <time>2021-05-09T07:04:25Z</time>
      </trkpt>
      <trkpt lat="44.2505" lon="0.7388">
        <ele>167.2</ele>
        <time>2021-05-09T07:04:29Z</time>
      </trkpt>
      <trkpt lat="44.25052" lon="0.73882">
        <ele>167.2</ele>
        <time>2021-05-09T07:04:32Z</time>
      </trkpt>
      <trkpt lat="44.25053" lon="0.73884">
        <ele>167.4</ele>
        <time>2021-05-09T07:04:34Z</time>
      </trkpt>
      <trkpt lat="44.25054" lon="0.73887">
        <ele>167.4</ele>
        <time>2021-05-09T07:04:36Z</time>
      </trkpt>
      <trkpt lat="44.25056" lon="0.73888">
        <ele>167.4</ele>
        <time>2021-05-09T07:04:37Z</time>
      </trkpt>
      <trkpt lat="44.25058" lon="0.73889">
        <ele>167.4</ele>
        <time>2021-05-09T07:04:39Z</time>
      </trkpt>
      <trkpt lat="44.25059" lon="0.7389">
        <ele>167.2</ele>
        <time>2021-05-09T07:04:41Z</time>
      </trkpt>
      <trkpt lat="44.25061" lon="0.73892">
        <ele>166.8</ele>
        <time>2021-05-09T07:04:43Z</time>
      </trkpt>
      <trkpt lat="44.25063" lon="0.73892">
        <ele>166.4</ele>
        <time>2021-05-09T07:04:45Z</time>
      </trkpt>
      <trkpt lat="44.25066" lon="0.73893">
        <ele>166.2</ele>
        <time>2021-05-09T07:04:46Z</time>
      </trkpt>
      <trkpt lat="44.2507" lon="0.73893">
        <ele>166.2</ele>
        <time>2021-05-09T07:04:48Z</time>
      </trkpt>
      <trkpt lat="44.25072" lon="0.73895">
        <ele>166</ele>
        <time>2021-05-09T07:04:50Z</time>
      </trkpt>
      <trkpt lat="44.25075" lon="0.73897">
        <ele>165.8</ele>
        <time>2021-05-09T07:04:52Z</time>
      </trkpt>
      <trkpt lat="44.25076" lon="0.739">
        <ele>165.4</ele>
        <time>2021-05-09T07:04:55Z</time>
      </trkpt>
      <trkpt lat="44.25078" lon="0.73901">
        <ele>165.2</ele>
        <time>2021-05-09T07:04:57Z</time>
      </trkpt>
      <trkpt lat="44.2508" lon="0.73902">
        <ele>165</ele>
        <time>2021-05-09T07:04:59Z</time>
      </trkpt>
      <trkpt lat="44.25081" lon="0.73904">
        <ele>165</ele>
        <time>2021-05-09T07:05:01Z</time>
      </trkpt>
      <trkpt lat="44.25082" lon="0.73907">
        <ele>164.8</ele>
        <time>2021-05-09T07:05:04Z</time>
      </trkpt>
      <trkpt lat="44.25083" lon="0.7391">
        <ele>164.8</ele>
        <time>2021-05-09T07:05:06Z</time>
      </trkpt>
      <trkpt lat="44.25084" lon="0.73913">
        <ele>164.6</ele>
        <time>2021-05-09T07:05:08Z</time>
      </trkpt>
      <trkpt lat="44.25085" lon="0.73916">
        <ele>164.6</ele>
        <time>2021-05-09T07:05:10Z</time>
      </trkpt>
      <trkpt lat="44.25086" lon="0.7392">
        <ele>164.4</ele>
        <time>2021-05-09T07:05:12Z</time>
      </trkpt>
      <trkpt lat="44.25087" lon="0.73923">
        <ele>164.2</ele>
        <time>2021-05-09T07:05:14Z</time>
      </trkpt>
      <trkpt lat="44.25089" lon="0.73926">
        <ele>164</ele>
        <time>2021-05-09T07:05:16Z</time>
      </trkpt>
      <trkpt lat="44.2509" lon="0.73929">
        <ele>163.8</ele>
        <time>2021-05-09T07:05:18Z</time>
      </trkpt>
      <trkpt lat="44.25091" lon="0.73932">
        <ele>163.6</ele>
        <time>2021-05-09T07:05:20Z</time>
      </trkpt>
      <trkpt lat="44.25092" lon="0.73934">
        <ele>163.4</ele>
        <time>2021-05-09T07:05:22Z</time>
      </trkpt>
      <trkpt lat="44.25093" lon="0.73937">
        <ele>163.4</ele>
        <time>2021-05-09T07:05:24Z</time>
      </trkpt>
      <trkpt lat="44.25094" lon="0.73939">
        <ele>163.2</ele>
        <time>2021-05-09T07:05:26Z</time>
      </trkpt>
      <trkpt lat="44.25095" lon="0.73942">
        <ele>163</ele>
        <time>2021-05-09T07:05:28Z</time>
      </trkpt>
      <trkpt lat="44.25095" lon="0.73944">
        <ele>162.8</ele>
        <time>2021-05-09T07:05:30Z</time>
      </trkpt>
      <trkpt lat="44.25096" lon="0.73947">
        <ele>162.6</ele>
        <time>2021-05-09T07:05:32Z</time>
      </trkpt>
      <trkpt lat="44.25097" lon="0.73951">
        <ele>162.4</ele>
        <time>2021-05-09T07:05:34Z</time>
      </trkpt>
      <trkpt lat="44.25097" lon="0.73955">
        <ele>162.2</ele>
        <time>2021-05-09T07:05:36Z</time>
      </trkpt>
      <trkpt lat="44.25099" lon="0.73958">
        <ele>162.2</ele>
        <time>2021-05-09T07:05:38Z</time>
      </trkpt>
      <trkpt lat="44.251" lon="0.73962">
        <ele>162.2</ele>
        <time>2021-05-09T07:05:40Z</time>
      </trkpt>
      <trkpt lat="44.25101" lon="0.73965">
        <ele>162</ele>
        <time>2021-05-09T07:05:42Z</time>
      </trkpt>
      <trkpt lat="44.25102" lon="0.73968">
        <ele>162</ele>
        <time>2021-05-09T07:05:44Z</time>
      </trkpt>
      <trkpt lat="44.25104" lon="0.73969">
        <ele>161.8</ele>
        <time>2021-05-09T07:05:46Z</time>
      </trkpt>
      <trkpt lat="44.25105" lon="0.73971">
        <ele>161.6</ele>
        <time>2021-05-09T07:05:48Z</time>
      </trkpt>
      <trkpt lat="44.25105" lon="0.73974">
        <ele>161.2</ele>
        <time>2021-05-09T07:05:51Z</time>
      </trkpt>
      <trkpt lat="44.25106" lon="0.73977">
        <ele>161.2</ele>
        <time>2021-05-09T07:05:53Z</time>
      </trkpt>
      <trkpt lat="44.25107" lon="0.73979">
        <ele>161</ele>
        <time>2021-05-09T07:05:55Z</time>
      </trkpt>
      <trkpt lat="44.25108" lon="0.73982">
        <ele>161</ele>
        <time>2021-05-09T07:05:57Z</time>
      </trkpt>
      <trkpt lat="44.25109" lon="0.73985">
        <ele>160.8</ele>
        <time>2021-05-09T07:05:59Z</time>
      </trkpt>
      <trkpt lat="44.25111" lon="0.73988">
        <ele>160.6</ele>
        <time>2021-05-09T07:06:01Z</time>
      </trkpt>
      <trkpt lat="44.25113" lon="0.7399">
        <ele>160.6</ele>
        <time>2021-05-09T07:06:03Z</time>
      </trkpt>
      <trkpt lat="44.25115" lon="0.73993">
        <ele>160.4</ele>
        <time>2021-05-09T07:06:05Z</time>
      </trkpt>
      <trkpt lat="44.25116" lon="0.73995">
        <ele>160.4</ele>
        <time>2021-05-09T07:06:07Z</time>
      </trkpt>
      <trkpt lat="44.25118" lon="0.73999">
        <ele>160.2</ele>
        <time>2021-05-09T07:06:09Z</time>
      </trkpt>
      <trkpt lat="44.25119" lon="0.74001">
        <ele>160.2</ele>
        <time>2021-05-09T07:06:11Z</time>
      </trkpt>
      <trkpt lat="44.25121" lon="0.74003">
        <ele>160</ele>
        <time>2021-05-09T07:06:13Z</time>
      </trkpt>
      <trkpt lat="44.25123" lon="0.74005">
        <ele>159.8</ele>
        <time>2021-05-09T07:06:16Z</time>
      </trkpt>
      <trkpt lat="44.25125" lon="0.74006">
        <ele>159.6</ele>
        <time>2021-05-09T07:06:19Z</time>
      </trkpt>
      <trkpt lat="44.25127" lon="0.74006">
        <ele>159.4</ele>
        <time>2021-05-09T07:06:21Z</time>
      </trkpt>
      <trkpt lat="44.2513" lon="0.74007">
        <ele>159.2</ele>
        <time>2021-05-09T07:06:23Z</time>
      </trkpt>
      <trkpt lat="44.25132" lon="0.74008">
        <ele>159.2</ele>
        <time>2021-05-09T07:06:25Z</time>
      </trkpt>
      <trkpt lat="44.25135" lon="0.74008">
        <ele>159</ele>
        <time>2021-05-09T07:06:27Z</time>
      </trkpt>
      <trkpt lat="44.25137" lon="0.74008">
        <ele>159</ele>
        <time>2021-05-09T07:06:29Z</time>
      </trkpt>
      <trkpt lat="44.25139" lon="0.74009">
        <ele>158.8</ele>
        <time>2021-05-09T07:06:32Z</time>
      </trkpt>
      <trkpt lat="44.25142" lon="0.74009">
        <ele>158.6</ele>
        <time>2021-05-09T07:06:35Z</time>
      </trkpt>
      <trkpt lat="44.25144" lon="0.74009">
        <ele>158.6</ele>
        <time>2021-05-09T07:06:37Z</time>
      </trkpt>
      <trkpt lat="44.25146" lon="0.74008">
        <ele>158.6</ele>
        <time>2021-05-09T07:06:39Z</time>
      </trkpt>
      <trkpt lat="44.25148" lon="0.74006">
        <ele>158.6</ele>
        <time>2021-05-09T07:06:42Z</time>
      </trkpt>
      <trkpt lat="44.2515" lon="0.74003">
        <ele>158.6</ele>
        <time>2021-05-09T07:06:45Z</time>
      </trkpt>
      <trkpt lat="44.25151" lon="0.74">
        <ele>158.6</ele>
        <time>2021-05-09T07:06:47Z</time>
      </trkpt>
      <trkpt lat="44.25153" lon="0.73998">
        <ele>158.6</ele>
        <time>2021-05-09T07:06:49Z</time>
      </trkpt>
      <trkpt lat="44.25154" lon="0.73995">
        <ele>158.6</ele>
        <time>2021-05-09T07:06:51Z</time>
      </trkpt>
      <trkpt lat="44.25156" lon="0.73993">
        <ele>158.6</ele>
        <time>2021-05-09T07:06:54Z</time>
      </trkpt>
      <trkpt lat="44.25157" lon="0.73991">
        <ele>158.6</ele>
        <time>2021-05-09T07:06:56Z</time>
      </trkpt>
      <trkpt lat="44.25159" lon="0.73988">
        <ele>158.6</ele>
        <time>2021-05-09T07:06:58Z</time>
      </trkpt>
      <trkpt lat="44.25161" lon="0.73986">
        <ele>158.6</ele>
        <time>2021-05-09T07:07:00Z</time>
      </trkpt>
      <trkpt lat="44.25162" lon="0.73984">
        <ele>158.6</ele>
        <time>2021-05-09T07:07:02Z</time>
      </trkpt>
      <trkpt lat="44.25164" lon="0.73981">
        <ele>158.6</ele>
        <time>2021-05-09T07:07:04Z</time>
      </trkpt>
      <trkpt lat="44.25165" lon="0.73979">
        <ele>158.6</ele>
        <time>2021-05-09T07:07:06Z</time>
      </trkpt>
      <trkpt lat="44.25166" lon="0.73977">
        <ele>158.6</ele>
        <time>2021-05-09T07:07:09Z</time>
      </trkpt>
      <trkpt lat="44.25168" lon="0.73975">
        <ele>158.6</ele>
        <time>2021-05-09T07:07:11Z</time>
      </trkpt>
      <trkpt lat="44.2517" lon="0.73973">
        <ele>158.8</ele>
        <time>2021-05-09T07:07:13Z</time>
      </trkpt>
      <trkpt lat="44.25172" lon="0.7397">
        <ele>158.8</ele>
        <time>2021-05-09T07:07:15Z</time>
      </trkpt>
      <trkpt lat="44.25173" lon="0.73967">
        <ele>159</ele>
        <time>2021-05-09T07:07:17Z</time>
      </trkpt>
      <trkpt lat="44.25175" lon="0.73964">
        <ele>159</ele>
        <time>2021-05-09T07:07:19Z</time>
      </trkpt>
      <trkpt lat="44.25176" lon="0.73962">
        <ele>159</ele>
        <time>2021-05-09T07:07:21Z</time>
      </trkpt>
      <trkpt lat="44.25177" lon="0.7396">
        <ele>159</ele>
        <time>2021-05-09T07:07:24Z</time>
      </trkpt>
      <trkpt lat="44.25179" lon="0.73958">
        <ele>159</ele>
        <time>2021-05-09T07:07:26Z</time>
      </trkpt>
      <trkpt lat="44.2518" lon="0.73956">
        <ele>159.2</ele>
        <time>2021-05-09T07:07:28Z</time>
      </trkpt>
      <trkpt lat="44.2518" lon="0.73952">
        <ele>159.2</ele>
        <time>2021-05-09T07:07:30Z</time>
      </trkpt>
      <trkpt lat="44.25182" lon="0.73949">
        <ele>159.2</ele>
        <time>2021-05-09T07:07:32Z</time>
      </trkpt>
      <trkpt lat="44.25183" lon="0.73947">
        <ele>159.4</ele>
        <time>2021-05-09T07:07:34Z</time>
      </trkpt>
      <trkpt lat="44.25185" lon="0.73945">
        <ele>159.4</ele>
        <time>2021-05-09T07:07:36Z</time>
      </trkpt>
      <trkpt lat="44.25187" lon="0.73942">
        <ele>159.4</ele>
        <time>2021-05-09T07:07:38Z</time>
      </trkpt>
      <trkpt lat="44.25188" lon="0.73939">
        <ele>159.4</ele>
        <time>2021-05-09T07:07:40Z</time>
      </trkpt>
      <trkpt lat="44.25189" lon="0.73937">
        <ele>159.6</ele>
        <time>2021-05-09T07:07:43Z</time>
      </trkpt>
      <trkpt lat="44.25196" lon="0.73909">
        <ele>161</ele>
        <time>2021-05-09T07:08:18Z</time>
      </trkpt>
      <trkpt lat="44.25196" lon="0.73907">
        <ele>161.2</ele>
        <time>2021-05-09T07:08:20Z</time>
      </trkpt>
      <trkpt lat="44.25197" lon="0.73904">
        <ele>161.4</ele>
        <time>2021-05-09T07:08:22Z</time>
      </trkpt>
      <trkpt lat="44.25197" lon="0.73901">
        <ele>161.8</ele>
        <time>2021-05-09T07:08:24Z</time>
      </trkpt>
      <trkpt lat="44.25198" lon="0.73898">
        <ele>162</ele>
        <time>2021-05-09T07:08:26Z</time>
      </trkpt>
      <trkpt lat="44.25199" lon="0.73895">
        <ele>162.2</ele>
        <time>2021-05-09T07:08:29Z</time>
      </trkpt>
      <trkpt lat="44.25199" lon="0.73892">
        <ele>162.4</ele>
        <time>2021-05-09T07:08:31Z</time>
      </trkpt>
      <trkpt lat="44.252" lon="0.73889">
        <ele>162.4</ele>
        <time>2021-05-09T07:08:33Z</time>
      </trkpt>
      <trkpt lat="44.252" lon="0.73884">
        <ele>162.6</ele>
        <time>2021-05-09T07:08:35Z</time>
      </trkpt>
      <trkpt lat="44.252" lon="0.7388">
        <ele>162.6</ele>
        <time>2021-05-09T07:08:37Z</time>
      </trkpt>
      <trkpt lat="44.25201" lon="0.73877">
        <ele>162.8</ele>
        <time>2021-05-09T07:08:40Z</time>
      </trkpt>
      <trkpt lat="44.25202" lon="0.73874">
        <ele>163.2</ele>
        <time>2021-05-09T07:08:43Z</time>
      </trkpt>
      <trkpt lat="44.25203" lon="0.73872">
        <ele>163.6</ele>
        <time>2021-05-09T07:08:45Z</time>
      </trkpt>
      <trkpt lat="44.25204" lon="0.73869">
        <ele>163.8</ele>
        <time>2021-05-09T07:08:47Z</time>
      </trkpt>
      <trkpt lat="44.25205" lon="0.73866">
        <ele>164</ele>
        <time>2021-05-09T07:08:49Z</time>
      </trkpt>
      <trkpt lat="44.25206" lon="0.73863">
        <ele>164</ele>
        <time>2021-05-09T07:08:51Z</time>
      </trkpt>
      <trkpt lat="44.25206" lon="0.73859">
        <ele>164.2</ele>
        <time>2021-05-09T07:08:53Z</time>
      </trkpt>
      <trkpt lat="44.25206" lon="0.73855">
        <ele>164.4</ele>
        <time>2021-05-09T07:08:55Z</time>
      </trkpt>
      <trkpt lat="44.25207" lon="0.73852">
        <ele>164.6</ele>
        <time>2021-05-09T07:08:57Z</time>
      </trkpt>
      <trkpt lat="44.25207" lon="0.73849">
        <ele>164.8</ele>
        <time>2021-05-09T07:08:59Z</time>
      </trkpt>
      <trkpt lat="44.25207" lon="0.73845">
        <ele>165</ele>
        <time>2021-05-09T07:09:01Z</time>
      </trkpt>
      <trkpt lat="44.25211" lon="0.73836">
        <ele>166.4</ele>
        <time>2021-05-09T07:09:09Z</time>
      </trkpt>
      <trkpt lat="44.25212" lon="0.73833">
        <ele>166.6</ele>
        <time>2021-05-09T07:09:11Z</time>
      </trkpt>
      <trkpt lat="44.25214" lon="0.73831">
        <ele>166.6</ele>
        <time>2021-05-09T07:09:13Z</time>
      </trkpt>
      <trkpt lat="44.25215" lon="0.73827">
        <ele>166.8</ele>
        <time>2021-05-09T07:09:16Z</time>
      </trkpt>
      <trkpt lat="44.25215" lon="0.73825">
        <ele>166.8</ele>
        <time>2021-05-09T07:09:18Z</time>
      </trkpt>
      <trkpt lat="44.25217" lon="0.73823">
        <ele>167</ele>
        <time>2021-05-09T07:09:21Z</time>
      </trkpt>
      <trkpt lat="44.25218" lon="0.73821">
        <ele>167</ele>
        <time>2021-05-09T07:09:23Z</time>
      </trkpt>
      <trkpt lat="44.25219" lon="0.73817">
        <ele>167</ele>
        <time>2021-05-09T07:09:25Z</time>
      </trkpt>
      <trkpt lat="44.25219" lon="0.73814">
        <ele>167</ele>
        <time>2021-05-09T07:09:28Z</time>
      </trkpt>
      <trkpt lat="44.25219" lon="0.73811">
        <ele>167</ele>
        <time>2021-05-09T07:09:30Z</time>
      </trkpt>
      <trkpt lat="44.2522" lon="0.73807">
        <ele>167.2</ele>
        <time>2021-05-09T07:09:32Z</time>
      </trkpt>
      <trkpt lat="44.25221" lon="0.73804">
        <ele>167.2</ele>
        <time>2021-05-09T07:09:34Z</time>
      </trkpt>
      <trkpt lat="44.25222" lon="0.73801">
        <ele>167.2</ele>
        <time>2021-05-09T07:09:37Z</time>
      </trkpt>
      <trkpt lat="44.25223" lon="0.73798">
        <ele>167.2</ele>
        <time>2021-05-09T07:09:39Z</time>
      </trkpt>
      <trkpt lat="44.25224" lon="0.73795">
        <ele>167</ele>
        <time>2021-05-09T07:09:41Z</time>
      </trkpt>
      <trkpt lat="44.25225" lon="0.73792">
        <ele>167</ele>
        <time>2021-05-09T07:09:43Z</time>
      </trkpt>
      <trkpt lat="44.25227" lon="0.7379">
        <ele>167</ele>
        <time>2021-05-09T07:09:45Z</time>
      </trkpt>
      <trkpt lat="44.25229" lon="0.73789">
        <ele>167</ele>
        <time>2021-05-09T07:09:47Z</time>
      </trkpt>
      <trkpt lat="44.25231" lon="0.73788">
        <ele>167.2</ele>
        <time>2021-05-09T07:09:49Z</time>
      </trkpt>
      <trkpt lat="44.25233" lon="0.73788">
        <ele>167.2</ele>
        <time>2021-05-09T07:09:51Z</time>
      </trkpt>
      <trkpt lat="44.25235" lon="0.73788">
        <ele>167.4</ele>
        <time>2021-05-09T07:09:53Z</time>
      </trkpt>
      <trkpt lat="44.25238" lon="0.73788">
        <ele>167.4</ele>
        <time>2021-05-09T07:09:55Z</time>
      </trkpt>
      <trkpt lat="44.2524" lon="0.73788">
        <ele>167.6</ele>
        <time>2021-05-09T07:09:57Z</time>
      </trkpt>
      <trkpt lat="44.25242" lon="0.73787">
        <ele>167.8</ele>
        <time>2021-05-09T07:09:59Z</time>
      </trkpt>
      <trkpt lat="44.25244" lon="0.73787">
        <ele>168</ele>
        <time>2021-05-09T07:10:02Z</time>
      </trkpt>
      <trkpt lat="44.25246" lon="0.73786">
        <ele>168.2</ele>
        <time>2021-05-09T07:10:04Z</time>
      </trkpt>
      <trkpt lat="44.25248" lon="0.73785">
        <ele>168.2</ele>
        <time>2021-05-09T07:10:06Z</time>
      </trkpt>
      <trkpt lat="44.2525" lon="0.73784">
        <ele>168.4</ele>
        <time>2021-05-09T07:10:09Z</time>
      </trkpt>
      <trkpt lat="44.25252" lon="0.73784">
        <ele>168.6</ele>
        <time>2021-05-09T07:10:11Z</time>
      </trkpt>
      <trkpt lat="44.25254" lon="0.73783">
        <ele>168.6</ele>
        <time>2021-05-09T07:10:13Z</time>
      </trkpt>
      <trkpt lat="44.25257" lon="0.73782">
        <ele>168.8</ele>
        <time>2021-05-09T07:10:15Z</time>
      </trkpt>
      <trkpt lat="44.25259" lon="0.73781">
        <ele>169</ele>
        <time>2021-05-09T07:10:17Z</time>
      </trkpt>
      <trkpt lat="44.2526" lon="0.7378">
        <ele>169.2</ele>
        <time>2021-05-09T07:10:19Z</time>
      </trkpt>
      <trkpt lat="44.25262" lon="0.7378">
        <ele>169.4</ele>
        <time>2021-05-09T07:10:21Z</time>
      </trkpt>
      <trkpt lat="44.25265" lon="0.73778">
        <ele>169.6</ele>
        <time>2021-05-09T07:10:24Z</time>
      </trkpt>
      <trkpt lat="44.25268" lon="0.73777">
        <ele>170</ele>
        <time>2021-05-09T07:10:27Z</time>
      </trkpt>
      <trkpt lat="44.2527" lon="0.73776">
        <ele>170</ele>
        <time>2021-05-09T07:10:29Z</time>
      </trkpt>
      <trkpt lat="44.25272" lon="0.73775">
        <ele>170.2</ele>
        <time>2021-05-09T07:10:31Z</time>
      </trkpt>
      <trkpt lat="44.25274" lon="0.73774">
        <ele>170.4</ele>
        <time>2021-05-09T07:10:33Z</time>
      </trkpt>
      <trkpt lat="44.25276" lon="0.73774">
        <ele>170.8</ele>
        <time>2021-05-09T07:10:35Z</time>
      </trkpt>
      <trkpt lat="44.25279" lon="0.73773">
        <ele>171</ele>
        <time>2021-05-09T07:10:38Z</time>
      </trkpt>
      <trkpt lat="44.25281" lon="0.73772">
        <ele>171.2</ele>
        <time>2021-05-09T07:10:40Z</time>
      </trkpt>
      <trkpt lat="44.25283" lon="0.73771">
        <ele>171.4</ele>
        <time>2021-05-09T07:10:43Z</time>
      </trkpt>
      <trkpt lat="44.25285" lon="0.7377">
        <ele>171.6</ele>
        <time>2021-05-09T07:10:46Z</time>
      </trkpt>
      <trkpt lat="44.25287" lon="0.73769">
        <ele>171.8</ele>
        <time>2021-05-09T07:10:48Z</time>
      </trkpt>
      <trkpt lat="44.2529" lon="0.73767">
        <ele>171.8</ele>
        <time>2021-05-09T07:10:50Z</time>
      </trkpt>
      <trkpt lat="44.25292" lon="0.73766">
        <ele>171.8</ele>
        <time>2021-05-09T07:10:52Z</time>
      </trkpt>
      <trkpt lat="44.25294" lon="0.73765">
        <ele>172</ele>
        <time>2021-05-09T07:10:54Z</time>
      </trkpt>
      <trkpt lat="44.25296" lon="0.73763">
        <ele>172.2</ele>
        <time>2021-05-09T07:10:57Z</time>
      </trkpt>
      <trkpt lat="44.25299" lon="0.73761">
        <ele>172.6</ele>
        <time>2021-05-09T07:11:00Z</time>
      </trkpt>
      <trkpt lat="44.253" lon="0.7376">
        <ele>172.6</ele>
        <time>2021-05-09T07:11:02Z</time>
      </trkpt>
      <trkpt lat="44.25303" lon="0.73758">
        <ele>172.8</ele>
        <time>2021-05-09T07:11:04Z</time>
      </trkpt>
      <trkpt lat="44.25305" lon="0.73756">
        <ele>173.2</ele>
        <time>2021-05-09T07:11:07Z</time>
      </trkpt>
      <trkpt lat="44.25308" lon="0.73755">
        <ele>173.4</ele>
        <time>2021-05-09T07:11:10Z</time>
      </trkpt>
      <trkpt lat="44.2531" lon="0.73753">
        <ele>173.8</ele>
        <time>2021-05-09T07:11:13Z</time>
      </trkpt>
      <trkpt lat="44.25312" lon="0.73752">
        <ele>173.8</ele>
        <time>2021-05-09T07:11:15Z</time>
      </trkpt>
      <trkpt lat="44.25314" lon="0.73751">
        <ele>174</ele>
        <time>2021-05-09T07:11:17Z</time>
      </trkpt>
      <trkpt lat="44.25316" lon="0.7375">
        <ele>174</ele>
        <time>2021-05-09T07:11:19Z</time>
      </trkpt>
      <trkpt lat="44.25318" lon="0.73748">
        <ele>174.4</ele>
        <time>2021-05-09T07:11:22Z</time>
      </trkpt>
      <trkpt lat="44.2532" lon="0.73746">
        <ele>175</ele>
        <time>2021-05-09T07:11:25Z</time>
      </trkpt>
      <trkpt lat="44.25322" lon="0.73745">
        <ele>175.4</ele>
        <time>2021-05-09T07:11:28Z</time>
      </trkpt>
      <trkpt lat="44.25324" lon="0.73743">
        <ele>175.6</ele>
        <time>2021-05-09T07:11:30Z</time>
      </trkpt>
      <trkpt lat="44.25326" lon="0.73742">
        <ele>175.6</ele>
        <time>2021-05-09T07:11:32Z</time>
      </trkpt>
      <trkpt lat="44.25328" lon="0.7374">
        <ele>175.8</ele>
        <time>2021-05-09T07:11:34Z</time>
      </trkpt>
      <trkpt lat="44.2533" lon="0.73739">
        <ele>176</ele>
        <time>2021-05-09T07:11:36Z</time>
      </trkpt>
      <trkpt lat="44.25332" lon="0.73737">
        <ele>176.2</ele>
        <time>2021-05-09T07:11:38Z</time>
      </trkpt>
      <trkpt lat="44.25333" lon="0.73736">
        <ele>176.6</ele>
        <time>2021-05-09T07:11:40Z</time>
      </trkpt>
      <trkpt lat="44.25335" lon="0.73735">
        <ele>176.8</ele>
        <time>2021-05-09T07:11:42Z</time>
      </trkpt>
      <trkpt lat="44.25337" lon="0.73735">
        <ele>177.2</ele>
        <time>2021-05-09T07:11:44Z</time>
      </trkpt>
      <trkpt lat="44.2534" lon="0.73733">
        <ele>177.4</ele>
        <time>2021-05-09T07:11:46Z</time>
      </trkpt>
      <trkpt lat="44.25341" lon="0.73732">
        <ele>177.8</ele>
        <time>2021-05-09T07:11:48Z</time>
      </trkpt>
      <trkpt lat="44.25343" lon="0.73731">
        <ele>178</ele>
        <time>2021-05-09T07:11:50Z</time>
      </trkpt>
      <trkpt lat="44.25345" lon="0.73729">
        <ele>178.2</ele>
        <time>2021-05-09T07:11:52Z</time>
      </trkpt>
      <trkpt lat="44.25348" lon="0.73728">
        <ele>178.4</ele>
        <time>2021-05-09T07:11:54Z</time>
      </trkpt>
      <trkpt lat="44.25349" lon="0.73727">
        <ele>178.6</ele>
        <time>2021-05-09T07:11:56Z</time>
      </trkpt>
      <trkpt lat="44.25351" lon="0.73726">
        <ele>178.8</ele>
        <time>2021-05-09T07:11:58Z</time>
      </trkpt>
      <trkpt lat="44.25353" lon="0.73724">
        <ele>178.8</ele>
        <time>2021-05-09T07:12:00Z</time>
      </trkpt>
      <trkpt lat="44.25356" lon="0.73723">
        <ele>179</ele>
        <time>2021-05-09T07:12:03Z</time>
      </trkpt>
      <trkpt lat="44.25358" lon="0.73721">
        <ele>179</ele>
        <time>2021-05-09T07:12:05Z</time>
      </trkpt>
      <trkpt lat="44.25359" lon="0.7372">
        <ele>179.2</ele>
        <time>2021-05-09T07:12:07Z</time>
      </trkpt>
      <trkpt lat="44.25362" lon="0.73719">
        <ele>179.6</ele>
        <time>2021-05-09T07:12:09Z</time>
      </trkpt>
      <trkpt lat="44.25364" lon="0.73718">
        <ele>179.8</ele>
        <time>2021-05-09T07:12:11Z</time>
      </trkpt>
      <trkpt lat="44.25366" lon="0.73717">
        <ele>180.2</ele>
        <time>2021-05-09T07:12:14Z</time>
      </trkpt>
      <trkpt lat="44.25369" lon="0.73716">
        <ele>180.6</ele>
        <time>2021-05-09T07:12:17Z</time>
      </trkpt>
      <trkpt lat="44.25371" lon="0.73714">
        <ele>181</ele>
        <time>2021-05-09T07:12:20Z</time>
      </trkpt>
      <trkpt lat="44.25373" lon="0.73713">
        <ele>181.4</ele>
        <time>2021-05-09T07:12:23Z</time>
      </trkpt>
      <trkpt lat="44.25375" lon="0.73712">
        <ele>181.6</ele>
        <time>2021-05-09T07:12:25Z</time>
      </trkpt>
      <trkpt lat="44.25378" lon="0.7371">
        <ele>182</ele>
        <time>2021-05-09T07:12:28Z</time>
      </trkpt>
      <trkpt lat="44.2538" lon="0.73709">
        <ele>182</ele>
        <time>2021-05-09T07:12:30Z</time>
      </trkpt>
      <trkpt lat="44.25381" lon="0.73707">
        <ele>182.2</ele>
        <time>2021-05-09T07:12:32Z</time>
      </trkpt>
      <trkpt lat="44.25383" lon="0.73707">
        <ele>182.2</ele>
        <time>2021-05-09T07:12:35Z</time>
      </trkpt>
      <trkpt lat="44.25385" lon="0.73705">
        <ele>182.4</ele>
        <time>2021-05-09T07:12:37Z</time>
      </trkpt>
      <trkpt lat="44.25387" lon="0.73703">
        <ele>182.4</ele>
        <time>2021-05-09T07:12:39Z</time>
      </trkpt>
      <trkpt lat="44.25389" lon="0.73702">
        <ele>182.6</ele>
        <time>2021-05-09T07:12:41Z</time>
      </trkpt>
      <trkpt lat="44.25391" lon="0.737">
        <ele>182.8</ele>
        <time>2021-05-09T07:12:43Z</time>
      </trkpt>
      <trkpt lat="44.25393" lon="0.73698">
        <ele>183</ele>
        <time>2021-05-09T07:12:45Z</time>
      </trkpt>
      <trkpt lat="44.25395" lon="0.73697">
        <ele>183.2</ele>
        <time>2021-05-09T07:12:47Z</time>
      </trkpt>
      <trkpt lat="44.25397" lon="0.73696">
        <ele>183.4</ele>
        <time>2021-05-09T07:12:50Z</time>
      </trkpt>
      <trkpt lat="44.25399" lon="0.73695">
        <ele>183.6</ele>
        <time>2021-05-09T07:12:52Z</time>
      </trkpt>
      <trkpt lat="44.25401" lon="0.73693">
        <ele>183.8</ele>
        <time>2021-05-09T07:12:54Z</time>
      </trkpt>
      <trkpt lat="44.25403" lon="0.73692">
        <ele>184</ele>
        <time>2021-05-09T07:12:56Z</time>
      </trkpt>
      <trkpt lat="44.25405" lon="0.7369">
        <ele>184</ele>
        <time>2021-05-09T07:12:57Z</time>
      </trkpt>
      <trkpt lat="44.25407" lon="0.73689">
        <ele>184</ele>
        <time>2021-05-09T07:12:59Z</time>
      </trkpt>
      <trkpt lat="44.25409" lon="0.73687">
        <ele>184</ele>
        <time>2021-05-09T07:13:00Z</time>
      </trkpt>
      <trkpt lat="44.25411" lon="0.73685">
        <ele>184.2</ele>
        <time>2021-05-09T07:13:02Z</time>
      </trkpt>
      <trkpt lat="44.25412" lon="0.73683">
        <ele>184.2</ele>
        <time>2021-05-09T07:13:03Z</time>
      </trkpt>
      <trkpt lat="44.25415" lon="0.73682">
        <ele>184.4</ele>
        <time>2021-05-09T07:13:05Z</time>
      </trkpt>
      <trkpt lat="44.25417" lon="0.7368">
        <ele>184.4</ele>
        <time>2021-05-09T07:13:07Z</time>
      </trkpt>
      <trkpt lat="44.25419" lon="0.73678">
        <ele>184.4</ele>
        <time>2021-05-09T07:13:10Z</time>
      </trkpt>
      <trkpt lat="44.25421" lon="0.73677">
        <ele>184.4</ele>
        <time>2021-05-09T07:13:13Z</time>
      </trkpt>
      <trkpt lat="44.25423" lon="0.73676">
        <ele>184.4</ele>
        <time>2021-05-09T07:13:16Z</time>
      </trkpt>
      <trkpt lat="44.25426" lon="0.73674">
        <ele>184.6</ele>
        <time>2021-05-09T07:13:18Z</time>
      </trkpt>
      <trkpt lat="44.25427" lon="0.73673">
        <ele>184.6</ele>
        <time>2021-05-09T07:13:20Z</time>
      </trkpt>
      <trkpt lat="44.25429" lon="0.73672">
        <ele>184.8</ele>
        <time>2021-05-09T07:13:23Z</time>
      </trkpt>
      <trkpt lat="44.25431" lon="0.7367">
        <ele>184.8</ele>
        <time>2021-05-09T07:13:25Z</time>
      </trkpt>
      <trkpt lat="44.25433" lon="0.7367">
        <ele>185</ele>
        <time>2021-05-09T07:13:27Z</time>
      </trkpt>
      <trkpt lat="44.25435" lon="0.73669">
        <ele>185.2</ele>
        <time>2021-05-09T07:13:29Z</time>
      </trkpt>
      <trkpt lat="44.25437" lon="0.73667">
        <ele>185.2</ele>
        <time>2021-05-09T07:13:31Z</time>
      </trkpt>
      <trkpt lat="44.25439" lon="0.73666">
        <ele>185.4</ele>
        <time>2021-05-09T07:13:34Z</time>
      </trkpt>
      <trkpt lat="44.25441" lon="0.73665">
        <ele>185.6</ele>
        <time>2021-05-09T07:13:36Z</time>
      </trkpt>
      <trkpt lat="44.25444" lon="0.73663">
        <ele>185.6</ele>
        <time>2021-05-09T07:13:38Z</time>
      </trkpt>
      <trkpt lat="44.25445" lon="0.73661">
        <ele>185.8</ele>
        <time>2021-05-09T07:13:40Z</time>
      </trkpt>
      <trkpt lat="44.25448" lon="0.73659">
        <ele>185.8</ele>
        <time>2021-05-09T07:13:42Z</time>
      </trkpt>
      <trkpt lat="44.2545" lon="0.73658">
        <ele>186</ele>
        <time>2021-05-09T07:13:44Z</time>
      </trkpt>
      <trkpt lat="44.25452" lon="0.73656">
        <ele>186.2</ele>
        <time>2021-05-09T07:13:47Z</time>
      </trkpt>
      <trkpt lat="44.25454" lon="0.73655">
        <ele>186.2</ele>
        <time>2021-05-09T07:13:49Z</time>
      </trkpt>
      <trkpt lat="44.25456" lon="0.73653">
        <ele>186.4</ele>
        <time>2021-05-09T07:13:51Z</time>
      </trkpt>
      <trkpt lat="44.25459" lon="0.73651">
        <ele>186.4</ele>
        <time>2021-05-09T07:13:53Z</time>
      </trkpt>
      <trkpt lat="44.25462" lon="0.7365">
        <ele>186.2</ele>
        <time>2021-05-09T07:13:55Z</time>
      </trkpt>
      <trkpt lat="44.25465" lon="0.73647">
        <ele>186.2</ele>
        <time>2021-05-09T07:13:57Z</time>
      </trkpt>
      <trkpt lat="44.25467" lon="0.73646">
        <ele>186.2</ele>
        <time>2021-05-09T07:13:59Z</time>
      </trkpt>
      <trkpt lat="44.25468" lon="0.73646">
        <ele>186.2</ele>
        <time>2021-05-09T07:14:01Z</time>
      </trkpt>
      <trkpt lat="44.2547" lon="0.73645">
        <ele>186.2</ele>
        <time>2021-05-09T07:14:03Z</time>
      </trkpt>
      <trkpt lat="44.25473" lon="0.73645">
        <ele>186.2</ele>
        <time>2021-05-09T07:14:05Z</time>
      </trkpt>
      <trkpt lat="44.25475" lon="0.73644">
        <ele>186.2</ele>
        <time>2021-05-09T07:14:07Z</time>
      </trkpt>
      <trkpt lat="44.25478" lon="0.73644">
        <ele>186</ele>
        <time>2021-05-09T07:14:10Z</time>
      </trkpt>
      <trkpt lat="44.2548" lon="0.73645">
        <ele>186.2</ele>
        <time>2021-05-09T07:14:12Z</time>
      </trkpt>
      <trkpt lat="44.25482" lon="0.73646">
        <ele>186.2</ele>
        <time>2021-05-09T07:14:14Z</time>
      </trkpt>
      <trkpt lat="44.25484" lon="0.73646">
        <ele>186.2</ele>
        <time>2021-05-09T07:14:16Z</time>
      </trkpt>
      <trkpt lat="44.25487" lon="0.73647">
        <ele>186.4</ele>
        <time>2021-05-09T07:14:18Z</time>
      </trkpt>
      <trkpt lat="44.25489" lon="0.7365">
        <ele>186.4</ele>
        <time>2021-05-09T07:14:20Z</time>
      </trkpt>
      <trkpt lat="44.2549" lon="0.73653">
        <ele>186.4</ele>
        <time>2021-05-09T07:14:22Z</time>
      </trkpt>
      <trkpt lat="44.2549" lon="0.73656">
        <ele>186.4</ele>
        <time>2021-05-09T07:14:24Z</time>
      </trkpt>
      <trkpt lat="44.25491" lon="0.73659">
        <ele>186.4</ele>
        <time>2021-05-09T07:14:26Z</time>
      </trkpt>
      <trkpt lat="44.25491" lon="0.73662">
        <ele>186.6</ele>
        <time>2021-05-09T07:14:28Z</time>
      </trkpt>
      <trkpt lat="44.25491" lon="0.73665">
        <ele>186.6</ele>
        <time>2021-05-09T07:14:30Z</time>
      </trkpt>
      <trkpt lat="44.25491" lon="0.73668">
        <ele>186.6</ele>
        <time>2021-05-09T07:14:32Z</time>
      </trkpt>
      <trkpt lat="44.25491" lon="0.7367">
        <ele>186.6</ele>
        <time>2021-05-09T07:14:34Z</time>
      </trkpt>
      <trkpt lat="44.25491" lon="0.73674">
        <ele>186.4</ele>
        <time>2021-05-09T07:14:36Z</time>
      </trkpt>
      <trkpt lat="44.25492" lon="0.73676">
        <ele>186.2</ele>
        <time>2021-05-09T07:14:38Z</time>
      </trkpt>
      <trkpt lat="44.25492" lon="0.73679">
        <ele>186</ele>
        <time>2021-05-09T07:14:40Z</time>
      </trkpt>
      <trkpt lat="44.25492" lon="0.73682">
        <ele>186</ele>
        <time>2021-05-09T07:14:42Z</time>
      </trkpt>
      <trkpt lat="44.25493" lon="0.73685">
        <ele>186</ele>
        <time>2021-05-09T07:14:44Z</time>
      </trkpt>
      <trkpt lat="44.25493" lon="0.73689">
        <ele>186</ele>
        <time>2021-05-09T07:14:46Z</time>
      </trkpt>
      <trkpt lat="44.25493" lon="0.73691">
        <ele>186</ele>
        <time>2021-05-09T07:14:48Z</time>
      </trkpt>
      <trkpt lat="44.25494" lon="0.73695">
        <ele>185.8</ele>
        <time>2021-05-09T07:14:50Z</time>
      </trkpt>
      <trkpt lat="44.25494" lon="0.73698">
        <ele>185.8</ele>
        <time>2021-05-09T07:14:52Z</time>
      </trkpt>
      <trkpt lat="44.25494" lon="0.73701">
        <ele>185.8</ele>
        <time>2021-05-09T07:14:54Z</time>
      </trkpt>
      <trkpt lat="44.25494" lon="0.73704">
        <ele>185.8</ele>
        <time>2021-05-09T07:14:56Z</time>
      </trkpt>
      <trkpt lat="44.25494" lon="0.73707">
        <ele>185.8</ele>
        <time>2021-05-09T07:14:58Z</time>
      </trkpt>
      <trkpt lat="44.25493" lon="0.7371">
        <ele>186</ele>
        <time>2021-05-09T07:15:00Z</time>
      </trkpt>
      <trkpt lat="44.25493" lon="0.73713">
        <ele>186.2</ele>
        <time>2021-05-09T07:15:02Z</time>
      </trkpt>
      <trkpt lat="44.25493" lon="0.73716">
        <ele>186.6</ele>
        <time>2021-05-09T07:15:04Z</time>
      </trkpt>
      <trkpt lat="44.25493" lon="0.7372">
        <ele>186.8</ele>
        <time>2021-05-09T07:15:07Z</time>
      </trkpt>
      <trkpt lat="44.25493" lon="0.73723">
        <ele>187</ele>
        <time>2021-05-09T07:15:09Z</time>
      </trkpt>
      <trkpt lat="44.25493" lon="0.73726">
        <ele>187.2</ele>
        <time>2021-05-09T07:15:11Z</time>
      </trkpt>
      <trkpt lat="44.25492" lon="0.73729">
        <ele>187.4</ele>
        <time>2021-05-09T07:15:13Z</time>
      </trkpt>
      <trkpt lat="44.25493" lon="0.73732">
        <ele>187.4</ele>
        <time>2021-05-09T07:15:15Z</time>
      </trkpt>
      <trkpt lat="44.25493" lon="0.73735">
        <ele>187.8</ele>
        <time>2021-05-09T07:15:18Z</time>
      </trkpt>
      <trkpt lat="44.25492" lon="0.73738">
        <ele>188</ele>
        <time>2021-05-09T07:15:20Z</time>
      </trkpt>
      <trkpt lat="44.25494" lon="0.73742">
        <ele>188.2</ele>
        <time>2021-05-09T07:15:23Z</time>
      </trkpt>
      <trkpt lat="44.25494" lon="0.73744">
        <ele>188.4</ele>
        <time>2021-05-09T07:15:25Z</time>
      </trkpt>
      <trkpt lat="44.25494" lon="0.73748">
        <ele>188.6</ele>
        <time>2021-05-09T07:15:28Z</time>
      </trkpt>
      <trkpt lat="44.25493" lon="0.7375">
        <ele>188.6</ele>
        <time>2021-05-09T07:15:29Z</time>
      </trkpt>
      <trkpt lat="44.25492" lon="0.73754">
        <ele>188.8</ele>
        <time>2021-05-09T07:15:31Z</time>
      </trkpt>
      <trkpt lat="44.25492" lon="0.73758">
        <ele>188.8</ele>
        <time>2021-05-09T07:15:33Z</time>
      </trkpt>
      <trkpt lat="44.25492" lon="0.73762">
        <ele>189</ele>
        <time>2021-05-09T07:15:36Z</time>
      </trkpt>
      <trkpt lat="44.25492" lon="0.73764">
        <ele>189.2</ele>
        <time>2021-05-09T07:15:38Z</time>
      </trkpt>
      <trkpt lat="44.25491" lon="0.73768">
        <ele>189.2</ele>
        <time>2021-05-09T07:15:40Z</time>
      </trkpt>
      <trkpt lat="44.25492" lon="0.73772">
        <ele>189.4</ele>
        <time>2021-05-09T07:15:42Z</time>
      </trkpt>
      <trkpt lat="44.25492" lon="0.73776">
        <ele>189.6</ele>
        <time>2021-05-09T07:15:44Z</time>
      </trkpt>
      <trkpt lat="44.25492" lon="0.73779">
        <ele>189.8</ele>
        <time>2021-05-09T07:15:46Z</time>
      </trkpt>
      <trkpt lat="44.25493" lon="0.73782">
        <ele>190.2</ele>
        <time>2021-05-09T07:15:49Z</time>
      </trkpt>
      <trkpt lat="44.25494" lon="0.73784">
        <ele>191.2</ele>
        <time>2021-05-09T07:15:59Z</time>
      </trkpt>
      <trkpt lat="44.25494" lon="0.73786">
        <ele>191.6</ele>
        <time>2021-05-09T07:16:02Z</time>
      </trkpt>
      <trkpt lat="44.25494" lon="0.73791">
        <ele>192</ele>
        <time>2021-05-09T07:16:07Z</time>
      </trkpt>
      <trkpt lat="44.25493" lon="0.73794">
        <ele>192.2</ele>
        <time>2021-05-09T07:16:09Z</time>
      </trkpt>
      <trkpt lat="44.25492" lon="0.73797">
        <ele>192.4</ele>
        <time>2021-05-09T07:16:11Z</time>
      </trkpt>
      <trkpt lat="44.25492" lon="0.738">
        <ele>192.4</ele>
        <time>2021-05-09T07:16:13Z</time>
      </trkpt>
      <trkpt lat="44.25492" lon="0.73803">
        <ele>192.6</ele>
        <time>2021-05-09T07:16:15Z</time>
      </trkpt>
      <trkpt lat="44.25493" lon="0.73807">
        <ele>192.8</ele>
        <time>2021-05-09T07:16:17Z</time>
      </trkpt>
      <trkpt lat="44.25493" lon="0.7381">
        <ele>193</ele>
        <time>2021-05-09T07:16:19Z</time>
      </trkpt>
      <trkpt lat="44.25493" lon="0.73812">
        <ele>193.2</ele>
        <time>2021-05-09T07:16:21Z</time>
      </trkpt>
      <trkpt lat="44.25493" lon="0.73816">
        <ele>193.6</ele>
        <time>2021-05-09T07:16:24Z</time>
      </trkpt>
      <trkpt lat="44.25494" lon="0.73818">
        <ele>193.8</ele>
        <time>2021-05-09T07:16:26Z</time>
      </trkpt>
      <trkpt lat="44.25495" lon="0.73821">
        <ele>193.8</ele>
        <time>2021-05-09T07:16:28Z</time>
      </trkpt>
      <trkpt lat="44.25496" lon="0.73824">
        <ele>194</ele>
        <time>2021-05-09T07:16:30Z</time>
      </trkpt>
      <trkpt lat="44.25497" lon="0.73827">
        <ele>194.4</ele>
        <time>2021-05-09T07:16:32Z</time>
      </trkpt>
      <trkpt lat="44.25497" lon="0.7383">
        <ele>194.6</ele>
        <time>2021-05-09T07:16:34Z</time>
      </trkpt>
      <trkpt lat="44.25498" lon="0.73834">
        <ele>194.8</ele>
        <time>2021-05-09T07:16:36Z</time>
      </trkpt>
      <trkpt lat="44.25499" lon="0.73837">
        <ele>195.2</ele>
        <time>2021-05-09T07:16:39Z</time>
      </trkpt>
      <trkpt lat="44.25499" lon="0.7384">
        <ele>195.4</ele>
        <time>2021-05-09T07:16:41Z</time>
      </trkpt>
      <trkpt lat="44.25499" lon="0.73843">
        <ele>195.4</ele>
        <time>2021-05-09T07:16:43Z</time>
      </trkpt>
      <trkpt lat="44.25499" lon="0.73846">
        <ele>195.6</ele>
        <time>2021-05-09T07:16:46Z</time>
      </trkpt>
      <trkpt lat="44.25499" lon="0.73849">
        <ele>195.6</ele>
        <time>2021-05-09T07:16:49Z</time>
      </trkpt>
      <trkpt lat="44.25499" lon="0.73852">
        <ele>196</ele>
        <time>2021-05-09T07:16:51Z</time>
      </trkpt>
      <trkpt lat="44.25499" lon="0.73855">
        <ele>196.2</ele>
        <time>2021-05-09T07:16:53Z</time>
      </trkpt>
      <trkpt lat="44.25498" lon="0.73858">
        <ele>196.2</ele>
        <time>2021-05-09T07:16:55Z</time>
      </trkpt>
      <trkpt lat="44.25497" lon="0.73861">
        <ele>196.4</ele>
        <time>2021-05-09T07:16:57Z</time>
      </trkpt>
      <trkpt lat="44.25497" lon="0.73865">
        <ele>196.4</ele>
        <time>2021-05-09T07:16:59Z</time>
      </trkpt>
      <trkpt lat="44.25498" lon="0.73867">
        <ele>196.4</ele>
        <time>2021-05-09T07:17:01Z</time>
      </trkpt>
      <trkpt lat="44.25498" lon="0.7387">
        <ele>196.4</ele>
        <time>2021-05-09T07:17:03Z</time>
      </trkpt>
      <trkpt lat="44.25497" lon="0.73874">
        <ele>196.4</ele>
        <time>2021-05-09T07:17:06Z</time>
      </trkpt>
      <trkpt lat="44.25497" lon="0.73877">
        <ele>196.4</ele>
        <time>2021-05-09T07:17:08Z</time>
      </trkpt>
      <trkpt lat="44.25496" lon="0.7388">
        <ele>196.6</ele>
        <time>2021-05-09T07:17:10Z</time>
      </trkpt>
      <trkpt lat="44.25494" lon="0.73883">
        <ele>196.6</ele>
        <time>2021-05-09T07:17:12Z</time>
      </trkpt>
      <trkpt lat="44.25494" lon="0.73886">
        <ele>196.8</ele>
        <time>2021-05-09T07:17:14Z</time>
      </trkpt>
      <trkpt lat="44.25493" lon="0.73889">
        <ele>197</ele>
        <time>2021-05-09T07:17:16Z</time>
      </trkpt>
      <trkpt lat="44.25492" lon="0.73893">
        <ele>197.2</ele>
        <time>2021-05-09T07:17:18Z</time>
      </trkpt>
      <trkpt lat="44.25491" lon="0.73895">
        <ele>197.2</ele>
        <time>2021-05-09T07:17:20Z</time>
      </trkpt>
      <trkpt lat="44.25491" lon="0.73898">
        <ele>197.2</ele>
        <time>2021-05-09T07:17:22Z</time>
      </trkpt>
      <trkpt lat="44.2549" lon="0.73901">
        <ele>197.4</ele>
        <time>2021-05-09T07:17:24Z</time>
      </trkpt>
      <trkpt lat="44.25489" lon="0.73904">
        <ele>197.4</ele>
        <time>2021-05-09T07:17:27Z</time>
      </trkpt>
      <trkpt lat="44.25489" lon="0.73908">
        <ele>197.4</ele>
        <time>2021-05-09T07:17:29Z</time>
      </trkpt>
      <trkpt lat="44.25488" lon="0.7391">
        <ele>197.6</ele>
        <time>2021-05-09T07:17:31Z</time>
      </trkpt>
      <trkpt lat="44.25487" lon="0.73913">
        <ele>197.8</ele>
        <time>2021-05-09T07:17:34Z</time>
      </trkpt>
      <trkpt lat="44.25487" lon="0.73916">
        <ele>197.8</ele>
        <time>2021-05-09T07:17:36Z</time>
      </trkpt>
      <trkpt lat="44.25487" lon="0.73919">
        <ele>198</ele>
        <time>2021-05-09T07:17:39Z</time>
      </trkpt>
      <trkpt lat="44.25486" lon="0.73922">
        <ele>198</ele>
        <time>2021-05-09T07:17:41Z</time>
      </trkpt>
      <trkpt lat="44.25485" lon="0.73925">
        <ele>198.2</ele>
        <time>2021-05-09T07:17:43Z</time>
      </trkpt>
      <trkpt lat="44.25485" lon="0.73929">
        <ele>198.4</ele>
        <time>2021-05-09T07:17:45Z</time>
      </trkpt>
      <trkpt lat="44.25485" lon="0.73933">
        <ele>198.6</ele>
        <time>2021-05-09T07:17:49Z</time>
      </trkpt>
      <trkpt lat="44.25484" lon="0.73937">
        <ele>198.6</ele>
        <time>2021-05-09T07:17:51Z</time>
      </trkpt>
      <trkpt lat="44.25484" lon="0.7394">
        <ele>198.6</ele>
        <time>2021-05-09T07:17:53Z</time>
      </trkpt>
      <trkpt lat="44.25485" lon="0.73943">
        <ele>198.8</ele>
        <time>2021-05-09T07:17:55Z</time>
      </trkpt>
      <trkpt lat="44.25485" lon="0.73947">
        <ele>198.8</ele>
        <time>2021-05-09T07:17:57Z</time>
      </trkpt>
      <trkpt lat="44.25486" lon="0.73949">
        <ele>199</ele>
        <time>2021-05-09T07:17:58Z</time>
      </trkpt>
      <trkpt lat="44.25487" lon="0.73952">
        <ele>199</ele>
        <time>2021-05-09T07:17:59Z</time>
      </trkpt>
      <trkpt lat="44.25486" lon="0.73954">
        <ele>199</ele>
        <time>2021-05-09T07:18:00Z</time>
      </trkpt>
      <trkpt lat="44.25486" lon="0.73958">
        <ele>199</ele>
        <time>2021-05-09T07:18:02Z</time>
      </trkpt>
      <trkpt lat="44.25486" lon="0.7396">
        <ele>199.2</ele>
        <time>2021-05-09T07:18:04Z</time>
      </trkpt>
      <trkpt lat="44.25486" lon="0.73964">
        <ele>199.4</ele>
        <time>2021-05-09T07:18:07Z</time>
      </trkpt>
      <trkpt lat="44.25487" lon="0.73968">
        <ele>199.6</ele>
        <time>2021-05-09T07:18:09Z</time>
      </trkpt>
      <trkpt lat="44.25487" lon="0.73971">
        <ele>199.8</ele>
        <time>2021-05-09T07:18:11Z</time>
      </trkpt>
      <trkpt lat="44.25488" lon="0.73975">
        <ele>200</ele>
        <time>2021-05-09T07:18:13Z</time>
      </trkpt>
      <trkpt lat="44.25488" lon="0.73978">
        <ele>200.2</ele>
        <time>2021-05-09T07:18:15Z</time>
      </trkpt>
      <trkpt lat="44.25489" lon="0.73982">
        <ele>200</ele>
        <time>2021-05-09T07:18:17Z</time>
      </trkpt>
      <trkpt lat="44.25489" lon="0.73985">
        <ele>200</ele>
        <time>2021-05-09T07:18:20Z</time>
      </trkpt>
      <trkpt lat="44.25489" lon="0.73988">
        <ele>199.8</ele>
        <time>2021-05-09T07:18:23Z</time>
      </trkpt>
      <trkpt lat="44.25489" lon="0.73992">
        <ele>200</ele>
        <time>2021-05-09T07:18:25Z</time>
      </trkpt>
      <trkpt lat="44.25489" lon="0.73995">
        <ele>200.2</ele>
        <time>2021-05-09T07:18:27Z</time>
      </trkpt>
      <trkpt lat="44.2549" lon="0.73998">
        <ele>200.2</ele>
        <time>2021-05-09T07:18:29Z</time>
      </trkpt>
      <trkpt lat="44.2549" lon="0.74">
        <ele>200.2</ele>
        <time>2021-05-09T07:18:31Z</time>
      </trkpt>
      <trkpt lat="44.2549" lon="0.74003">
        <ele>200.2</ele>
        <time>2021-05-09T07:18:33Z</time>
      </trkpt>
      <trkpt lat="44.2549" lon="0.74006">
        <ele>200.4</ele>
        <time>2021-05-09T07:18:35Z</time>
      </trkpt>
      <trkpt lat="44.2549" lon="0.74009">
        <ele>200.4</ele>
        <time>2021-05-09T07:18:37Z</time>
      </trkpt>
      <trkpt lat="44.2549" lon="0.74012">
        <ele>200.6</ele>
        <time>2021-05-09T07:18:39Z</time>
      </trkpt>
      <trkpt lat="44.25489" lon="0.74015">
        <ele>200.6</ele>
        <time>2021-05-09T07:18:41Z</time>
      </trkpt>
      <trkpt lat="44.25489" lon="0.74018">
        <ele>200.6</ele>
        <time>2021-05-09T07:18:43Z</time>
      </trkpt>
      <trkpt lat="44.25489" lon="0.74021">
        <ele>200.8</ele>
        <time>2021-05-09T07:18:46Z</time>
      </trkpt>
      <trkpt lat="44.25488" lon="0.74023">
        <ele>200.8</ele>
        <time>2021-05-09T07:18:48Z</time>
      </trkpt>
      <trkpt lat="44.25487" lon="0.74026">
        <ele>200.6</ele>
        <time>2021-05-09T07:18:50Z</time>
      </trkpt>
      <trkpt lat="44.25486" lon="0.74028">
        <ele>200.6</ele>
        <time>2021-05-09T07:18:52Z</time>
      </trkpt>
      <trkpt lat="44.25485" lon="0.74032">
        <ele>200.6</ele>
        <time>2021-05-09T07:18:55Z</time>
      </trkpt>
      <trkpt lat="44.25484" lon="0.74035">
        <ele>200.4</ele>
        <time>2021-05-09T07:18:57Z</time>
      </trkpt>
      <trkpt lat="44.25483" lon="0.74038">
        <ele>200.6</ele>
        <time>2021-05-09T07:18:59Z</time>
      </trkpt>
      <trkpt lat="44.25483" lon="0.74041">
        <ele>200.6</ele>
        <time>2021-05-09T07:19:01Z</time>
      </trkpt>
      <trkpt lat="44.25482" lon="0.74045">
        <ele>200.4</ele>
        <time>2021-05-09T07:19:03Z</time>
      </trkpt>
      <trkpt lat="44.2548" lon="0.74048">
        <ele>200.4</ele>
        <time>2021-05-09T07:19:05Z</time>
      </trkpt>
      <trkpt lat="44.2548" lon="0.74051">
        <ele>200.4</ele>
        <time>2021-05-09T07:19:07Z</time>
      </trkpt>
      <trkpt lat="44.2548" lon="0.74054">
        <ele>200.6</ele>
        <time>2021-05-09T07:19:09Z</time>
      </trkpt>
      <trkpt lat="44.2548" lon="0.74057">
        <ele>200.6</ele>
        <time>2021-05-09T07:19:11Z</time>
      </trkpt>
      <trkpt lat="44.25479" lon="0.74059">
        <ele>200.6</ele>
        <time>2021-05-09T07:19:13Z</time>
      </trkpt>
      <trkpt lat="44.25479" lon="0.74063">
        <ele>200.8</ele>
        <time>2021-05-09T07:19:15Z</time>
      </trkpt>
      <trkpt lat="44.25479" lon="0.74067">
        <ele>200.8</ele>
        <time>2021-05-09T07:19:17Z</time>
      </trkpt>
      <trkpt lat="44.25478" lon="0.7407">
        <ele>200.8</ele>
        <time>2021-05-09T07:19:19Z</time>
      </trkpt>
      <trkpt lat="44.25477" lon="0.74073">
        <ele>200.8</ele>
        <time>2021-05-09T07:19:21Z</time>
      </trkpt>
      <trkpt lat="44.25476" lon="0.74075">
        <ele>200.8</ele>
        <time>2021-05-09T07:19:23Z</time>
      </trkpt>
      <trkpt lat="44.25475" lon="0.74078">
        <ele>200.8</ele>
        <time>2021-05-09T07:19:25Z</time>
      </trkpt>
      <trkpt lat="44.25475" lon="0.74081">
        <ele>200.8</ele>
        <time>2021-05-09T07:19:27Z</time>
      </trkpt>
      <trkpt lat="44.25474" lon="0.74084">
        <ele>200.6</ele>
        <time>2021-05-09T07:19:29Z</time>
      </trkpt>
      <trkpt lat="44.25474" lon="0.74087">
        <ele>200.6</ele>
        <time>2021-05-09T07:19:31Z</time>
      </trkpt>
      <trkpt lat="44.25473" lon="0.7409">
        <ele>200.6</ele>
        <time>2021-05-09T07:19:33Z</time>
      </trkpt>
      <trkpt lat="44.25473" lon="0.74093">
        <ele>200.6</ele>
        <time>2021-05-09T07:19:35Z</time>
      </trkpt>
      <trkpt lat="44.25471" lon="0.74097">
        <ele>200.4</ele>
        <time>2021-05-09T07:19:37Z</time>
      </trkpt>
      <trkpt lat="44.25471" lon="0.741">
        <ele>200.6</ele>
        <time>2021-05-09T07:19:39Z</time>
      </trkpt>
      <trkpt lat="44.2547" lon="0.74103">
        <ele>200.6</ele>
        <time>2021-05-09T07:19:41Z</time>
      </trkpt>
      <trkpt lat="44.25469" lon="0.74106">
        <ele>200.6</ele>
        <time>2021-05-09T07:19:43Z</time>
      </trkpt>
      <trkpt lat="44.25469" lon="0.74109">
        <ele>200.8</ele>
        <time>2021-05-09T07:19:46Z</time>
      </trkpt>
      <trkpt lat="44.25468" lon="0.74111">
        <ele>201</ele>
        <time>2021-05-09T07:19:48Z</time>
      </trkpt>
      <trkpt lat="44.25468" lon="0.74114">
        <ele>201</ele>
        <time>2021-05-09T07:19:49Z</time>
      </trkpt>
      <trkpt lat="44.25468" lon="0.74119">
        <ele>201.2</ele>
        <time>2021-05-09T07:19:51Z</time>
      </trkpt>
      <trkpt lat="44.25468" lon="0.74122">
        <ele>201.2</ele>
        <time>2021-05-09T07:19:53Z</time>
      </trkpt>
      <trkpt lat="44.25468" lon="0.74125">
        <ele>201.2</ele>
        <time>2021-05-09T07:19:55Z</time>
      </trkpt>
      <trkpt lat="44.25467" lon="0.74127">
        <ele>201.2</ele>
        <time>2021-05-09T07:19:57Z</time>
      </trkpt>
      <trkpt lat="44.25466" lon="0.74131">
        <ele>201.2</ele>
        <time>2021-05-09T07:19:59Z</time>
      </trkpt>
      <trkpt lat="44.25465" lon="0.74135">
        <ele>201.4</ele>
        <time>2021-05-09T07:20:01Z</time>
      </trkpt>
      <trkpt lat="44.25464" lon="0.74139">
        <ele>201.4</ele>
        <time>2021-05-09T07:20:03Z</time>
      </trkpt>
      <trkpt lat="44.25463" lon="0.74142">
        <ele>201.8</ele>
        <time>2021-05-09T07:20:05Z</time>
      </trkpt>
      <trkpt lat="44.25463" lon="0.74145">
        <ele>202</ele>
        <time>2021-05-09T07:20:08Z</time>
      </trkpt>
      <trkpt lat="44.25462" lon="0.74149">
        <ele>202</ele>
        <time>2021-05-09T07:20:10Z</time>
      </trkpt>
      <trkpt lat="44.2546" lon="0.74152">
        <ele>202.2</ele>
        <time>2021-05-09T07:20:12Z</time>
      </trkpt>
      <trkpt lat="44.2546" lon="0.74155">
        <ele>202.2</ele>
        <time>2021-05-09T07:20:15Z</time>
      </trkpt>
      <trkpt lat="44.25458" lon="0.74158">
        <ele>202.2</ele>
        <time>2021-05-09T07:20:17Z</time>
      </trkpt>
      <trkpt lat="44.25457" lon="0.74161">
        <ele>202.2</ele>
        <time>2021-05-09T07:20:19Z</time>
      </trkpt>
      <trkpt lat="44.25456" lon="0.74165">
        <ele>202.4</ele>
        <time>2021-05-09T07:20:22Z</time>
      </trkpt>
      <trkpt lat="44.25455" lon="0.74169">
        <ele>202.4</ele>
        <time>2021-05-09T07:20:24Z</time>
      </trkpt>
      <trkpt lat="44.25454" lon="0.74174">
        <ele>202.6</ele>
        <time>2021-05-09T07:20:26Z</time>
      </trkpt>
      <trkpt lat="44.25453" lon="0.74177">
        <ele>202.8</ele>
        <time>2021-05-09T07:20:28Z</time>
      </trkpt>
      <trkpt lat="44.25452" lon="0.7418">
        <ele>202.8</ele>
        <time>2021-05-09T07:20:30Z</time>
      </trkpt>
      <trkpt lat="44.25452" lon="0.74182">
        <ele>202.8</ele>
        <time>2021-05-09T07:20:31Z</time>
      </trkpt>
      <trkpt lat="44.25451" lon="0.74185">
        <ele>203</ele>
        <time>2021-05-09T07:20:32Z</time>
      </trkpt>
      <trkpt lat="44.2545" lon="0.74188">
        <ele>203</ele>
        <time>2021-05-09T07:20:34Z</time>
      </trkpt>
      <trkpt lat="44.25449" lon="0.74191">
        <ele>203.2</ele>
        <time>2021-05-09T07:20:36Z</time>
      </trkpt>
      <trkpt lat="44.25448" lon="0.74194">
        <ele>203.4</ele>
        <time>2021-05-09T07:20:38Z</time>
      </trkpt>
      <trkpt lat="44.25446" lon="0.74197">
        <ele>203.4</ele>
        <time>2021-05-09T07:20:40Z</time>
      </trkpt>
      <trkpt lat="44.25445" lon="0.742">
        <ele>203.6</ele>
        <time>2021-05-09T07:20:42Z</time>
      </trkpt>
      <trkpt lat="44.25444" lon="0.74202">
        <ele>203.6</ele>
        <time>2021-05-09T07:20:44Z</time>
      </trkpt>
      <trkpt lat="44.25443" lon="0.74205">
        <ele>203.8</ele>
        <time>2021-05-09T07:20:46Z</time>
      </trkpt>
      <trkpt lat="44.25442" lon="0.74208">
        <ele>204</ele>
        <time>2021-05-09T07:20:48Z</time>
      </trkpt>
      <trkpt lat="44.25441" lon="0.74211">
        <ele>204.2</ele>
        <time>2021-05-09T07:20:51Z</time>
      </trkpt>
      <trkpt lat="44.2544" lon="0.74214">
        <ele>204.4</ele>
        <time>2021-05-09T07:20:54Z</time>
      </trkpt>
      <trkpt lat="44.25439" lon="0.74217">
        <ele>204.4</ele>
        <time>2021-05-09T07:20:56Z</time>
      </trkpt>
      <trkpt lat="44.25438" lon="0.74219">
        <ele>204.4</ele>
        <time>2021-05-09T07:20:58Z</time>
      </trkpt>
      <trkpt lat="44.25437" lon="0.74221">
        <ele>204.4</ele>
        <time>2021-05-09T07:21:00Z</time>
      </trkpt>
      <trkpt lat="44.25437" lon="0.74224">
        <ele>204.4</ele>
        <time>2021-05-09T07:21:03Z</time>
      </trkpt>
      <trkpt lat="44.25437" lon="0.74227">
        <ele>204.2</ele>
        <time>2021-05-09T07:21:05Z</time>
      </trkpt>
      <trkpt lat="44.25437" lon="0.74229">
        <ele>204.2</ele>
        <time>2021-05-09T07:21:07Z</time>
      </trkpt>
      <trkpt lat="44.25437" lon="0.74233">
        <ele>204.2</ele>
        <time>2021-05-09T07:21:10Z</time>
      </trkpt>
      <trkpt lat="44.25436" lon="0.74235">
        <ele>204.4</ele>
        <time>2021-05-09T07:21:12Z</time>
      </trkpt>
      <trkpt lat="44.25436" lon="0.74239">
        <ele>204.4</ele>
        <time>2021-05-09T07:21:14Z</time>
      </trkpt>
      <trkpt lat="44.25435" lon="0.74242">
        <ele>204.6</ele>
        <time>2021-05-09T07:21:16Z</time>
      </trkpt>
      <trkpt lat="44.25435" lon="0.74245">
        <ele>204.6</ele>
        <time>2021-05-09T07:21:18Z</time>
      </trkpt>
      <trkpt lat="44.25434" lon="0.74249">
        <ele>204.4</ele>
        <time>2021-05-09T07:21:20Z</time>
      </trkpt>
      <trkpt lat="44.25433" lon="0.74253">
        <ele>204.4</ele>
        <time>2021-05-09T07:21:22Z</time>
      </trkpt>
      <trkpt lat="44.25433" lon="0.74257">
        <ele>204.4</ele>
        <time>2021-05-09T07:21:24Z</time>
      </trkpt>
      <trkpt lat="44.25432" lon="0.74261">
        <ele>204.4</ele>
        <time>2021-05-09T07:21:26Z</time>
      </trkpt>
      <trkpt lat="44.25431" lon="0.74264">
        <ele>204.4</ele>
        <time>2021-05-09T07:21:28Z</time>
      </trkpt>
      <trkpt lat="44.25431" lon="0.74268">
        <ele>204.2</ele>
        <time>2021-05-09T07:21:30Z</time>
      </trkpt>
      <trkpt lat="44.2543" lon="0.74271">
        <ele>204</ele>
        <time>2021-05-09T07:21:33Z</time>
      </trkpt>
      <trkpt lat="44.25429" lon="0.74274">
        <ele>204</ele>
        <time>2021-05-09T07:21:35Z</time>
      </trkpt>
      <trkpt lat="44.25428" lon="0.74277">
        <ele>203.8</ele>
        <time>2021-05-09T07:21:37Z</time>
      </trkpt>
      <trkpt lat="44.25428" lon="0.7428">
        <ele>203.8</ele>
        <time>2021-05-09T07:21:39Z</time>
      </trkpt>
      <trkpt lat="44.25427" lon="0.74283">
        <ele>203.8</ele>
        <time>2021-05-09T07:21:41Z</time>
      </trkpt>
      <trkpt lat="44.25427" lon="0.74287">
        <ele>203.6</ele>
        <time>2021-05-09T07:21:44Z</time>
      </trkpt>
      <trkpt lat="44.25427" lon="0.74291">
        <ele>203.6</ele>
        <time>2021-05-09T07:21:46Z</time>
      </trkpt>
      <trkpt lat="44.25426" lon="0.74294">
        <ele>203.6</ele>
        <time>2021-05-09T07:21:48Z</time>
      </trkpt>
      <trkpt lat="44.25425" lon="0.74297">
        <ele>203.6</ele>
        <time>2021-05-09T07:21:50Z</time>
      </trkpt>
      <trkpt lat="44.25425" lon="0.743">
        <ele>203.6</ele>
        <time>2021-05-09T07:21:52Z</time>
      </trkpt>
      <trkpt lat="44.25425" lon="0.74303">
        <ele>203.8</ele>
        <time>2021-05-09T07:21:54Z</time>
      </trkpt>
      <trkpt lat="44.25425" lon="0.74307">
        <ele>204</ele>
        <time>2021-05-09T07:21:56Z</time>
      </trkpt>
      <trkpt lat="44.25425" lon="0.7431">
        <ele>204.2</ele>
        <time>2021-05-09T07:21:58Z</time>
      </trkpt>
      <trkpt lat="44.25424" lon="0.74314">
        <ele>204.4</ele>
        <time>2021-05-09T07:22:00Z</time>
      </trkpt>
      <trkpt lat="44.25424" lon="0.74318">
        <ele>204.6</ele>
        <time>2021-05-09T07:22:02Z</time>
      </trkpt>
      <trkpt lat="44.25423" lon="0.74321">
        <ele>204.6</ele>
        <time>2021-05-09T07:22:04Z</time>
      </trkpt>
      <trkpt lat="44.25423" lon="0.74325">
        <ele>204.6</ele>
        <time>2021-05-09T07:22:06Z</time>
      </trkpt>
      <trkpt lat="44.25423" lon="0.74329">
        <ele>204.6</ele>
        <time>2021-05-09T07:22:09Z</time>
      </trkpt>
      <trkpt lat="44.25423" lon="0.74332">
        <ele>204.6</ele>
        <time>2021-05-09T07:22:11Z</time>
      </trkpt>
      <trkpt lat="44.25421" lon="0.74335">
        <ele>204.6</ele>
        <time>2021-05-09T07:22:13Z</time>
      </trkpt>
      <trkpt lat="44.2542" lon="0.74338">
        <ele>204.4</ele>
        <time>2021-05-09T07:22:15Z</time>
      </trkpt>
      <trkpt lat="44.2542" lon="0.74341">
        <ele>204.4</ele>
        <time>2021-05-09T07:22:17Z</time>
      </trkpt>
      <trkpt lat="44.25419" lon="0.74344">
        <ele>204.4</ele>
        <time>2021-05-09T07:22:19Z</time>
      </trkpt>
      <trkpt lat="44.25418" lon="0.74347">
        <ele>204.2</ele>
        <time>2021-05-09T07:22:21Z</time>
      </trkpt>
      <trkpt lat="44.25417" lon="0.7435">
        <ele>204.2</ele>
        <time>2021-05-09T07:22:23Z</time>
      </trkpt>
      <trkpt lat="44.25416" lon="0.74353">
        <ele>204.2</ele>
        <time>2021-05-09T07:22:25Z</time>
      </trkpt>
      <trkpt lat="44.25415" lon="0.74357">
        <ele>204.2</ele>
        <time>2021-05-09T07:22:27Z</time>
      </trkpt>
      <trkpt lat="44.25415" lon="0.74361">
        <ele>204.2</ele>
        <time>2021-05-09T07:22:29Z</time>
      </trkpt>
      <trkpt lat="44.25414" lon="0.74364">
        <ele>204.2</ele>
        <time>2021-05-09T07:22:31Z</time>
      </trkpt>
      <trkpt lat="44.25413" lon="0.74367">
        <ele>204.2</ele>
        <time>2021-05-09T07:22:33Z</time>
      </trkpt>
      <trkpt lat="44.25413" lon="0.7437">
        <ele>204.4</ele>
        <time>2021-05-09T07:22:35Z</time>
      </trkpt>
      <trkpt lat="44.25413" lon="0.74373">
        <ele>204.4</ele>
        <time>2021-05-09T07:22:37Z</time>
      </trkpt>
      <trkpt lat="44.25412" lon="0.74376">
        <ele>204.4</ele>
        <time>2021-05-09T07:22:39Z</time>
      </trkpt>
      <trkpt lat="44.25412" lon="0.74379">
        <ele>204.2</ele>
        <time>2021-05-09T07:22:41Z</time>
      </trkpt>
      <trkpt lat="44.25411" lon="0.74382">
        <ele>204.4</ele>
        <time>2021-05-09T07:22:43Z</time>
      </trkpt>
      <trkpt lat="44.2541" lon="0.74384">
        <ele>204.4</ele>
        <time>2021-05-09T07:22:45Z</time>
      </trkpt>
      <trkpt lat="44.25409" lon="0.74387">
        <ele>204.4</ele>
        <time>2021-05-09T07:22:47Z</time>
      </trkpt>
      <trkpt lat="44.25409" lon="0.74391">
        <ele>204.4</ele>
        <time>2021-05-09T07:22:49Z</time>
      </trkpt>
      <trkpt lat="44.25408" lon="0.74394">
        <ele>204.4</ele>
        <time>2021-05-09T07:22:51Z</time>
      </trkpt>
      <trkpt lat="44.25407" lon="0.74397">
        <ele>204.4</ele>
        <time>2021-05-09T07:22:53Z</time>
      </trkpt>
      <trkpt lat="44.25406" lon="0.74401">
        <ele>204.4</ele>
        <time>2021-05-09T07:22:55Z</time>
      </trkpt>
      <trkpt lat="44.25405" lon="0.74404">
        <ele>204.2</ele>
        <time>2021-05-09T07:22:57Z</time>
      </trkpt>
      <trkpt lat="44.25405" lon="0.74407">
        <ele>204.2</ele>
        <time>2021-05-09T07:22:59Z</time>
      </trkpt>
      <trkpt lat="44.25404" lon="0.74411">
        <ele>204.2</ele>
        <time>2021-05-09T07:23:01Z</time>
      </trkpt>
      <trkpt lat="44.25403" lon="0.74414">
        <ele>204.2</ele>
        <time>2021-05-09T07:23:03Z</time>
      </trkpt>
      <trkpt lat="44.25403" lon="0.74417">
        <ele>204.2</ele>
        <time>2021-05-09T07:23:05Z</time>
      </trkpt>
      <trkpt lat="44.25402" lon="0.7442">
        <ele>204.2</ele>
        <time>2021-05-09T07:23:07Z</time>
      </trkpt>
      <trkpt lat="44.254" lon="0.74423">
        <ele>204.2</ele>
        <time>2021-05-09T07:23:10Z</time>
      </trkpt>
      <trkpt lat="44.25399" lon="0.74426">
        <ele>204</ele>
        <time>2021-05-09T07:23:12Z</time>
      </trkpt>
      <trkpt lat="44.25398" lon="0.74429">
        <ele>204.2</ele>
        <time>2021-05-09T07:23:15Z</time>
      </trkpt>
      <trkpt lat="44.25397" lon="0.74432">
        <ele>204.2</ele>
        <time>2021-05-09T07:23:17Z</time>
      </trkpt>
      <trkpt lat="44.25397" lon="0.74434">
        <ele>204.2</ele>
        <time>2021-05-09T07:23:19Z</time>
      </trkpt>
      <trkpt lat="44.25396" lon="0.74437">
        <ele>204.4</ele>
        <time>2021-05-09T07:23:22Z</time>
      </trkpt>
      <trkpt lat="44.25395" lon="0.74441">
        <ele>204.4</ele>
        <time>2021-05-09T07:23:25Z</time>
      </trkpt>
      <trkpt lat="44.25395" lon="0.74446">
        <ele>204.4</ele>
        <time>2021-05-09T07:23:27Z</time>
      </trkpt>
      <trkpt lat="44.25394" lon="0.74449">
        <ele>204.4</ele>
        <time>2021-05-09T07:23:29Z</time>
      </trkpt>
      <trkpt lat="44.25393" lon="0.74452">
        <ele>204.2</ele>
        <time>2021-05-09T07:23:31Z</time>
      </trkpt>
      <trkpt lat="44.25391" lon="0.74456">
        <ele>204.2</ele>
        <time>2021-05-09T07:23:33Z</time>
      </trkpt>
      <trkpt lat="44.25391" lon="0.7446">
        <ele>204.2</ele>
        <time>2021-05-09T07:23:35Z</time>
      </trkpt>
      <trkpt lat="44.2539" lon="0.74463">
        <ele>204.2</ele>
        <time>2021-05-09T07:23:37Z</time>
      </trkpt>
      <trkpt lat="44.25389" lon="0.74467">
        <ele>204.2</ele>
        <time>2021-05-09T07:23:39Z</time>
      </trkpt>
      <trkpt lat="44.25388" lon="0.74469">
        <ele>204.2</ele>
        <time>2021-05-09T07:23:41Z</time>
      </trkpt>
      <trkpt lat="44.25388" lon="0.74472">
        <ele>204.2</ele>
        <time>2021-05-09T07:23:43Z</time>
      </trkpt>
      <trkpt lat="44.25387" lon="0.74475">
        <ele>204.2</ele>
        <time>2021-05-09T07:23:46Z</time>
      </trkpt>
      <trkpt lat="44.25387" lon="0.74478">
        <ele>204.2</ele>
        <time>2021-05-09T07:23:48Z</time>
      </trkpt>
      <trkpt lat="44.25386" lon="0.74481">
        <ele>204.2</ele>
        <time>2021-05-09T07:23:50Z</time>
      </trkpt>
      <trkpt lat="44.25385" lon="0.74484">
        <ele>204.2</ele>
        <time>2021-05-09T07:23:52Z</time>
      </trkpt>
      <trkpt lat="44.25384" lon="0.74487">
        <ele>204.2</ele>
        <time>2021-05-09T07:23:54Z</time>
      </trkpt>
      <trkpt lat="44.25383" lon="0.7449">
        <ele>204.2</ele>
        <time>2021-05-09T07:23:56Z</time>
      </trkpt>
      <trkpt lat="44.25382" lon="0.74494">
        <ele>204.2</ele>
        <time>2021-05-09T07:23:58Z</time>
      </trkpt>
      <trkpt lat="44.25381" lon="0.74497">
        <ele>204.2</ele>
        <time>2021-05-09T07:24:00Z</time>
      </trkpt>
      <trkpt lat="44.25379" lon="0.74501">
        <ele>204</ele>
        <time>2021-05-09T07:24:02Z</time>
      </trkpt>
      <trkpt lat="44.25378" lon="0.74504">
        <ele>204</ele>
        <time>2021-05-09T07:24:04Z</time>
      </trkpt>
      <trkpt lat="44.25377" lon="0.74508">
        <ele>203.8</ele>
        <time>2021-05-09T07:24:06Z</time>
      </trkpt>
      <trkpt lat="44.25376" lon="0.74512">
        <ele>203.8</ele>
        <time>2021-05-09T07:24:08Z</time>
      </trkpt>
      <trkpt lat="44.25375" lon="0.74514">
        <ele>203.8</ele>
        <time>2021-05-09T07:24:10Z</time>
      </trkpt>
      <trkpt lat="44.25373" lon="0.74516">
        <ele>203.8</ele>
        <time>2021-05-09T07:24:12Z</time>
      </trkpt>
      <trkpt lat="44.25372" lon="0.74519">
        <ele>203.8</ele>
        <time>2021-05-09T07:24:14Z</time>
      </trkpt>
      <trkpt lat="44.25372" lon="0.74522">
        <ele>203.8</ele>
        <time>2021-05-09T07:24:16Z</time>
      </trkpt>
      <trkpt lat="44.25371" lon="0.74524">
        <ele>204</ele>
        <time>2021-05-09T07:24:18Z</time>
      </trkpt>
      <trkpt lat="44.25371" lon="0.74527">
        <ele>204</ele>
        <time>2021-05-09T07:24:20Z</time>
      </trkpt>
      <trkpt lat="44.25369" lon="0.7453">
        <ele>204.2</ele>
        <time>2021-05-09T07:24:22Z</time>
      </trkpt>
      <trkpt lat="44.25369" lon="0.74533">
        <ele>204.4</ele>
        <time>2021-05-09T07:24:24Z</time>
      </trkpt>
      <trkpt lat="44.25369" lon="0.74536">
        <ele>204.6</ele>
        <time>2021-05-09T07:24:26Z</time>
      </trkpt>
      <trkpt lat="44.25368" lon="0.74539">
        <ele>204.8</ele>
        <time>2021-05-09T07:24:28Z</time>
      </trkpt>
      <trkpt lat="44.25368" lon="0.74542">
        <ele>204.8</ele>
        <time>2021-05-09T07:24:30Z</time>
      </trkpt>
      <trkpt lat="44.25367" lon="0.74545">
        <ele>205</ele>
        <time>2021-05-09T07:24:32Z</time>
      </trkpt>
      <trkpt lat="44.25367" lon="0.74549">
        <ele>205.2</ele>
        <time>2021-05-09T07:24:34Z</time>
      </trkpt>
      <trkpt lat="44.25366" lon="0.74552">
        <ele>205</ele>
        <time>2021-05-09T07:24:36Z</time>
      </trkpt>
      <trkpt lat="44.25365" lon="0.74555">
        <ele>205</ele>
        <time>2021-05-09T07:24:38Z</time>
      </trkpt>
      <trkpt lat="44.25365" lon="0.74558">
        <ele>205</ele>
        <time>2021-05-09T07:24:40Z</time>
      </trkpt>
      <trkpt lat="44.25364" lon="0.74561">
        <ele>205</ele>
        <time>2021-05-09T07:24:42Z</time>
      </trkpt>
      <trkpt lat="44.25363" lon="0.74563">
        <ele>205.2</ele>
        <time>2021-05-09T07:24:44Z</time>
      </trkpt>
      <trkpt lat="44.25362" lon="0.74566">
        <ele>205.2</ele>
        <time>2021-05-09T07:24:46Z</time>
      </trkpt>
      <trkpt lat="44.2536" lon="0.74569">
        <ele>205</ele>
        <time>2021-05-09T07:24:48Z</time>
      </trkpt>
      <trkpt lat="44.25359" lon="0.74573">
        <ele>205</ele>
        <time>2021-05-09T07:24:50Z</time>
      </trkpt>
      <trkpt lat="44.25357" lon="0.74575">
        <ele>205</ele>
        <time>2021-05-09T07:24:52Z</time>
      </trkpt>
      <trkpt lat="44.25356" lon="0.74577">
        <ele>205.2</ele>
        <time>2021-05-09T07:24:54Z</time>
      </trkpt>
      <trkpt lat="44.25354" lon="0.74581">
        <ele>205.2</ele>
        <time>2021-05-09T07:24:56Z</time>
      </trkpt>
      <trkpt lat="44.25353" lon="0.74585">
        <ele>205.4</ele>
        <time>2021-05-09T07:24:58Z</time>
      </trkpt>
      <trkpt lat="44.25352" lon="0.74588">
        <ele>205.4</ele>
        <time>2021-05-09T07:25:00Z</time>
      </trkpt>
      <trkpt lat="44.25352" lon="0.74592">
        <ele>205.4</ele>
        <time>2021-05-09T07:25:03Z</time>
      </trkpt>
      <trkpt lat="44.25352" lon="0.74595">
        <ele>205.4</ele>
        <time>2021-05-09T07:25:05Z</time>
      </trkpt>
      <trkpt lat="44.25352" lon="0.74599">
        <ele>205.6</ele>
        <time>2021-05-09T07:25:07Z</time>
      </trkpt>
      <trkpt lat="44.25351" lon="0.74603">
        <ele>205.6</ele>
        <time>2021-05-09T07:25:09Z</time>
      </trkpt>
      <trkpt lat="44.2535" lon="0.74607">
        <ele>205.6</ele>
        <time>2021-05-09T07:25:11Z</time>
      </trkpt>
      <trkpt lat="44.25349" lon="0.7461">
        <ele>205.8</ele>
        <time>2021-05-09T07:25:13Z</time>
      </trkpt>
      <trkpt lat="44.25348" lon="0.74613">
        <ele>205.8</ele>
        <time>2021-05-09T07:25:15Z</time>
      </trkpt>
      <trkpt lat="44.25348" lon="0.74617">
        <ele>205.8</ele>
        <time>2021-05-09T07:25:17Z</time>
      </trkpt>
      <trkpt lat="44.25347" lon="0.7462">
        <ele>206</ele>
        <time>2021-05-09T07:25:19Z</time>
      </trkpt>
      <trkpt lat="44.25346" lon="0.74623">
        <ele>206</ele>
        <time>2021-05-09T07:25:20Z</time>
      </trkpt>
      <trkpt lat="44.25345" lon="0.74626">
        <ele>206.2</ele>
        <time>2021-05-09T07:25:22Z</time>
      </trkpt>
      <trkpt lat="44.25344" lon="0.74629">
        <ele>206.2</ele>
        <time>2021-05-09T07:25:24Z</time>
      </trkpt>
      <trkpt lat="44.25343" lon="0.74632">
        <ele>206.2</ele>
        <time>2021-05-09T07:25:26Z</time>
      </trkpt>
      <trkpt lat="44.25343" lon="0.74634">
        <ele>206.2</ele>
        <time>2021-05-09T07:25:28Z</time>
      </trkpt>
      <trkpt lat="44.25342" lon="0.74636">
        <ele>206.2</ele>
        <time>2021-05-09T07:25:30Z</time>
      </trkpt>
      <trkpt lat="44.2534" lon="0.74639">
        <ele>206.2</ele>
        <time>2021-05-09T07:25:32Z</time>
      </trkpt>
      <trkpt lat="44.2534" lon="0.74642">
        <ele>206.2</ele>
        <time>2021-05-09T07:25:34Z</time>
      </trkpt>
      <trkpt lat="44.25339" lon="0.74645">
        <ele>206.2</ele>
        <time>2021-05-09T07:25:36Z</time>
      </trkpt>
      <trkpt lat="44.25338" lon="0.74648">
        <ele>206.2</ele>
        <time>2021-05-09T07:25:38Z</time>
      </trkpt>
      <trkpt lat="44.25338" lon="0.74652">
        <ele>206.2</ele>
        <time>2021-05-09T07:25:40Z</time>
      </trkpt>
      <trkpt lat="44.25337" lon="0.74654">
        <ele>206.2</ele>
        <time>2021-05-09T07:25:42Z</time>
      </trkpt>
      <trkpt lat="44.25336" lon="0.74657">
        <ele>206.2</ele>
        <time>2021-05-09T07:25:44Z</time>
      </trkpt>
      <trkpt lat="44.25335" lon="0.7466">
        <ele>206</ele>
        <time>2021-05-09T07:25:46Z</time>
      </trkpt>
      <trkpt lat="44.25334" lon="0.74663">
        <ele>206</ele>
        <time>2021-05-09T07:25:48Z</time>
      </trkpt>
      <trkpt lat="44.25334" lon="0.74667">
        <ele>205.8</ele>
        <time>2021-05-09T07:25:50Z</time>
      </trkpt>
      <trkpt lat="44.25333" lon="0.74669">
        <ele>205.6</ele>
        <time>2021-05-09T07:25:52Z</time>
      </trkpt>
      <trkpt lat="44.25332" lon="0.74672">
        <ele>205.4</ele>
        <time>2021-05-09T07:25:54Z</time>
      </trkpt>
      <trkpt lat="44.25331" lon="0.74675">
        <ele>205.2</ele>
        <time>2021-05-09T07:25:56Z</time>
      </trkpt>
      <trkpt lat="44.2533" lon="0.74677">
        <ele>205.2</ele>
        <time>2021-05-09T07:25:58Z</time>
      </trkpt>
      <trkpt lat="44.25328" lon="0.7468">
        <ele>205</ele>
        <time>2021-05-09T07:26:00Z</time>
      </trkpt>
      <trkpt lat="44.25327" lon="0.74683">
        <ele>205</ele>
        <time>2021-05-09T07:26:02Z</time>
      </trkpt>
      <trkpt lat="44.25325" lon="0.74687">
        <ele>204.8</ele>
        <time>2021-05-09T07:26:04Z</time>
      </trkpt>
      <trkpt lat="44.25324" lon="0.7469">
        <ele>204.6</ele>
        <time>2021-05-09T07:26:06Z</time>
      </trkpt>
      <trkpt lat="44.25322" lon="0.74694">
        <ele>204.6</ele>
        <time>2021-05-09T07:26:08Z</time>
      </trkpt>
      <trkpt lat="44.25321" lon="0.74697">
        <ele>204.4</ele>
        <time>2021-05-09T07:26:10Z</time>
      </trkpt>
      <trkpt lat="44.2532" lon="0.747">
        <ele>204.4</ele>
        <time>2021-05-09T07:26:12Z</time>
      </trkpt>
      <trkpt lat="44.25318" lon="0.74703">
        <ele>204.4</ele>
        <time>2021-05-09T07:26:14Z</time>
      </trkpt>
      <trkpt lat="44.25318" lon="0.74707">
        <ele>204.4</ele>
        <time>2021-05-09T07:26:16Z</time>
      </trkpt>
      <trkpt lat="44.25316" lon="0.7471">
        <ele>204.4</ele>
        <time>2021-05-09T07:26:18Z</time>
      </trkpt>
      <trkpt lat="44.25315" lon="0.74714">
        <ele>204.4</ele>
        <time>2021-05-09T07:26:20Z</time>
      </trkpt>
      <trkpt lat="44.25314" lon="0.74717">
        <ele>204.6</ele>
        <time>2021-05-09T07:26:22Z</time>
      </trkpt>
      <trkpt lat="44.25313" lon="0.74721">
        <ele>204.6</ele>
        <time>2021-05-09T07:26:24Z</time>
      </trkpt>
      <trkpt lat="44.25312" lon="0.74724">
        <ele>204.6</ele>
        <time>2021-05-09T07:26:26Z</time>
      </trkpt>
      <trkpt lat="44.2531" lon="0.74728">
        <ele>204.8</ele>
        <time>2021-05-09T07:26:28Z</time>
      </trkpt>
      <trkpt lat="44.2531" lon="0.74731">
        <ele>204.6</ele>
        <time>2021-05-09T07:26:30Z</time>
      </trkpt>
      <trkpt lat="44.25309" lon="0.74734">
        <ele>204.6</ele>
        <time>2021-05-09T07:26:32Z</time>
      </trkpt>
      <trkpt lat="44.25308" lon="0.74737">
        <ele>204.4</ele>
        <time>2021-05-09T07:26:34Z</time>
      </trkpt>
      <trkpt lat="44.25307" lon="0.74739">
        <ele>204.4</ele>
        <time>2021-05-09T07:26:36Z</time>
      </trkpt>
      <trkpt lat="44.25306" lon="0.74742">
        <ele>204.2</ele>
        <time>2021-05-09T07:26:38Z</time>
      </trkpt>
      <trkpt lat="44.25306" lon="0.74746">
        <ele>204.2</ele>
        <time>2021-05-09T07:26:41Z</time>
      </trkpt>
      <trkpt lat="44.25305" lon="0.74749">
        <ele>204.2</ele>
        <time>2021-05-09T07:26:43Z</time>
      </trkpt>
      <trkpt lat="44.25304" lon="0.74752">
        <ele>204.2</ele>
        <time>2021-05-09T07:26:45Z</time>
      </trkpt>
      <trkpt lat="44.25304" lon="0.74754">
        <ele>204.2</ele>
        <time>2021-05-09T07:26:47Z</time>
      </trkpt>
      <trkpt lat="44.25303" lon="0.74758">
        <ele>204.2</ele>
        <time>2021-05-09T07:26:49Z</time>
      </trkpt>
      <trkpt lat="44.25302" lon="0.74761">
        <ele>204.2</ele>
        <time>2021-05-09T07:26:51Z</time>
      </trkpt>
      <trkpt lat="44.25301" lon="0.74763">
        <ele>204.2</ele>
        <time>2021-05-09T07:26:53Z</time>
      </trkpt>
      <trkpt lat="44.253" lon="0.74766">
        <ele>204.2</ele>
        <time>2021-05-09T07:26:55Z</time>
      </trkpt>
      <trkpt lat="44.253" lon="0.74769">
        <ele>204.2</ele>
        <time>2021-05-09T07:26:57Z</time>
      </trkpt>
      <trkpt lat="44.25299" lon="0.74772">
        <ele>204.2</ele>
        <time>2021-05-09T07:26:59Z</time>
      </trkpt>
      <trkpt lat="44.25298" lon="0.74775">
        <ele>204</ele>
        <time>2021-05-09T07:27:01Z</time>
      </trkpt>
      <trkpt lat="44.25297" lon="0.74778">
        <ele>204</ele>
        <time>2021-05-09T07:27:03Z</time>
      </trkpt>
      <trkpt lat="44.25296" lon="0.7478">
        <ele>203.8</ele>
        <time>2021-05-09T07:27:05Z</time>
      </trkpt>
      <trkpt lat="44.25295" lon="0.74783">
        <ele>203.6</ele>
        <time>2021-05-09T07:27:07Z</time>
      </trkpt>
      <trkpt lat="44.25294" lon="0.74786">
        <ele>203.6</ele>
        <time>2021-05-09T07:27:09Z</time>
      </trkpt>
      <trkpt lat="44.25292" lon="0.74789">
        <ele>203.4</ele>
        <time>2021-05-09T07:27:11Z</time>
      </trkpt>
      <trkpt lat="44.25292" lon="0.74793">
        <ele>203.4</ele>
        <time>2021-05-09T07:27:13Z</time>
      </trkpt>
      <trkpt lat="44.25291" lon="0.74796">
        <ele>203.4</ele>
        <time>2021-05-09T07:27:15Z</time>
      </trkpt>
      <trkpt lat="44.25289" lon="0.748">
        <ele>203.2</ele>
        <time>2021-05-09T07:27:17Z</time>
      </trkpt>
      <trkpt lat="44.25288" lon="0.74804">
        <ele>203.2</ele>
        <time>2021-05-09T07:27:19Z</time>
      </trkpt>
      <trkpt lat="44.25287" lon="0.74809">
        <ele>203</ele>
        <time>2021-05-09T07:27:21Z</time>
      </trkpt>
      <trkpt lat="44.25286" lon="0.74812">
        <ele>203</ele>
        <time>2021-05-09T07:27:23Z</time>
      </trkpt>
      <trkpt lat="44.25285" lon="0.74816">
        <ele>203</ele>
        <time>2021-05-09T07:27:25Z</time>
      </trkpt>
      <trkpt lat="44.25284" lon="0.7482">
        <ele>203</ele>
        <time>2021-05-09T07:27:27Z</time>
      </trkpt>
      <trkpt lat="44.25284" lon="0.74824">
        <ele>203</ele>
        <time>2021-05-09T07:27:29Z</time>
      </trkpt>
      <trkpt lat="44.25284" lon="0.74828">
        <ele>203</ele>
        <time>2021-05-09T07:27:31Z</time>
      </trkpt>
      <trkpt lat="44.25283" lon="0.74832">
        <ele>203</ele>
        <time>2021-05-09T07:27:33Z</time>
      </trkpt>
      <trkpt lat="44.25282" lon="0.74835">
        <ele>203</ele>
        <time>2021-05-09T07:27:35Z</time>
      </trkpt>
      <trkpt lat="44.25282" lon="0.74839">
        <ele>203</ele>
        <time>2021-05-09T07:27:37Z</time>
      </trkpt>
      <trkpt lat="44.25281" lon="0.74842">
        <ele>203</ele>
        <time>2021-05-09T07:27:39Z</time>
      </trkpt>
      <trkpt lat="44.2528" lon="0.74845">
        <ele>203</ele>
        <time>2021-05-09T07:27:41Z</time>
      </trkpt>
      <trkpt lat="44.2528" lon="0.74849">
        <ele>203.2</ele>
        <time>2021-05-09T07:27:43Z</time>
      </trkpt>
      <trkpt lat="44.2528" lon="0.74852">
        <ele>203.2</ele>
        <time>2021-05-09T07:27:45Z</time>
      </trkpt>
      <trkpt lat="44.2528" lon="0.74855">
        <ele>203.2</ele>
        <time>2021-05-09T07:27:47Z</time>
      </trkpt>
      <trkpt lat="44.25279" lon="0.74858">
        <ele>203.2</ele>
        <time>2021-05-09T07:27:49Z</time>
      </trkpt>
      <trkpt lat="44.25278" lon="0.74861">
        <ele>203</ele>
        <time>2021-05-09T07:27:51Z</time>
      </trkpt>
      <trkpt lat="44.25278" lon="0.74864">
        <ele>203</ele>
        <time>2021-05-09T07:27:53Z</time>
      </trkpt>
      <trkpt lat="44.25278" lon="0.74867">
        <ele>203</ele>
        <time>2021-05-09T07:27:55Z</time>
      </trkpt>
      <trkpt lat="44.25277" lon="0.7487">
        <ele>203</ele>
        <time>2021-05-09T07:27:57Z</time>
      </trkpt>
      <trkpt lat="44.25277" lon="0.74873">
        <ele>203</ele>
        <time>2021-05-09T07:27:59Z</time>
      </trkpt>
      <trkpt lat="44.25277" lon="0.74877">
        <ele>203</ele>
        <time>2021-05-09T07:28:01Z</time>
      </trkpt>
      <trkpt lat="44.25277" lon="0.7488">
        <ele>203</ele>
        <time>2021-05-09T07:28:03Z</time>
      </trkpt>
      <trkpt lat="44.25276" lon="0.74885">
        <ele>202.8</ele>
        <time>2021-05-09T07:28:05Z</time>
      </trkpt>
      <trkpt lat="44.25276" lon="0.74888">
        <ele>202.8</ele>
        <time>2021-05-09T07:28:07Z</time>
      </trkpt>
      <trkpt lat="44.25277" lon="0.74892">
        <ele>202.8</ele>
        <time>2021-05-09T07:28:09Z</time>
      </trkpt>
      <trkpt lat="44.25276" lon="0.74896">
        <ele>202.8</ele>
        <time>2021-05-09T07:28:11Z</time>
      </trkpt>
      <trkpt lat="44.25276" lon="0.749">
        <ele>203</ele>
        <time>2021-05-09T07:28:13Z</time>
      </trkpt>
      <trkpt lat="44.25276" lon="0.74904">
        <ele>202.8</ele>
        <time>2021-05-09T07:28:15Z</time>
      </trkpt>
      <trkpt lat="44.25276" lon="0.74907">
        <ele>202.8</ele>
        <time>2021-05-09T07:28:17Z</time>
      </trkpt>
      <trkpt lat="44.25276" lon="0.74911">
        <ele>203</ele>
        <time>2021-05-09T07:28:19Z</time>
      </trkpt>
      <trkpt lat="44.25276" lon="0.74915">
        <ele>203</ele>
        <time>2021-05-09T07:28:21Z</time>
      </trkpt>
      <trkpt lat="44.25276" lon="0.74919">
        <ele>203.2</ele>
        <time>2021-05-09T07:28:23Z</time>
      </trkpt>
      <trkpt lat="44.25276" lon="0.74922">
        <ele>203.2</ele>
        <time>2021-05-09T07:28:25Z</time>
      </trkpt>
      <trkpt lat="44.25276" lon="0.74924">
        <ele>203.2</ele>
        <time>2021-05-09T07:28:27Z</time>
      </trkpt>
      <trkpt lat="44.25276" lon="0.74927">
        <ele>203.2</ele>
        <time>2021-05-09T07:28:29Z</time>
      </trkpt>
      <trkpt lat="44.25276" lon="0.7493">
        <ele>203.2</ele>
        <time>2021-05-09T07:28:31Z</time>
      </trkpt>
      <trkpt lat="44.25276" lon="0.74934">
        <ele>203</ele>
        <time>2021-05-09T07:28:33Z</time>
      </trkpt>
      <trkpt lat="44.25276" lon="0.74937">
        <ele>203</ele>
        <time>2021-05-09T07:28:35Z</time>
      </trkpt>
      <trkpt lat="44.25277" lon="0.7494">
        <ele>203</ele>
        <time>2021-05-09T07:28:37Z</time>
      </trkpt>
      <trkpt lat="44.25276" lon="0.74942">
        <ele>203</ele>
        <time>2021-05-09T07:28:39Z</time>
      </trkpt>
      <trkpt lat="44.25276" lon="0.74945">
        <ele>203</ele>
        <time>2021-05-09T07:28:41Z</time>
      </trkpt>
      <trkpt lat="44.25276" lon="0.74948">
        <ele>203</ele>
        <time>2021-05-09T07:28:43Z</time>
      </trkpt>
      <trkpt lat="44.25276" lon="0.74951">
        <ele>203</ele>
        <time>2021-05-09T07:28:45Z</time>
      </trkpt>
      <trkpt lat="44.25276" lon="0.74954">
        <ele>203</ele>
        <time>2021-05-09T07:28:47Z</time>
      </trkpt>
      <trkpt lat="44.25276" lon="0.74957">
        <ele>202.8</ele>
        <time>2021-05-09T07:28:49Z</time>
      </trkpt>
      <trkpt lat="44.25276" lon="0.74959">
        <ele>202.8</ele>
        <time>2021-05-09T07:28:51Z</time>
      </trkpt>
      <trkpt lat="44.25276" lon="0.74962">
        <ele>202.6</ele>
        <time>2021-05-09T07:28:53Z</time>
      </trkpt>
      <trkpt lat="44.25276" lon="0.74965">
        <ele>202.6</ele>
        <time>2021-05-09T07:28:55Z</time>
      </trkpt>
      <trkpt lat="44.25275" lon="0.74968">
        <ele>202.4</ele>
        <time>2021-05-09T07:28:57Z</time>
      </trkpt>
      <trkpt lat="44.25275" lon="0.74971">
        <ele>202.4</ele>
        <time>2021-05-09T07:28:59Z</time>
      </trkpt>
      <trkpt lat="44.25274" lon="0.74974">
        <ele>202.4</ele>
        <time>2021-05-09T07:29:01Z</time>
      </trkpt>
      <trkpt lat="44.25274" lon="0.74977">
        <ele>202.4</ele>
        <time>2021-05-09T07:29:03Z</time>
      </trkpt>
      <trkpt lat="44.25274" lon="0.7498">
        <ele>202.2</ele>
        <time>2021-05-09T07:29:05Z</time>
      </trkpt>
      <trkpt lat="44.25273" lon="0.74983">
        <ele>202.2</ele>
        <time>2021-05-09T07:29:07Z</time>
      </trkpt>
      <trkpt lat="44.25272" lon="0.74987">
        <ele>202.2</ele>
        <time>2021-05-09T07:29:09Z</time>
      </trkpt>
      <trkpt lat="44.25272" lon="0.7499">
        <ele>202</ele>
        <time>2021-05-09T07:29:11Z</time>
      </trkpt>
      <trkpt lat="44.25272" lon="0.74992">
        <ele>202</ele>
        <time>2021-05-09T07:29:13Z</time>
      </trkpt>
      <trkpt lat="44.25272" lon="0.74995">
        <ele>202</ele>
        <time>2021-05-09T07:29:15Z</time>
      </trkpt>
      <trkpt lat="44.25272" lon="0.74999">
        <ele>202</ele>
        <time>2021-05-09T07:29:17Z</time>
      </trkpt>
      <trkpt lat="44.25271" lon="0.75002">
        <ele>202</ele>
        <time>2021-05-09T07:29:19Z</time>
      </trkpt>
      <trkpt lat="44.25271" lon="0.75005">
        <ele>202</ele>
        <time>2021-05-09T07:29:21Z</time>
      </trkpt>
      <trkpt lat="44.25271" lon="0.75009">
        <ele>202.2</ele>
        <time>2021-05-09T07:29:23Z</time>
      </trkpt>
      <trkpt lat="44.25271" lon="0.75012">
        <ele>202.2</ele>
        <time>2021-05-09T07:29:25Z</time>
      </trkpt>
      <trkpt lat="44.2527" lon="0.75016">
        <ele>202.2</ele>
        <time>2021-05-09T07:29:27Z</time>
      </trkpt>
      <trkpt lat="44.2527" lon="0.75019">
        <ele>202.2</ele>
        <time>2021-05-09T07:29:29Z</time>
      </trkpt>
      <trkpt lat="44.2527" lon="0.75023">
        <ele>202.2</ele>
        <time>2021-05-09T07:29:31Z</time>
      </trkpt>
      <trkpt lat="44.25269" lon="0.75027">
        <ele>202.2</ele>
        <time>2021-05-09T07:29:33Z</time>
      </trkpt>
      <trkpt lat="44.25269" lon="0.7503">
        <ele>202.2</ele>
        <time>2021-05-09T07:29:35Z</time>
      </trkpt>
      <trkpt lat="44.25269" lon="0.75034">
        <ele>202.2</ele>
        <time>2021-05-09T07:29:37Z</time>
      </trkpt>
      <trkpt lat="44.25268" lon="0.75038">
        <ele>202.2</ele>
        <time>2021-05-09T07:29:39Z</time>
      </trkpt>
      <trkpt lat="44.25268" lon="0.75041">
        <ele>202.2</ele>
        <time>2021-05-09T07:29:41Z</time>
      </trkpt>
      <trkpt lat="44.25268" lon="0.75045">
        <ele>202.2</ele>
        <time>2021-05-09T07:29:43Z</time>
      </trkpt>
      <trkpt lat="44.25267" lon="0.75048">
        <ele>202.2</ele>
        <time>2021-05-09T07:29:45Z</time>
      </trkpt>
      <trkpt lat="44.25266" lon="0.7505">
        <ele>202.2</ele>
        <time>2021-05-09T07:29:47Z</time>
      </trkpt>
      <trkpt lat="44.25265" lon="0.75056">
        <ele>202</ele>
        <time>2021-05-09T07:29:55Z</time>
      </trkpt>
      <trkpt lat="44.25264" lon="0.7506">
        <ele>201.8</ele>
        <time>2021-05-09T07:29:58Z</time>
      </trkpt>
      <trkpt lat="44.25264" lon="0.75063">
        <ele>202</ele>
        <time>2021-05-09T07:30:00Z</time>
      </trkpt>
      <trkpt lat="44.25263" lon="0.75066">
        <ele>202</ele>
        <time>2021-05-09T07:30:02Z</time>
      </trkpt>
      <trkpt lat="44.25262" lon="0.75069">
        <ele>202</ele>
        <time>2021-05-09T07:30:04Z</time>
      </trkpt>
      <trkpt lat="44.25261" lon="0.75072">
        <ele>202.2</ele>
        <time>2021-05-09T07:30:06Z</time>
      </trkpt>
      <trkpt lat="44.25261" lon="0.75076">
        <ele>202.2</ele>
        <time>2021-05-09T07:30:08Z</time>
      </trkpt>
      <trkpt lat="44.2526" lon="0.7508">
        <ele>202.2</ele>
        <time>2021-05-09T07:30:10Z</time>
      </trkpt>
      <trkpt lat="44.2526" lon="0.75083">
        <ele>202.4</ele>
        <time>2021-05-09T07:30:12Z</time>
      </trkpt>
      <trkpt lat="44.25259" lon="0.75087">
        <ele>202.4</ele>
        <time>2021-05-09T07:30:14Z</time>
      </trkpt>
      <trkpt lat="44.25258" lon="0.7509">
        <ele>202.4</ele>
        <time>2021-05-09T07:30:16Z</time>
      </trkpt>
      <trkpt lat="44.25257" lon="0.75093">
        <ele>202.6</ele>
        <time>2021-05-09T07:30:18Z</time>
      </trkpt>
      <trkpt lat="44.25257" lon="0.75097">
        <ele>202.6</ele>
        <time>2021-05-09T07:30:20Z</time>
      </trkpt>
      <trkpt lat="44.25256" lon="0.75101">
        <ele>202.6</ele>
        <time>2021-05-09T07:30:22Z</time>
      </trkpt>
      <trkpt lat="44.25256" lon="0.75104">
        <ele>202.8</ele>
        <time>2021-05-09T07:30:24Z</time>
      </trkpt>
      <trkpt lat="44.25255" lon="0.75107">
        <ele>202.8</ele>
        <time>2021-05-09T07:30:26Z</time>
      </trkpt>
      <trkpt lat="44.25256" lon="0.7511">
        <ele>203</ele>
        <time>2021-05-09T07:30:28Z</time>
      </trkpt>
      <trkpt lat="44.25255" lon="0.75113">
        <ele>203</ele>
        <time>2021-05-09T07:30:29Z</time>
      </trkpt>
      <trkpt lat="44.25254" lon="0.75116">
        <ele>203</ele>
        <time>2021-05-09T07:30:30Z</time>
      </trkpt>
      <trkpt lat="44.25254" lon="0.7512">
        <ele>203</ele>
        <time>2021-05-09T07:30:32Z</time>
      </trkpt>
      <trkpt lat="44.25254" lon="0.75124">
        <ele>203</ele>
        <time>2021-05-09T07:30:34Z</time>
      </trkpt>
      <trkpt lat="44.25254" lon="0.75127">
        <ele>203.2</ele>
        <time>2021-05-09T07:30:36Z</time>
      </trkpt>
      <trkpt lat="44.25253" lon="0.75131">
        <ele>203.2</ele>
        <time>2021-05-09T07:30:38Z</time>
      </trkpt>
      <trkpt lat="44.25253" lon="0.75134">
        <ele>203</ele>
        <time>2021-05-09T07:30:40Z</time>
      </trkpt>
      <trkpt lat="44.25252" lon="0.75137">
        <ele>203</ele>
        <time>2021-05-09T07:30:42Z</time>
      </trkpt>
      <trkpt lat="44.25252" lon="0.75139">
        <ele>203</ele>
        <time>2021-05-09T07:30:44Z</time>
      </trkpt>
      <trkpt lat="44.25252" lon="0.75143">
        <ele>203.2</ele>
        <time>2021-05-09T07:30:46Z</time>
      </trkpt>
      <trkpt lat="44.25251" lon="0.75146">
        <ele>203.2</ele>
        <time>2021-05-09T07:30:48Z</time>
      </trkpt>
      <trkpt lat="44.25251" lon="0.75149">
        <ele>203.2</ele>
        <time>2021-05-09T07:30:50Z</time>
      </trkpt>
      <trkpt lat="44.2525" lon="0.75151">
        <ele>203.4</ele>
        <time>2021-05-09T07:30:52Z</time>
      </trkpt>
      <trkpt lat="44.2525" lon="0.75154">
        <ele>203.4</ele>
        <time>2021-05-09T07:30:54Z</time>
      </trkpt>
      <trkpt lat="44.25249" lon="0.75157">
        <ele>203.2</ele>
        <time>2021-05-09T07:30:56Z</time>
      </trkpt>
      <trkpt lat="44.25249" lon="0.7516">
        <ele>203.2</ele>
        <time>2021-05-09T07:30:58Z</time>
      </trkpt>
      <trkpt lat="44.25248" lon="0.75163">
        <ele>203.2</ele>
        <time>2021-05-09T07:31:00Z</time>
      </trkpt>
      <trkpt lat="44.25247" lon="0.75166">
        <ele>203.2</ele>
        <time>2021-05-09T07:31:02Z</time>
      </trkpt>
      <trkpt lat="44.25247" lon="0.7517">
        <ele>203.2</ele>
        <time>2021-05-09T07:31:04Z</time>
      </trkpt>
      <trkpt lat="44.25246" lon="0.75173">
        <ele>203.2</ele>
        <time>2021-05-09T07:31:06Z</time>
      </trkpt>
      <trkpt lat="44.25246" lon="0.75176">
        <ele>203.2</ele>
        <time>2021-05-09T07:31:08Z</time>
      </trkpt>
      <trkpt lat="44.25245" lon="0.7518">
        <ele>203.2</ele>
        <time>2021-05-09T07:31:10Z</time>
      </trkpt>
      <trkpt lat="44.25244" lon="0.75183">
        <ele>203.2</ele>
        <time>2021-05-09T07:31:12Z</time>
      </trkpt>
      <trkpt lat="44.25244" lon="0.75187">
        <ele>203</ele>
        <time>2021-05-09T07:31:14Z</time>
      </trkpt>
      <trkpt lat="44.25244" lon="0.75191">
        <ele>203</ele>
        <time>2021-05-09T07:31:16Z</time>
      </trkpt>
      <trkpt lat="44.25243" lon="0.75195">
        <ele>203</ele>
        <time>2021-05-09T07:31:18Z</time>
      </trkpt>
      <trkpt lat="44.25243" lon="0.752">
        <ele>203</ele>
        <time>2021-05-09T07:31:20Z</time>
      </trkpt>
      <trkpt lat="44.25242" lon="0.75204">
        <ele>203</ele>
        <time>2021-05-09T07:31:22Z</time>
      </trkpt>
      <trkpt lat="44.25242" lon="0.75208">
        <ele>203</ele>
        <time>2021-05-09T07:31:24Z</time>
      </trkpt>
      <trkpt lat="44.25241" lon="0.75212">
        <ele>203</ele>
        <time>2021-05-09T07:31:26Z</time>
      </trkpt>
      <trkpt lat="44.25241" lon="0.75215">
        <ele>203</ele>
        <time>2021-05-09T07:31:28Z</time>
      </trkpt>
      <trkpt lat="44.2524" lon="0.75218">
        <ele>203</ele>
        <time>2021-05-09T07:31:30Z</time>
      </trkpt>
      <trkpt lat="44.2524" lon="0.75221">
        <ele>203</ele>
        <time>2021-05-09T07:31:33Z</time>
      </trkpt>
      <trkpt lat="44.25239" lon="0.75224">
        <ele>203</ele>
        <time>2021-05-09T07:31:35Z</time>
      </trkpt>
      <trkpt lat="44.25238" lon="0.75226">
        <ele>203</ele>
        <time>2021-05-09T07:31:37Z</time>
      </trkpt>
      <trkpt lat="44.25237" lon="0.75229">
        <ele>203</ele>
        <time>2021-05-09T07:31:39Z</time>
      </trkpt>
      <trkpt lat="44.25236" lon="0.75232">
        <ele>203</ele>
        <time>2021-05-09T07:31:41Z</time>
      </trkpt>
      <trkpt lat="44.25236" lon="0.75236">
        <ele>203</ele>
        <time>2021-05-09T07:31:43Z</time>
      </trkpt>
      <trkpt lat="44.25235" lon="0.75239">
        <ele>203</ele>
        <time>2021-05-09T07:31:45Z</time>
      </trkpt>
      <trkpt lat="44.25234" lon="0.75242">
        <ele>203</ele>
        <time>2021-05-09T07:31:47Z</time>
      </trkpt>
      <trkpt lat="44.25233" lon="0.75245">
        <ele>203</ele>
        <time>2021-05-09T07:31:49Z</time>
      </trkpt>
      <trkpt lat="44.25232" lon="0.75248">
        <ele>203.2</ele>
        <time>2021-05-09T07:31:51Z</time>
      </trkpt>
      <trkpt lat="44.25231" lon="0.75251">
        <ele>203.2</ele>
        <time>2021-05-09T07:31:53Z</time>
      </trkpt>
      <trkpt lat="44.2523" lon="0.75254">
        <ele>203.2</ele>
        <time>2021-05-09T07:31:55Z</time>
      </trkpt>
      <trkpt lat="44.2523" lon="0.75257">
        <ele>203.2</ele>
        <time>2021-05-09T07:31:57Z</time>
      </trkpt>
      <trkpt lat="44.25228" lon="0.75259">
        <ele>203.2</ele>
        <time>2021-05-09T07:31:59Z</time>
      </trkpt>
      <trkpt lat="44.25228" lon="0.75261">
        <ele>203.2</ele>
        <time>2021-05-09T07:32:01Z</time>
      </trkpt>
      <trkpt lat="44.25227" lon="0.75265">
        <ele>203.2</ele>
        <time>2021-05-09T07:32:03Z</time>
      </trkpt>
      <trkpt lat="44.25226" lon="0.75268">
        <ele>203.2</ele>
        <time>2021-05-09T07:32:05Z</time>
      </trkpt>
      <trkpt lat="44.25226" lon="0.7527">
        <ele>203.2</ele>
        <time>2021-05-09T07:32:07Z</time>
      </trkpt>
      <trkpt lat="44.25224" lon="0.75273">
        <ele>203.4</ele>
        <time>2021-05-09T07:32:09Z</time>
      </trkpt>
      <trkpt lat="44.25223" lon="0.75277">
        <ele>203.4</ele>
        <time>2021-05-09T07:32:12Z</time>
      </trkpt>
      <trkpt lat="44.25225" lon="0.75282">
        <ele>202.6</ele>
        <time>2021-05-09T07:33:10Z</time>
      </trkpt>
      <trkpt lat="44.25228" lon="0.75284">
        <ele>202.6</ele>
        <time>2021-05-09T07:33:12Z</time>
      </trkpt>
      <trkpt lat="44.2523" lon="0.75285">
        <ele>202.4</ele>
        <time>2021-05-09T07:33:14Z</time>
      </trkpt>
      <trkpt lat="44.25234" lon="0.75286">
        <ele>202.4</ele>
        <time>2021-05-09T07:33:16Z</time>
      </trkpt>
      <trkpt lat="44.25236" lon="0.75287">
        <ele>202.2</ele>
        <time>2021-05-09T07:33:18Z</time>
      </trkpt>
      <trkpt lat="44.25239" lon="0.75289">
        <ele>202</ele>
        <time>2021-05-09T07:33:21Z</time>
      </trkpt>
      <trkpt lat="44.2524" lon="0.7529">
        <ele>202</ele>
        <time>2021-05-09T07:33:23Z</time>
      </trkpt>
      <trkpt lat="44.25243" lon="0.75292">
        <ele>202</ele>
        <time>2021-05-09T07:33:25Z</time>
      </trkpt>
      <trkpt lat="44.25246" lon="0.75294">
        <ele>202</ele>
        <time>2021-05-09T07:33:27Z</time>
      </trkpt>
      <trkpt lat="44.25248" lon="0.75296">
        <ele>201.8</ele>
        <time>2021-05-09T07:33:29Z</time>
      </trkpt>
      <trkpt lat="44.2525" lon="0.75296">
        <ele>201.8</ele>
        <time>2021-05-09T07:33:31Z</time>
      </trkpt>
      <trkpt lat="44.25252" lon="0.75298">
        <ele>201.6</ele>
        <time>2021-05-09T07:33:33Z</time>
      </trkpt>
      <trkpt lat="44.25254" lon="0.75298">
        <ele>201.4</ele>
        <time>2021-05-09T07:33:35Z</time>
      </trkpt>
      <trkpt lat="44.25256" lon="0.753">
        <ele>201.4</ele>
        <time>2021-05-09T07:33:37Z</time>
      </trkpt>
      <trkpt lat="44.25258" lon="0.75302">
        <ele>201.2</ele>
        <time>2021-05-09T07:33:39Z</time>
      </trkpt>
      <trkpt lat="44.2526" lon="0.75304">
        <ele>201</ele>
        <time>2021-05-09T07:33:41Z</time>
      </trkpt>
      <trkpt lat="44.25261" lon="0.75307">
        <ele>200.8</ele>
        <time>2021-05-09T07:33:43Z</time>
      </trkpt>
      <trkpt lat="44.25261" lon="0.75311">
        <ele>200.4</ele>
        <time>2021-05-09T07:33:45Z</time>
      </trkpt>
      <trkpt lat="44.2526" lon="0.75314">
        <ele>200.2</ele>
        <time>2021-05-09T07:33:47Z</time>
      </trkpt>
      <trkpt lat="44.25258" lon="0.75317">
        <ele>199.8</ele>
        <time>2021-05-09T07:33:49Z</time>
      </trkpt>
      <trkpt lat="44.25256" lon="0.7532">
        <ele>199.6</ele>
        <time>2021-05-09T07:33:51Z</time>
      </trkpt>
      <trkpt lat="44.25254" lon="0.75323">
        <ele>199.6</ele>
        <time>2021-05-09T07:33:53Z</time>
      </trkpt>
      <trkpt lat="44.25252" lon="0.75325">
        <ele>199.4</ele>
        <time>2021-05-09T07:33:56Z</time>
      </trkpt>
      <trkpt lat="44.25251" lon="0.75326">
        <ele>199.4</ele>
        <time>2021-05-09T07:33:58Z</time>
      </trkpt>
      <trkpt lat="44.2525" lon="0.75328">
        <ele>199.2</ele>
        <time>2021-05-09T07:34:00Z</time>
      </trkpt>
      <trkpt lat="44.25248" lon="0.7533">
        <ele>199.2</ele>
        <time>2021-05-09T07:34:02Z</time>
      </trkpt>
      <trkpt lat="44.25247" lon="0.75333">
        <ele>199</ele>
        <time>2021-05-09T07:34:04Z</time>
      </trkpt>
      <trkpt lat="44.25245" lon="0.75335">
        <ele>199</ele>
        <time>2021-05-09T07:34:06Z</time>
      </trkpt>
      <trkpt lat="44.25243" lon="0.75338">
        <ele>198.8</ele>
        <time>2021-05-09T07:34:08Z</time>
      </trkpt>
      <trkpt lat="44.25241" lon="0.75341">
        <ele>198.6</ele>
        <time>2021-05-09T07:34:11Z</time>
      </trkpt>
      <trkpt lat="44.2524" lon="0.75343">
        <ele>198.4</ele>
        <time>2021-05-09T07:34:13Z</time>
      </trkpt>
      <trkpt lat="44.25238" lon="0.75345">
        <ele>198.4</ele>
        <time>2021-05-09T07:34:15Z</time>
      </trkpt>
      <trkpt lat="44.25236" lon="0.75347">
        <ele>198.4</ele>
        <time>2021-05-09T07:34:17Z</time>
      </trkpt>
      <trkpt lat="44.25235" lon="0.75349">
        <ele>198.2</ele>
        <time>2021-05-09T07:34:19Z</time>
      </trkpt>
      <trkpt lat="44.25234" lon="0.75352">
        <ele>198.2</ele>
        <time>2021-05-09T07:34:21Z</time>
      </trkpt>
      <trkpt lat="44.25232" lon="0.75354">
        <ele>198</ele>
        <time>2021-05-09T07:34:23Z</time>
      </trkpt>
      <trkpt lat="44.2523" lon="0.75357">
        <ele>198.2</ele>
        <time>2021-05-09T07:34:25Z</time>
      </trkpt>
      <trkpt lat="44.25228" lon="0.7536">
        <ele>198.2</ele>
        <time>2021-05-09T07:34:27Z</time>
      </trkpt>
      <trkpt lat="44.25226" lon="0.75362">
        <ele>198.2</ele>
        <time>2021-05-09T07:34:29Z</time>
      </trkpt>
      <trkpt lat="44.25225" lon="0.75363">
        <ele>198.2</ele>
        <time>2021-05-09T07:34:31Z</time>
      </trkpt>
      <trkpt lat="44.25223" lon="0.75365">
        <ele>198.4</ele>
        <time>2021-05-09T07:34:33Z</time>
      </trkpt>
      <trkpt lat="44.25221" lon="0.75366">
        <ele>198.6</ele>
        <time>2021-05-09T07:34:35Z</time>
      </trkpt>
      <trkpt lat="44.25219" lon="0.75367">
        <ele>198.8</ele>
        <time>2021-05-09T07:34:37Z</time>
      </trkpt>
      <trkpt lat="44.25218" lon="0.7537">
        <ele>198.8</ele>
        <time>2021-05-09T07:34:39Z</time>
      </trkpt>
      <trkpt lat="44.25217" lon="0.75372">
        <ele>198.8</ele>
        <time>2021-05-09T07:34:41Z</time>
      </trkpt>
      <trkpt lat="44.25216" lon="0.75375">
        <ele>198.8</ele>
        <time>2021-05-09T07:34:43Z</time>
      </trkpt>
      <trkpt lat="44.25214" lon="0.75379">
        <ele>198.8</ele>
        <time>2021-05-09T07:34:45Z</time>
      </trkpt>
      <trkpt lat="44.25214" lon="0.75382">
        <ele>199</ele>
        <time>2021-05-09T07:34:48Z</time>
      </trkpt>
      <trkpt lat="44.25214" lon="0.75385">
        <ele>199</ele>
        <time>2021-05-09T07:34:50Z</time>
      </trkpt>
      <trkpt lat="44.25215" lon="0.75388">
        <ele>198.8</ele>
        <time>2021-05-09T07:34:53Z</time>
      </trkpt>
      <trkpt lat="44.25216" lon="0.75391">
        <ele>199</ele>
        <time>2021-05-09T07:34:55Z</time>
      </trkpt>
      <trkpt lat="44.25216" lon="0.75394">
        <ele>199</ele>
        <time>2021-05-09T07:34:57Z</time>
      </trkpt>
      <trkpt lat="44.25216" lon="0.75397">
        <ele>199.2</ele>
        <time>2021-05-09T07:35:00Z</time>
      </trkpt>
      <trkpt lat="44.25213" lon="0.75415">
        <ele>199.6</ele>
        <time>2021-05-09T07:35:23Z</time>
      </trkpt>
      <trkpt lat="44.25212" lon="0.75418">
        <ele>199.6</ele>
        <time>2021-05-09T07:35:25Z</time>
      </trkpt>
      <trkpt lat="44.25212" lon="0.75421">
        <ele>199.6</ele>
        <time>2021-05-09T07:35:27Z</time>
      </trkpt>
      <trkpt lat="44.25212" lon="0.75424">
        <ele>199.4</ele>
        <time>2021-05-09T07:35:29Z</time>
      </trkpt>
      <trkpt lat="44.25212" lon="0.75428">
        <ele>199.4</ele>
        <time>2021-05-09T07:35:31Z</time>
      </trkpt>
      <trkpt lat="44.25212" lon="0.7543">
        <ele>199.4</ele>
        <time>2021-05-09T07:35:32Z</time>
      </trkpt>
      <trkpt lat="44.25211" lon="0.75432">
        <ele>199.2</ele>
        <time>2021-05-09T07:35:33Z</time>
      </trkpt>
      <trkpt lat="44.25211" lon="0.75436">
        <ele>199.2</ele>
        <time>2021-05-09T07:35:35Z</time>
      </trkpt>
      <trkpt lat="44.25211" lon="0.75439">
        <ele>199.2</ele>
        <time>2021-05-09T07:35:38Z</time>
      </trkpt>
      <trkpt lat="44.2521" lon="0.75442">
        <ele>199</ele>
        <time>2021-05-09T07:35:40Z</time>
      </trkpt>
      <trkpt lat="44.25211" lon="0.75445">
        <ele>198.8</ele>
        <time>2021-05-09T07:35:42Z</time>
      </trkpt>
      <trkpt lat="44.25212" lon="0.75448">
        <ele>198.6</ele>
        <time>2021-05-09T07:35:44Z</time>
      </trkpt>
      <trkpt lat="44.25211" lon="0.75451">
        <ele>198.4</ele>
        <time>2021-05-09T07:35:46Z</time>
      </trkpt>
      <trkpt lat="44.25211" lon="0.75454">
        <ele>198</ele>
        <time>2021-05-09T07:35:48Z</time>
      </trkpt>
      <trkpt lat="44.25211" lon="0.75456">
        <ele>197.6</ele>
        <time>2021-05-09T07:35:50Z</time>
      </trkpt>
      <trkpt lat="44.2521" lon="0.75459">
        <ele>197.4</ele>
        <time>2021-05-09T07:35:52Z</time>
      </trkpt>
      <trkpt lat="44.2521" lon="0.75462">
        <ele>197</ele>
        <time>2021-05-09T07:35:54Z</time>
      </trkpt>
      <trkpt lat="44.2521" lon="0.75465">
        <ele>196.6</ele>
        <time>2021-05-09T07:35:56Z</time>
      </trkpt>
      <trkpt lat="44.2521" lon="0.75469">
        <ele>196.4</ele>
        <time>2021-05-09T07:35:58Z</time>
      </trkpt>
      <trkpt lat="44.2521" lon="0.75472">
        <ele>196.2</ele>
        <time>2021-05-09T07:36:00Z</time>
      </trkpt>
      <trkpt lat="44.2521" lon="0.75475">
        <ele>196</ele>
        <time>2021-05-09T07:36:02Z</time>
      </trkpt>
      <trkpt lat="44.25211" lon="0.75478">
        <ele>195.8</ele>
        <time>2021-05-09T07:36:04Z</time>
      </trkpt>
      <trkpt lat="44.25211" lon="0.75482">
        <ele>195.6</ele>
        <time>2021-05-09T07:36:06Z</time>
      </trkpt>
      <trkpt lat="44.2521" lon="0.75485">
        <ele>195.2</ele>
        <time>2021-05-09T07:36:08Z</time>
      </trkpt>
      <trkpt lat="44.2521" lon="0.75488">
        <ele>195</ele>
        <time>2021-05-09T07:36:10Z</time>
      </trkpt>
      <trkpt lat="44.2521" lon="0.75491">
        <ele>194.8</ele>
        <time>2021-05-09T07:36:12Z</time>
      </trkpt>
      <trkpt lat="44.25211" lon="0.75495">
        <ele>194.4</ele>
        <time>2021-05-09T07:36:14Z</time>
      </trkpt>
      <trkpt lat="44.25211" lon="0.75498">
        <ele>194.4</ele>
        <time>2021-05-09T07:36:16Z</time>
      </trkpt>
      <trkpt lat="44.25211" lon="0.75501">
        <ele>194</ele>
        <time>2021-05-09T07:36:18Z</time>
      </trkpt>
      <trkpt lat="44.25211" lon="0.75505">
        <ele>193.8</ele>
        <time>2021-05-09T07:36:20Z</time>
      </trkpt>
      <trkpt lat="44.25211" lon="0.75509">
        <ele>193.4</ele>
        <time>2021-05-09T07:36:22Z</time>
      </trkpt>
      <trkpt lat="44.25212" lon="0.75513">
        <ele>193.2</ele>
        <time>2021-05-09T07:36:24Z</time>
      </trkpt>
      <trkpt lat="44.25212" lon="0.75518">
        <ele>193</ele>
        <time>2021-05-09T07:36:26Z</time>
      </trkpt>
      <trkpt lat="44.25213" lon="0.75521">
        <ele>192.8</ele>
        <time>2021-05-09T07:36:28Z</time>
      </trkpt>
      <trkpt lat="44.25214" lon="0.75524">
        <ele>192.4</ele>
        <time>2021-05-09T07:36:30Z</time>
      </trkpt>
      <trkpt lat="44.25214" lon="0.75529">
        <ele>192.2</ele>
        <time>2021-05-09T07:36:32Z</time>
      </trkpt>
      <trkpt lat="44.25214" lon="0.75532">
        <ele>192</ele>
        <time>2021-05-09T07:36:34Z</time>
      </trkpt>
      <trkpt lat="44.25214" lon="0.75535">
        <ele>191.6</ele>
        <time>2021-05-09T07:36:36Z</time>
      </trkpt>
      <trkpt lat="44.25214" lon="0.75538">
        <ele>191.4</ele>
        <time>2021-05-09T07:36:38Z</time>
      </trkpt>
      <trkpt lat="44.25215" lon="0.75541">
        <ele>191.2</ele>
        <time>2021-05-09T07:36:40Z</time>
      </trkpt>
      <trkpt lat="44.25215" lon="0.75544">
        <ele>190.8</ele>
        <time>2021-05-09T07:36:42Z</time>
      </trkpt>
      <trkpt lat="44.25215" lon="0.75547">
        <ele>190.6</ele>
        <time>2021-05-09T07:36:44Z</time>
      </trkpt>
      <trkpt lat="44.25215" lon="0.7555">
        <ele>190.4</ele>
        <time>2021-05-09T07:36:46Z</time>
      </trkpt>
      <trkpt lat="44.25217" lon="0.75553">
        <ele>190.4</ele>
        <time>2021-05-09T07:36:48Z</time>
      </trkpt>
      <trkpt lat="44.25217" lon="0.75556">
        <ele>190.2</ele>
        <time>2021-05-09T07:36:50Z</time>
      </trkpt>
      <trkpt lat="44.25217" lon="0.75559">
        <ele>190</ele>
        <time>2021-05-09T07:36:52Z</time>
      </trkpt>
      <trkpt lat="44.25217" lon="0.75562">
        <ele>189.8</ele>
        <time>2021-05-09T07:36:54Z</time>
      </trkpt>
      <trkpt lat="44.25218" lon="0.75565">
        <ele>189.4</ele>
        <time>2021-05-09T07:36:56Z</time>
      </trkpt>
      <trkpt lat="44.25219" lon="0.75569">
        <ele>189.2</ele>
        <time>2021-05-09T07:36:58Z</time>
      </trkpt>
      <trkpt lat="44.25219" lon="0.75572">
        <ele>189</ele>
        <time>2021-05-09T07:37:00Z</time>
      </trkpt>
      <trkpt lat="44.2522" lon="0.75576">
        <ele>188.8</ele>
        <time>2021-05-09T07:37:02Z</time>
      </trkpt>
      <trkpt lat="44.25219" lon="0.7558">
        <ele>188.6</ele>
        <time>2021-05-09T07:37:04Z</time>
      </trkpt>
      <trkpt lat="44.2522" lon="0.75585">
        <ele>188.4</ele>
        <time>2021-05-09T07:37:06Z</time>
      </trkpt>
      <trkpt lat="44.25219" lon="0.75589">
        <ele>188.2</ele>
        <time>2021-05-09T07:37:08Z</time>
      </trkpt>
      <trkpt lat="44.25219" lon="0.75593">
        <ele>188.2</ele>
        <time>2021-05-09T07:37:10Z</time>
      </trkpt>
      <trkpt lat="44.25219" lon="0.75596">
        <ele>188</ele>
        <time>2021-05-09T07:37:12Z</time>
      </trkpt>
      <trkpt lat="44.25219" lon="0.756">
        <ele>187.8</ele>
        <time>2021-05-09T07:37:14Z</time>
      </trkpt>
      <trkpt lat="44.25218" lon="0.75603">
        <ele>187.6</ele>
        <time>2021-05-09T07:37:16Z</time>
      </trkpt>
      <trkpt lat="44.25218" lon="0.75607">
        <ele>187.4</ele>
        <time>2021-05-09T07:37:18Z</time>
      </trkpt>
      <trkpt lat="44.25218" lon="0.7561">
        <ele>187.2</ele>
        <time>2021-05-09T07:37:20Z</time>
      </trkpt>
      <trkpt lat="44.25217" lon="0.75614">
        <ele>186.8</ele>
        <time>2021-05-09T07:37:22Z</time>
      </trkpt>
      <trkpt lat="44.25217" lon="0.75618">
        <ele>186.6</ele>
        <time>2021-05-09T07:37:24Z</time>
      </trkpt>
      <trkpt lat="44.25217" lon="0.75621">
        <ele>186.2</ele>
        <time>2021-05-09T07:37:26Z</time>
      </trkpt>
      <trkpt lat="44.25217" lon="0.75625">
        <ele>186</ele>
        <time>2021-05-09T07:37:28Z</time>
      </trkpt>
      <trkpt lat="44.25217" lon="0.75629">
        <ele>185.6</ele>
        <time>2021-05-09T07:37:30Z</time>
      </trkpt>
      <trkpt lat="44.25217" lon="0.75633">
        <ele>185.4</ele>
        <time>2021-05-09T07:37:32Z</time>
      </trkpt>
      <trkpt lat="44.25217" lon="0.75636">
        <ele>185.2</ele>
        <time>2021-05-09T07:37:34Z</time>
      </trkpt>
      <trkpt lat="44.25217" lon="0.7564">
        <ele>185</ele>
        <time>2021-05-09T07:37:36Z</time>
      </trkpt>
      <trkpt lat="44.25217" lon="0.75644">
        <ele>185</ele>
        <time>2021-05-09T07:37:38Z</time>
      </trkpt>
      <trkpt lat="44.25218" lon="0.75647">
        <ele>184.8</ele>
        <time>2021-05-09T07:37:40Z</time>
      </trkpt>
      <trkpt lat="44.25218" lon="0.75651">
        <ele>184.6</ele>
        <time>2021-05-09T07:37:42Z</time>
      </trkpt>
      <trkpt lat="44.25218" lon="0.75654">
        <ele>184.2</ele>
        <time>2021-05-09T07:37:44Z</time>
      </trkpt>
      <trkpt lat="44.25218" lon="0.75658">
        <ele>184</ele>
        <time>2021-05-09T07:37:46Z</time>
      </trkpt>
      <trkpt lat="44.25217" lon="0.75661">
        <ele>183.8</ele>
        <time>2021-05-09T07:37:48Z</time>
      </trkpt>
      <trkpt lat="44.25218" lon="0.75664">
        <ele>183.6</ele>
        <time>2021-05-09T07:37:50Z</time>
      </trkpt>
      <trkpt lat="44.25218" lon="0.75667">
        <ele>183.4</ele>
        <time>2021-05-09T07:37:52Z</time>
      </trkpt>
      <trkpt lat="44.25218" lon="0.7567">
        <ele>183.2</ele>
        <time>2021-05-09T07:37:54Z</time>
      </trkpt>
      <trkpt lat="44.25218" lon="0.75673">
        <ele>182.8</ele>
        <time>2021-05-09T07:37:56Z</time>
      </trkpt>
      <trkpt lat="44.25218" lon="0.75676">
        <ele>182.6</ele>
        <time>2021-05-09T07:37:58Z</time>
      </trkpt>
      <trkpt lat="44.25219" lon="0.75679">
        <ele>182.2</ele>
        <time>2021-05-09T07:38:00Z</time>
      </trkpt>
      <trkpt lat="44.25219" lon="0.75681">
        <ele>182</ele>
        <time>2021-05-09T07:38:02Z</time>
      </trkpt>
      <trkpt lat="44.2522" lon="0.75684">
        <ele>182</ele>
        <time>2021-05-09T07:38:04Z</time>
      </trkpt>
      <trkpt lat="44.2522" lon="0.75687">
        <ele>181.8</ele>
        <time>2021-05-09T07:38:06Z</time>
      </trkpt>
      <trkpt lat="44.2522" lon="0.7569">
        <ele>181.8</ele>
        <time>2021-05-09T07:38:08Z</time>
      </trkpt>
      <trkpt lat="44.25219" lon="0.75693">
        <ele>181.6</ele>
        <time>2021-05-09T07:38:10Z</time>
      </trkpt>
      <trkpt lat="44.2522" lon="0.75695">
        <ele>181.4</ele>
        <time>2021-05-09T07:38:12Z</time>
      </trkpt>
      <trkpt lat="44.25219" lon="0.75698">
        <ele>181.4</ele>
        <time>2021-05-09T07:38:14Z</time>
      </trkpt>
      <trkpt lat="44.25219" lon="0.75701">
        <ele>181.2</ele>
        <time>2021-05-09T07:38:16Z</time>
      </trkpt>
      <trkpt lat="44.2522" lon="0.75704">
        <ele>181</ele>
        <time>2021-05-09T07:38:18Z</time>
      </trkpt>
      <trkpt lat="44.25222" lon="0.75706">
        <ele>181</ele>
        <time>2021-05-09T07:38:20Z</time>
      </trkpt>
      <trkpt lat="44.25225" lon="0.75707">
        <ele>180.6</ele>
        <time>2021-05-09T07:38:23Z</time>
      </trkpt>
      <trkpt lat="44.25227" lon="0.75708">
        <ele>180.4</ele>
        <time>2021-05-09T07:38:25Z</time>
      </trkpt>
      <trkpt lat="44.25228" lon="0.75708">
        <ele>180.4</ele>
        <time>2021-05-09T07:38:27Z</time>
      </trkpt>
      <trkpt lat="44.25232" lon="0.75708">
        <ele>180.2</ele>
        <time>2021-05-09T07:38:29Z</time>
      </trkpt>
      <trkpt lat="44.25234" lon="0.75707">
        <ele>180.2</ele>
        <time>2021-05-09T07:38:31Z</time>
      </trkpt>
      <trkpt lat="44.25236" lon="0.75707">
        <ele>180.2</ele>
        <time>2021-05-09T07:38:33Z</time>
      </trkpt>
      <trkpt lat="44.25239" lon="0.75707">
        <ele>180</ele>
        <time>2021-05-09T07:38:35Z</time>
      </trkpt>
      <trkpt lat="44.25241" lon="0.75707">
        <ele>179.8</ele>
        <time>2021-05-09T07:38:37Z</time>
      </trkpt>
      <trkpt lat="44.25244" lon="0.75706">
        <ele>179.4</ele>
        <time>2021-05-09T07:38:40Z</time>
      </trkpt>
      <trkpt lat="44.25246" lon="0.75706">
        <ele>179.2</ele>
        <time>2021-05-09T07:38:42Z</time>
      </trkpt>
      <trkpt lat="44.25248" lon="0.75706">
        <ele>179</ele>
        <time>2021-05-09T07:38:44Z</time>
      </trkpt>
      <trkpt lat="44.2525" lon="0.75706">
        <ele>178.8</ele>
        <time>2021-05-09T07:38:46Z</time>
      </trkpt>
      <trkpt lat="44.25252" lon="0.75705">
        <ele>178.6</ele>
        <time>2021-05-09T07:38:48Z</time>
      </trkpt>
      <trkpt lat="44.25254" lon="0.75705">
        <ele>178.6</ele>
        <time>2021-05-09T07:38:50Z</time>
      </trkpt>
      <trkpt lat="44.25257" lon="0.75706">
        <ele>178.4</ele>
        <time>2021-05-09T07:38:53Z</time>
      </trkpt>
      <trkpt lat="44.25259" lon="0.75704">
        <ele>178</ele>
        <time>2021-05-09T07:38:57Z</time>
      </trkpt>
      <trkpt lat="44.25261" lon="0.75704">
        <ele>178</ele>
        <time>2021-05-09T07:38:59Z</time>
      </trkpt>
      <trkpt lat="44.25264" lon="0.75703">
        <ele>177.8</ele>
        <time>2021-05-09T07:39:03Z</time>
      </trkpt>
      <trkpt lat="44.25267" lon="0.75703">
        <ele>177.8</ele>
        <time>2021-05-09T07:39:05Z</time>
      </trkpt>
      <trkpt lat="44.25269" lon="0.75703">
        <ele>177.6</ele>
        <time>2021-05-09T07:39:08Z</time>
      </trkpt>
      <trkpt lat="44.25271" lon="0.75703">
        <ele>177.6</ele>
        <time>2021-05-09T07:39:10Z</time>
      </trkpt>
      <trkpt lat="44.25274" lon="0.75702">
        <ele>177.4</ele>
        <time>2021-05-09T07:39:12Z</time>
      </trkpt>
      <trkpt lat="44.25276" lon="0.75702">
        <ele>177.4</ele>
        <time>2021-05-09T07:39:14Z</time>
      </trkpt>
      <trkpt lat="44.2528" lon="0.75701">
        <ele>177.4</ele>
        <time>2021-05-09T07:39:16Z</time>
      </trkpt>
      <trkpt lat="44.25282" lon="0.75701">
        <ele>177.4</ele>
        <time>2021-05-09T07:39:18Z</time>
      </trkpt>
      <trkpt lat="44.25285" lon="0.757">
        <ele>177.4</ele>
        <time>2021-05-09T07:39:20Z</time>
      </trkpt>
      <trkpt lat="44.25288" lon="0.757">
        <ele>177.4</ele>
        <time>2021-05-09T07:39:22Z</time>
      </trkpt>
      <trkpt lat="44.25291" lon="0.75699">
        <ele>177.2</ele>
        <time>2021-05-09T07:39:24Z</time>
      </trkpt>
      <trkpt lat="44.25293" lon="0.75698">
        <ele>177.2</ele>
        <time>2021-05-09T07:39:26Z</time>
      </trkpt>
      <trkpt lat="44.25295" lon="0.75697">
        <ele>177</ele>
        <time>2021-05-09T07:39:30Z</time>
      </trkpt>
      <trkpt lat="44.25297" lon="0.75696">
        <ele>176.8</ele>
        <time>2021-05-09T07:39:32Z</time>
      </trkpt>
      <trkpt lat="44.25299" lon="0.75696">
        <ele>176.8</ele>
        <time>2021-05-09T07:39:34Z</time>
      </trkpt>
      <trkpt lat="44.25301" lon="0.75695">
        <ele>176.6</ele>
        <time>2021-05-09T07:39:36Z</time>
      </trkpt>
      <trkpt lat="44.25304" lon="0.75695">
        <ele>176.4</ele>
        <time>2021-05-09T07:39:39Z</time>
      </trkpt>
      <trkpt lat="44.25305" lon="0.75693">
        <ele>176.4</ele>
        <time>2021-05-09T07:39:41Z</time>
      </trkpt>
      <trkpt lat="44.25308" lon="0.75692">
        <ele>176.4</ele>
        <time>2021-05-09T07:39:43Z</time>
      </trkpt>
      <trkpt lat="44.25309" lon="0.75691">
        <ele>176.2</ele>
        <time>2021-05-09T07:39:45Z</time>
      </trkpt>
      <trkpt lat="44.25312" lon="0.75691">
        <ele>176.2</ele>
        <time>2021-05-09T07:39:47Z</time>
      </trkpt>
      <trkpt lat="44.25315" lon="0.7569">
        <ele>176</ele>
        <time>2021-05-09T07:39:49Z</time>
      </trkpt>
      <trkpt lat="44.25317" lon="0.75689">
        <ele>176</ele>
        <time>2021-05-09T07:39:51Z</time>
      </trkpt>
      <trkpt lat="44.2532" lon="0.75688">
        <ele>175.8</ele>
        <time>2021-05-09T07:39:53Z</time>
      </trkpt>
      <trkpt lat="44.25323" lon="0.75687">
        <ele>175.8</ele>
        <time>2021-05-09T07:39:55Z</time>
      </trkpt>
      <trkpt lat="44.25326" lon="0.75688">
        <ele>175.8</ele>
        <time>2021-05-09T07:39:57Z</time>
      </trkpt>
      <trkpt lat="44.25328" lon="0.75688">
        <ele>175.8</ele>
        <time>2021-05-09T07:39:59Z</time>
      </trkpt>
      <trkpt lat="44.2533" lon="0.75688">
        <ele>175.6</ele>
        <time>2021-05-09T07:40:01Z</time>
      </trkpt>
      <trkpt lat="44.25333" lon="0.75687">
        <ele>175.6</ele>
        <time>2021-05-09T07:40:03Z</time>
      </trkpt>
      <trkpt lat="44.25335" lon="0.75686">
        <ele>175.4</ele>
        <time>2021-05-09T07:40:05Z</time>
      </trkpt>
      <trkpt lat="44.25338" lon="0.75684">
        <ele>175.4</ele>
        <time>2021-05-09T07:40:07Z</time>
      </trkpt>
      <trkpt lat="44.25341" lon="0.75683">
        <ele>175.4</ele>
        <time>2021-05-09T07:40:09Z</time>
      </trkpt>
      <trkpt lat="44.25343" lon="0.75682">
        <ele>175.2</ele>
        <time>2021-05-09T07:40:11Z</time>
      </trkpt>
      <trkpt lat="44.25346" lon="0.75681">
        <ele>175</ele>
        <time>2021-05-09T07:40:13Z</time>
      </trkpt>
      <trkpt lat="44.25348" lon="0.75679">
        <ele>175</ele>
        <time>2021-05-09T07:40:15Z</time>
      </trkpt>
      <trkpt lat="44.25351" lon="0.75678">
        <ele>174.8</ele>
        <time>2021-05-09T07:40:17Z</time>
      </trkpt>
      <trkpt lat="44.25353" lon="0.75677">
        <ele>174.6</ele>
        <time>2021-05-09T07:40:19Z</time>
      </trkpt>
      <trkpt lat="44.25355" lon="0.75675">
        <ele>174.6</ele>
        <time>2021-05-09T07:40:21Z</time>
      </trkpt>
      <trkpt lat="44.25357" lon="0.75674">
        <ele>174.6</ele>
        <time>2021-05-09T07:40:23Z</time>
      </trkpt>
      <trkpt lat="44.25359" lon="0.75673">
        <ele>174.4</ele>
        <time>2021-05-09T07:40:25Z</time>
      </trkpt>
      <trkpt lat="44.25361" lon="0.75672">
        <ele>174.4</ele>
        <time>2021-05-09T07:40:27Z</time>
      </trkpt>
      <trkpt lat="44.25363" lon="0.7567">
        <ele>174.2</ele>
        <time>2021-05-09T07:40:29Z</time>
      </trkpt>
      <trkpt lat="44.25365" lon="0.75669">
        <ele>174</ele>
        <time>2021-05-09T07:40:31Z</time>
      </trkpt>
      <trkpt lat="44.25367" lon="0.75668">
        <ele>174</ele>
        <time>2021-05-09T07:40:33Z</time>
      </trkpt>
      <trkpt lat="44.2537" lon="0.75666">
        <ele>173.8</ele>
        <time>2021-05-09T07:40:36Z</time>
      </trkpt>
      <trkpt lat="44.25372" lon="0.75665">
        <ele>173.8</ele>
        <time>2021-05-09T07:40:38Z</time>
      </trkpt>
      <trkpt lat="44.25374" lon="0.75664">
        <ele>173.6</ele>
        <time>2021-05-09T07:40:40Z</time>
      </trkpt>
      <trkpt lat="44.25376" lon="0.75662">
        <ele>173.4</ele>
        <time>2021-05-09T07:40:42Z</time>
      </trkpt>
      <trkpt lat="44.25378" lon="0.75661">
        <ele>173.4</ele>
        <time>2021-05-09T07:40:44Z</time>
      </trkpt>
      <trkpt lat="44.2538" lon="0.75659">
        <ele>173.2</ele>
        <time>2021-05-09T07:40:46Z</time>
      </trkpt>
      <trkpt lat="44.25382" lon="0.75658">
        <ele>173</ele>
        <time>2021-05-09T07:40:48Z</time>
      </trkpt>
      <trkpt lat="44.25385" lon="0.75657">
        <ele>172.8</ele>
        <time>2021-05-09T07:40:50Z</time>
      </trkpt>
      <trkpt lat="44.25387" lon="0.75655">
        <ele>172.6</ele>
        <time>2021-05-09T07:40:52Z</time>
      </trkpt>
      <trkpt lat="44.25389" lon="0.75653">
        <ele>172.6</ele>
        <time>2021-05-09T07:40:54Z</time>
      </trkpt>
      <trkpt lat="44.25392" lon="0.75651">
        <ele>172.6</ele>
        <time>2021-05-09T07:40:56Z</time>
      </trkpt>
      <trkpt lat="44.25394" lon="0.75648">
        <ele>172.4</ele>
        <time>2021-05-09T07:40:58Z</time>
      </trkpt>
      <trkpt lat="44.25396" lon="0.75646">
        <ele>172.4</ele>
        <time>2021-05-09T07:41:00Z</time>
      </trkpt>
      <trkpt lat="44.25399" lon="0.75644">
        <ele>172.2</ele>
        <time>2021-05-09T07:41:02Z</time>
      </trkpt>
      <trkpt lat="44.25401" lon="0.75642">
        <ele>172.2</ele>
        <time>2021-05-09T07:41:04Z</time>
      </trkpt>
      <trkpt lat="44.25403" lon="0.7564">
        <ele>172</ele>
        <time>2021-05-09T07:41:06Z</time>
      </trkpt>
      <trkpt lat="44.25405" lon="0.75637">
        <ele>172</ele>
        <time>2021-05-09T07:41:08Z</time>
      </trkpt>
      <trkpt lat="44.25408" lon="0.75635">
        <ele>171.8</ele>
        <time>2021-05-09T07:41:10Z</time>
      </trkpt>
      <trkpt lat="44.2541" lon="0.75632">
        <ele>171.6</ele>
        <time>2021-05-09T07:41:12Z</time>
      </trkpt>
      <trkpt lat="44.25412" lon="0.7563">
        <ele>171.4</ele>
        <time>2021-05-09T07:41:14Z</time>
      </trkpt>
      <trkpt lat="44.25414" lon="0.75628">
        <ele>171.2</ele>
        <time>2021-05-09T07:41:16Z</time>
      </trkpt>
      <trkpt lat="44.25416" lon="0.75626">
        <ele>171</ele>
        <time>2021-05-09T07:41:18Z</time>
      </trkpt>
      <trkpt lat="44.25418" lon="0.75623">
        <ele>171</ele>
        <time>2021-05-09T07:41:20Z</time>
      </trkpt>
      <trkpt lat="44.2542" lon="0.75621">
        <ele>171</ele>
        <time>2021-05-09T07:41:22Z</time>
      </trkpt>
      <trkpt lat="44.25422" lon="0.75619">
        <ele>171</ele>
        <time>2021-05-09T07:41:24Z</time>
      </trkpt>
      <trkpt lat="44.25424" lon="0.75617">
        <ele>171</ele>
        <time>2021-05-09T07:41:26Z</time>
      </trkpt>
      <trkpt lat="44.25427" lon="0.75615">
        <ele>170.8</ele>
        <time>2021-05-09T07:41:28Z</time>
      </trkpt>
      <trkpt lat="44.25429" lon="0.75613">
        <ele>170.8</ele>
        <time>2021-05-09T07:41:30Z</time>
      </trkpt>
      <trkpt lat="44.25431" lon="0.7561">
        <ele>170.8</ele>
        <time>2021-05-09T07:41:32Z</time>
      </trkpt>
      <trkpt lat="44.25432" lon="0.75608">
        <ele>170.8</ele>
        <time>2021-05-09T07:41:34Z</time>
      </trkpt>
      <trkpt lat="44.25434" lon="0.75606">
        <ele>170.6</ele>
        <time>2021-05-09T07:41:36Z</time>
      </trkpt>
      <trkpt lat="44.25436" lon="0.75604">
        <ele>170.2</ele>
        <time>2021-05-09T07:41:38Z</time>
      </trkpt>
      <trkpt lat="44.25437" lon="0.75602">
        <ele>170.2</ele>
        <time>2021-05-09T07:41:40Z</time>
      </trkpt>
      <trkpt lat="44.25439" lon="0.75601">
        <ele>170.2</ele>
        <time>2021-05-09T07:41:42Z</time>
      </trkpt>
      <trkpt lat="44.25441" lon="0.75599">
        <ele>170</ele>
        <time>2021-05-09T07:41:44Z</time>
      </trkpt>
      <trkpt lat="44.25443" lon="0.75596">
        <ele>169.8</ele>
        <time>2021-05-09T07:41:47Z</time>
      </trkpt>
      <trkpt lat="44.25444" lon="0.75593">
        <ele>169.6</ele>
        <time>2021-05-09T07:41:50Z</time>
      </trkpt>
      <trkpt lat="44.25446" lon="0.75592">
        <ele>169.4</ele>
        <time>2021-05-09T07:41:52Z</time>
      </trkpt>
      <trkpt lat="44.25448" lon="0.7559">
        <ele>169.4</ele>
        <time>2021-05-09T07:41:54Z</time>
      </trkpt>
      <trkpt lat="44.2545" lon="0.75588">
        <ele>169.2</ele>
        <time>2021-05-09T07:41:56Z</time>
      </trkpt>
      <trkpt lat="44.25451" lon="0.75587">
        <ele>169</ele>
        <time>2021-05-09T07:41:58Z</time>
      </trkpt>
      <trkpt lat="44.25453" lon="0.75585">
        <ele>169</ele>
        <time>2021-05-09T07:42:00Z</time>
      </trkpt>
      <trkpt lat="44.25455" lon="0.75584">
        <ele>169</ele>
        <time>2021-05-09T07:42:02Z</time>
      </trkpt>
      <trkpt lat="44.25457" lon="0.75582">
        <ele>168.8</ele>
        <time>2021-05-09T07:42:04Z</time>
      </trkpt>
      <trkpt lat="44.2546" lon="0.7558">
        <ele>168.8</ele>
        <time>2021-05-09T07:42:06Z</time>
      </trkpt>
      <trkpt lat="44.25461" lon="0.75578">
        <ele>168.6</ele>
        <time>2021-05-09T07:42:08Z</time>
      </trkpt>
      <trkpt lat="44.25463" lon="0.75576">
        <ele>168.6</ele>
        <time>2021-05-09T07:42:10Z</time>
      </trkpt>
      <trkpt lat="44.25465" lon="0.75575">
        <ele>168.4</ele>
        <time>2021-05-09T07:42:12Z</time>
      </trkpt>
      <trkpt lat="44.25468" lon="0.75573">
        <ele>168.2</ele>
        <time>2021-05-09T07:42:14Z</time>
      </trkpt>
      <trkpt lat="44.25469" lon="0.75572">
        <ele>168.2</ele>
        <time>2021-05-09T07:42:16Z</time>
      </trkpt>
      <trkpt lat="44.25471" lon="0.7557">
        <ele>168.2</ele>
        <time>2021-05-09T07:42:19Z</time>
      </trkpt>
      <trkpt lat="44.25473" lon="0.75569">
        <ele>168.2</ele>
        <time>2021-05-09T07:42:21Z</time>
      </trkpt>
      <trkpt lat="44.25475" lon="0.75567">
        <ele>168.2</ele>
        <time>2021-05-09T07:42:23Z</time>
      </trkpt>
      <trkpt lat="44.25477" lon="0.75566">
        <ele>168.2</ele>
        <time>2021-05-09T07:42:25Z</time>
      </trkpt>
      <trkpt lat="44.25479" lon="0.75565">
        <ele>168</ele>
        <time>2021-05-09T07:42:27Z</time>
      </trkpt>
      <trkpt lat="44.25482" lon="0.75563">
        <ele>168</ele>
        <time>2021-05-09T07:42:29Z</time>
      </trkpt>
      <trkpt lat="44.25484" lon="0.75562">
        <ele>168</ele>
        <time>2021-05-09T07:42:31Z</time>
      </trkpt>
      <trkpt lat="44.25486" lon="0.7556">
        <ele>168</ele>
        <time>2021-05-09T07:42:33Z</time>
      </trkpt>
      <trkpt lat="44.25489" lon="0.75558">
        <ele>167.8</ele>
        <time>2021-05-09T07:42:35Z</time>
      </trkpt>
      <trkpt lat="44.25492" lon="0.75556">
        <ele>167.8</ele>
        <time>2021-05-09T07:42:37Z</time>
      </trkpt>
      <trkpt lat="44.25494" lon="0.75555">
        <ele>167.8</ele>
        <time>2021-05-09T07:42:39Z</time>
      </trkpt>
      <trkpt lat="44.25497" lon="0.75553">
        <ele>167.8</ele>
        <time>2021-05-09T07:42:41Z</time>
      </trkpt>
      <trkpt lat="44.25499" lon="0.75552">
        <ele>167.6</ele>
        <time>2021-05-09T07:42:43Z</time>
      </trkpt>
      <trkpt lat="44.25502" lon="0.7555">
        <ele>167.6</ele>
        <time>2021-05-09T07:42:45Z</time>
      </trkpt>
      <trkpt lat="44.25504" lon="0.75548">
        <ele>167.6</ele>
        <time>2021-05-09T07:42:47Z</time>
      </trkpt>
      <trkpt lat="44.25507" lon="0.75547">
        <ele>167.4</ele>
        <time>2021-05-09T07:42:49Z</time>
      </trkpt>
      <trkpt lat="44.25508" lon="0.75546">
        <ele>167.4</ele>
        <time>2021-05-09T07:42:51Z</time>
      </trkpt>
      <trkpt lat="44.25511" lon="0.75545">
        <ele>167.4</ele>
        <time>2021-05-09T07:42:53Z</time>
      </trkpt>
      <trkpt lat="44.25513" lon="0.75544">
        <ele>167.2</ele>
        <time>2021-05-09T07:42:55Z</time>
      </trkpt>
      <trkpt lat="44.25516" lon="0.75543">
        <ele>167.2</ele>
        <time>2021-05-09T07:42:57Z</time>
      </trkpt>
      <trkpt lat="44.25518" lon="0.75542">
        <ele>167</ele>
        <time>2021-05-09T07:42:59Z</time>
      </trkpt>
      <trkpt lat="44.2552" lon="0.75542">
        <ele>167</ele>
        <time>2021-05-09T07:43:01Z</time>
      </trkpt>
      <trkpt lat="44.25522" lon="0.7554">
        <ele>167</ele>
        <time>2021-05-09T07:43:03Z</time>
      </trkpt>
      <trkpt lat="44.25524" lon="0.75538">
        <ele>166.8</ele>
        <time>2021-05-09T07:43:06Z</time>
      </trkpt>
      <trkpt lat="44.25526" lon="0.75536">
        <ele>166.6</ele>
        <time>2021-05-09T07:43:08Z</time>
      </trkpt>
      <trkpt lat="44.25527" lon="0.75535">
        <ele>166.6</ele>
        <time>2021-05-09T07:43:10Z</time>
      </trkpt>
      <trkpt lat="44.25529" lon="0.75533">
        <ele>166.6</ele>
        <time>2021-05-09T07:43:12Z</time>
      </trkpt>
      <trkpt lat="44.25531" lon="0.75531">
        <ele>166.6</ele>
        <time>2021-05-09T07:43:14Z</time>
      </trkpt>
      <trkpt lat="44.25532" lon="0.75529">
        <ele>166.4</ele>
        <time>2021-05-09T07:43:16Z</time>
      </trkpt>
      <trkpt lat="44.25534" lon="0.75527">
        <ele>166.4</ele>
        <time>2021-05-09T07:43:18Z</time>
      </trkpt>
      <trkpt lat="44.25535" lon="0.75526">
        <ele>166.4</ele>
        <time>2021-05-09T07:43:20Z</time>
      </trkpt>
      <trkpt lat="44.25538" lon="0.75524">
        <ele>166.2</ele>
        <time>2021-05-09T07:43:22Z</time>
      </trkpt>
      <trkpt lat="44.25539" lon="0.75522">
        <ele>166</ele>
        <time>2021-05-09T07:43:24Z</time>
      </trkpt>
      <trkpt lat="44.25541" lon="0.7552">
        <ele>165.8</ele>
        <time>2021-05-09T07:43:26Z</time>
      </trkpt>
      <trkpt lat="44.25543" lon="0.75518">
        <ele>165.8</ele>
        <time>2021-05-09T07:43:28Z</time>
      </trkpt>
      <trkpt lat="44.25545" lon="0.75516">
        <ele>165.8</ele>
        <time>2021-05-09T07:43:30Z</time>
      </trkpt>
      <trkpt lat="44.25548" lon="0.75514">
        <ele>165.8</ele>
        <time>2021-05-09T07:43:32Z</time>
      </trkpt>
      <trkpt lat="44.2555" lon="0.75512">
        <ele>165.8</ele>
        <time>2021-05-09T07:43:34Z</time>
      </trkpt>
      <trkpt lat="44.25551" lon="0.75511">
        <ele>166</ele>
        <time>2021-05-09T07:43:35Z</time>
      </trkpt>
      <trkpt lat="44.25554" lon="0.75508">
        <ele>166</ele>
        <time>2021-05-09T07:43:37Z</time>
      </trkpt>
      <trkpt lat="44.25556" lon="0.75505">
        <ele>165.8</ele>
        <time>2021-05-09T07:43:39Z</time>
      </trkpt>
      <trkpt lat="44.25559" lon="0.75503">
        <ele>166</ele>
        <time>2021-05-09T07:43:41Z</time>
      </trkpt>
      <trkpt lat="44.25561" lon="0.75501">
        <ele>166</ele>
        <time>2021-05-09T07:43:43Z</time>
      </trkpt>
      <trkpt lat="44.25564" lon="0.75499">
        <ele>166</ele>
        <time>2021-05-09T07:43:45Z</time>
      </trkpt>
      <trkpt lat="44.25565" lon="0.75496">
        <ele>166</ele>
        <time>2021-05-09T07:43:47Z</time>
      </trkpt>
      <trkpt lat="44.25568" lon="0.75493">
        <ele>166</ele>
        <time>2021-05-09T07:43:49Z</time>
      </trkpt>
      <trkpt lat="44.2557" lon="0.75491">
        <ele>166</ele>
        <time>2021-05-09T07:43:51Z</time>
      </trkpt>
      <trkpt lat="44.25572" lon="0.75489">
        <ele>166</ele>
        <time>2021-05-09T07:43:53Z</time>
      </trkpt>
      <trkpt lat="44.25574" lon="0.75487">
        <ele>166.2</ele>
        <time>2021-05-09T07:43:55Z</time>
      </trkpt>
      <trkpt lat="44.25576" lon="0.75485">
        <ele>166.4</ele>
        <time>2021-05-09T07:43:57Z</time>
      </trkpt>
      <trkpt lat="44.25578" lon="0.75483">
        <ele>166.4</ele>
        <time>2021-05-09T07:43:59Z</time>
      </trkpt>
      <trkpt lat="44.2558" lon="0.75482">
        <ele>166.6</ele>
        <time>2021-05-09T07:44:01Z</time>
      </trkpt>
      <trkpt lat="44.25581" lon="0.7548">
        <ele>166.6</ele>
        <time>2021-05-09T07:44:03Z</time>
      </trkpt>
      <trkpt lat="44.25583" lon="0.75478">
        <ele>166.8</ele>
        <time>2021-05-09T07:44:05Z</time>
      </trkpt>
      <trkpt lat="44.25585" lon="0.75475">
        <ele>167</ele>
        <time>2021-05-09T07:44:08Z</time>
      </trkpt>
      <trkpt lat="44.25586" lon="0.75473">
        <ele>166.8</ele>
        <time>2021-05-09T07:44:10Z</time>
      </trkpt>
      <trkpt lat="44.25588" lon="0.75471">
        <ele>166.8</ele>
        <time>2021-05-09T07:44:12Z</time>
      </trkpt>
      <trkpt lat="44.25589" lon="0.75469">
        <ele>166.6</ele>
        <time>2021-05-09T07:44:14Z</time>
      </trkpt>
      <trkpt lat="44.2559" lon="0.75467">
        <ele>166.6</ele>
        <time>2021-05-09T07:44:16Z</time>
      </trkpt>
      <trkpt lat="44.25592" lon="0.75465">
        <ele>166.6</ele>
        <time>2021-05-09T07:44:18Z</time>
      </trkpt>
      <trkpt lat="44.25594" lon="0.75463">
        <ele>166.4</ele>
        <time>2021-05-09T07:44:21Z</time>
      </trkpt>
      <trkpt lat="44.25596" lon="0.7546">
        <ele>166.4</ele>
        <time>2021-05-09T07:44:24Z</time>
      </trkpt>
      <trkpt lat="44.25597" lon="0.75458">
        <ele>166.4</ele>
        <time>2021-05-09T07:44:26Z</time>
      </trkpt>
      <trkpt lat="44.25599" lon="0.75456">
        <ele>166.2</ele>
        <time>2021-05-09T07:44:28Z</time>
      </trkpt>
      <trkpt lat="44.25601" lon="0.75454">
        <ele>166.2</ele>
        <time>2021-05-09T07:44:30Z</time>
      </trkpt>
      <trkpt lat="44.25604" lon="0.75452">
        <ele>166.4</ele>
        <time>2021-05-09T07:44:32Z</time>
      </trkpt>
      <trkpt lat="44.25606" lon="0.7545">
        <ele>166.4</ele>
        <time>2021-05-09T07:44:34Z</time>
      </trkpt>
      <trkpt lat="44.25608" lon="0.75448">
        <ele>166.4</ele>
        <time>2021-05-09T07:44:36Z</time>
      </trkpt>
      <trkpt lat="44.25611" lon="0.75445">
        <ele>166.2</ele>
        <time>2021-05-09T07:44:38Z</time>
      </trkpt>
      <trkpt lat="44.25614" lon="0.75443">
        <ele>166.2</ele>
        <time>2021-05-09T07:44:40Z</time>
      </trkpt>
      <trkpt lat="44.25616" lon="0.7544">
        <ele>166</ele>
        <time>2021-05-09T07:44:42Z</time>
      </trkpt>
      <trkpt lat="44.25617" lon="0.75438">
        <ele>165.8</ele>
        <time>2021-05-09T07:44:44Z</time>
      </trkpt>
      <trkpt lat="44.2562" lon="0.75436">
        <ele>165.8</ele>
        <time>2021-05-09T07:44:46Z</time>
      </trkpt>
      <trkpt lat="44.25622" lon="0.75434">
        <ele>165.6</ele>
        <time>2021-05-09T07:44:48Z</time>
      </trkpt>
      <trkpt lat="44.25624" lon="0.75432">
        <ele>165.4</ele>
        <time>2021-05-09T07:44:50Z</time>
      </trkpt>
      <trkpt lat="44.25626" lon="0.75429">
        <ele>165.2</ele>
        <time>2021-05-09T07:44:52Z</time>
      </trkpt>
      <trkpt lat="44.25626" lon="0.75426">
        <ele>165.2</ele>
        <time>2021-05-09T07:44:54Z</time>
      </trkpt>
      <trkpt lat="44.25628" lon="0.75424">
        <ele>165</ele>
        <time>2021-05-09T07:44:56Z</time>
      </trkpt>
      <trkpt lat="44.25629" lon="0.75422">
        <ele>164.8</ele>
        <time>2021-05-09T07:44:58Z</time>
      </trkpt>
      <trkpt lat="44.2563" lon="0.75419">
        <ele>164.6</ele>
        <time>2021-05-09T07:45:00Z</time>
      </trkpt>
      <trkpt lat="44.25631" lon="0.75417">
        <ele>164.4</ele>
        <time>2021-05-09T07:45:02Z</time>
      </trkpt>
      <trkpt lat="44.25632" lon="0.75414">
        <ele>164.2</ele>
        <time>2021-05-09T07:45:05Z</time>
      </trkpt>
      <trkpt lat="44.25633" lon="0.75412">
        <ele>164</ele>
        <time>2021-05-09T07:45:07Z</time>
      </trkpt>
      <trkpt lat="44.25634" lon="0.75409">
        <ele>164</ele>
        <time>2021-05-09T07:45:09Z</time>
      </trkpt>
      <trkpt lat="44.25636" lon="0.75406">
        <ele>163.8</ele>
        <time>2021-05-09T07:45:11Z</time>
      </trkpt>
      <trkpt lat="44.25637" lon="0.75403">
        <ele>163.6</ele>
        <time>2021-05-09T07:45:13Z</time>
      </trkpt>
      <trkpt lat="44.25638" lon="0.75401">
        <ele>163.4</ele>
        <time>2021-05-09T07:45:15Z</time>
      </trkpt>
      <trkpt lat="44.2564" lon="0.75398">
        <ele>163.4</ele>
        <time>2021-05-09T07:45:17Z</time>
      </trkpt>
      <trkpt lat="44.25641" lon="0.75396">
        <ele>163.2</ele>
        <time>2021-05-09T07:45:19Z</time>
      </trkpt>
      <trkpt lat="44.25643" lon="0.75394">
        <ele>163</ele>
        <time>2021-05-09T07:45:21Z</time>
      </trkpt>
      <trkpt lat="44.25645" lon="0.75392">
        <ele>162.8</ele>
        <time>2021-05-09T07:45:23Z</time>
      </trkpt>
      <trkpt lat="44.25646" lon="0.7539">
        <ele>162.6</ele>
        <time>2021-05-09T07:45:25Z</time>
      </trkpt>
      <trkpt lat="44.25648" lon="0.75387">
        <ele>162.6</ele>
        <time>2021-05-09T07:45:27Z</time>
      </trkpt>
      <trkpt lat="44.2565" lon="0.75385">
        <ele>162.4</ele>
        <time>2021-05-09T07:45:29Z</time>
      </trkpt>
      <trkpt lat="44.25651" lon="0.75383">
        <ele>162.2</ele>
        <time>2021-05-09T07:45:31Z</time>
      </trkpt>
      <trkpt lat="44.25653" lon="0.7538">
        <ele>162.2</ele>
        <time>2021-05-09T07:45:33Z</time>
      </trkpt>
      <trkpt lat="44.25655" lon="0.75378">
        <ele>162</ele>
        <time>2021-05-09T07:45:35Z</time>
      </trkpt>
      <trkpt lat="44.25656" lon="0.75375">
        <ele>161.8</ele>
        <time>2021-05-09T07:45:37Z</time>
      </trkpt>
      <trkpt lat="44.25658" lon="0.75373">
        <ele>161.8</ele>
        <time>2021-05-09T07:45:39Z</time>
      </trkpt>
      <trkpt lat="44.2566" lon="0.75371">
        <ele>161.6</ele>
        <time>2021-05-09T07:45:41Z</time>
      </trkpt>
      <trkpt lat="44.25661" lon="0.75369">
        <ele>161.4</ele>
        <time>2021-05-09T07:45:43Z</time>
      </trkpt>
      <trkpt lat="44.25663" lon="0.75366">
        <ele>161.4</ele>
        <time>2021-05-09T07:45:45Z</time>
      </trkpt>
      <trkpt lat="44.25665" lon="0.75365">
        <ele>161.2</ele>
        <time>2021-05-09T07:45:46Z</time>
      </trkpt>
      <trkpt lat="44.25666" lon="0.75363">
        <ele>161</ele>
        <time>2021-05-09T07:45:48Z</time>
      </trkpt>
      <trkpt lat="44.25668" lon="0.7536">
        <ele>160.8</ele>
        <time>2021-05-09T07:45:50Z</time>
      </trkpt>
      <trkpt lat="44.25669" lon="0.75358">
        <ele>160.8</ele>
        <time>2021-05-09T07:45:52Z</time>
      </trkpt>
      <trkpt lat="44.25671" lon="0.75356">
        <ele>160.6</ele>
        <time>2021-05-09T07:45:54Z</time>
      </trkpt>
      <trkpt lat="44.25673" lon="0.75353">
        <ele>160.6</ele>
        <time>2021-05-09T07:45:56Z</time>
      </trkpt>
      <trkpt lat="44.25675" lon="0.75351">
        <ele>160.6</ele>
        <time>2021-05-09T07:45:58Z</time>
      </trkpt>
      <trkpt lat="44.25676" lon="0.75349">
        <ele>160.4</ele>
        <time>2021-05-09T07:46:00Z</time>
      </trkpt>
      <trkpt lat="44.25679" lon="0.75347">
        <ele>160.2</ele>
        <time>2021-05-09T07:46:02Z</time>
      </trkpt>
      <trkpt lat="44.2568" lon="0.75345">
        <ele>160.2</ele>
        <time>2021-05-09T07:46:04Z</time>
      </trkpt>
      <trkpt lat="44.25683" lon="0.75342">
        <ele>160.2</ele>
        <time>2021-05-09T07:46:06Z</time>
      </trkpt>
      <trkpt lat="44.25684" lon="0.75339">
        <ele>160.2</ele>
        <time>2021-05-09T07:46:08Z</time>
      </trkpt>
      <trkpt lat="44.25687" lon="0.75336">
        <ele>160.2</ele>
        <time>2021-05-09T07:46:10Z</time>
      </trkpt>
      <trkpt lat="44.25688" lon="0.75334">
        <ele>160</ele>
        <time>2021-05-09T07:46:12Z</time>
      </trkpt>
      <trkpt lat="44.2569" lon="0.75331">
        <ele>160</ele>
        <time>2021-05-09T07:46:14Z</time>
      </trkpt>
      <trkpt lat="44.25692" lon="0.75328">
        <ele>160</ele>
        <time>2021-05-09T07:46:16Z</time>
      </trkpt>
      <trkpt lat="44.25693" lon="0.75325">
        <ele>159.8</ele>
        <time>2021-05-09T07:46:18Z</time>
      </trkpt>
      <trkpt lat="44.25695" lon="0.75323">
        <ele>159.6</ele>
        <time>2021-05-09T07:46:19Z</time>
      </trkpt>
      <trkpt lat="44.25696" lon="0.7532">
        <ele>159.6</ele>
        <time>2021-05-09T07:46:21Z</time>
      </trkpt>
      <trkpt lat="44.25697" lon="0.75317">
        <ele>159.6</ele>
        <time>2021-05-09T07:46:23Z</time>
      </trkpt>
      <trkpt lat="44.25698" lon="0.75314">
        <ele>159.4</ele>
        <time>2021-05-09T07:46:25Z</time>
      </trkpt>
      <trkpt lat="44.257" lon="0.75311">
        <ele>159.2</ele>
        <time>2021-05-09T07:46:27Z</time>
      </trkpt>
      <trkpt lat="44.257" lon="0.75308">
        <ele>159.2</ele>
        <time>2021-05-09T07:46:29Z</time>
      </trkpt>
      <trkpt lat="44.25701" lon="0.75305">
        <ele>159</ele>
        <time>2021-05-09T07:46:31Z</time>
      </trkpt>
      <trkpt lat="44.25703" lon="0.75303">
        <ele>159</ele>
        <time>2021-05-09T07:46:33Z</time>
      </trkpt>
      <trkpt lat="44.25704" lon="0.75301">
        <ele>159</ele>
        <time>2021-05-09T07:46:35Z</time>
      </trkpt>
      <trkpt lat="44.25707" lon="0.75301">
        <ele>159</ele>
        <time>2021-05-09T07:46:37Z</time>
      </trkpt>
      <trkpt lat="44.2571" lon="0.75302">
        <ele>158.4</ele>
        <time>2021-05-09T07:46:49Z</time>
      </trkpt>
      <trkpt lat="44.25715" lon="0.75306">
        <ele>158.2</ele>
        <time>2021-05-09T07:47:30Z</time>
      </trkpt>
      <trkpt lat="44.25717" lon="0.75308">
        <ele>158.2</ele>
        <time>2021-05-09T07:47:35Z</time>
      </trkpt>
      <trkpt lat="44.25719" lon="0.7531">
        <ele>158.2</ele>
        <time>2021-05-09T07:47:39Z</time>
      </trkpt>
      <trkpt lat="44.25722" lon="0.75311">
        <ele>158.6</ele>
        <time>2021-05-09T07:48:08Z</time>
      </trkpt>
      <trkpt lat="44.25724" lon="0.75311">
        <ele>158.6</ele>
        <time>2021-05-09T07:48:09Z</time>
      </trkpt>
      <trkpt lat="44.25725" lon="0.75312">
        <ele>158.6</ele>
        <time>2021-05-09T07:48:10Z</time>
      </trkpt>
      <trkpt lat="44.25728" lon="0.75312">
        <ele>158.8</ele>
        <time>2021-05-09T07:48:11Z</time>
      </trkpt>
      <trkpt lat="44.25732" lon="0.75313">
        <ele>158.8</ele>
        <time>2021-05-09T07:48:13Z</time>
      </trkpt>
      <trkpt lat="44.25733" lon="0.75314">
        <ele>159</ele>
        <time>2021-05-09T07:48:14Z</time>
      </trkpt>
      <trkpt lat="44.25736" lon="0.75315">
        <ele>159</ele>
        <time>2021-05-09T07:48:15Z</time>
      </trkpt>
      <trkpt lat="44.25738" lon="0.75315">
        <ele>159</ele>
        <time>2021-05-09T07:48:16Z</time>
      </trkpt>
      <trkpt lat="44.2574" lon="0.75316">
        <ele>159.2</ele>
        <time>2021-05-09T07:48:18Z</time>
      </trkpt>
      <trkpt lat="44.25742" lon="0.75317">
        <ele>159.4</ele>
        <time>2021-05-09T07:48:20Z</time>
      </trkpt>
      <trkpt lat="44.25744" lon="0.75317">
        <ele>159.6</ele>
        <time>2021-05-09T07:48:22Z</time>
      </trkpt>
      <trkpt lat="44.25747" lon="0.75318">
        <ele>159.6</ele>
        <time>2021-05-09T07:48:24Z</time>
      </trkpt>
      <trkpt lat="44.25749" lon="0.75319">
        <ele>159.8</ele>
        <time>2021-05-09T07:48:26Z</time>
      </trkpt>
      <trkpt lat="44.25751" lon="0.75319">
        <ele>159.8</ele>
        <time>2021-05-09T07:48:28Z</time>
      </trkpt>
      <trkpt lat="44.25753" lon="0.7532">
        <ele>159.8</ele>
        <time>2021-05-09T07:48:30Z</time>
      </trkpt>
      <trkpt lat="44.25755" lon="0.75321">
        <ele>160</ele>
        <time>2021-05-09T07:48:33Z</time>
      </trkpt>
      <trkpt lat="44.25757" lon="0.75322">
        <ele>160.2</ele>
        <time>2021-05-09T07:48:35Z</time>
      </trkpt>
      <trkpt lat="44.25759" lon="0.75322">
        <ele>160.2</ele>
        <time>2021-05-09T07:48:38Z</time>
      </trkpt>
      <trkpt lat="44.25763" lon="0.75321">
        <ele>160.4</ele>
        <time>2021-05-09T07:48:42Z</time>
      </trkpt>
      <trkpt lat="44.25766" lon="0.75322">
        <ele>160.4</ele>
        <time>2021-05-09T07:48:44Z</time>
      </trkpt>
      <trkpt lat="44.25768" lon="0.75323">
        <ele>160.4</ele>
        <time>2021-05-09T07:48:46Z</time>
      </trkpt>
      <trkpt lat="44.2577" lon="0.75324">
        <ele>160.4</ele>
        <time>2021-05-09T07:48:48Z</time>
      </trkpt>
      <trkpt lat="44.25772" lon="0.75326">
        <ele>160.6</ele>
        <time>2021-05-09T07:48:50Z</time>
      </trkpt>
      <trkpt lat="44.25774" lon="0.75327">
        <ele>160.6</ele>
        <time>2021-05-09T07:48:52Z</time>
      </trkpt>
      <trkpt lat="44.25776" lon="0.75328">
        <ele>160.6</ele>
        <time>2021-05-09T07:48:54Z</time>
      </trkpt>
      <trkpt lat="44.25778" lon="0.75329">
        <ele>160.8</ele>
        <time>2021-05-09T07:48:56Z</time>
      </trkpt>
      <trkpt lat="44.2578" lon="0.7533">
        <ele>161</ele>
        <time>2021-05-09T07:48:58Z</time>
      </trkpt>
      <trkpt lat="44.25782" lon="0.75331">
        <ele>161.2</ele>
        <time>2021-05-09T07:49:00Z</time>
      </trkpt>
      <trkpt lat="44.25785" lon="0.75332">
        <ele>161.2</ele>
        <time>2021-05-09T07:49:02Z</time>
      </trkpt>
      <trkpt lat="44.25787" lon="0.75332">
        <ele>161.4</ele>
        <time>2021-05-09T07:49:04Z</time>
      </trkpt>
      <trkpt lat="44.25789" lon="0.75333">
        <ele>161.4</ele>
        <time>2021-05-09T07:49:06Z</time>
      </trkpt>
      <trkpt lat="44.25791" lon="0.75334">
        <ele>161.6</ele>
        <time>2021-05-09T07:49:08Z</time>
      </trkpt>
      <trkpt lat="44.25794" lon="0.75335">
        <ele>161.8</ele>
        <time>2021-05-09T07:49:10Z</time>
      </trkpt>
      <trkpt lat="44.25796" lon="0.75336">
        <ele>162</ele>
        <time>2021-05-09T07:49:12Z</time>
      </trkpt>
      <trkpt lat="44.25798" lon="0.75337">
        <ele>162.2</ele>
        <time>2021-05-09T07:49:14Z</time>
      </trkpt>
      <trkpt lat="44.258" lon="0.75338">
        <ele>162.2</ele>
        <time>2021-05-09T07:49:16Z</time>
      </trkpt>
      <trkpt lat="44.25802" lon="0.75339">
        <ele>162.6</ele>
        <time>2021-05-09T07:49:18Z</time>
      </trkpt>
      <trkpt lat="44.25805" lon="0.7534">
        <ele>162.6</ele>
        <time>2021-05-09T07:49:20Z</time>
      </trkpt>
      <trkpt lat="44.25808" lon="0.75342">
        <ele>162.8</ele>
        <time>2021-05-09T07:49:22Z</time>
      </trkpt>
      <trkpt lat="44.2581" lon="0.75342">
        <ele>163</ele>
        <time>2021-05-09T07:49:24Z</time>
      </trkpt>
      <trkpt lat="44.25812" lon="0.75343">
        <ele>163.2</ele>
        <time>2021-05-09T07:49:26Z</time>
      </trkpt>
      <trkpt lat="44.25815" lon="0.75342">
        <ele>163.6</ele>
        <time>2021-05-09T07:49:28Z</time>
      </trkpt>
      <trkpt lat="44.25817" lon="0.75343">
        <ele>163.8</ele>
        <time>2021-05-09T07:49:30Z</time>
      </trkpt>
      <trkpt lat="44.2582" lon="0.75344">
        <ele>164</ele>
        <time>2021-05-09T07:49:32Z</time>
      </trkpt>
      <trkpt lat="44.25822" lon="0.75346">
        <ele>164.2</ele>
        <time>2021-05-09T07:49:33Z</time>
      </trkpt>
      <trkpt lat="44.25824" lon="0.75346">
        <ele>164.4</ele>
        <time>2021-05-09T07:49:35Z</time>
      </trkpt>
      <trkpt lat="44.25828" lon="0.75348">
        <ele>164.8</ele>
        <time>2021-05-09T07:49:37Z</time>
      </trkpt>
      <trkpt lat="44.25829" lon="0.75349">
        <ele>165</ele>
        <time>2021-05-09T07:49:39Z</time>
      </trkpt>
      <trkpt lat="44.25832" lon="0.7535">
        <ele>165</ele>
        <time>2021-05-09T07:49:41Z</time>
      </trkpt>
      <trkpt lat="44.25834" lon="0.75352">
        <ele>165</ele>
        <time>2021-05-09T07:49:43Z</time>
      </trkpt>
      <trkpt lat="44.25836" lon="0.75352">
        <ele>165</ele>
        <time>2021-05-09T07:49:45Z</time>
      </trkpt>
      <trkpt lat="44.25838" lon="0.75352">
        <ele>165</ele>
        <time>2021-05-09T07:49:47Z</time>
      </trkpt>
      <trkpt lat="44.2584" lon="0.75352">
        <ele>165</ele>
        <time>2021-05-09T07:49:49Z</time>
      </trkpt>
      <trkpt lat="44.25843" lon="0.75352">
        <ele>165.2</ele>
        <time>2021-05-09T07:49:51Z</time>
      </trkpt>
      <trkpt lat="44.25845" lon="0.75352">
        <ele>165</ele>
        <time>2021-05-09T07:49:53Z</time>
      </trkpt>
      <trkpt lat="44.25847" lon="0.75353">
        <ele>165.2</ele>
        <time>2021-05-09T07:49:55Z</time>
      </trkpt>
      <trkpt lat="44.25849" lon="0.75353">
        <ele>165.4</ele>
        <time>2021-05-09T07:49:56Z</time>
      </trkpt>
      <trkpt lat="44.25852" lon="0.75354">
        <ele>165.6</ele>
        <time>2021-05-09T07:49:58Z</time>
      </trkpt>
      <trkpt lat="44.25854" lon="0.75354">
        <ele>165.6</ele>
        <time>2021-05-09T07:50:00Z</time>
      </trkpt>
      <trkpt lat="44.25856" lon="0.75355">
        <ele>165.8</ele>
        <time>2021-05-09T07:50:02Z</time>
      </trkpt>
      <trkpt lat="44.25859" lon="0.75355">
        <ele>165.8</ele>
        <time>2021-05-09T07:50:04Z</time>
      </trkpt>
      <trkpt lat="44.2586" lon="0.75356">
        <ele>165.8</ele>
        <time>2021-05-09T07:50:06Z</time>
      </trkpt>
      <trkpt lat="44.25862" lon="0.75356">
        <ele>165.8</ele>
        <time>2021-05-09T07:50:08Z</time>
      </trkpt>
      <trkpt lat="44.25864" lon="0.75356">
        <ele>165.6</ele>
        <time>2021-05-09T07:50:10Z</time>
      </trkpt>
      <trkpt lat="44.25867" lon="0.75357">
        <ele>165.6</ele>
        <time>2021-05-09T07:50:12Z</time>
      </trkpt>
      <trkpt lat="44.25869" lon="0.75357">
        <ele>165.6</ele>
        <time>2021-05-09T07:50:14Z</time>
      </trkpt>
      <trkpt lat="44.25871" lon="0.75358">
        <ele>165.4</ele>
        <time>2021-05-09T07:50:16Z</time>
      </trkpt>
      <trkpt lat="44.25873" lon="0.75358">
        <ele>165.4</ele>
        <time>2021-05-09T07:50:18Z</time>
      </trkpt>
      <trkpt lat="44.25876" lon="0.75359">
        <ele>165.4</ele>
        <time>2021-05-09T07:50:20Z</time>
      </trkpt>
      <trkpt lat="44.25878" lon="0.75359">
        <ele>165.4</ele>
        <time>2021-05-09T07:50:23Z</time>
      </trkpt>
      <trkpt lat="44.25881" lon="0.75359">
        <ele>165.6</ele>
        <time>2021-05-09T07:50:25Z</time>
      </trkpt>
      <trkpt lat="44.25884" lon="0.75359">
        <ele>165.6</ele>
        <time>2021-05-09T07:50:27Z</time>
      </trkpt>
      <trkpt lat="44.25886" lon="0.75359">
        <ele>165.6</ele>
        <time>2021-05-09T07:50:30Z</time>
      </trkpt>
      <trkpt lat="44.25888" lon="0.75359">
        <ele>165.8</ele>
        <time>2021-05-09T07:50:32Z</time>
      </trkpt>
      <trkpt lat="44.2589" lon="0.7536">
        <ele>165.8</ele>
        <time>2021-05-09T07:50:34Z</time>
      </trkpt>
      <trkpt lat="44.25892" lon="0.7536">
        <ele>166</ele>
        <time>2021-05-09T07:50:36Z</time>
      </trkpt>
      <trkpt lat="44.25895" lon="0.75361">
        <ele>166</ele>
        <time>2021-05-09T07:50:38Z</time>
      </trkpt>
      <trkpt lat="44.25898" lon="0.75362">
        <ele>166</ele>
        <time>2021-05-09T07:50:40Z</time>
      </trkpt>
      <trkpt lat="44.259" lon="0.75362">
        <ele>166</ele>
        <time>2021-05-09T07:50:42Z</time>
      </trkpt>
      <trkpt lat="44.25902" lon="0.75363">
        <ele>166</ele>
        <time>2021-05-09T07:50:44Z</time>
      </trkpt>
      <trkpt lat="44.25905" lon="0.75363">
        <ele>166.2</ele>
        <time>2021-05-09T07:50:46Z</time>
      </trkpt>
      <trkpt lat="44.25907" lon="0.75363">
        <ele>166.2</ele>
        <time>2021-05-09T07:50:48Z</time>
      </trkpt>
      <trkpt lat="44.25909" lon="0.75363">
        <ele>166.2</ele>
        <time>2021-05-09T07:50:50Z</time>
      </trkpt>
      <trkpt lat="44.25911" lon="0.75364">
        <ele>166.4</ele>
        <time>2021-05-09T07:50:52Z</time>
      </trkpt>
      <trkpt lat="44.25914" lon="0.75364">
        <ele>166.6</ele>
        <time>2021-05-09T07:50:54Z</time>
      </trkpt>
      <trkpt lat="44.25916" lon="0.75364">
        <ele>166.8</ele>
        <time>2021-05-09T07:50:56Z</time>
      </trkpt>
      <trkpt lat="44.25918" lon="0.75364">
        <ele>167</ele>
        <time>2021-05-09T07:50:58Z</time>
      </trkpt>
      <trkpt lat="44.2592" lon="0.75365">
        <ele>167.2</ele>
        <time>2021-05-09T07:51:00Z</time>
      </trkpt>
      <trkpt lat="44.25922" lon="0.75365">
        <ele>167.2</ele>
        <time>2021-05-09T07:51:02Z</time>
      </trkpt>
      <trkpt lat="44.25925" lon="0.75365">
        <ele>167.4</ele>
        <time>2021-05-09T07:51:04Z</time>
      </trkpt>
      <trkpt lat="44.25927" lon="0.75365">
        <ele>167.4</ele>
        <time>2021-05-09T07:51:06Z</time>
      </trkpt>
      <trkpt lat="44.25929" lon="0.75366">
        <ele>167.4</ele>
        <time>2021-05-09T07:51:08Z</time>
      </trkpt>
      <trkpt lat="44.25932" lon="0.75366">
        <ele>167.4</ele>
        <time>2021-05-09T07:51:10Z</time>
      </trkpt>
      <trkpt lat="44.25934" lon="0.75366">
        <ele>167.4</ele>
        <time>2021-05-09T07:51:12Z</time>
      </trkpt>
      <trkpt lat="44.25936" lon="0.75367">
        <ele>167.4</ele>
        <time>2021-05-09T07:51:14Z</time>
      </trkpt>
      <trkpt lat="44.25938" lon="0.75367">
        <ele>167.6</ele>
        <time>2021-05-09T07:51:16Z</time>
      </trkpt>
      <trkpt lat="44.2594" lon="0.75368">
        <ele>167.6</ele>
        <time>2021-05-09T07:51:18Z</time>
      </trkpt>
      <trkpt lat="44.25942" lon="0.75368">
        <ele>167.6</ele>
        <time>2021-05-09T07:51:20Z</time>
      </trkpt>
      <trkpt lat="44.25945" lon="0.75368">
        <ele>167.6</ele>
        <time>2021-05-09T07:51:22Z</time>
      </trkpt>
      <trkpt lat="44.25947" lon="0.75368">
        <ele>167.8</ele>
        <time>2021-05-09T07:51:24Z</time>
      </trkpt>
      <trkpt lat="44.25949" lon="0.75369">
        <ele>167.8</ele>
        <time>2021-05-09T07:51:26Z</time>
      </trkpt>
      <trkpt lat="44.25951" lon="0.75369">
        <ele>168</ele>
        <time>2021-05-09T07:51:28Z</time>
      </trkpt>
      <trkpt lat="44.25954" lon="0.7537">
        <ele>168.2</ele>
        <time>2021-05-09T07:51:30Z</time>
      </trkpt>
      <trkpt lat="44.25956" lon="0.7537">
        <ele>168.4</ele>
        <time>2021-05-09T07:51:32Z</time>
      </trkpt>
      <trkpt lat="44.25959" lon="0.75371">
        <ele>168.6</ele>
        <time>2021-05-09T07:51:34Z</time>
      </trkpt>
      <trkpt lat="44.25961" lon="0.75372">
        <ele>168.8</ele>
        <time>2021-05-09T07:51:36Z</time>
      </trkpt>
      <trkpt lat="44.25964" lon="0.75372">
        <ele>168.8</ele>
        <time>2021-05-09T07:51:38Z</time>
      </trkpt>
      <trkpt lat="44.25965" lon="0.75372">
        <ele>169</ele>
        <time>2021-05-09T07:51:40Z</time>
      </trkpt>
      <trkpt lat="44.25967" lon="0.75373">
        <ele>169</ele>
        <time>2021-05-09T07:51:42Z</time>
      </trkpt>
      <trkpt lat="44.2597" lon="0.75375">
        <ele>169</ele>
        <time>2021-05-09T07:51:44Z</time>
      </trkpt>
      <trkpt lat="44.25972" lon="0.75376">
        <ele>169</ele>
        <time>2021-05-09T07:51:46Z</time>
      </trkpt>
      <trkpt lat="44.25974" lon="0.75378">
        <ele>169.2</ele>
        <time>2021-05-09T07:51:48Z</time>
      </trkpt>
      <trkpt lat="44.25977" lon="0.75379">
        <ele>169.2</ele>
        <time>2021-05-09T07:51:50Z</time>
      </trkpt>
      <trkpt lat="44.25979" lon="0.75381">
        <ele>169.2</ele>
        <time>2021-05-09T07:51:52Z</time>
      </trkpt>
      <trkpt lat="44.2598" lon="0.75382">
        <ele>169.4</ele>
        <time>2021-05-09T07:51:54Z</time>
      </trkpt>
      <trkpt lat="44.25983" lon="0.75384">
        <ele>169.4</ele>
        <time>2021-05-09T07:51:56Z</time>
      </trkpt>
      <trkpt lat="44.25985" lon="0.75385">
        <ele>169.4</ele>
        <time>2021-05-09T07:51:58Z</time>
      </trkpt>
      <trkpt lat="44.25987" lon="0.75387">
        <ele>169.6</ele>
        <time>2021-05-09T07:52:00Z</time>
      </trkpt>
      <trkpt lat="44.25988" lon="0.75389">
        <ele>169.6</ele>
        <time>2021-05-09T07:52:02Z</time>
      </trkpt>
      <trkpt lat="44.2599" lon="0.75391">
        <ele>169.6</ele>
        <time>2021-05-09T07:52:04Z</time>
      </trkpt>
      <trkpt lat="44.25992" lon="0.75393">
        <ele>169.6</ele>
        <time>2021-05-09T07:52:06Z</time>
      </trkpt>
      <trkpt lat="44.25994" lon="0.75395">
        <ele>169.6</ele>
        <time>2021-05-09T07:52:08Z</time>
      </trkpt>
      <trkpt lat="44.25996" lon="0.75397">
        <ele>169.6</ele>
        <time>2021-05-09T07:52:10Z</time>
      </trkpt>
      <trkpt lat="44.25998" lon="0.75399">
        <ele>169.6</ele>
        <time>2021-05-09T07:52:12Z</time>
      </trkpt>
      <trkpt lat="44.26" lon="0.75402">
        <ele>169.6</ele>
        <time>2021-05-09T07:52:14Z</time>
      </trkpt>
      <trkpt lat="44.26003" lon="0.75404">
        <ele>169.6</ele>
        <time>2021-05-09T07:52:16Z</time>
      </trkpt>
      <trkpt lat="44.26004" lon="0.75406">
        <ele>169.6</ele>
        <time>2021-05-09T07:52:18Z</time>
      </trkpt>
      <trkpt lat="44.26006" lon="0.75409">
        <ele>169.6</ele>
        <time>2021-05-09T07:52:20Z</time>
      </trkpt>
      <trkpt lat="44.26008" lon="0.7541">
        <ele>169.6</ele>
        <time>2021-05-09T07:52:22Z</time>
      </trkpt>
      <trkpt lat="44.2601" lon="0.75413">
        <ele>169.8</ele>
        <time>2021-05-09T07:52:24Z</time>
      </trkpt>
      <trkpt lat="44.26012" lon="0.75415">
        <ele>169.8</ele>
        <time>2021-05-09T07:52:26Z</time>
      </trkpt>
      <trkpt lat="44.26013" lon="0.75417">
        <ele>169.8</ele>
        <time>2021-05-09T07:52:28Z</time>
      </trkpt>
      <trkpt lat="44.26015" lon="0.7542">
        <ele>170</ele>
        <time>2021-05-09T07:52:30Z</time>
      </trkpt>
      <trkpt lat="44.26017" lon="0.75422">
        <ele>170</ele>
        <time>2021-05-09T07:52:32Z</time>
      </trkpt>
      <trkpt lat="44.26018" lon="0.75424">
        <ele>170</ele>
        <time>2021-05-09T07:52:34Z</time>
      </trkpt>
      <trkpt lat="44.2602" lon="0.75426">
        <ele>170</ele>
        <time>2021-05-09T07:52:36Z</time>
      </trkpt>
      <trkpt lat="44.26021" lon="0.75428">
        <ele>169.8</ele>
        <time>2021-05-09T07:52:38Z</time>
      </trkpt>
      <trkpt lat="44.26023" lon="0.7543">
        <ele>169.8</ele>
        <time>2021-05-09T07:52:40Z</time>
      </trkpt>
      <trkpt lat="44.26025" lon="0.75432">
        <ele>169.8</ele>
        <time>2021-05-09T07:52:42Z</time>
      </trkpt>
      <trkpt lat="44.26027" lon="0.75435">
        <ele>169.8</ele>
        <time>2021-05-09T07:52:44Z</time>
      </trkpt>
      <trkpt lat="44.26028" lon="0.75437">
        <ele>169.8</ele>
        <time>2021-05-09T07:52:46Z</time>
      </trkpt>
      <trkpt lat="44.26029" lon="0.7544">
        <ele>169.8</ele>
        <time>2021-05-09T07:52:48Z</time>
      </trkpt>
      <trkpt lat="44.26031" lon="0.75443">
        <ele>169.8</ele>
        <time>2021-05-09T07:52:50Z</time>
      </trkpt>
      <trkpt lat="44.26032" lon="0.75445">
        <ele>169.8</ele>
        <time>2021-05-09T07:52:52Z</time>
      </trkpt>
      <trkpt lat="44.26033" lon="0.75448">
        <ele>169.8</ele>
        <time>2021-05-09T07:52:54Z</time>
      </trkpt>
      <trkpt lat="44.26034" lon="0.7545">
        <ele>169.8</ele>
        <time>2021-05-09T07:52:56Z</time>
      </trkpt>
      <trkpt lat="44.26035" lon="0.75452">
        <ele>169.6</ele>
        <time>2021-05-09T07:52:58Z</time>
      </trkpt>
      <trkpt lat="44.26037" lon="0.75455">
        <ele>169.4</ele>
        <time>2021-05-09T07:53:00Z</time>
      </trkpt>
      <trkpt lat="44.26038" lon="0.75458">
        <ele>169.2</ele>
        <time>2021-05-09T07:53:02Z</time>
      </trkpt>
      <trkpt lat="44.26039" lon="0.75461">
        <ele>169</ele>
        <time>2021-05-09T07:53:04Z</time>
      </trkpt>
      <trkpt lat="44.2604" lon="0.75463">
        <ele>168.8</ele>
        <time>2021-05-09T07:53:06Z</time>
      </trkpt>
      <trkpt lat="44.26042" lon="0.75466">
        <ele>168.6</ele>
        <time>2021-05-09T07:53:08Z</time>
      </trkpt>
      <trkpt lat="44.26043" lon="0.75468">
        <ele>168.4</ele>
        <time>2021-05-09T07:53:10Z</time>
      </trkpt>
      <trkpt lat="44.26045" lon="0.75471">
        <ele>168.2</ele>
        <time>2021-05-09T07:53:12Z</time>
      </trkpt>
      <trkpt lat="44.26047" lon="0.75473">
        <ele>168</ele>
        <time>2021-05-09T07:53:14Z</time>
      </trkpt>
      <trkpt lat="44.26049" lon="0.75475">
        <ele>168</ele>
        <time>2021-05-09T07:53:16Z</time>
      </trkpt>
      <trkpt lat="44.26051" lon="0.75477">
        <ele>167.8</ele>
        <time>2021-05-09T07:53:18Z</time>
      </trkpt>
      <trkpt lat="44.26053" lon="0.75479">
        <ele>167.6</ele>
        <time>2021-05-09T07:53:20Z</time>
      </trkpt>
      <trkpt lat="44.26055" lon="0.7548">
        <ele>167.6</ele>
        <time>2021-05-09T07:53:22Z</time>
      </trkpt>
      <trkpt lat="44.26057" lon="0.75481">
        <ele>167.6</ele>
        <time>2021-05-09T07:53:24Z</time>
      </trkpt>
      <trkpt lat="44.26059" lon="0.75482">
        <ele>167.4</ele>
        <time>2021-05-09T07:53:26Z</time>
      </trkpt>
      <trkpt lat="44.26062" lon="0.75483">
        <ele>167.2</ele>
        <time>2021-05-09T07:53:28Z</time>
      </trkpt>
      <trkpt lat="44.26065" lon="0.75484">
        <ele>167</ele>
        <time>2021-05-09T07:53:31Z</time>
      </trkpt>
      <trkpt lat="44.26067" lon="0.75484">
        <ele>166.8</ele>
        <time>2021-05-09T07:53:33Z</time>
      </trkpt>
      <trkpt lat="44.26068" lon="0.75485">
        <ele>166.6</ele>
        <time>2021-05-09T07:53:35Z</time>
      </trkpt>
      <trkpt lat="44.26071" lon="0.75485">
        <ele>166.4</ele>
        <time>2021-05-09T07:53:37Z</time>
      </trkpt>
      <trkpt lat="44.26074" lon="0.75485">
        <ele>166.4</ele>
        <time>2021-05-09T07:53:39Z</time>
      </trkpt>
      <trkpt lat="44.26076" lon="0.75485">
        <ele>166.2</ele>
        <time>2021-05-09T07:53:41Z</time>
      </trkpt>
      <trkpt lat="44.26078" lon="0.75486">
        <ele>166.2</ele>
        <time>2021-05-09T07:53:43Z</time>
      </trkpt>
      <trkpt lat="44.2608" lon="0.75486">
        <ele>166</ele>
        <time>2021-05-09T07:53:45Z</time>
      </trkpt>
      <trkpt lat="44.26082" lon="0.75487">
        <ele>165.6</ele>
        <time>2021-05-09T07:53:47Z</time>
      </trkpt>
      <trkpt lat="44.26084" lon="0.75487">
        <ele>165.4</ele>
        <time>2021-05-09T07:53:49Z</time>
      </trkpt>
      <trkpt lat="44.26087" lon="0.75488">
        <ele>165.2</ele>
        <time>2021-05-09T07:53:51Z</time>
      </trkpt>
      <trkpt lat="44.26089" lon="0.75488">
        <ele>165</ele>
        <time>2021-05-09T07:53:53Z</time>
      </trkpt>
      <trkpt lat="44.26091" lon="0.75489">
        <ele>164.8</ele>
        <time>2021-05-09T07:53:55Z</time>
      </trkpt>
      <trkpt lat="44.26093" lon="0.75489">
        <ele>164.6</ele>
        <time>2021-05-09T07:53:57Z</time>
      </trkpt>
      <trkpt lat="44.26096" lon="0.75489">
        <ele>164.4</ele>
        <time>2021-05-09T07:53:59Z</time>
      </trkpt>
      <trkpt lat="44.26098" lon="0.7549">
        <ele>164.2</ele>
        <time>2021-05-09T07:54:01Z</time>
      </trkpt>
      <trkpt lat="44.261" lon="0.7549">
        <ele>164.2</ele>
        <time>2021-05-09T07:54:03Z</time>
      </trkpt>
      <trkpt lat="44.26103" lon="0.75491">
        <ele>164</ele>
        <time>2021-05-09T07:54:05Z</time>
      </trkpt>
      <trkpt lat="44.26106" lon="0.75491">
        <ele>163.8</ele>
        <time>2021-05-09T07:54:07Z</time>
      </trkpt>
      <trkpt lat="44.26108" lon="0.75491">
        <ele>163.6</ele>
        <time>2021-05-09T07:54:09Z</time>
      </trkpt>
      <trkpt lat="44.2611" lon="0.75492">
        <ele>163.4</ele>
        <time>2021-05-09T07:54:11Z</time>
      </trkpt>
      <trkpt lat="44.26113" lon="0.75492">
        <ele>163.2</ele>
        <time>2021-05-09T07:54:13Z</time>
      </trkpt>
      <trkpt lat="44.26116" lon="0.75492">
        <ele>163</ele>
        <time>2021-05-09T07:54:16Z</time>
      </trkpt>
      <trkpt lat="44.26119" lon="0.75493">
        <ele>162.8</ele>
        <time>2021-05-09T07:54:18Z</time>
      </trkpt>
      <trkpt lat="44.26122" lon="0.75493">
        <ele>162.6</ele>
        <time>2021-05-09T07:54:20Z</time>
      </trkpt>
      <trkpt lat="44.26124" lon="0.75493">
        <ele>162.4</ele>
        <time>2021-05-09T07:54:22Z</time>
      </trkpt>
      <trkpt lat="44.26126" lon="0.75493">
        <ele>162.4</ele>
        <time>2021-05-09T07:54:24Z</time>
      </trkpt>
      <trkpt lat="44.26129" lon="0.75493">
        <ele>162.2</ele>
        <time>2021-05-09T07:54:26Z</time>
      </trkpt>
      <trkpt lat="44.26131" lon="0.75493">
        <ele>162</ele>
        <time>2021-05-09T07:54:28Z</time>
      </trkpt>
      <trkpt lat="44.26133" lon="0.75494">
        <ele>161.8</ele>
        <time>2021-05-09T07:54:30Z</time>
      </trkpt>
      <trkpt lat="44.26136" lon="0.75493">
        <ele>161.4</ele>
        <time>2021-05-09T07:54:33Z</time>
      </trkpt>
      <trkpt lat="44.26138" lon="0.75493">
        <ele>161.2</ele>
        <time>2021-05-09T07:54:35Z</time>
      </trkpt>
      <trkpt lat="44.2614" lon="0.75493">
        <ele>161</ele>
        <time>2021-05-09T07:54:37Z</time>
      </trkpt>
      <trkpt lat="44.26142" lon="0.75493">
        <ele>160.8</ele>
        <time>2021-05-09T07:54:39Z</time>
      </trkpt>
      <trkpt lat="44.26145" lon="0.75493">
        <ele>160.8</ele>
        <time>2021-05-09T07:54:41Z</time>
      </trkpt>
      <trkpt lat="44.26148" lon="0.75493">
        <ele>160.8</ele>
        <time>2021-05-09T07:54:43Z</time>
      </trkpt>
      <trkpt lat="44.2615" lon="0.75493">
        <ele>160.6</ele>
        <time>2021-05-09T07:54:45Z</time>
      </trkpt>
      <trkpt lat="44.26153" lon="0.75493">
        <ele>160.6</ele>
        <time>2021-05-09T07:54:47Z</time>
      </trkpt>
      <trkpt lat="44.26156" lon="0.75493">
        <ele>160.6</ele>
        <time>2021-05-09T07:54:49Z</time>
      </trkpt>
      <trkpt lat="44.26158" lon="0.75493">
        <ele>160.6</ele>
        <time>2021-05-09T07:54:51Z</time>
      </trkpt>
      <trkpt lat="44.26161" lon="0.75492">
        <ele>160.6</ele>
        <time>2021-05-09T07:54:53Z</time>
      </trkpt>
      <trkpt lat="44.26164" lon="0.75492">
        <ele>160.6</ele>
        <time>2021-05-09T07:54:55Z</time>
      </trkpt>
      <trkpt lat="44.26167" lon="0.75491">
        <ele>160.4</ele>
        <time>2021-05-09T07:54:57Z</time>
      </trkpt>
      <trkpt lat="44.2617" lon="0.75491">
        <ele>160.2</ele>
        <time>2021-05-09T07:54:59Z</time>
      </trkpt>
      <trkpt lat="44.26173" lon="0.75491">
        <ele>160</ele>
        <time>2021-05-09T07:55:01Z</time>
      </trkpt>
      <trkpt lat="44.26176" lon="0.75491">
        <ele>160</ele>
        <time>2021-05-09T07:55:03Z</time>
      </trkpt>
      <trkpt lat="44.26178" lon="0.75491">
        <ele>160</ele>
        <time>2021-05-09T07:55:05Z</time>
      </trkpt>
      <trkpt lat="44.2618" lon="0.75491">
        <ele>159.8</ele>
        <time>2021-05-09T07:55:06Z</time>
      </trkpt>
      <trkpt lat="44.26183" lon="0.75491">
        <ele>159.8</ele>
        <time>2021-05-09T07:55:08Z</time>
      </trkpt>
      <trkpt lat="44.26185" lon="0.7549">
        <ele>159.8</ele>
        <time>2021-05-09T07:55:10Z</time>
      </trkpt>
      <trkpt lat="44.26188" lon="0.7549">
        <ele>159.6</ele>
        <time>2021-05-09T07:55:12Z</time>
      </trkpt>
      <trkpt lat="44.26191" lon="0.7549">
        <ele>159.6</ele>
        <time>2021-05-09T07:55:14Z</time>
      </trkpt>
      <trkpt lat="44.26194" lon="0.75489">
        <ele>159.6</ele>
        <time>2021-05-09T07:55:16Z</time>
      </trkpt>
      <trkpt lat="44.26196" lon="0.75488">
        <ele>159.4</ele>
        <time>2021-05-09T07:55:18Z</time>
      </trkpt>
      <trkpt lat="44.26199" lon="0.75486">
        <ele>159.4</ele>
        <time>2021-05-09T07:55:20Z</time>
      </trkpt>
      <trkpt lat="44.26201" lon="0.75485">
        <ele>159.4</ele>
        <time>2021-05-09T07:55:23Z</time>
      </trkpt>
      <trkpt lat="44.26202" lon="0.75483">
        <ele>159.2</ele>
        <time>2021-05-09T07:55:27Z</time>
      </trkpt>
      <trkpt lat="44.26204" lon="0.75482">
        <ele>158.8</ele>
        <time>2021-05-09T07:55:29Z</time>
      </trkpt>
      <trkpt lat="44.26206" lon="0.75482">
        <ele>158.6</ele>
        <time>2021-05-09T07:55:31Z</time>
      </trkpt>
      <trkpt lat="44.26209" lon="0.75482">
        <ele>158.4</ele>
        <time>2021-05-09T07:55:33Z</time>
      </trkpt>
      <trkpt lat="44.26211" lon="0.75482">
        <ele>158.4</ele>
        <time>2021-05-09T07:55:35Z</time>
      </trkpt>
      <trkpt lat="44.26214" lon="0.75482">
        <ele>158.4</ele>
        <time>2021-05-09T07:55:37Z</time>
      </trkpt>
      <trkpt lat="44.26216" lon="0.75483">
        <ele>158.6</ele>
        <time>2021-05-09T07:55:40Z</time>
      </trkpt>
      <trkpt lat="44.26219" lon="0.75482">
        <ele>158.8</ele>
        <time>2021-05-09T07:55:43Z</time>
      </trkpt>
      <trkpt lat="44.26221" lon="0.75483">
        <ele>159</ele>
        <time>2021-05-09T07:55:45Z</time>
      </trkpt>
      <trkpt lat="44.26223" lon="0.75483">
        <ele>159</ele>
        <time>2021-05-09T07:55:46Z</time>
      </trkpt>
      <trkpt lat="44.26225" lon="0.75482">
        <ele>159</ele>
        <time>2021-05-09T07:55:48Z</time>
      </trkpt>
      <trkpt lat="44.26228" lon="0.75482">
        <ele>159.2</ele>
        <time>2021-05-09T07:55:50Z</time>
      </trkpt>
      <trkpt lat="44.26231" lon="0.75482">
        <ele>159.2</ele>
        <time>2021-05-09T07:55:52Z</time>
      </trkpt>
      <trkpt lat="44.26233" lon="0.75482">
        <ele>159.4</ele>
        <time>2021-05-09T07:55:55Z</time>
      </trkpt>
      <trkpt lat="44.26235" lon="0.75483">
        <ele>159.4</ele>
        <time>2021-05-09T07:55:57Z</time>
      </trkpt>
      <trkpt lat="44.26237" lon="0.75484">
        <ele>159.4</ele>
        <time>2021-05-09T07:55:59Z</time>
      </trkpt>
      <trkpt lat="44.2624" lon="0.75486">
        <ele>159.2</ele>
        <time>2021-05-09T07:56:01Z</time>
      </trkpt>
      <trkpt lat="44.26242" lon="0.75487">
        <ele>159</ele>
        <time>2021-05-09T07:56:03Z</time>
      </trkpt>
      <trkpt lat="44.26244" lon="0.75488">
        <ele>158.8</ele>
        <time>2021-05-09T07:56:05Z</time>
      </trkpt>
      <trkpt lat="44.26247" lon="0.75489">
        <ele>158.8</ele>
        <time>2021-05-09T07:56:07Z</time>
      </trkpt>
      <trkpt lat="44.26249" lon="0.75491">
        <ele>158.8</ele>
        <time>2021-05-09T07:56:09Z</time>
      </trkpt>
      <trkpt lat="44.26251" lon="0.75492">
        <ele>158.6</ele>
        <time>2021-05-09T07:56:11Z</time>
      </trkpt>
      <trkpt lat="44.26252" lon="0.75494">
        <ele>158.4</ele>
        <time>2021-05-09T07:56:14Z</time>
      </trkpt>
      <trkpt lat="44.26253" lon="0.75497">
        <ele>158</ele>
        <time>2021-05-09T07:56:17Z</time>
      </trkpt>
      <trkpt lat="44.26255" lon="0.75499">
        <ele>157.6</ele>
        <time>2021-05-09T07:56:20Z</time>
      </trkpt>
      <trkpt lat="44.26259" lon="0.75504">
        <ele>156</ele>
        <time>2021-05-09T07:56:29Z</time>
      </trkpt>
      <trkpt lat="44.2626" lon="0.75506">
        <ele>155.6</ele>
        <time>2021-05-09T07:56:32Z</time>
      </trkpt>
      <trkpt lat="44.26262" lon="0.75509">
        <ele>155.2</ele>
        <time>2021-05-09T07:56:35Z</time>
      </trkpt>
      <trkpt lat="44.26262" lon="0.75512">
        <ele>154.8</ele>
        <time>2021-05-09T07:56:38Z</time>
      </trkpt>
      <trkpt lat="44.26263" lon="0.75515">
        <ele>154.2</ele>
        <time>2021-05-09T07:56:42Z</time>
      </trkpt>
      <trkpt lat="44.26267" lon="0.75519">
        <ele>153.6</ele>
        <time>2021-05-09T07:56:46Z</time>
      </trkpt>
      <trkpt lat="44.26268" lon="0.75521">
        <ele>153.6</ele>
        <time>2021-05-09T07:56:47Z</time>
      </trkpt>
      <trkpt lat="44.2627" lon="0.75523">
        <ele>153</ele>
        <time>2021-05-09T07:56:49Z</time>
      </trkpt>
      <trkpt lat="44.26271" lon="0.75526">
        <ele>152.8</ele>
        <time>2021-05-09T07:56:50Z</time>
      </trkpt>
      <trkpt lat="44.26273" lon="0.75527">
        <ele>152.6</ele>
        <time>2021-05-09T07:56:51Z</time>
      </trkpt>
      <trkpt lat="44.26275" lon="0.75529">
        <ele>152.4</ele>
        <time>2021-05-09T07:56:52Z</time>
      </trkpt>
      <trkpt lat="44.26276" lon="0.7553">
        <ele>152.2</ele>
        <time>2021-05-09T07:56:53Z</time>
      </trkpt>
      <trkpt lat="44.26278" lon="0.75533">
        <ele>152</ele>
        <time>2021-05-09T07:56:55Z</time>
      </trkpt>
      <trkpt lat="44.2628" lon="0.75535">
        <ele>151.8</ele>
        <time>2021-05-09T07:56:58Z</time>
      </trkpt>
      <trkpt lat="44.26283" lon="0.75537">
        <ele>151.8</ele>
        <time>2021-05-09T07:57:00Z</time>
      </trkpt>
      <trkpt lat="44.26285" lon="0.75539">
        <ele>151.6</ele>
        <time>2021-05-09T07:57:02Z</time>
      </trkpt>
      <trkpt lat="44.26287" lon="0.75541">
        <ele>151.4</ele>
        <time>2021-05-09T07:57:04Z</time>
      </trkpt>
      <trkpt lat="44.2629" lon="0.75543">
        <ele>151.4</ele>
        <time>2021-05-09T07:57:06Z</time>
      </trkpt>
      <trkpt lat="44.26292" lon="0.75544">
        <ele>151.2</ele>
        <time>2021-05-09T07:57:08Z</time>
      </trkpt>
      <trkpt lat="44.26294" lon="0.75545">
        <ele>151.2</ele>
        <time>2021-05-09T07:57:09Z</time>
      </trkpt>
      <trkpt lat="44.26296" lon="0.75545">
        <ele>151</ele>
        <time>2021-05-09T07:57:11Z</time>
      </trkpt>
      <trkpt lat="44.26298" lon="0.75546">
        <ele>150.8</ele>
        <time>2021-05-09T07:57:13Z</time>
      </trkpt>
      <trkpt lat="44.263" lon="0.75547">
        <ele>150.8</ele>
        <time>2021-05-09T07:57:15Z</time>
      </trkpt>
      <trkpt lat="44.26302" lon="0.75548">
        <ele>150.6</ele>
        <time>2021-05-09T07:57:16Z</time>
      </trkpt>
      <trkpt lat="44.26304" lon="0.75549">
        <ele>150.6</ele>
        <time>2021-05-09T07:57:18Z</time>
      </trkpt>
      <trkpt lat="44.26306" lon="0.7555">
        <ele>150.4</ele>
        <time>2021-05-09T07:57:20Z</time>
      </trkpt>
      <trkpt lat="44.26308" lon="0.75551">
        <ele>150.2</ele>
        <time>2021-05-09T07:57:23Z</time>
      </trkpt>
      <trkpt lat="44.26311" lon="0.75554">
        <ele>150.2</ele>
        <time>2021-05-09T07:57:25Z</time>
      </trkpt>
      <trkpt lat="44.26313" lon="0.75556">
        <ele>150.4</ele>
        <time>2021-05-09T07:57:27Z</time>
      </trkpt>
      <trkpt lat="44.26316" lon="0.75557">
        <ele>150.4</ele>
        <time>2021-05-09T07:57:29Z</time>
      </trkpt>
      <trkpt lat="44.26318" lon="0.75559">
        <ele>150.4</ele>
        <time>2021-05-09T07:57:31Z</time>
      </trkpt>
      <trkpt lat="44.26321" lon="0.75561">
        <ele>150.4</ele>
        <time>2021-05-09T07:57:34Z</time>
      </trkpt>
      <trkpt lat="44.26323" lon="0.75562">
        <ele>150.2</ele>
        <time>2021-05-09T07:57:37Z</time>
      </trkpt>
      <trkpt lat="44.26326" lon="0.75564">
        <ele>150.2</ele>
        <time>2021-05-09T07:57:39Z</time>
      </trkpt>
      <trkpt lat="44.26329" lon="0.75566">
        <ele>150.4</ele>
        <time>2021-05-09T07:57:42Z</time>
      </trkpt>
      <trkpt lat="44.26332" lon="0.75567">
        <ele>150.4</ele>
        <time>2021-05-09T07:57:45Z</time>
      </trkpt>
      <trkpt lat="44.26334" lon="0.75569">
        <ele>150.2</ele>
        <time>2021-05-09T07:57:47Z</time>
      </trkpt>
      <trkpt lat="44.26336" lon="0.75569">
        <ele>150.2</ele>
        <time>2021-05-09T07:57:49Z</time>
      </trkpt>
      <trkpt lat="44.26339" lon="0.75571">
        <ele>150.2</ele>
        <time>2021-05-09T07:57:51Z</time>
      </trkpt>
      <trkpt lat="44.26342" lon="0.75574">
        <ele>150.2</ele>
        <time>2021-05-09T07:57:53Z</time>
      </trkpt>
      <trkpt lat="44.26344" lon="0.75577">
        <ele>150</ele>
        <time>2021-05-09T07:57:55Z</time>
      </trkpt>
      <trkpt lat="44.26346" lon="0.75581">
        <ele>149.8</ele>
        <time>2021-05-09T07:57:57Z</time>
      </trkpt>
      <trkpt lat="44.26347" lon="0.75584">
        <ele>149.6</ele>
        <time>2021-05-09T07:57:59Z</time>
      </trkpt>
      <trkpt lat="44.26348" lon="0.75588">
        <ele>149.2</ele>
        <time>2021-05-09T07:58:01Z</time>
      </trkpt>
      <trkpt lat="44.26348" lon="0.7559">
        <ele>148.8</ele>
        <time>2021-05-09T07:58:03Z</time>
      </trkpt>
      <trkpt lat="44.26351" lon="0.75593">
        <ele>148.4</ele>
        <time>2021-05-09T07:58:05Z</time>
      </trkpt>
      <trkpt lat="44.26354" lon="0.75596">
        <ele>148</ele>
        <time>2021-05-09T07:58:07Z</time>
      </trkpt>
      <trkpt lat="44.26356" lon="0.75598">
        <ele>147.8</ele>
        <time>2021-05-09T07:58:09Z</time>
      </trkpt>
      <trkpt lat="44.26359" lon="0.75601">
        <ele>147.4</ele>
        <time>2021-05-09T07:58:11Z</time>
      </trkpt>
      <trkpt lat="44.2636" lon="0.75602">
        <ele>147.4</ele>
        <time>2021-05-09T07:58:12Z</time>
      </trkpt>
      <trkpt lat="44.26362" lon="0.75603">
        <ele>147.2</ele>
        <time>2021-05-09T07:58:13Z</time>
      </trkpt>
      <trkpt lat="44.26364" lon="0.75606">
        <ele>147</ele>
        <time>2021-05-09T07:58:15Z</time>
      </trkpt>
      <trkpt lat="44.26364" lon="0.7561">
        <ele>146.6</ele>
        <time>2021-05-09T07:58:17Z</time>
      </trkpt>
      <trkpt lat="44.26365" lon="0.75613">
        <ele>146.4</ele>
        <time>2021-05-09T07:58:19Z</time>
      </trkpt>
      <trkpt lat="44.26366" lon="0.75617">
        <ele>146</ele>
        <time>2021-05-09T07:58:21Z</time>
      </trkpt>
      <trkpt lat="44.26366" lon="0.7562">
        <ele>145.8</ele>
        <time>2021-05-09T07:58:23Z</time>
      </trkpt>
      <trkpt lat="44.26366" lon="0.75623">
        <ele>145.4</ele>
        <time>2021-05-09T07:58:25Z</time>
      </trkpt>
      <trkpt lat="44.26365" lon="0.75627">
        <ele>145.2</ele>
        <time>2021-05-09T07:58:27Z</time>
      </trkpt>
      <trkpt lat="44.26364" lon="0.75631">
        <ele>144.8</ele>
        <time>2021-05-09T07:58:29Z</time>
      </trkpt>
      <trkpt lat="44.26364" lon="0.75636">
        <ele>144.4</ele>
        <time>2021-05-09T07:58:31Z</time>
      </trkpt>
      <trkpt lat="44.26363" lon="0.75639">
        <ele>144</ele>
        <time>2021-05-09T07:58:33Z</time>
      </trkpt>
      <trkpt lat="44.26363" lon="0.75643">
        <ele>143.6</ele>
        <time>2021-05-09T07:58:35Z</time>
      </trkpt>
      <trkpt lat="44.26362" lon="0.75646">
        <ele>143.2</ele>
        <time>2021-05-09T07:58:37Z</time>
      </trkpt>
      <trkpt lat="44.26362" lon="0.75648">
        <ele>142.8</ele>
        <time>2021-05-09T07:58:39Z</time>
      </trkpt>
      <trkpt lat="44.26361" lon="0.75652">
        <ele>142.6</ele>
        <time>2021-05-09T07:58:41Z</time>
      </trkpt>
      <trkpt lat="44.26361" lon="0.75655">
        <ele>142.2</ele>
        <time>2021-05-09T07:58:43Z</time>
      </trkpt>
      <trkpt lat="44.26361" lon="0.75659">
        <ele>141.8</ele>
        <time>2021-05-09T07:58:45Z</time>
      </trkpt>
      <trkpt lat="44.26361" lon="0.75663">
        <ele>141</ele>
        <time>2021-05-09T07:58:48Z</time>
      </trkpt>
      <trkpt lat="44.26361" lon="0.75666">
        <ele>140.6</ele>
        <time>2021-05-09T07:58:50Z</time>
      </trkpt>
      <trkpt lat="44.26361" lon="0.75669">
        <ele>140.2</ele>
        <time>2021-05-09T07:58:52Z</time>
      </trkpt>
      <trkpt lat="44.26361" lon="0.75673">
        <ele>139.8</ele>
        <time>2021-05-09T07:58:54Z</time>
      </trkpt>
      <trkpt lat="44.26361" lon="0.75677">
        <ele>139.6</ele>
        <time>2021-05-09T07:58:56Z</time>
      </trkpt>
      <trkpt lat="44.26361" lon="0.75681">
        <ele>139.4</ele>
        <time>2021-05-09T07:58:58Z</time>
      </trkpt>
      <trkpt lat="44.2636" lon="0.75684">
        <ele>139.2</ele>
        <time>2021-05-09T07:59:00Z</time>
      </trkpt>
      <trkpt lat="44.26359" lon="0.75688">
        <ele>139</ele>
        <time>2021-05-09T07:59:02Z</time>
      </trkpt>
      <trkpt lat="44.26359" lon="0.75691">
        <ele>138.8</ele>
        <time>2021-05-09T07:59:04Z</time>
      </trkpt>
      <trkpt lat="44.26358" lon="0.75694">
        <ele>138.6</ele>
        <time>2021-05-09T07:59:06Z</time>
      </trkpt>
      <trkpt lat="44.26357" lon="0.75698">
        <ele>138.4</ele>
        <time>2021-05-09T07:59:08Z</time>
      </trkpt>
      <trkpt lat="44.26357" lon="0.75702">
        <ele>138.2</ele>
        <time>2021-05-09T07:59:10Z</time>
      </trkpt>
      <trkpt lat="44.26356" lon="0.75706">
        <ele>138</ele>
        <time>2021-05-09T07:59:12Z</time>
      </trkpt>
      <trkpt lat="44.26356" lon="0.75709">
        <ele>137.8</ele>
        <time>2021-05-09T07:59:14Z</time>
      </trkpt>
      <trkpt lat="44.26356" lon="0.75713">
        <ele>137.6</ele>
        <time>2021-05-09T07:59:16Z</time>
      </trkpt>
      <trkpt lat="44.26356" lon="0.75716">
        <ele>137.6</ele>
        <time>2021-05-09T07:59:18Z</time>
      </trkpt>
      <trkpt lat="44.26356" lon="0.75719">
        <ele>137.6</ele>
        <time>2021-05-09T07:59:20Z</time>
      </trkpt>
      <trkpt lat="44.26356" lon="0.75721">
        <ele>137.4</ele>
        <time>2021-05-09T07:59:22Z</time>
      </trkpt>
      <trkpt lat="44.26357" lon="0.75725">
        <ele>137.4</ele>
        <time>2021-05-09T07:59:24Z</time>
      </trkpt>
      <trkpt lat="44.26358" lon="0.75727">
        <ele>137.2</ele>
        <time>2021-05-09T07:59:26Z</time>
      </trkpt>
      <trkpt lat="44.26359" lon="0.75729">
        <ele>137.4</ele>
        <time>2021-05-09T07:59:29Z</time>
      </trkpt>
      <trkpt lat="44.26362" lon="0.7573">
        <ele>137.6</ele>
        <time>2021-05-09T07:59:32Z</time>
      </trkpt>
      <trkpt lat="44.26364" lon="0.7573">
        <ele>137.6</ele>
        <time>2021-05-09T07:59:34Z</time>
      </trkpt>
      <trkpt lat="44.26365" lon="0.75732">
        <ele>137.8</ele>
        <time>2021-05-09T07:59:37Z</time>
      </trkpt>
      <trkpt lat="44.26362" lon="0.75748">
        <ele>138.8</ele>
        <time>2021-05-09T08:00:14Z</time>
      </trkpt>
      <trkpt lat="44.2636" lon="0.7575">
        <ele>139.2</ele>
        <time>2021-05-09T08:00:16Z</time>
      </trkpt>
      <trkpt lat="44.26358" lon="0.75752">
        <ele>139.4</ele>
        <time>2021-05-09T08:00:19Z</time>
      </trkpt>
      <trkpt lat="44.26357" lon="0.75755">
        <ele>139.8</ele>
        <time>2021-05-09T08:00:21Z</time>
      </trkpt>
      <trkpt lat="44.26355" lon="0.75757">
        <ele>140</ele>
        <time>2021-05-09T08:00:23Z</time>
      </trkpt>
      <trkpt lat="44.26353" lon="0.75759">
        <ele>140.4</ele>
        <time>2021-05-09T08:00:25Z</time>
      </trkpt>
      <trkpt lat="44.2635" lon="0.75761">
        <ele>140.8</ele>
        <time>2021-05-09T08:00:27Z</time>
      </trkpt>
      <trkpt lat="44.2635" lon="0.75765">
        <ele>141.4</ele>
        <time>2021-05-09T08:00:30Z</time>
      </trkpt>
      <trkpt lat="44.26347" lon="0.75767">
        <ele>142</ele>
        <time>2021-05-09T08:00:32Z</time>
      </trkpt>
      <trkpt lat="44.26346" lon="0.75768">
        <ele>142.4</ele>
        <time>2021-05-09T08:00:34Z</time>
      </trkpt>
      <trkpt lat="44.26344" lon="0.75771">
        <ele>142.8</ele>
        <time>2021-05-09T08:00:36Z</time>
      </trkpt>
      <trkpt lat="44.26342" lon="0.75773">
        <ele>143.2</ele>
        <time>2021-05-09T08:00:38Z</time>
      </trkpt>
      <trkpt lat="44.26341" lon="0.75775">
        <ele>143.2</ele>
        <time>2021-05-09T08:00:39Z</time>
      </trkpt>
      <trkpt lat="44.26339" lon="0.75778">
        <ele>143.8</ele>
        <time>2021-05-09T08:00:42Z</time>
      </trkpt>
      <trkpt lat="44.26338" lon="0.75781">
        <ele>144</ele>
        <time>2021-05-09T08:00:44Z</time>
      </trkpt>
      <trkpt lat="44.26337" lon="0.75784">
        <ele>144.4</ele>
        <time>2021-05-09T08:00:46Z</time>
      </trkpt>
      <trkpt lat="44.26336" lon="0.75788">
        <ele>144.6</ele>
        <time>2021-05-09T08:00:48Z</time>
      </trkpt>
      <trkpt lat="44.26334" lon="0.75789">
        <ele>145</ele>
        <time>2021-05-09T08:00:50Z</time>
      </trkpt>
      <trkpt lat="44.26332" lon="0.7579">
        <ele>145.4</ele>
        <time>2021-05-09T08:00:52Z</time>
      </trkpt>
      <trkpt lat="44.26331" lon="0.75793">
        <ele>145.8</ele>
        <time>2021-05-09T08:00:54Z</time>
      </trkpt>
      <trkpt lat="44.26329" lon="0.75796">
        <ele>146.2</ele>
        <time>2021-05-09T08:00:56Z</time>
      </trkpt>
      <trkpt lat="44.26327" lon="0.75797">
        <ele>146.4</ele>
        <time>2021-05-09T08:00:58Z</time>
      </trkpt>
      <trkpt lat="44.26326" lon="0.75799">
        <ele>146.6</ele>
        <time>2021-05-09T08:01:00Z</time>
      </trkpt>
      <trkpt lat="44.26325" lon="0.75801">
        <ele>146.8</ele>
        <time>2021-05-09T08:01:02Z</time>
      </trkpt>
      <trkpt lat="44.26324" lon="0.75804">
        <ele>147</ele>
        <time>2021-05-09T08:01:04Z</time>
      </trkpt>
      <trkpt lat="44.26323" lon="0.75806">
        <ele>147.2</ele>
        <time>2021-05-09T08:01:06Z</time>
      </trkpt>
      <trkpt lat="44.26321" lon="0.75809">
        <ele>147.4</ele>
        <time>2021-05-09T08:01:09Z</time>
      </trkpt>
      <trkpt lat="44.26321" lon="0.75813">
        <ele>147.4</ele>
        <time>2021-05-09T08:01:12Z</time>
      </trkpt>
      <trkpt lat="44.2632" lon="0.75816">
        <ele>147.4</ele>
        <time>2021-05-09T08:01:14Z</time>
      </trkpt>
      <trkpt lat="44.26319" lon="0.75818">
        <ele>147.2</ele>
        <time>2021-05-09T08:01:16Z</time>
      </trkpt>
      <trkpt lat="44.26319" lon="0.75822">
        <ele>147.2</ele>
        <time>2021-05-09T08:01:18Z</time>
      </trkpt>
      <trkpt lat="44.26319" lon="0.75825">
        <ele>147</ele>
        <time>2021-05-09T08:01:20Z</time>
      </trkpt>
      <trkpt lat="44.26318" lon="0.75828">
        <ele>147</ele>
        <time>2021-05-09T08:01:23Z</time>
      </trkpt>
      <trkpt lat="44.26317" lon="0.75831">
        <ele>147</ele>
        <time>2021-05-09T08:01:25Z</time>
      </trkpt>
      <trkpt lat="44.26317" lon="0.75834">
        <ele>147</ele>
        <time>2021-05-09T08:01:27Z</time>
      </trkpt>
      <trkpt lat="44.26315" lon="0.75837">
        <ele>147</ele>
        <time>2021-05-09T08:01:29Z</time>
      </trkpt>
      <trkpt lat="44.26314" lon="0.7584">
        <ele>147.2</ele>
        <time>2021-05-09T08:01:31Z</time>
      </trkpt>
      <trkpt lat="44.26313" lon="0.75842">
        <ele>147.2</ele>
        <time>2021-05-09T08:01:33Z</time>
      </trkpt>
      <trkpt lat="44.26313" lon="0.75845">
        <ele>147.4</ele>
        <time>2021-05-09T08:01:35Z</time>
      </trkpt>
      <trkpt lat="44.26312" lon="0.75848">
        <ele>147.4</ele>
        <time>2021-05-09T08:01:37Z</time>
      </trkpt>
      <trkpt lat="44.26311" lon="0.75851">
        <ele>147.4</ele>
        <time>2021-05-09T08:01:40Z</time>
      </trkpt>
      <trkpt lat="44.26309" lon="0.75854">
        <ele>147.4</ele>
        <time>2021-05-09T08:01:42Z</time>
      </trkpt>
      <trkpt lat="44.26308" lon="0.75857">
        <ele>147.6</ele>
        <time>2021-05-09T08:01:45Z</time>
      </trkpt>
      <trkpt lat="44.26306" lon="0.7586">
        <ele>147.8</ele>
        <time>2021-05-09T08:01:48Z</time>
      </trkpt>
      <trkpt lat="44.26305" lon="0.75862">
        <ele>147.8</ele>
        <time>2021-05-09T08:01:50Z</time>
      </trkpt>
      <trkpt lat="44.26304" lon="0.75865">
        <ele>147.8</ele>
        <time>2021-05-09T08:01:52Z</time>
      </trkpt>
      <trkpt lat="44.26302" lon="0.75868">
        <ele>147.8</ele>
        <time>2021-05-09T08:01:54Z</time>
      </trkpt>
      <trkpt lat="44.26301" lon="0.7587">
        <ele>147.8</ele>
        <time>2021-05-09T08:01:56Z</time>
      </trkpt>
      <trkpt lat="44.263" lon="0.75873">
        <ele>148</ele>
        <time>2021-05-09T08:01:58Z</time>
      </trkpt>
      <trkpt lat="44.26299" lon="0.75875">
        <ele>148</ele>
        <time>2021-05-09T08:02:00Z</time>
      </trkpt>
      <trkpt lat="44.26297" lon="0.75879">
        <ele>148.2</ele>
        <time>2021-05-09T08:02:04Z</time>
      </trkpt>
      <trkpt lat="44.26295" lon="0.75882">
        <ele>148.4</ele>
        <time>2021-05-09T08:02:06Z</time>
      </trkpt>
      <trkpt lat="44.26293" lon="0.75885">
        <ele>148.4</ele>
        <time>2021-05-09T08:02:08Z</time>
      </trkpt>
      <trkpt lat="44.26292" lon="0.75887">
        <ele>148.4</ele>
        <time>2021-05-09T08:02:10Z</time>
      </trkpt>
      <trkpt lat="44.26289" lon="0.7589">
        <ele>148.4</ele>
        <time>2021-05-09T08:02:13Z</time>
      </trkpt>
      <trkpt lat="44.26288" lon="0.75893">
        <ele>148.2</ele>
        <time>2021-05-09T08:02:15Z</time>
      </trkpt>
      <trkpt lat="44.26286" lon="0.75896">
        <ele>148.2</ele>
        <time>2021-05-09T08:02:17Z</time>
      </trkpt>
      <trkpt lat="44.26285" lon="0.75898">
        <ele>148.4</ele>
        <time>2021-05-09T08:02:19Z</time>
      </trkpt>
      <trkpt lat="44.26284" lon="0.75901">
        <ele>148.6</ele>
        <time>2021-05-09T08:02:21Z</time>
      </trkpt>
      <trkpt lat="44.26282" lon="0.75904">
        <ele>148.8</ele>
        <time>2021-05-09T08:02:24Z</time>
      </trkpt>
      <trkpt lat="44.2628" lon="0.75906">
        <ele>148.8</ele>
        <time>2021-05-09T08:02:26Z</time>
      </trkpt>
      <trkpt lat="44.26278" lon="0.75908">
        <ele>148.8</ele>
        <time>2021-05-09T08:02:28Z</time>
      </trkpt>
      <trkpt lat="44.26277" lon="0.75911">
        <ele>148.8</ele>
        <time>2021-05-09T08:02:30Z</time>
      </trkpt>
      <trkpt lat="44.26274" lon="0.75915">
        <ele>148.6</ele>
        <time>2021-05-09T08:02:36Z</time>
      </trkpt>
      <trkpt lat="44.26272" lon="0.75917">
        <ele>148.6</ele>
        <time>2021-05-09T08:02:38Z</time>
      </trkpt>
      <trkpt lat="44.2627" lon="0.75919">
        <ele>148.6</ele>
        <time>2021-05-09T08:02:40Z</time>
      </trkpt>
      <trkpt lat="44.26269" lon="0.75922">
        <ele>148.6</ele>
        <time>2021-05-09T08:02:42Z</time>
      </trkpt>
      <trkpt lat="44.26267" lon="0.75924">
        <ele>148.8</ele>
        <time>2021-05-09T08:02:44Z</time>
      </trkpt>
      <trkpt lat="44.26265" lon="0.75926">
        <ele>148.8</ele>
        <time>2021-05-09T08:02:46Z</time>
      </trkpt>
      <trkpt lat="44.26264" lon="0.75929">
        <ele>148.8</ele>
        <time>2021-05-09T08:02:48Z</time>
      </trkpt>
      <trkpt lat="44.26263" lon="0.75931">
        <ele>148.8</ele>
        <time>2021-05-09T08:02:50Z</time>
      </trkpt>
      <trkpt lat="44.26261" lon="0.75934">
        <ele>149</ele>
        <time>2021-05-09T08:02:52Z</time>
      </trkpt>
      <trkpt lat="44.2626" lon="0.75936">
        <ele>149</ele>
        <time>2021-05-09T08:02:54Z</time>
      </trkpt>
      <trkpt lat="44.26259" lon="0.75938">
        <ele>148.8</ele>
        <time>2021-05-09T08:02:56Z</time>
      </trkpt>
      <trkpt lat="44.26257" lon="0.7594">
        <ele>148.8</ele>
        <time>2021-05-09T08:02:59Z</time>
      </trkpt>
      <trkpt lat="44.26255" lon="0.75941">
        <ele>148.6</ele>
        <time>2021-05-09T08:03:02Z</time>
      </trkpt>
      <trkpt lat="44.26248" lon="0.75952">
        <ele>150.6</ele>
        <time>2021-05-09T08:04:01Z</time>
      </trkpt>
      <trkpt lat="44.26247" lon="0.75955">
        <ele>150.6</ele>
        <time>2021-05-09T08:04:02Z</time>
      </trkpt>
      <trkpt lat="44.26245" lon="0.75957">
        <ele>150.6</ele>
        <time>2021-05-09T08:04:03Z</time>
      </trkpt>
      <trkpt lat="44.26244" lon="0.75959">
        <ele>150.8</ele>
        <time>2021-05-09T08:04:04Z</time>
      </trkpt>
      <trkpt lat="44.26243" lon="0.75961">
        <ele>150.8</ele>
        <time>2021-05-09T08:04:05Z</time>
      </trkpt>
      <trkpt lat="44.26241" lon="0.75963">
        <ele>150.8</ele>
        <time>2021-05-09T08:04:06Z</time>
      </trkpt>
      <trkpt lat="44.26239" lon="0.75966">
        <ele>150.8</ele>
        <time>2021-05-09T08:04:07Z</time>
      </trkpt>
      <trkpt lat="44.26238" lon="0.75968">
        <ele>150.8</ele>
        <time>2021-05-09T08:04:09Z</time>
      </trkpt>
      <trkpt lat="44.26237" lon="0.7597">
        <ele>150.8</ele>
        <time>2021-05-09T08:04:11Z</time>
      </trkpt>
      <trkpt lat="44.26236" lon="0.75972">
        <ele>150.6</ele>
        <time>2021-05-09T08:04:13Z</time>
      </trkpt>
      <trkpt lat="44.26236" lon="0.75975">
        <ele>150.6</ele>
        <time>2021-05-09T08:04:15Z</time>
      </trkpt>
      <trkpt lat="44.26238" lon="0.75976">
        <ele>150.4</ele>
        <time>2021-05-09T08:04:18Z</time>
      </trkpt>
      <trkpt lat="44.2624" lon="0.75974">
        <ele>150.4</ele>
        <time>2021-05-09T08:04:20Z</time>
      </trkpt>
      <trkpt lat="44.26241" lon="0.75972">
        <ele>150.6</ele>
        <time>2021-05-09T08:04:22Z</time>
      </trkpt>
      <trkpt lat="44.26243" lon="0.75972">
        <ele>150.6</ele>
        <time>2021-05-09T08:04:25Z</time>
      </trkpt>
      <trkpt lat="44.26245" lon="0.75973">
        <ele>150.6</ele>
        <time>2021-05-09T08:04:27Z</time>
      </trkpt>
      <trkpt lat="44.26247" lon="0.75975">
        <ele>150.8</ele>
        <time>2021-05-09T08:04:29Z</time>
      </trkpt>
      <trkpt lat="44.26249" lon="0.75977">
        <ele>151</ele>
        <time>2021-05-09T08:04:31Z</time>
      </trkpt>
      <trkpt lat="44.26251" lon="0.75979">
        <ele>151</ele>
        <time>2021-05-09T08:04:33Z</time>
      </trkpt>
      <trkpt lat="44.26253" lon="0.75981">
        <ele>151.2</ele>
        <time>2021-05-09T08:04:35Z</time>
      </trkpt>
      <trkpt lat="44.26255" lon="0.75983">
        <ele>151.4</ele>
        <time>2021-05-09T08:04:37Z</time>
      </trkpt>
      <trkpt lat="44.26257" lon="0.75985">
        <ele>151.6</ele>
        <time>2021-05-09T08:04:39Z</time>
      </trkpt>
      <trkpt lat="44.26258" lon="0.75987">
        <ele>151.6</ele>
        <time>2021-05-09T08:04:41Z</time>
      </trkpt>
      <trkpt lat="44.26259" lon="0.7599">
        <ele>151.8</ele>
        <time>2021-05-09T08:04:43Z</time>
      </trkpt>
      <trkpt lat="44.2626" lon="0.75992">
        <ele>152</ele>
        <time>2021-05-09T08:04:45Z</time>
      </trkpt>
      <trkpt lat="44.26261" lon="0.75995">
        <ele>152</ele>
        <time>2021-05-09T08:04:47Z</time>
      </trkpt>
      <trkpt lat="44.26263" lon="0.75997">
        <ele>152.2</ele>
        <time>2021-05-09T08:04:49Z</time>
      </trkpt>
      <trkpt lat="44.26264" lon="0.75999">
        <ele>152.2</ele>
        <time>2021-05-09T08:04:51Z</time>
      </trkpt>
      <trkpt lat="44.26266" lon="0.76002">
        <ele>152.4</ele>
        <time>2021-05-09T08:04:53Z</time>
      </trkpt>
      <trkpt lat="44.26267" lon="0.76005">
        <ele>152.6</ele>
        <time>2021-05-09T08:04:55Z</time>
      </trkpt>
      <trkpt lat="44.26269" lon="0.76007">
        <ele>152.8</ele>
        <time>2021-05-09T08:04:58Z</time>
      </trkpt>
      <trkpt lat="44.26271" lon="0.7601">
        <ele>152.8</ele>
        <time>2021-05-09T08:05:00Z</time>
      </trkpt>
      <trkpt lat="44.26273" lon="0.76013">
        <ele>153</ele>
        <time>2021-05-09T08:05:03Z</time>
      </trkpt>
      <trkpt lat="44.26275" lon="0.76016">
        <ele>153.2</ele>
        <time>2021-05-09T08:05:05Z</time>
      </trkpt>
      <trkpt lat="44.26276" lon="0.76019">
        <ele>153.4</ele>
        <time>2021-05-09T08:05:07Z</time>
      </trkpt>
      <trkpt lat="44.26278" lon="0.7602">
        <ele>153.6</ele>
        <time>2021-05-09T08:05:09Z</time>
      </trkpt>
      <trkpt lat="44.26281" lon="0.76023">
        <ele>154</ele>
        <time>2021-05-09T08:05:13Z</time>
      </trkpt>
      <trkpt lat="44.26282" lon="0.76025">
        <ele>154.2</ele>
        <time>2021-05-09T08:05:15Z</time>
      </trkpt>
      <trkpt lat="44.26284" lon="0.76028">
        <ele>154.6</ele>
        <time>2021-05-09T08:05:18Z</time>
      </trkpt>
      <trkpt lat="44.26285" lon="0.76029">
        <ele>154.8</ele>
        <time>2021-05-09T08:05:20Z</time>
      </trkpt>
      <trkpt lat="44.26286" lon="0.76031">
        <ele>155.2</ele>
        <time>2021-05-09T08:05:22Z</time>
      </trkpt>
      <trkpt lat="44.26288" lon="0.76033">
        <ele>155.4</ele>
        <time>2021-05-09T08:05:24Z</time>
      </trkpt>
      <trkpt lat="44.26289" lon="0.76036">
        <ele>155.8</ele>
        <time>2021-05-09T08:05:26Z</time>
      </trkpt>
      <trkpt lat="44.26291" lon="0.76038">
        <ele>155.8</ele>
        <time>2021-05-09T08:05:28Z</time>
      </trkpt>
      <trkpt lat="44.26292" lon="0.7604">
        <ele>156</ele>
        <time>2021-05-09T08:05:30Z</time>
      </trkpt>
      <trkpt lat="44.26293" lon="0.76042">
        <ele>156.4</ele>
        <time>2021-05-09T08:05:33Z</time>
      </trkpt>
      <trkpt lat="44.26295" lon="0.76045">
        <ele>156.6</ele>
        <time>2021-05-09T08:05:36Z</time>
      </trkpt>
      <trkpt lat="44.26296" lon="0.76047">
        <ele>157</ele>
        <time>2021-05-09T08:05:39Z</time>
      </trkpt>
      <trkpt lat="44.26297" lon="0.76051">
        <ele>157.4</ele>
        <time>2021-05-09T08:05:42Z</time>
      </trkpt>
      <trkpt lat="44.26299" lon="0.76054">
        <ele>157.8</ele>
        <time>2021-05-09T08:05:45Z</time>
      </trkpt>
      <trkpt lat="44.263" lon="0.76056">
        <ele>158</ele>
        <time>2021-05-09T08:05:48Z</time>
      </trkpt>
      <trkpt lat="44.26302" lon="0.76058">
        <ele>158.2</ele>
        <time>2021-05-09T08:05:50Z</time>
      </trkpt>
      <trkpt lat="44.26302" lon="0.76061">
        <ele>158.4</ele>
        <time>2021-05-09T08:05:52Z</time>
      </trkpt>
      <trkpt lat="44.26301" lon="0.76064">
        <ele>158.6</ele>
        <time>2021-05-09T08:05:55Z</time>
      </trkpt>
      <trkpt lat="44.263" lon="0.76068">
        <ele>159</ele>
        <time>2021-05-09T08:05:58Z</time>
      </trkpt>
      <trkpt lat="44.26299" lon="0.76071">
        <ele>159.2</ele>
        <time>2021-05-09T08:06:00Z</time>
      </trkpt>
      <trkpt lat="44.26297" lon="0.76074">
        <ele>159.4</ele>
        <time>2021-05-09T08:06:02Z</time>
      </trkpt>
      <trkpt lat="44.26296" lon="0.76077">
        <ele>159.6</ele>
        <time>2021-05-09T08:06:04Z</time>
      </trkpt>
      <trkpt lat="44.26295" lon="0.7608">
        <ele>160.2</ele>
        <time>2021-05-09T08:06:07Z</time>
      </trkpt>
      <trkpt lat="44.26293" lon="0.76082">
        <ele>160.6</ele>
        <time>2021-05-09T08:06:09Z</time>
      </trkpt>
      <trkpt lat="44.26293" lon="0.76084">
        <ele>160.8</ele>
        <time>2021-05-09T08:06:11Z</time>
      </trkpt>
      <trkpt lat="44.26292" lon="0.76087">
        <ele>161.2</ele>
        <time>2021-05-09T08:06:13Z</time>
      </trkpt>
      <trkpt lat="44.26291" lon="0.7609">
        <ele>161.8</ele>
        <time>2021-05-09T08:06:16Z</time>
      </trkpt>
      <trkpt lat="44.2629" lon="0.76093">
        <ele>162</ele>
        <time>2021-05-09T08:06:18Z</time>
      </trkpt>
      <trkpt lat="44.26289" lon="0.76096">
        <ele>162.4</ele>
        <time>2021-05-09T08:06:20Z</time>
      </trkpt>
      <trkpt lat="44.26288" lon="0.76099">
        <ele>162.8</ele>
        <time>2021-05-09T08:06:22Z</time>
      </trkpt>
      <trkpt lat="44.26287" lon="0.76102">
        <ele>163.2</ele>
        <time>2021-05-09T08:06:24Z</time>
      </trkpt>
      <trkpt lat="44.26287" lon="0.76104">
        <ele>163.8</ele>
        <time>2021-05-09T08:06:26Z</time>
      </trkpt>
      <trkpt lat="44.26286" lon="0.76107">
        <ele>164</ele>
        <time>2021-05-09T08:06:28Z</time>
      </trkpt>
      <trkpt lat="44.26285" lon="0.7611">
        <ele>164.4</ele>
        <time>2021-05-09T08:06:30Z</time>
      </trkpt>
      <trkpt lat="44.26284" lon="0.76113">
        <ele>164.8</ele>
        <time>2021-05-09T08:06:32Z</time>
      </trkpt>
      <trkpt lat="44.26284" lon="0.76115">
        <ele>165</ele>
        <time>2021-05-09T08:06:34Z</time>
      </trkpt>
      <trkpt lat="44.26283" lon="0.76118">
        <ele>165.4</ele>
        <time>2021-05-09T08:06:36Z</time>
      </trkpt>
      <trkpt lat="44.26282" lon="0.76121">
        <ele>165.8</ele>
        <time>2021-05-09T08:06:39Z</time>
      </trkpt>
      <trkpt lat="44.26281" lon="0.76124">
        <ele>166</ele>
        <time>2021-05-09T08:06:41Z</time>
      </trkpt>
      <trkpt lat="44.26279" lon="0.76127">
        <ele>166.2</ele>
        <time>2021-05-09T08:06:43Z</time>
      </trkpt>
      <trkpt lat="44.26278" lon="0.76129">
        <ele>166.6</ele>
        <time>2021-05-09T08:06:45Z</time>
      </trkpt>
      <trkpt lat="44.26277" lon="0.76132">
        <ele>167</ele>
        <time>2021-05-09T08:06:47Z</time>
      </trkpt>
      <trkpt lat="44.26276" lon="0.76135">
        <ele>167.4</ele>
        <time>2021-05-09T08:06:49Z</time>
      </trkpt>
      <trkpt lat="44.26275" lon="0.76137">
        <ele>167.8</ele>
        <time>2021-05-09T08:06:51Z</time>
      </trkpt>
      <trkpt lat="44.26273" lon="0.76141">
        <ele>168.2</ele>
        <time>2021-05-09T08:06:53Z</time>
      </trkpt>
      <trkpt lat="44.26273" lon="0.76143">
        <ele>168.4</ele>
        <time>2021-05-09T08:06:55Z</time>
      </trkpt>
      <trkpt lat="44.26271" lon="0.76146">
        <ele>168.8</ele>
        <time>2021-05-09T08:06:57Z</time>
      </trkpt>
      <trkpt lat="44.2627" lon="0.76149">
        <ele>169.2</ele>
        <time>2021-05-09T08:07:00Z</time>
      </trkpt>
      <trkpt lat="44.26269" lon="0.76152">
        <ele>169.4</ele>
        <time>2021-05-09T08:07:02Z</time>
      </trkpt>
      <trkpt lat="44.26268" lon="0.76154">
        <ele>169.8</ele>
        <time>2021-05-09T08:07:04Z</time>
      </trkpt>
      <trkpt lat="44.26267" lon="0.76157">
        <ele>170</ele>
        <time>2021-05-09T08:07:06Z</time>
      </trkpt>
      <trkpt lat="44.26267" lon="0.7616">
        <ele>170.2</ele>
        <time>2021-05-09T08:07:08Z</time>
      </trkpt>
      <trkpt lat="44.26265" lon="0.76162">
        <ele>170.6</ele>
        <time>2021-05-09T08:07:10Z</time>
      </trkpt>
      <trkpt lat="44.26265" lon="0.76165">
        <ele>170.8</ele>
        <time>2021-05-09T08:07:12Z</time>
      </trkpt>
      <trkpt lat="44.26264" lon="0.76168">
        <ele>171</ele>
        <time>2021-05-09T08:07:14Z</time>
      </trkpt>
      <trkpt lat="44.26263" lon="0.76171">
        <ele>171.4</ele>
        <time>2021-05-09T08:07:16Z</time>
      </trkpt>
      <trkpt lat="44.26262" lon="0.76174">
        <ele>171.6</ele>
        <time>2021-05-09T08:07:18Z</time>
      </trkpt>
      <trkpt lat="44.26261" lon="0.76176">
        <ele>172</ele>
        <time>2021-05-09T08:07:20Z</time>
      </trkpt>
      <trkpt lat="44.2626" lon="0.76179">
        <ele>172.2</ele>
        <time>2021-05-09T08:07:22Z</time>
      </trkpt>
      <trkpt lat="44.26259" lon="0.76182">
        <ele>172.4</ele>
        <time>2021-05-09T08:07:24Z</time>
      </trkpt>
      <trkpt lat="44.26258" lon="0.76185">
        <ele>172.8</ele>
        <time>2021-05-09T08:07:26Z</time>
      </trkpt>
      <trkpt lat="44.26257" lon="0.76187">
        <ele>173.2</ele>
        <time>2021-05-09T08:07:28Z</time>
      </trkpt>
      <trkpt lat="44.26256" lon="0.76191">
        <ele>173.6</ele>
        <time>2021-05-09T08:07:31Z</time>
      </trkpt>
      <trkpt lat="44.26255" lon="0.76194">
        <ele>174</ele>
        <time>2021-05-09T08:07:33Z</time>
      </trkpt>
      <trkpt lat="44.26254" lon="0.76197">
        <ele>174.4</ele>
        <time>2021-05-09T08:07:35Z</time>
      </trkpt>
      <trkpt lat="44.26253" lon="0.76199">
        <ele>174.6</ele>
        <time>2021-05-09T08:07:37Z</time>
      </trkpt>
      <trkpt lat="44.26252" lon="0.76202">
        <ele>175</ele>
        <time>2021-05-09T08:07:39Z</time>
      </trkpt>
      <trkpt lat="44.26252" lon="0.76204">
        <ele>175.2</ele>
        <time>2021-05-09T08:07:41Z</time>
      </trkpt>
      <trkpt lat="44.26251" lon="0.76207">
        <ele>175.6</ele>
        <time>2021-05-09T08:07:43Z</time>
      </trkpt>
      <trkpt lat="44.26249" lon="0.76209">
        <ele>175.8</ele>
        <time>2021-05-09T08:07:45Z</time>
      </trkpt>
      <trkpt lat="44.26248" lon="0.76212">
        <ele>176</ele>
        <time>2021-05-09T08:07:47Z</time>
      </trkpt>
      <trkpt lat="44.26247" lon="0.76215">
        <ele>176.4</ele>
        <time>2021-05-09T08:07:49Z</time>
      </trkpt>
      <trkpt lat="44.26245" lon="0.76218">
        <ele>177</ele>
        <time>2021-05-09T08:07:52Z</time>
      </trkpt>
      <trkpt lat="44.26244" lon="0.7622">
        <ele>177.2</ele>
        <time>2021-05-09T08:07:54Z</time>
      </trkpt>
      <trkpt lat="44.26243" lon="0.76223">
        <ele>177.6</ele>
        <time>2021-05-09T08:07:56Z</time>
      </trkpt>
      <trkpt lat="44.26242" lon="0.76227">
        <ele>178</ele>
        <time>2021-05-09T08:07:58Z</time>
      </trkpt>
      <trkpt lat="44.2624" lon="0.7623">
        <ele>178.8</ele>
        <time>2021-05-09T08:08:01Z</time>
      </trkpt>
      <trkpt lat="44.26239" lon="0.76233">
        <ele>179.2</ele>
        <time>2021-05-09T08:08:04Z</time>
      </trkpt>
      <trkpt lat="44.26237" lon="0.76235">
        <ele>179.4</ele>
        <time>2021-05-09T08:08:06Z</time>
      </trkpt>
      <trkpt lat="44.26236" lon="0.76237">
        <ele>179.6</ele>
        <time>2021-05-09T08:08:08Z</time>
      </trkpt>
      <trkpt lat="44.26234" lon="0.7624">
        <ele>180</ele>
        <time>2021-05-09T08:08:11Z</time>
      </trkpt>
      <trkpt lat="44.26233" lon="0.76243">
        <ele>180.4</ele>
        <time>2021-05-09T08:08:13Z</time>
      </trkpt>
      <trkpt lat="44.26232" lon="0.76246">
        <ele>180.6</ele>
        <time>2021-05-09T08:08:15Z</time>
      </trkpt>
      <trkpt lat="44.26231" lon="0.76249">
        <ele>180.8</ele>
        <time>2021-05-09T08:08:17Z</time>
      </trkpt>
      <trkpt lat="44.2623" lon="0.76251">
        <ele>181</ele>
        <time>2021-05-09T08:08:19Z</time>
      </trkpt>
      <trkpt lat="44.26229" lon="0.76253">
        <ele>181.2</ele>
        <time>2021-05-09T08:08:22Z</time>
      </trkpt>
      <trkpt lat="44.26225" lon="0.76262">
        <ele>183.2</ele>
        <time>2021-05-09T08:08:35Z</time>
      </trkpt>
      <trkpt lat="44.26222" lon="0.76268">
        <ele>184</ele>
        <time>2021-05-09T08:08:41Z</time>
      </trkpt>
      <trkpt lat="44.26221" lon="0.76272">
        <ele>184.4</ele>
        <time>2021-05-09T08:08:44Z</time>
      </trkpt>
      <trkpt lat="44.2622" lon="0.76275">
        <ele>184.6</ele>
        <time>2021-05-09T08:08:46Z</time>
      </trkpt>
      <trkpt lat="44.26218" lon="0.76278">
        <ele>185</ele>
        <time>2021-05-09T08:08:48Z</time>
      </trkpt>
      <trkpt lat="44.26217" lon="0.76281">
        <ele>185.2</ele>
        <time>2021-05-09T08:08:50Z</time>
      </trkpt>
      <trkpt lat="44.26215" lon="0.76283">
        <ele>185.4</ele>
        <time>2021-05-09T08:08:52Z</time>
      </trkpt>
      <trkpt lat="44.26214" lon="0.76287">
        <ele>185.6</ele>
        <time>2021-05-09T08:08:54Z</time>
      </trkpt>
      <trkpt lat="44.26213" lon="0.7629">
        <ele>186</ele>
        <time>2021-05-09T08:08:56Z</time>
      </trkpt>
      <trkpt lat="44.26212" lon="0.76293">
        <ele>186.4</ele>
        <time>2021-05-09T08:08:58Z</time>
      </trkpt>
      <trkpt lat="44.26211" lon="0.76296">
        <ele>186.6</ele>
        <time>2021-05-09T08:09:00Z</time>
      </trkpt>
      <trkpt lat="44.26209" lon="0.76298">
        <ele>187</ele>
        <time>2021-05-09T08:09:02Z</time>
      </trkpt>
      <trkpt lat="44.26209" lon="0.76301">
        <ele>187.2</ele>
        <time>2021-05-09T08:09:04Z</time>
      </trkpt>
      <trkpt lat="44.26207" lon="0.76304">
        <ele>187.6</ele>
        <time>2021-05-09T08:09:06Z</time>
      </trkpt>
      <trkpt lat="44.26207" lon="0.76306">
        <ele>187.8</ele>
        <time>2021-05-09T08:09:08Z</time>
      </trkpt>
      <trkpt lat="44.26206" lon="0.76309">
        <ele>188</ele>
        <time>2021-05-09T08:09:10Z</time>
      </trkpt>
      <trkpt lat="44.26206" lon="0.76312">
        <ele>188.2</ele>
        <time>2021-05-09T08:09:12Z</time>
      </trkpt>
      <trkpt lat="44.26207" lon="0.76315">
        <ele>188.6</ele>
        <time>2021-05-09T08:09:15Z</time>
      </trkpt>
      <trkpt lat="44.26205" lon="0.76322">
        <ele>190</ele>
        <time>2021-05-09T08:09:25Z</time>
      </trkpt>
      <trkpt lat="44.26203" lon="0.76324">
        <ele>190.6</ele>
        <time>2021-05-09T08:09:29Z</time>
      </trkpt>
      <trkpt lat="44.26203" lon="0.76331">
        <ele>192.8</ele>
        <time>2021-05-09T08:10:13Z</time>
      </trkpt>
      <trkpt lat="44.26203" lon="0.76327">
        <ele>192.8</ele>
        <time>2021-05-09T08:10:15Z</time>
      </trkpt>
      <trkpt lat="44.26205" lon="0.76324">
        <ele>192.8</ele>
        <time>2021-05-09T08:10:16Z</time>
      </trkpt>
      <trkpt lat="44.26205" lon="0.76321">
        <ele>192.8</ele>
        <time>2021-05-09T08:10:17Z</time>
      </trkpt>
      <trkpt lat="44.26203" lon="0.7632">
        <ele>192.8</ele>
        <time>2021-05-09T08:10:18Z</time>
      </trkpt>
      <trkpt lat="44.26203" lon="0.76324">
        <ele>192.8</ele>
        <time>2021-05-09T08:10:19Z</time>
      </trkpt>
      <trkpt lat="44.26199" lon="0.76326">
        <ele>193</ele>
        <time>2021-05-09T08:10:21Z</time>
      </trkpt>
      <trkpt lat="44.26198" lon="0.76333">
        <ele>192.8</ele>
        <time>2021-05-09T08:11:00Z</time>
      </trkpt>
      <trkpt lat="44.26198" lon="0.76336">
        <ele>193</ele>
        <time>2021-05-09T08:11:02Z</time>
      </trkpt>
      <trkpt lat="44.26197" lon="0.7634">
        <ele>193</ele>
        <time>2021-05-09T08:11:04Z</time>
      </trkpt>
      <trkpt lat="44.26196" lon="0.76344">
        <ele>193</ele>
        <time>2021-05-09T08:11:06Z</time>
      </trkpt>
      <trkpt lat="44.26196" lon="0.76347">
        <ele>193</ele>
        <time>2021-05-09T08:11:08Z</time>
      </trkpt>
      <trkpt lat="44.26194" lon="0.7635">
        <ele>193.2</ele>
        <time>2021-05-09T08:11:11Z</time>
      </trkpt>
      <trkpt lat="44.26193" lon="0.76353">
        <ele>193.2</ele>
        <time>2021-05-09T08:11:13Z</time>
      </trkpt>
      <trkpt lat="44.26192" lon="0.76356">
        <ele>193.4</ele>
        <time>2021-05-09T08:11:15Z</time>
      </trkpt>
      <trkpt lat="44.26191" lon="0.76358">
        <ele>193.4</ele>
        <time>2021-05-09T08:11:17Z</time>
      </trkpt>
      <trkpt lat="44.2619" lon="0.76361">
        <ele>193.4</ele>
        <time>2021-05-09T08:11:19Z</time>
      </trkpt>
      <trkpt lat="44.26189" lon="0.76364">
        <ele>193.4</ele>
        <time>2021-05-09T08:11:21Z</time>
      </trkpt>
      <trkpt lat="44.26188" lon="0.76366">
        <ele>193.4</ele>
        <time>2021-05-09T08:11:23Z</time>
      </trkpt>
      <trkpt lat="44.26187" lon="0.76369">
        <ele>193.6</ele>
        <time>2021-05-09T08:11:25Z</time>
      </trkpt>
      <trkpt lat="44.26186" lon="0.76372">
        <ele>193.6</ele>
        <time>2021-05-09T08:11:27Z</time>
      </trkpt>
      <trkpt lat="44.26185" lon="0.76376">
        <ele>193.6</ele>
        <time>2021-05-09T08:11:29Z</time>
      </trkpt>
      <trkpt lat="44.26184" lon="0.76378">
        <ele>193.6</ele>
        <time>2021-05-09T08:11:31Z</time>
      </trkpt>
      <trkpt lat="44.26183" lon="0.76381">
        <ele>193.6</ele>
        <time>2021-05-09T08:11:33Z</time>
      </trkpt>
      <trkpt lat="44.26183" lon="0.76383">
        <ele>193.8</ele>
        <time>2021-05-09T08:11:35Z</time>
      </trkpt>
      <trkpt lat="44.26182" lon="0.76386">
        <ele>193.8</ele>
        <time>2021-05-09T08:11:37Z</time>
      </trkpt>
      <trkpt lat="44.26181" lon="0.76389">
        <ele>193.8</ele>
        <time>2021-05-09T08:11:39Z</time>
      </trkpt>
      <trkpt lat="44.2618" lon="0.76392">
        <ele>194</ele>
        <time>2021-05-09T08:11:41Z</time>
      </trkpt>
      <trkpt lat="44.2618" lon="0.76395">
        <ele>194</ele>
        <time>2021-05-09T08:11:43Z</time>
      </trkpt>
      <trkpt lat="44.2618" lon="0.76399">
        <ele>194.2</ele>
        <time>2021-05-09T08:11:45Z</time>
      </trkpt>
      <trkpt lat="44.26179" lon="0.76401">
        <ele>194.2</ele>
        <time>2021-05-09T08:11:47Z</time>
      </trkpt>
      <trkpt lat="44.26178" lon="0.76404">
        <ele>194.2</ele>
        <time>2021-05-09T08:11:49Z</time>
      </trkpt>
      <trkpt lat="44.26178" lon="0.76406">
        <ele>194.2</ele>
        <time>2021-05-09T08:11:51Z</time>
      </trkpt>
      <trkpt lat="44.26177" lon="0.76409">
        <ele>194.4</ele>
        <time>2021-05-09T08:11:53Z</time>
      </trkpt>
      <trkpt lat="44.26176" lon="0.76413">
        <ele>194.4</ele>
        <time>2021-05-09T08:11:55Z</time>
      </trkpt>
      <trkpt lat="44.26174" lon="0.76416">
        <ele>194.6</ele>
        <time>2021-05-09T08:11:57Z</time>
      </trkpt>
      <trkpt lat="44.26173" lon="0.76419">
        <ele>194.6</ele>
        <time>2021-05-09T08:11:59Z</time>
      </trkpt>
      <trkpt lat="44.26173" lon="0.76422">
        <ele>194.6</ele>
        <time>2021-05-09T08:12:01Z</time>
      </trkpt>
      <trkpt lat="44.26172" lon="0.76425">
        <ele>194.6</ele>
        <time>2021-05-09T08:12:03Z</time>
      </trkpt>
      <trkpt lat="44.26172" lon="0.76428">
        <ele>194.6</ele>
        <time>2021-05-09T08:12:05Z</time>
      </trkpt>
      <trkpt lat="44.26172" lon="0.76431">
        <ele>194.6</ele>
        <time>2021-05-09T08:12:07Z</time>
      </trkpt>
      <trkpt lat="44.26171" lon="0.76434">
        <ele>194.8</ele>
        <time>2021-05-09T08:12:09Z</time>
      </trkpt>
      <trkpt lat="44.26169" lon="0.76437">
        <ele>194.8</ele>
        <time>2021-05-09T08:12:11Z</time>
      </trkpt>
      <trkpt lat="44.26168" lon="0.76439">
        <ele>195</ele>
        <time>2021-05-09T08:12:13Z</time>
      </trkpt>
      <trkpt lat="44.26167" lon="0.76442">
        <ele>195</ele>
        <time>2021-05-09T08:12:15Z</time>
      </trkpt>
      <trkpt lat="44.26166" lon="0.76446">
        <ele>195.2</ele>
        <time>2021-05-09T08:12:17Z</time>
      </trkpt>
      <trkpt lat="44.26164" lon="0.76449">
        <ele>195.4</ele>
        <time>2021-05-09T08:12:19Z</time>
      </trkpt>
      <trkpt lat="44.26164" lon="0.76451">
        <ele>195.4</ele>
        <time>2021-05-09T08:12:21Z</time>
      </trkpt>
      <trkpt lat="44.26164" lon="0.76454">
        <ele>195.6</ele>
        <time>2021-05-09T08:12:23Z</time>
      </trkpt>
      <trkpt lat="44.26162" lon="0.76456">
        <ele>195.6</ele>
        <time>2021-05-09T08:12:25Z</time>
      </trkpt>
      <trkpt lat="44.26161" lon="0.76459">
        <ele>195.6</ele>
        <time>2021-05-09T08:12:27Z</time>
      </trkpt>
      <trkpt lat="44.2616" lon="0.76461">
        <ele>195.6</ele>
        <time>2021-05-09T08:12:29Z</time>
      </trkpt>
      <trkpt lat="44.2616" lon="0.76464">
        <ele>195.6</ele>
        <time>2021-05-09T08:12:31Z</time>
      </trkpt>
      <trkpt lat="44.26158" lon="0.76467">
        <ele>195.8</ele>
        <time>2021-05-09T08:12:33Z</time>
      </trkpt>
      <trkpt lat="44.26158" lon="0.7647">
        <ele>195.8</ele>
        <time>2021-05-09T08:12:35Z</time>
      </trkpt>
      <trkpt lat="44.26157" lon="0.76473">
        <ele>195.8</ele>
        <time>2021-05-09T08:12:37Z</time>
      </trkpt>
      <trkpt lat="44.26157" lon="0.76476">
        <ele>196</ele>
        <time>2021-05-09T08:12:39Z</time>
      </trkpt>
      <trkpt lat="44.26156" lon="0.7648">
        <ele>196.2</ele>
        <time>2021-05-09T08:12:41Z</time>
      </trkpt>
      <trkpt lat="44.26156" lon="0.76483">
        <ele>196.2</ele>
        <time>2021-05-09T08:12:43Z</time>
      </trkpt>
      <trkpt lat="44.26154" lon="0.76486">
        <ele>196.4</ele>
        <time>2021-05-09T08:12:45Z</time>
      </trkpt>
      <trkpt lat="44.26153" lon="0.7649">
        <ele>196.4</ele>
        <time>2021-05-09T08:12:48Z</time>
      </trkpt>
      <trkpt lat="44.26152" lon="0.76493">
        <ele>196.4</ele>
        <time>2021-05-09T08:12:50Z</time>
      </trkpt>
      <trkpt lat="44.2615" lon="0.76496">
        <ele>196.4</ele>
        <time>2021-05-09T08:12:53Z</time>
      </trkpt>
      <trkpt lat="44.2615" lon="0.76499">
        <ele>196.6</ele>
        <time>2021-05-09T08:12:55Z</time>
      </trkpt>
      <trkpt lat="44.26148" lon="0.76503">
        <ele>196.6</ele>
        <time>2021-05-09T08:12:57Z</time>
      </trkpt>
      <trkpt lat="44.26148" lon="0.76506">
        <ele>196.6</ele>
        <time>2021-05-09T08:12:59Z</time>
      </trkpt>
      <trkpt lat="44.26146" lon="0.76509">
        <ele>196.8</ele>
        <time>2021-05-09T08:13:01Z</time>
      </trkpt>
      <trkpt lat="44.26146" lon="0.76511">
        <ele>196.6</ele>
        <time>2021-05-09T08:13:03Z</time>
      </trkpt>
      <trkpt lat="44.26144" lon="0.76515">
        <ele>196.6</ele>
        <time>2021-05-09T08:13:05Z</time>
      </trkpt>
      <trkpt lat="44.26144" lon="0.76518">
        <ele>196.8</ele>
        <time>2021-05-09T08:13:07Z</time>
      </trkpt>
      <trkpt lat="44.26142" lon="0.7652">
        <ele>197</ele>
        <time>2021-05-09T08:13:09Z</time>
      </trkpt>
      <trkpt lat="44.26142" lon="0.76524">
        <ele>197.4</ele>
        <time>2021-05-09T08:13:11Z</time>
      </trkpt>
      <trkpt lat="44.26141" lon="0.76527">
        <ele>197.4</ele>
        <time>2021-05-09T08:13:13Z</time>
      </trkpt>
      <trkpt lat="44.2614" lon="0.7653">
        <ele>197.6</ele>
        <time>2021-05-09T08:13:15Z</time>
      </trkpt>
      <trkpt lat="44.2614" lon="0.76533">
        <ele>197.6</ele>
        <time>2021-05-09T08:13:17Z</time>
      </trkpt>
      <trkpt lat="44.26138" lon="0.76536">
        <ele>198</ele>
        <time>2021-05-09T08:13:19Z</time>
      </trkpt>
      <trkpt lat="44.26137" lon="0.76539">
        <ele>198.2</ele>
        <time>2021-05-09T08:13:21Z</time>
      </trkpt>
      <trkpt lat="44.26135" lon="0.76542">
        <ele>198.4</ele>
        <time>2021-05-09T08:13:23Z</time>
      </trkpt>
      <trkpt lat="44.26134" lon="0.76546">
        <ele>198.6</ele>
        <time>2021-05-09T08:13:26Z</time>
      </trkpt>
      <trkpt lat="44.26133" lon="0.76549">
        <ele>198.6</ele>
        <time>2021-05-09T08:13:29Z</time>
      </trkpt>
      <trkpt lat="44.26132" lon="0.76552">
        <ele>198.8</ele>
        <time>2021-05-09T08:13:31Z</time>
      </trkpt>
      <trkpt lat="44.2613" lon="0.76555">
        <ele>198.8</ele>
        <time>2021-05-09T08:13:33Z</time>
      </trkpt>
      <trkpt lat="44.26129" lon="0.76558">
        <ele>198.8</ele>
        <time>2021-05-09T08:13:35Z</time>
      </trkpt>
      <trkpt lat="44.26128" lon="0.7656">
        <ele>198.8</ele>
        <time>2021-05-09T08:13:36Z</time>
      </trkpt>
      <trkpt lat="44.26128" lon="0.76563">
        <ele>199</ele>
        <time>2021-05-09T08:13:38Z</time>
      </trkpt>
      <trkpt lat="44.26126" lon="0.76566">
        <ele>199</ele>
        <time>2021-05-09T08:13:40Z</time>
      </trkpt>
      <trkpt lat="44.26125" lon="0.76568">
        <ele>199</ele>
        <time>2021-05-09T08:13:42Z</time>
      </trkpt>
      <trkpt lat="44.26125" lon="0.76571">
        <ele>199</ele>
        <time>2021-05-09T08:13:44Z</time>
      </trkpt>
      <trkpt lat="44.26124" lon="0.76574">
        <ele>199</ele>
        <time>2021-05-09T08:13:46Z</time>
      </trkpt>
      <trkpt lat="44.26123" lon="0.76577">
        <ele>199.2</ele>
        <time>2021-05-09T08:13:48Z</time>
      </trkpt>
      <trkpt lat="44.26122" lon="0.7658">
        <ele>199.2</ele>
        <time>2021-05-09T08:13:50Z</time>
      </trkpt>
      <trkpt lat="44.26121" lon="0.76583">
        <ele>199.4</ele>
        <time>2021-05-09T08:13:52Z</time>
      </trkpt>
      <trkpt lat="44.2612" lon="0.76586">
        <ele>199.6</ele>
        <time>2021-05-09T08:13:54Z</time>
      </trkpt>
      <trkpt lat="44.26119" lon="0.76588">
        <ele>199.6</ele>
        <time>2021-05-09T08:13:56Z</time>
      </trkpt>
      <trkpt lat="44.26118" lon="0.76591">
        <ele>199.8</ele>
        <time>2021-05-09T08:13:58Z</time>
      </trkpt>
      <trkpt lat="44.26116" lon="0.76592">
        <ele>199.8</ele>
        <time>2021-05-09T08:14:00Z</time>
      </trkpt>
      <trkpt lat="44.26115" lon="0.76595">
        <ele>199.8</ele>
        <time>2021-05-09T08:14:02Z</time>
      </trkpt>
      <trkpt lat="44.26114" lon="0.76598">
        <ele>200</ele>
        <time>2021-05-09T08:14:04Z</time>
      </trkpt>
      <trkpt lat="44.26112" lon="0.766">
        <ele>200</ele>
        <time>2021-05-09T08:14:06Z</time>
      </trkpt>
      <trkpt lat="44.2611" lon="0.76602">
        <ele>200</ele>
        <time>2021-05-09T08:14:08Z</time>
      </trkpt>
      <trkpt lat="44.26108" lon="0.76604">
        <ele>200</ele>
        <time>2021-05-09T08:14:10Z</time>
      </trkpt>
      <trkpt lat="44.26106" lon="0.76607">
        <ele>200.2</ele>
        <time>2021-05-09T08:14:12Z</time>
      </trkpt>
      <trkpt lat="44.26104" lon="0.76609">
        <ele>200.2</ele>
        <time>2021-05-09T08:14:14Z</time>
      </trkpt>
      <trkpt lat="44.26102" lon="0.76611">
        <ele>200.2</ele>
        <time>2021-05-09T08:14:17Z</time>
      </trkpt>
      <trkpt lat="44.26101" lon="0.76613">
        <ele>200.2</ele>
        <time>2021-05-09T08:14:18Z</time>
      </trkpt>
      <trkpt lat="44.26099" lon="0.76615">
        <ele>200.2</ele>
        <time>2021-05-09T08:14:21Z</time>
      </trkpt>
      <trkpt lat="44.26097" lon="0.76617">
        <ele>200.2</ele>
        <time>2021-05-09T08:14:23Z</time>
      </trkpt>
      <trkpt lat="44.26096" lon="0.7662">
        <ele>200.2</ele>
        <time>2021-05-09T08:14:25Z</time>
      </trkpt>
      <trkpt lat="44.26094" lon="0.76623">
        <ele>200.2</ele>
        <time>2021-05-09T08:14:27Z</time>
      </trkpt>
      <trkpt lat="44.26093" lon="0.76625">
        <ele>200.4</ele>
        <time>2021-05-09T08:14:29Z</time>
      </trkpt>
      <trkpt lat="44.26092" lon="0.76627">
        <ele>200.4</ele>
        <time>2021-05-09T08:14:31Z</time>
      </trkpt>
      <trkpt lat="44.2609" lon="0.7663">
        <ele>200.6</ele>
        <time>2021-05-09T08:14:33Z</time>
      </trkpt>
      <trkpt lat="44.26089" lon="0.76631">
        <ele>200.6</ele>
        <time>2021-05-09T08:14:34Z</time>
      </trkpt>
      <trkpt lat="44.26086" lon="0.76634">
        <ele>200.8</ele>
        <time>2021-05-09T08:14:36Z</time>
      </trkpt>
      <trkpt lat="44.26084" lon="0.76636">
        <ele>200.6</ele>
        <time>2021-05-09T08:14:38Z</time>
      </trkpt>
      <trkpt lat="44.26082" lon="0.76639">
        <ele>200.6</ele>
        <time>2021-05-09T08:14:40Z</time>
      </trkpt>
      <trkpt lat="44.26081" lon="0.76642">
        <ele>200.6</ele>
        <time>2021-05-09T08:14:41Z</time>
      </trkpt>
      <trkpt lat="44.26079" lon="0.76645">
        <ele>200.6</ele>
        <time>2021-05-09T08:14:43Z</time>
      </trkpt>
      <trkpt lat="44.26078" lon="0.76647">
        <ele>200.8</ele>
        <time>2021-05-09T08:14:45Z</time>
      </trkpt>
      <trkpt lat="44.26076" lon="0.76651">
        <ele>200.8</ele>
        <time>2021-05-09T08:14:48Z</time>
      </trkpt>
      <trkpt lat="44.26075" lon="0.76653">
        <ele>200.8</ele>
        <time>2021-05-09T08:14:50Z</time>
      </trkpt>
      <trkpt lat="44.26074" lon="0.76656">
        <ele>200.8</ele>
        <time>2021-05-09T08:14:52Z</time>
      </trkpt>
      <trkpt lat="44.26072" lon="0.76659">
        <ele>200.8</ele>
        <time>2021-05-09T08:14:54Z</time>
      </trkpt>
      <trkpt lat="44.26071" lon="0.76661">
        <ele>201</ele>
        <time>2021-05-09T08:14:56Z</time>
      </trkpt>
      <trkpt lat="44.26069" lon="0.76664">
        <ele>201</ele>
        <time>2021-05-09T08:14:58Z</time>
      </trkpt>
      <trkpt lat="44.26067" lon="0.76665">
        <ele>201.2</ele>
        <time>2021-05-09T08:15:00Z</time>
      </trkpt>
      <trkpt lat="44.26065" lon="0.76668">
        <ele>201</ele>
        <time>2021-05-09T08:15:02Z</time>
      </trkpt>
      <trkpt lat="44.26063" lon="0.76671">
        <ele>201.2</ele>
        <time>2021-05-09T08:15:04Z</time>
      </trkpt>
      <trkpt lat="44.26062" lon="0.76673">
        <ele>201.2</ele>
        <time>2021-05-09T08:15:06Z</time>
      </trkpt>
      <trkpt lat="44.2606" lon="0.76675">
        <ele>201.2</ele>
        <time>2021-05-09T08:15:07Z</time>
      </trkpt>
      <trkpt lat="44.26059" lon="0.76677">
        <ele>201.2</ele>
        <time>2021-05-09T08:15:09Z</time>
      </trkpt>
      <trkpt lat="44.26057" lon="0.7668">
        <ele>201.2</ele>
        <time>2021-05-09T08:15:11Z</time>
      </trkpt>
      <trkpt lat="44.26056" lon="0.76683">
        <ele>201.2</ele>
        <time>2021-05-09T08:15:13Z</time>
      </trkpt>
      <trkpt lat="44.26055" lon="0.76684">
        <ele>201.2</ele>
        <time>2021-05-09T08:15:15Z</time>
      </trkpt>
      <trkpt lat="44.26054" lon="0.76687">
        <ele>201</ele>
        <time>2021-05-09T08:15:17Z</time>
      </trkpt>
      <trkpt lat="44.26052" lon="0.76689">
        <ele>201</ele>
        <time>2021-05-09T08:15:19Z</time>
      </trkpt>
      <trkpt lat="44.26051" lon="0.76692">
        <ele>201</ele>
        <time>2021-05-09T08:15:21Z</time>
      </trkpt>
      <trkpt lat="44.26049" lon="0.76694">
        <ele>200.8</ele>
        <time>2021-05-09T08:15:23Z</time>
      </trkpt>
      <trkpt lat="44.26047" lon="0.76695">
        <ele>200.8</ele>
        <time>2021-05-09T08:15:25Z</time>
      </trkpt>
      <trkpt lat="44.26046" lon="0.76697">
        <ele>200.8</ele>
        <time>2021-05-09T08:15:27Z</time>
      </trkpt>
      <trkpt lat="44.26044" lon="0.767">
        <ele>200.8</ele>
        <time>2021-05-09T08:15:29Z</time>
      </trkpt>
      <trkpt lat="44.26042" lon="0.76702">
        <ele>200.8</ele>
        <time>2021-05-09T08:15:31Z</time>
      </trkpt>
      <trkpt lat="44.26039" lon="0.76705">
        <ele>201</ele>
        <time>2021-05-09T08:15:33Z</time>
      </trkpt>
      <trkpt lat="44.26037" lon="0.76706">
        <ele>201</ele>
        <time>2021-05-09T08:15:35Z</time>
      </trkpt>
      <trkpt lat="44.26036" lon="0.76709">
        <ele>200.8</ele>
        <time>2021-05-09T08:15:37Z</time>
      </trkpt>
      <trkpt lat="44.26033" lon="0.76712">
        <ele>200.6</ele>
        <time>2021-05-09T08:15:39Z</time>
      </trkpt>
      <trkpt lat="44.26031" lon="0.76714">
        <ele>200.6</ele>
        <time>2021-05-09T08:15:41Z</time>
      </trkpt>
      <trkpt lat="44.2603" lon="0.76718">
        <ele>200.6</ele>
        <time>2021-05-09T08:15:44Z</time>
      </trkpt>
      <trkpt lat="44.26029" lon="0.7672">
        <ele>200.4</ele>
        <time>2021-05-09T08:15:45Z</time>
      </trkpt>
      <trkpt lat="44.26028" lon="0.76723">
        <ele>200.6</ele>
        <time>2021-05-09T08:15:47Z</time>
      </trkpt>
      <trkpt lat="44.26026" lon="0.76726">
        <ele>200.6</ele>
        <time>2021-05-09T08:15:49Z</time>
      </trkpt>
      <trkpt lat="44.26025" lon="0.76728">
        <ele>200.6</ele>
        <time>2021-05-09T08:15:51Z</time>
      </trkpt>
      <trkpt lat="44.26023" lon="0.76729">
        <ele>200.6</ele>
        <time>2021-05-09T08:15:53Z</time>
      </trkpt>
      <trkpt lat="44.26021" lon="0.76732">
        <ele>200.6</ele>
        <time>2021-05-09T08:15:56Z</time>
      </trkpt>
      <trkpt lat="44.26019" lon="0.76734">
        <ele>200.6</ele>
        <time>2021-05-09T08:15:58Z</time>
      </trkpt>
      <trkpt lat="44.26018" lon="0.76736">
        <ele>200.8</ele>
        <time>2021-05-09T08:16:00Z</time>
      </trkpt>
      <trkpt lat="44.26016" lon="0.76738">
        <ele>201</ele>
        <time>2021-05-09T08:16:02Z</time>
      </trkpt>
      <trkpt lat="44.26015" lon="0.7674">
        <ele>201</ele>
        <time>2021-05-09T08:16:04Z</time>
      </trkpt>
      <trkpt lat="44.26013" lon="0.76743">
        <ele>201.2</ele>
        <time>2021-05-09T08:16:06Z</time>
      </trkpt>
      <trkpt lat="44.26012" lon="0.76746">
        <ele>201</ele>
        <time>2021-05-09T08:16:08Z</time>
      </trkpt>
      <trkpt lat="44.26011" lon="0.76748">
        <ele>201.2</ele>
        <time>2021-05-09T08:16:10Z</time>
      </trkpt>
      <trkpt lat="44.26009" lon="0.7675">
        <ele>201</ele>
        <time>2021-05-09T08:16:12Z</time>
      </trkpt>
      <trkpt lat="44.26007" lon="0.76753">
        <ele>200.8</ele>
        <time>2021-05-09T08:16:14Z</time>
      </trkpt>
      <trkpt lat="44.26006" lon="0.76756">
        <ele>201</ele>
        <time>2021-05-09T08:16:16Z</time>
      </trkpt>
      <trkpt lat="44.26005" lon="0.76758">
        <ele>201</ele>
        <time>2021-05-09T08:16:17Z</time>
      </trkpt>
      <trkpt lat="44.26003" lon="0.76761">
        <ele>201</ele>
        <time>2021-05-09T08:16:19Z</time>
      </trkpt>
      <trkpt lat="44.26002" lon="0.76763">
        <ele>201</ele>
        <time>2021-05-09T08:16:20Z</time>
      </trkpt>
      <trkpt lat="44.26" lon="0.76765">
        <ele>201</ele>
        <time>2021-05-09T08:16:22Z</time>
      </trkpt>
      <trkpt lat="44.25997" lon="0.76769">
        <ele>201</ele>
        <time>2021-05-09T08:16:24Z</time>
      </trkpt>
      <trkpt lat="44.25995" lon="0.76771">
        <ele>200.8</ele>
        <time>2021-05-09T08:16:26Z</time>
      </trkpt>
      <trkpt lat="44.25993" lon="0.76774">
        <ele>200.8</ele>
        <time>2021-05-09T08:16:28Z</time>
      </trkpt>
      <trkpt lat="44.25991" lon="0.76776">
        <ele>200.6</ele>
        <time>2021-05-09T08:16:30Z</time>
      </trkpt>
      <trkpt lat="44.25989" lon="0.76779">
        <ele>200.6</ele>
        <time>2021-05-09T08:16:32Z</time>
      </trkpt>
      <trkpt lat="44.25987" lon="0.76782">
        <ele>200.4</ele>
        <time>2021-05-09T08:16:34Z</time>
      </trkpt>
      <trkpt lat="44.25985" lon="0.76784">
        <ele>200.4</ele>
        <time>2021-05-09T08:16:36Z</time>
      </trkpt>
      <trkpt lat="44.25983" lon="0.76788">
        <ele>200.6</ele>
        <time>2021-05-09T08:16:38Z</time>
      </trkpt>
      <trkpt lat="44.25981" lon="0.7679">
        <ele>200.6</ele>
        <time>2021-05-09T08:16:40Z</time>
      </trkpt>
      <trkpt lat="44.2598" lon="0.76792">
        <ele>200.6</ele>
        <time>2021-05-09T08:16:42Z</time>
      </trkpt>
      <trkpt lat="44.25977" lon="0.76794">
        <ele>200.6</ele>
        <time>2021-05-09T08:16:44Z</time>
      </trkpt>
      <trkpt lat="44.25975" lon="0.76796">
        <ele>200.6</ele>
        <time>2021-05-09T08:16:46Z</time>
      </trkpt>
      <trkpt lat="44.25973" lon="0.76798">
        <ele>200.8</ele>
        <time>2021-05-09T08:16:48Z</time>
      </trkpt>
      <trkpt lat="44.25972" lon="0.76801">
        <ele>201</ele>
        <time>2021-05-09T08:16:50Z</time>
      </trkpt>
      <trkpt lat="44.2597" lon="0.76804">
        <ele>201</ele>
        <time>2021-05-09T08:16:52Z</time>
      </trkpt>
      <trkpt lat="44.25968" lon="0.76807">
        <ele>201</ele>
        <time>2021-05-09T08:16:55Z</time>
      </trkpt>
      <trkpt lat="44.25967" lon="0.76809">
        <ele>201.2</ele>
        <time>2021-05-09T08:16:57Z</time>
      </trkpt>
      <trkpt lat="44.25965" lon="0.76811">
        <ele>201.2</ele>
        <time>2021-05-09T08:16:59Z</time>
      </trkpt>
      <trkpt lat="44.25963" lon="0.76813">
        <ele>201</ele>
        <time>2021-05-09T08:17:01Z</time>
      </trkpt>
      <trkpt lat="44.25961" lon="0.76814">
        <ele>200.8</ele>
        <time>2021-05-09T08:17:04Z</time>
      </trkpt>
      <trkpt lat="44.25959" lon="0.76817">
        <ele>200.6</ele>
        <time>2021-05-09T08:17:06Z</time>
      </trkpt>
      <trkpt lat="44.25958" lon="0.76819">
        <ele>200.6</ele>
        <time>2021-05-09T08:17:08Z</time>
      </trkpt>
      <trkpt lat="44.25956" lon="0.76822">
        <ele>200.4</ele>
        <time>2021-05-09T08:17:10Z</time>
      </trkpt>
      <trkpt lat="44.25955" lon="0.76824">
        <ele>200.4</ele>
        <time>2021-05-09T08:17:12Z</time>
      </trkpt>
      <trkpt lat="44.25953" lon="0.76826">
        <ele>200.4</ele>
        <time>2021-05-09T08:17:14Z</time>
      </trkpt>
      <trkpt lat="44.25951" lon="0.76828">
        <ele>200.2</ele>
        <time>2021-05-09T08:17:16Z</time>
      </trkpt>
      <trkpt lat="44.25949" lon="0.7683">
        <ele>200.2</ele>
        <time>2021-05-09T08:17:18Z</time>
      </trkpt>
      <trkpt lat="44.25946" lon="0.76833">
        <ele>200.2</ele>
        <time>2021-05-09T08:17:20Z</time>
      </trkpt>
      <trkpt lat="44.25944" lon="0.76835">
        <ele>200.2</ele>
        <time>2021-05-09T08:17:22Z</time>
      </trkpt>
      <trkpt lat="44.25941" lon="0.76838">
        <ele>200.2</ele>
        <time>2021-05-09T08:17:24Z</time>
      </trkpt>
      <trkpt lat="44.25939" lon="0.7684">
        <ele>200</ele>
        <time>2021-05-09T08:17:26Z</time>
      </trkpt>
      <trkpt lat="44.25937" lon="0.76842">
        <ele>200</ele>
        <time>2021-05-09T08:17:28Z</time>
      </trkpt>
      <trkpt lat="44.25935" lon="0.76843">
        <ele>199.8</ele>
        <time>2021-05-09T08:17:30Z</time>
      </trkpt>
      <trkpt lat="44.25933" lon="0.76845">
        <ele>199.8</ele>
        <time>2021-05-09T08:17:32Z</time>
      </trkpt>
      <trkpt lat="44.25931" lon="0.76847">
        <ele>199.6</ele>
        <time>2021-05-09T08:17:34Z</time>
      </trkpt>
      <trkpt lat="44.25928" lon="0.76849">
        <ele>199.6</ele>
        <time>2021-05-09T08:17:36Z</time>
      </trkpt>
      <trkpt lat="44.25926" lon="0.76852">
        <ele>199.6</ele>
        <time>2021-05-09T08:17:38Z</time>
      </trkpt>
      <trkpt lat="44.25924" lon="0.76854">
        <ele>199.4</ele>
        <time>2021-05-09T08:17:40Z</time>
      </trkpt>
      <trkpt lat="44.25922" lon="0.76856">
        <ele>199.4</ele>
        <time>2021-05-09T08:17:42Z</time>
      </trkpt>
      <trkpt lat="44.2592" lon="0.76858">
        <ele>199.4</ele>
        <time>2021-05-09T08:17:45Z</time>
      </trkpt>
      <trkpt lat="44.25917" lon="0.7686">
        <ele>199.4</ele>
        <time>2021-05-09T08:17:47Z</time>
      </trkpt>
      <trkpt lat="44.25916" lon="0.76862">
        <ele>199.4</ele>
        <time>2021-05-09T08:17:49Z</time>
      </trkpt>
      <trkpt lat="44.25914" lon="0.76863">
        <ele>199.6</ele>
        <time>2021-05-09T08:17:51Z</time>
      </trkpt>
      <trkpt lat="44.25911" lon="0.76866">
        <ele>199.6</ele>
        <time>2021-05-09T08:17:53Z</time>
      </trkpt>
      <trkpt lat="44.25909" lon="0.76869">
        <ele>199.8</ele>
        <time>2021-05-09T08:17:56Z</time>
      </trkpt>
      <trkpt lat="44.25907" lon="0.7687">
        <ele>199.8</ele>
        <time>2021-05-09T08:17:59Z</time>
      </trkpt>
      <trkpt lat="44.25905" lon="0.76872">
        <ele>199.8</ele>
        <time>2021-05-09T08:18:01Z</time>
      </trkpt>
      <trkpt lat="44.25903" lon="0.76873">
        <ele>199.8</ele>
        <time>2021-05-09T08:18:03Z</time>
      </trkpt>
      <trkpt lat="44.25901" lon="0.76876">
        <ele>199.8</ele>
        <time>2021-05-09T08:18:05Z</time>
      </trkpt>
      <trkpt lat="44.259" lon="0.76877">
        <ele>199.8</ele>
        <time>2021-05-09T08:18:07Z</time>
      </trkpt>
      <trkpt lat="44.25898" lon="0.76879">
        <ele>199.8</ele>
        <time>2021-05-09T08:18:09Z</time>
      </trkpt>
      <trkpt lat="44.25897" lon="0.76882">
        <ele>199.8</ele>
        <time>2021-05-09T08:18:12Z</time>
      </trkpt>
      <trkpt lat="44.25867" lon="0.76898">
        <ele>200</ele>
        <time>2021-05-09T08:18:59Z</time>
      </trkpt>
      <trkpt lat="44.25865" lon="0.76899">
        <ele>200</ele>
        <time>2021-05-09T08:19:01Z</time>
      </trkpt>
      <trkpt lat="44.25862" lon="0.769">
        <ele>200.2</ele>
        <time>2021-05-09T08:19:04Z</time>
      </trkpt>
      <trkpt lat="44.2586" lon="0.76901">
        <ele>200.2</ele>
        <time>2021-05-09T08:19:06Z</time>
      </trkpt>
      <trkpt lat="44.25858" lon="0.76902">
        <ele>200.2</ele>
        <time>2021-05-09T08:19:08Z</time>
      </trkpt>
      <trkpt lat="44.25856" lon="0.76903">
        <ele>200.4</ele>
        <time>2021-05-09T08:19:10Z</time>
      </trkpt>
      <trkpt lat="44.25854" lon="0.76904">
        <ele>200.2</ele>
        <time>2021-05-09T08:19:12Z</time>
      </trkpt>
      <trkpt lat="44.25852" lon="0.76905">
        <ele>200.2</ele>
        <time>2021-05-09T08:19:14Z</time>
      </trkpt>
      <trkpt lat="44.2585" lon="0.76906">
        <ele>200.2</ele>
        <time>2021-05-09T08:19:16Z</time>
      </trkpt>
      <trkpt lat="44.25848" lon="0.76907">
        <ele>200.2</ele>
        <time>2021-05-09T08:19:19Z</time>
      </trkpt>
      <trkpt lat="44.25842" lon="0.76909">
        <ele>200</ele>
        <time>2021-05-09T08:19:27Z</time>
      </trkpt>
      <trkpt lat="44.25839" lon="0.7691">
        <ele>200</ele>
        <time>2021-05-09T08:19:35Z</time>
      </trkpt>
      <trkpt lat="44.25836" lon="0.76911">
        <ele>200</ele>
        <time>2021-05-09T08:19:38Z</time>
      </trkpt>
      <trkpt lat="44.25834" lon="0.76911">
        <ele>200</ele>
        <time>2021-05-09T08:19:40Z</time>
      </trkpt>
      <trkpt lat="44.25832" lon="0.76912">
        <ele>200</ele>
        <time>2021-05-09T08:19:42Z</time>
      </trkpt>
      <trkpt lat="44.25829" lon="0.76913">
        <ele>200</ele>
        <time>2021-05-09T08:19:44Z</time>
      </trkpt>
      <trkpt lat="44.25827" lon="0.76915">
        <ele>200.2</ele>
        <time>2021-05-09T08:19:46Z</time>
      </trkpt>
      <trkpt lat="44.25825" lon="0.76915">
        <ele>200.2</ele>
        <time>2021-05-09T08:19:48Z</time>
      </trkpt>
      <trkpt lat="44.25823" lon="0.76916">
        <ele>200.2</ele>
        <time>2021-05-09T08:19:50Z</time>
      </trkpt>
      <trkpt lat="44.2582" lon="0.76917">
        <ele>200.4</ele>
        <time>2021-05-09T08:19:53Z</time>
      </trkpt>
      <trkpt lat="44.25818" lon="0.76917">
        <ele>200.4</ele>
        <time>2021-05-09T08:19:55Z</time>
      </trkpt>
      <trkpt lat="44.25816" lon="0.76918">
        <ele>200.6</ele>
        <time>2021-05-09T08:19:58Z</time>
      </trkpt>
      <trkpt lat="44.25814" lon="0.76919">
        <ele>200.6</ele>
        <time>2021-05-09T08:20:00Z</time>
      </trkpt>
      <trkpt lat="44.25812" lon="0.7692">
        <ele>200.6</ele>
        <time>2021-05-09T08:20:03Z</time>
      </trkpt>
      <trkpt lat="44.2581" lon="0.7692">
        <ele>200.6</ele>
        <time>2021-05-09T08:20:05Z</time>
      </trkpt>
      <trkpt lat="44.25807" lon="0.76922">
        <ele>200.8</ele>
        <time>2021-05-09T08:20:08Z</time>
      </trkpt>
      <trkpt lat="44.25804" lon="0.76923">
        <ele>201</ele>
        <time>2021-05-09T08:20:11Z</time>
      </trkpt>
      <trkpt lat="44.25802" lon="0.76924">
        <ele>201.2</ele>
        <time>2021-05-09T08:20:13Z</time>
      </trkpt>
      <trkpt lat="44.258" lon="0.76924">
        <ele>201.2</ele>
        <time>2021-05-09T08:20:15Z</time>
      </trkpt>
      <trkpt lat="44.25798" lon="0.76925">
        <ele>201.2</ele>
        <time>2021-05-09T08:20:17Z</time>
      </trkpt>
      <trkpt lat="44.25795" lon="0.76927">
        <ele>201.2</ele>
        <time>2021-05-09T08:20:19Z</time>
      </trkpt>
      <trkpt lat="44.25793" lon="0.76928">
        <ele>201.4</ele>
        <time>2021-05-09T08:20:21Z</time>
      </trkpt>
      <trkpt lat="44.2579" lon="0.76929">
        <ele>201.6</ele>
        <time>2021-05-09T08:20:23Z</time>
      </trkpt>
      <trkpt lat="44.25788" lon="0.76931">
        <ele>201.8</ele>
        <time>2021-05-09T08:20:26Z</time>
      </trkpt>
      <trkpt lat="44.25786" lon="0.76932">
        <ele>201.8</ele>
        <time>2021-05-09T08:20:28Z</time>
      </trkpt>
      <trkpt lat="44.25784" lon="0.76933">
        <ele>202</ele>
        <time>2021-05-09T08:20:30Z</time>
      </trkpt>
      <trkpt lat="44.25781" lon="0.76934">
        <ele>202</ele>
        <time>2021-05-09T08:20:32Z</time>
      </trkpt>
      <trkpt lat="44.25779" lon="0.76935">
        <ele>202</ele>
        <time>2021-05-09T08:20:34Z</time>
      </trkpt>
      <trkpt lat="44.25777" lon="0.76936">
        <ele>202.2</ele>
        <time>2021-05-09T08:20:36Z</time>
      </trkpt>
      <trkpt lat="44.25776" lon="0.76937">
        <ele>202.2</ele>
        <time>2021-05-09T08:20:38Z</time>
      </trkpt>
      <trkpt lat="44.25773" lon="0.76939">
        <ele>202.4</ele>
        <time>2021-05-09T08:20:40Z</time>
      </trkpt>
      <trkpt lat="44.25771" lon="0.7694">
        <ele>202.4</ele>
        <time>2021-05-09T08:20:42Z</time>
      </trkpt>
      <trkpt lat="44.25769" lon="0.76941">
        <ele>202.6</ele>
        <time>2021-05-09T08:20:44Z</time>
      </trkpt>
      <trkpt lat="44.25767" lon="0.76943">
        <ele>202.6</ele>
        <time>2021-05-09T08:20:46Z</time>
      </trkpt>
      <trkpt lat="44.25766" lon="0.76945">
        <ele>202.6</ele>
        <time>2021-05-09T08:20:48Z</time>
      </trkpt>
      <trkpt lat="44.25764" lon="0.76946">
        <ele>202.8</ele>
        <time>2021-05-09T08:20:50Z</time>
      </trkpt>
      <trkpt lat="44.25762" lon="0.76948">
        <ele>202.8</ele>
        <time>2021-05-09T08:20:52Z</time>
      </trkpt>
      <trkpt lat="44.25759" lon="0.7695">
        <ele>202.8</ele>
        <time>2021-05-09T08:20:54Z</time>
      </trkpt>
      <trkpt lat="44.25757" lon="0.76951">
        <ele>202.8</ele>
        <time>2021-05-09T08:20:56Z</time>
      </trkpt>
      <trkpt lat="44.25755" lon="0.76953">
        <ele>202.8</ele>
        <time>2021-05-09T08:20:58Z</time>
      </trkpt>
      <trkpt lat="44.25753" lon="0.76955">
        <ele>203</ele>
        <time>2021-05-09T08:21:00Z</time>
      </trkpt>
      <trkpt lat="44.2575" lon="0.76955">
        <ele>203</ele>
        <time>2021-05-09T08:21:02Z</time>
      </trkpt>
      <trkpt lat="44.25748" lon="0.76956">
        <ele>203</ele>
        <time>2021-05-09T08:21:04Z</time>
      </trkpt>
      <trkpt lat="44.25746" lon="0.76958">
        <ele>203</ele>
        <time>2021-05-09T08:21:06Z</time>
      </trkpt>
      <trkpt lat="44.25744" lon="0.76959">
        <ele>203</ele>
        <time>2021-05-09T08:21:08Z</time>
      </trkpt>
      <trkpt lat="44.25742" lon="0.76961">
        <ele>203</ele>
        <time>2021-05-09T08:21:10Z</time>
      </trkpt>
      <trkpt lat="44.2574" lon="0.76963">
        <ele>203.2</ele>
        <time>2021-05-09T08:21:12Z</time>
      </trkpt>
      <trkpt lat="44.25738" lon="0.76964">
        <ele>203.2</ele>
        <time>2021-05-09T08:21:14Z</time>
      </trkpt>
      <trkpt lat="44.25735" lon="0.76965">
        <ele>203.2</ele>
        <time>2021-05-09T08:21:16Z</time>
      </trkpt>
      <trkpt lat="44.25733" lon="0.76967">
        <ele>203.2</ele>
        <time>2021-05-09T08:21:18Z</time>
      </trkpt>
      <trkpt lat="44.25731" lon="0.76967">
        <ele>203.2</ele>
        <time>2021-05-09T08:21:20Z</time>
      </trkpt>
      <trkpt lat="44.25729" lon="0.76968">
        <ele>203.2</ele>
        <time>2021-05-09T08:21:22Z</time>
      </trkpt>
      <trkpt lat="44.25727" lon="0.76969">
        <ele>203.2</ele>
        <time>2021-05-09T08:21:24Z</time>
      </trkpt>
      <trkpt lat="44.25725" lon="0.76971">
        <ele>203.2</ele>
        <time>2021-05-09T08:21:26Z</time>
      </trkpt>
      <trkpt lat="44.25723" lon="0.76972">
        <ele>203.2</ele>
        <time>2021-05-09T08:21:28Z</time>
      </trkpt>
      <trkpt lat="44.25721" lon="0.76974">
        <ele>203.4</ele>
        <time>2021-05-09T08:21:30Z</time>
      </trkpt>
      <trkpt lat="44.25719" lon="0.76976">
        <ele>203.4</ele>
        <time>2021-05-09T08:21:32Z</time>
      </trkpt>
      <trkpt lat="44.25716" lon="0.76977">
        <ele>203.6</ele>
        <time>2021-05-09T08:21:35Z</time>
      </trkpt>
      <trkpt lat="44.25715" lon="0.76978">
        <ele>203.4</ele>
        <time>2021-05-09T08:21:36Z</time>
      </trkpt>
      <trkpt lat="44.25712" lon="0.7698">
        <ele>203.4</ele>
        <time>2021-05-09T08:21:38Z</time>
      </trkpt>
      <trkpt lat="44.25709" lon="0.76981">
        <ele>203.4</ele>
        <time>2021-05-09T08:21:40Z</time>
      </trkpt>
      <trkpt lat="44.25708" lon="0.76982">
        <ele>203.4</ele>
        <time>2021-05-09T08:21:42Z</time>
      </trkpt>
      <trkpt lat="44.25705" lon="0.76983">
        <ele>203.4</ele>
        <time>2021-05-09T08:21:44Z</time>
      </trkpt>
      <trkpt lat="44.25703" lon="0.76984">
        <ele>203.4</ele>
        <time>2021-05-09T08:21:46Z</time>
      </trkpt>
      <trkpt lat="44.25701" lon="0.76985">
        <ele>203.4</ele>
        <time>2021-05-09T08:21:48Z</time>
      </trkpt>
      <trkpt lat="44.25698" lon="0.76987">
        <ele>203.4</ele>
        <time>2021-05-09T08:21:50Z</time>
      </trkpt>
      <trkpt lat="44.25696" lon="0.76988">
        <ele>203.4</ele>
        <time>2021-05-09T08:21:52Z</time>
      </trkpt>
      <trkpt lat="44.25693" lon="0.76989">
        <ele>203.2</ele>
        <time>2021-05-09T08:21:54Z</time>
      </trkpt>
      <trkpt lat="44.25692" lon="0.7699">
        <ele>203.2</ele>
        <time>2021-05-09T08:21:56Z</time>
      </trkpt>
      <trkpt lat="44.2569" lon="0.7699">
        <ele>203.2</ele>
        <time>2021-05-09T08:21:58Z</time>
      </trkpt>
      <trkpt lat="44.25687" lon="0.76992">
        <ele>203.2</ele>
        <time>2021-05-09T08:22:01Z</time>
      </trkpt>
      <trkpt lat="44.25684" lon="0.76994">
        <ele>203.4</ele>
        <time>2021-05-09T08:22:04Z</time>
      </trkpt>
      <trkpt lat="44.25682" lon="0.76994">
        <ele>203.6</ele>
        <time>2021-05-09T08:22:06Z</time>
      </trkpt>
      <trkpt lat="44.2568" lon="0.76996">
        <ele>203.6</ele>
        <time>2021-05-09T08:22:08Z</time>
      </trkpt>
      <trkpt lat="44.25677" lon="0.76997">
        <ele>203.8</ele>
        <time>2021-05-09T08:22:11Z</time>
      </trkpt>
      <trkpt lat="44.25675" lon="0.76998">
        <ele>203.8</ele>
        <time>2021-05-09T08:22:13Z</time>
      </trkpt>
      <trkpt lat="44.25673" lon="0.76999">
        <ele>204</ele>
        <time>2021-05-09T08:22:15Z</time>
      </trkpt>
      <trkpt lat="44.2567" lon="0.77">
        <ele>204</ele>
        <time>2021-05-09T08:22:17Z</time>
      </trkpt>
      <trkpt lat="44.25668" lon="0.77001">
        <ele>204.2</ele>
        <time>2021-05-09T08:22:18Z</time>
      </trkpt>
      <trkpt lat="44.25666" lon="0.77002">
        <ele>204.4</ele>
        <time>2021-05-09T08:22:21Z</time>
      </trkpt>
      <trkpt lat="44.25663" lon="0.77003">
        <ele>204.2</ele>
        <time>2021-05-09T08:22:23Z</time>
      </trkpt>
      <trkpt lat="44.25661" lon="0.77004">
        <ele>204.2</ele>
        <time>2021-05-09T08:22:25Z</time>
      </trkpt>
      <trkpt lat="44.25659" lon="0.77004">
        <ele>204.4</ele>
        <time>2021-05-09T08:22:28Z</time>
      </trkpt>
      <trkpt lat="44.25656" lon="0.77005">
        <ele>204.4</ele>
        <time>2021-05-09T08:22:30Z</time>
      </trkpt>
      <trkpt lat="44.25653" lon="0.77006">
        <ele>204.4</ele>
        <time>2021-05-09T08:22:32Z</time>
      </trkpt>
      <trkpt lat="44.25651" lon="0.77007">
        <ele>204.4</ele>
        <time>2021-05-09T08:22:34Z</time>
      </trkpt>
      <trkpt lat="44.25648" lon="0.77009">
        <ele>204.6</ele>
        <time>2021-05-09T08:22:36Z</time>
      </trkpt>
      <trkpt lat="44.25646" lon="0.7701">
        <ele>204.6</ele>
        <time>2021-05-09T08:22:38Z</time>
      </trkpt>
      <trkpt lat="44.25643" lon="0.77011">
        <ele>204.6</ele>
        <time>2021-05-09T08:22:40Z</time>
      </trkpt>
      <trkpt lat="44.25641" lon="0.77012">
        <ele>204.6</ele>
        <time>2021-05-09T08:22:42Z</time>
      </trkpt>
      <trkpt lat="44.25638" lon="0.77014">
        <ele>204.8</ele>
        <time>2021-05-09T08:22:44Z</time>
      </trkpt>
      <trkpt lat="44.25636" lon="0.77015">
        <ele>204.8</ele>
        <time>2021-05-09T08:22:46Z</time>
      </trkpt>
      <trkpt lat="44.25634" lon="0.77016">
        <ele>205</ele>
        <time>2021-05-09T08:22:48Z</time>
      </trkpt>
      <trkpt lat="44.25631" lon="0.77017">
        <ele>205.2</ele>
        <time>2021-05-09T08:22:51Z</time>
      </trkpt>
      <trkpt lat="44.25629" lon="0.77018">
        <ele>205.2</ele>
        <time>2021-05-09T08:22:53Z</time>
      </trkpt>
      <trkpt lat="44.25627" lon="0.77018">
        <ele>205.2</ele>
        <time>2021-05-09T08:22:55Z</time>
      </trkpt>
      <trkpt lat="44.25625" lon="0.77019">
        <ele>205.4</ele>
        <time>2021-05-09T08:22:57Z</time>
      </trkpt>
      <trkpt lat="44.25622" lon="0.7702">
        <ele>205.4</ele>
        <time>2021-05-09T08:22:59Z</time>
      </trkpt>
      <trkpt lat="44.2562" lon="0.77022">
        <ele>205.2</ele>
        <time>2021-05-09T08:23:02Z</time>
      </trkpt>
      <trkpt lat="44.25618" lon="0.77023">
        <ele>205.2</ele>
        <time>2021-05-09T08:23:04Z</time>
      </trkpt>
      <trkpt lat="44.25615" lon="0.77024">
        <ele>205.2</ele>
        <time>2021-05-09T08:23:06Z</time>
      </trkpt>
      <trkpt lat="44.25613" lon="0.77025">
        <ele>205.2</ele>
        <time>2021-05-09T08:23:08Z</time>
      </trkpt>
      <trkpt lat="44.2561" lon="0.77026">
        <ele>205.2</ele>
        <time>2021-05-09T08:23:10Z</time>
      </trkpt>
      <trkpt lat="44.25608" lon="0.77027">
        <ele>205.2</ele>
        <time>2021-05-09T08:23:12Z</time>
      </trkpt>
      <trkpt lat="44.25606" lon="0.77028">
        <ele>205.4</ele>
        <time>2021-05-09T08:23:14Z</time>
      </trkpt>
      <trkpt lat="44.25603" lon="0.77029">
        <ele>205.6</ele>
        <time>2021-05-09T08:23:16Z</time>
      </trkpt>
      <trkpt lat="44.25601" lon="0.77029">
        <ele>205.6</ele>
        <time>2021-05-09T08:23:18Z</time>
      </trkpt>
      <trkpt lat="44.25598" lon="0.77031">
        <ele>205.6</ele>
        <time>2021-05-09T08:23:20Z</time>
      </trkpt>
      <trkpt lat="44.25596" lon="0.77032">
        <ele>205.6</ele>
        <time>2021-05-09T08:23:22Z</time>
      </trkpt>
      <trkpt lat="44.25593" lon="0.77033">
        <ele>205.6</ele>
        <time>2021-05-09T08:23:24Z</time>
      </trkpt>
      <trkpt lat="44.2559" lon="0.77034">
        <ele>205.8</ele>
        <time>2021-05-09T08:23:26Z</time>
      </trkpt>
      <trkpt lat="44.25588" lon="0.77034">
        <ele>205.8</ele>
        <time>2021-05-09T08:23:28Z</time>
      </trkpt>
      <trkpt lat="44.25586" lon="0.77036">
        <ele>206</ele>
        <time>2021-05-09T08:23:30Z</time>
      </trkpt>
      <trkpt lat="44.25584" lon="0.77036">
        <ele>206.2</ele>
        <time>2021-05-09T08:23:32Z</time>
      </trkpt>
      <trkpt lat="44.25582" lon="0.77037">
        <ele>206.2</ele>
        <time>2021-05-09T08:23:34Z</time>
      </trkpt>
      <trkpt lat="44.2558" lon="0.77038">
        <ele>206.4</ele>
        <time>2021-05-09T08:23:36Z</time>
      </trkpt>
      <trkpt lat="44.25577" lon="0.77039">
        <ele>206.4</ele>
        <time>2021-05-09T08:23:39Z</time>
      </trkpt>
      <trkpt lat="44.25575" lon="0.7704">
        <ele>206.6</ele>
        <time>2021-05-09T08:23:41Z</time>
      </trkpt>
      <trkpt lat="44.25572" lon="0.7704">
        <ele>206.6</ele>
        <time>2021-05-09T08:23:43Z</time>
      </trkpt>
      <trkpt lat="44.2557" lon="0.77041">
        <ele>206.8</ele>
        <time>2021-05-09T08:23:45Z</time>
      </trkpt>
      <trkpt lat="44.25568" lon="0.77043">
        <ele>207</ele>
        <time>2021-05-09T08:23:47Z</time>
      </trkpt>
      <trkpt lat="44.25565" lon="0.77044">
        <ele>207</ele>
        <time>2021-05-09T08:23:49Z</time>
      </trkpt>
      <trkpt lat="44.25563" lon="0.77045">
        <ele>207</ele>
        <time>2021-05-09T08:23:51Z</time>
      </trkpt>
      <trkpt lat="44.25561" lon="0.77046">
        <ele>207</ele>
        <time>2021-05-09T08:23:53Z</time>
      </trkpt>
      <trkpt lat="44.25558" lon="0.77047">
        <ele>207.2</ele>
        <time>2021-05-09T08:23:55Z</time>
      </trkpt>
      <trkpt lat="44.25556" lon="0.77047">
        <ele>207.2</ele>
        <time>2021-05-09T08:23:57Z</time>
      </trkpt>
      <trkpt lat="44.25554" lon="0.77048">
        <ele>207.2</ele>
        <time>2021-05-09T08:23:59Z</time>
      </trkpt>
      <trkpt lat="44.25551" lon="0.7705">
        <ele>207.4</ele>
        <time>2021-05-09T08:24:01Z</time>
      </trkpt>
      <trkpt lat="44.25548" lon="0.7705">
        <ele>207.4</ele>
        <time>2021-05-09T08:24:03Z</time>
      </trkpt>
      <trkpt lat="44.25546" lon="0.77051">
        <ele>207.2</ele>
        <time>2021-05-09T08:24:05Z</time>
      </trkpt>
      <trkpt lat="44.25543" lon="0.77053">
        <ele>207.2</ele>
        <time>2021-05-09T08:24:07Z</time>
      </trkpt>
      <trkpt lat="44.25541" lon="0.77054">
        <ele>207.2</ele>
        <time>2021-05-09T08:24:09Z</time>
      </trkpt>
      <trkpt lat="44.25539" lon="0.77054">
        <ele>207.2</ele>
        <time>2021-05-09T08:24:11Z</time>
      </trkpt>
      <trkpt lat="44.25536" lon="0.77055">
        <ele>207</ele>
        <time>2021-05-09T08:24:14Z</time>
      </trkpt>
      <trkpt lat="44.25534" lon="0.77056">
        <ele>206.8</ele>
        <time>2021-05-09T08:24:16Z</time>
      </trkpt>
      <trkpt lat="44.25532" lon="0.77057">
        <ele>207</ele>
        <time>2021-05-09T08:24:19Z</time>
      </trkpt>
      <trkpt lat="44.2553" lon="0.77058">
        <ele>206.8</ele>
        <time>2021-05-09T08:24:22Z</time>
      </trkpt>
      <trkpt lat="44.25528" lon="0.77059">
        <ele>206.8</ele>
        <time>2021-05-09T08:24:24Z</time>
      </trkpt>
      <trkpt lat="44.25526" lon="0.7706">
        <ele>206.8</ele>
        <time>2021-05-09T08:24:28Z</time>
      </trkpt>
      <trkpt lat="44.25522" lon="0.77061">
        <ele>207</ele>
        <time>2021-05-09T08:24:36Z</time>
      </trkpt>
      <trkpt lat="44.2552" lon="0.77062">
        <ele>207</ele>
        <time>2021-05-09T08:24:38Z</time>
      </trkpt>
      <trkpt lat="44.25518" lon="0.77062">
        <ele>207</ele>
        <time>2021-05-09T08:24:40Z</time>
      </trkpt>
      <trkpt lat="44.25516" lon="0.77063">
        <ele>207</ele>
        <time>2021-05-09T08:24:42Z</time>
      </trkpt>
      <trkpt lat="44.25513" lon="0.77064">
        <ele>207</ele>
        <time>2021-05-09T08:24:44Z</time>
      </trkpt>
      <trkpt lat="44.2551" lon="0.77065">
        <ele>207.2</ele>
        <time>2021-05-09T08:24:46Z</time>
      </trkpt>
      <trkpt lat="44.25507" lon="0.77067">
        <ele>207.2</ele>
        <time>2021-05-09T08:24:48Z</time>
      </trkpt>
      <trkpt lat="44.25505" lon="0.77068">
        <ele>207.2</ele>
        <time>2021-05-09T08:24:50Z</time>
      </trkpt>
      <trkpt lat="44.25503" lon="0.77068">
        <ele>207.2</ele>
        <time>2021-05-09T08:24:51Z</time>
      </trkpt>
      <trkpt lat="44.25501" lon="0.77069">
        <ele>207.4</ele>
        <time>2021-05-09T08:24:53Z</time>
      </trkpt>
      <trkpt lat="44.25499" lon="0.77069">
        <ele>207.4</ele>
        <time>2021-05-09T08:24:55Z</time>
      </trkpt>
      <trkpt lat="44.25496" lon="0.7707">
        <ele>207.8</ele>
        <time>2021-05-09T08:24:57Z</time>
      </trkpt>
      <trkpt lat="44.25494" lon="0.77069">
        <ele>207.8</ele>
        <time>2021-05-09T08:24:59Z</time>
      </trkpt>
      <trkpt lat="44.25492" lon="0.77067">
        <ele>208</ele>
        <time>2021-05-09T08:25:01Z</time>
      </trkpt>
      <trkpt lat="44.25491" lon="0.77064">
        <ele>208</ele>
        <time>2021-05-09T08:25:04Z</time>
      </trkpt>
      <trkpt lat="44.2549" lon="0.77061">
        <ele>208.2</ele>
        <time>2021-05-09T08:25:06Z</time>
      </trkpt>
      <trkpt lat="44.2549" lon="0.77058">
        <ele>208</ele>
        <time>2021-05-09T08:25:08Z</time>
      </trkpt>
      <trkpt lat="44.25489" lon="0.77055">
        <ele>208</ele>
        <time>2021-05-09T08:25:10Z</time>
      </trkpt>
      <trkpt lat="44.25488" lon="0.77052">
        <ele>208.2</ele>
        <time>2021-05-09T08:25:12Z</time>
      </trkpt>
      <trkpt lat="44.25488" lon="0.77047">
        <ele>208.4</ele>
        <time>2021-05-09T08:25:14Z</time>
      </trkpt>
      <trkpt lat="44.25487" lon="0.77044">
        <ele>208.4</ele>
        <time>2021-05-09T08:25:16Z</time>
      </trkpt>
      <trkpt lat="44.25487" lon="0.77041">
        <ele>208.4</ele>
        <time>2021-05-09T08:25:18Z</time>
      </trkpt>
      <trkpt lat="44.25486" lon="0.77037">
        <ele>208.4</ele>
        <time>2021-05-09T08:25:20Z</time>
      </trkpt>
      <trkpt lat="44.25486" lon="0.77034">
        <ele>208.4</ele>
        <time>2021-05-09T08:25:22Z</time>
      </trkpt>
      <trkpt lat="44.25486" lon="0.7703">
        <ele>208.4</ele>
        <time>2021-05-09T08:25:24Z</time>
      </trkpt>
      <trkpt lat="44.25486" lon="0.77027">
        <ele>208.2</ele>
        <time>2021-05-09T08:25:26Z</time>
      </trkpt>
      <trkpt lat="44.25486" lon="0.77024">
        <ele>208.2</ele>
        <time>2021-05-09T08:25:28Z</time>
      </trkpt>
      <trkpt lat="44.25486" lon="0.77021">
        <ele>208</ele>
        <time>2021-05-09T08:25:30Z</time>
      </trkpt>
      <trkpt lat="44.25485" lon="0.77019">
        <ele>208</ele>
        <time>2021-05-09T08:25:32Z</time>
      </trkpt>
      <trkpt lat="44.25484" lon="0.77016">
        <ele>208.2</ele>
        <time>2021-05-09T08:25:34Z</time>
      </trkpt>
      <trkpt lat="44.25483" lon="0.77014">
        <ele>208.2</ele>
        <time>2021-05-09T08:25:36Z</time>
      </trkpt>
      <trkpt lat="44.25483" lon="0.77011">
        <ele>208.2</ele>
        <time>2021-05-09T08:25:38Z</time>
      </trkpt>
      <trkpt lat="44.25483" lon="0.77008">
        <ele>208.2</ele>
        <time>2021-05-09T08:25:40Z</time>
      </trkpt>
      <trkpt lat="44.25482" lon="0.77005">
        <ele>208.4</ele>
        <time>2021-05-09T08:25:42Z</time>
      </trkpt>
      <trkpt lat="44.25481" lon="0.77003">
        <ele>208.2</ele>
        <time>2021-05-09T08:25:44Z</time>
      </trkpt>
      <trkpt lat="44.25478" lon="0.77001">
        <ele>208.4</ele>
        <time>2021-05-09T08:25:46Z</time>
      </trkpt>
      <trkpt lat="44.25476" lon="0.77001">
        <ele>208.4</ele>
        <time>2021-05-09T08:25:48Z</time>
      </trkpt>
      <trkpt lat="44.25474" lon="0.77001">
        <ele>208.4</ele>
        <time>2021-05-09T08:25:50Z</time>
      </trkpt>
      <trkpt lat="44.25472" lon="0.77002">
        <ele>208.6</ele>
        <time>2021-05-09T08:25:53Z</time>
      </trkpt>
      <trkpt lat="44.2547" lon="0.77003">
        <ele>208.8</ele>
        <time>2021-05-09T08:25:55Z</time>
      </trkpt>
      <trkpt lat="44.25468" lon="0.77005">
        <ele>209</ele>
        <time>2021-05-09T08:25:57Z</time>
      </trkpt>
      <trkpt lat="44.25467" lon="0.77007">
        <ele>209</ele>
        <time>2021-05-09T08:25:59Z</time>
      </trkpt>
      <trkpt lat="44.25465" lon="0.77009">
        <ele>209.2</ele>
        <time>2021-05-09T08:26:01Z</time>
      </trkpt>
      <trkpt lat="44.25463" lon="0.77011">
        <ele>209.2</ele>
        <time>2021-05-09T08:26:03Z</time>
      </trkpt>
      <trkpt lat="44.25461" lon="0.77013">
        <ele>209.2</ele>
        <time>2021-05-09T08:26:05Z</time>
      </trkpt>
      <trkpt lat="44.25459" lon="0.77014">
        <ele>209.4</ele>
        <time>2021-05-09T08:26:06Z</time>
      </trkpt>
      <trkpt lat="44.25457" lon="0.77017">
        <ele>209.4</ele>
        <time>2021-05-09T08:26:08Z</time>
      </trkpt>
      <trkpt lat="44.25455" lon="0.7702">
        <ele>209.6</ele>
        <time>2021-05-09T08:26:10Z</time>
      </trkpt>
      <trkpt lat="44.25453" lon="0.77021">
        <ele>209.6</ele>
        <time>2021-05-09T08:26:12Z</time>
      </trkpt>
      <trkpt lat="44.25451" lon="0.77023">
        <ele>209.6</ele>
        <time>2021-05-09T08:26:14Z</time>
      </trkpt>
      <trkpt lat="44.25449" lon="0.77026">
        <ele>209.8</ele>
        <time>2021-05-09T08:26:17Z</time>
      </trkpt>
      <trkpt lat="44.25447" lon="0.77027">
        <ele>210</ele>
        <time>2021-05-09T08:26:20Z</time>
      </trkpt>
      <trkpt lat="44.25445" lon="0.77028">
        <ele>210</ele>
        <time>2021-05-09T08:26:22Z</time>
      </trkpt>
      <trkpt lat="44.25443" lon="0.77028">
        <ele>210.2</ele>
        <time>2021-05-09T08:26:24Z</time>
      </trkpt>
      <trkpt lat="44.25441" lon="0.77027">
        <ele>210.4</ele>
        <time>2021-05-09T08:26:27Z</time>
      </trkpt>
      <trkpt lat="44.25439" lon="0.77028">
        <ele>210.4</ele>
        <time>2021-05-09T08:26:29Z</time>
      </trkpt>
      <trkpt lat="44.25437" lon="0.7703">
        <ele>210.4</ele>
        <time>2021-05-09T08:26:31Z</time>
      </trkpt>
      <trkpt lat="44.25435" lon="0.7703">
        <ele>210.4</ele>
        <time>2021-05-09T08:26:33Z</time>
      </trkpt>
      <trkpt lat="44.25432" lon="0.7703">
        <ele>210.6</ele>
        <time>2021-05-09T08:26:36Z</time>
      </trkpt>
      <trkpt lat="44.2543" lon="0.77029">
        <ele>210.6</ele>
        <time>2021-05-09T08:26:38Z</time>
      </trkpt>
      <trkpt lat="44.25428" lon="0.77029">
        <ele>210.6</ele>
        <time>2021-05-09T08:26:40Z</time>
      </trkpt>
      <trkpt lat="44.25426" lon="0.77028">
        <ele>210.6</ele>
        <time>2021-05-09T08:26:43Z</time>
      </trkpt>
      <trkpt lat="44.25425" lon="0.77026">
        <ele>210.6</ele>
        <time>2021-05-09T08:26:45Z</time>
      </trkpt>
      <trkpt lat="44.25422" lon="0.77024">
        <ele>210.4</ele>
        <time>2021-05-09T08:26:47Z</time>
      </trkpt>
      <trkpt lat="44.2542" lon="0.77023">
        <ele>210.4</ele>
        <time>2021-05-09T08:26:49Z</time>
      </trkpt>
      <trkpt lat="44.25418" lon="0.77021">
        <ele>210.2</ele>
        <time>2021-05-09T08:26:51Z</time>
      </trkpt>
      <trkpt lat="44.25416" lon="0.77021">
        <ele>210.2</ele>
        <time>2021-05-09T08:26:54Z</time>
      </trkpt>
      <trkpt lat="44.25414" lon="0.77022">
        <ele>209.8</ele>
        <time>2021-05-09T08:26:57Z</time>
      </trkpt>
      <trkpt lat="44.25412" lon="0.77025">
        <ele>209.4</ele>
        <time>2021-05-09T08:27:00Z</time>
      </trkpt>
      <trkpt lat="44.25411" lon="0.77028">
        <ele>208.8</ele>
        <time>2021-05-09T08:27:03Z</time>
      </trkpt>
      <trkpt lat="44.25411" lon="0.77031">
        <ele>208.2</ele>
        <time>2021-05-09T08:27:05Z</time>
      </trkpt>
      <trkpt lat="44.2541" lon="0.77034">
        <ele>207.8</ele>
        <time>2021-05-09T08:27:07Z</time>
      </trkpt>
      <trkpt lat="44.25409" lon="0.77037">
        <ele>207.2</ele>
        <time>2021-05-09T08:27:09Z</time>
      </trkpt>
      <trkpt lat="44.25407" lon="0.77039">
        <ele>206.6</ele>
        <time>2021-05-09T08:27:11Z</time>
      </trkpt>
      <trkpt lat="44.25405" lon="0.77041">
        <ele>206.2</ele>
        <time>2021-05-09T08:27:13Z</time>
      </trkpt>
      <trkpt lat="44.25403" lon="0.77044">
        <ele>206</ele>
        <time>2021-05-09T08:27:15Z</time>
      </trkpt>
      <trkpt lat="44.25402" lon="0.77047">
        <ele>205.6</ele>
        <time>2021-05-09T08:27:17Z</time>
      </trkpt>
      <trkpt lat="44.254" lon="0.77049">
        <ele>205.2</ele>
        <time>2021-05-09T08:27:19Z</time>
      </trkpt>
      <trkpt lat="44.25398" lon="0.77051">
        <ele>205.2</ele>
        <time>2021-05-09T08:27:20Z</time>
      </trkpt>
      <trkpt lat="44.25395" lon="0.77053">
        <ele>204.8</ele>
        <time>2021-05-09T08:27:22Z</time>
      </trkpt>
      <trkpt lat="44.25393" lon="0.77054">
        <ele>204.4</ele>
        <time>2021-05-09T08:27:24Z</time>
      </trkpt>
      <trkpt lat="44.25391" lon="0.77056">
        <ele>204</ele>
        <time>2021-05-09T08:27:26Z</time>
      </trkpt>
      <trkpt lat="44.25388" lon="0.77058">
        <ele>203.8</ele>
        <time>2021-05-09T08:27:28Z</time>
      </trkpt>
      <trkpt lat="44.25386" lon="0.7706">
        <ele>203.4</ele>
        <time>2021-05-09T08:27:30Z</time>
      </trkpt>
      <trkpt lat="44.25383" lon="0.77061">
        <ele>203</ele>
        <time>2021-05-09T08:27:32Z</time>
      </trkpt>
      <trkpt lat="44.25381" lon="0.77063">
        <ele>202.8</ele>
        <time>2021-05-09T08:27:34Z</time>
      </trkpt>
      <trkpt lat="44.25378" lon="0.77065">
        <ele>202.4</ele>
        <time>2021-05-09T08:27:37Z</time>
      </trkpt>
      <trkpt lat="44.25375" lon="0.77067">
        <ele>202.2</ele>
        <time>2021-05-09T08:27:39Z</time>
      </trkpt>
      <trkpt lat="44.25373" lon="0.77068">
        <ele>202</ele>
        <time>2021-05-09T08:27:41Z</time>
      </trkpt>
      <trkpt lat="44.25371" lon="0.77069">
        <ele>201.8</ele>
        <time>2021-05-09T08:27:44Z</time>
      </trkpt>
      <trkpt lat="44.25369" lon="0.7707">
        <ele>201.4</ele>
        <time>2021-05-09T08:27:46Z</time>
      </trkpt>
      <trkpt lat="44.25367" lon="0.77072">
        <ele>201.2</ele>
        <time>2021-05-09T08:27:48Z</time>
      </trkpt>
      <trkpt lat="44.25365" lon="0.77073">
        <ele>201.2</ele>
        <time>2021-05-09T08:27:49Z</time>
      </trkpt>
      <trkpt lat="44.25362" lon="0.77076">
        <ele>201</ele>
        <time>2021-05-09T08:27:51Z</time>
      </trkpt>
      <trkpt lat="44.25361" lon="0.77077">
        <ele>200.6</ele>
        <time>2021-05-09T08:27:53Z</time>
      </trkpt>
      <trkpt lat="44.25359" lon="0.77079">
        <ele>200.6</ele>
        <time>2021-05-09T08:27:55Z</time>
      </trkpt>
      <trkpt lat="44.25357" lon="0.7708">
        <ele>200.4</ele>
        <time>2021-05-09T08:27:56Z</time>
      </trkpt>
      <trkpt lat="44.25355" lon="0.77083">
        <ele>200</ele>
        <time>2021-05-09T08:27:59Z</time>
      </trkpt>
      <trkpt lat="44.25352" lon="0.77085">
        <ele>199.8</ele>
        <time>2021-05-09T08:28:01Z</time>
      </trkpt>
      <trkpt lat="44.25351" lon="0.77087">
        <ele>199.4</ele>
        <time>2021-05-09T08:28:03Z</time>
      </trkpt>
      <trkpt lat="44.2535" lon="0.7709">
        <ele>199</ele>
        <time>2021-05-09T08:28:06Z</time>
      </trkpt>
      <trkpt lat="44.25351" lon="0.77093">
        <ele>198.6</ele>
        <time>2021-05-09T08:28:08Z</time>
      </trkpt>
      <trkpt lat="44.25352" lon="0.77095">
        <ele>198.2</ele>
        <time>2021-05-09T08:28:10Z</time>
      </trkpt>
      <trkpt lat="44.25354" lon="0.77097">
        <ele>198</ele>
        <time>2021-05-09T08:28:11Z</time>
      </trkpt>
      <trkpt lat="44.25356" lon="0.77097">
        <ele>197.8</ele>
        <time>2021-05-09T08:28:12Z</time>
      </trkpt>
      <trkpt lat="44.25357" lon="0.771">
        <ele>197.4</ele>
        <time>2021-05-09T08:28:14Z</time>
      </trkpt>
      <trkpt lat="44.25358" lon="0.77103">
        <ele>196.8</ele>
        <time>2021-05-09T08:28:16Z</time>
      </trkpt>
      <trkpt lat="44.25361" lon="0.77106">
        <ele>196.4</ele>
        <time>2021-05-09T08:28:18Z</time>
      </trkpt>
      <trkpt lat="44.25362" lon="0.77109">
        <ele>196</ele>
        <time>2021-05-09T08:28:20Z</time>
      </trkpt>
      <trkpt lat="44.25364" lon="0.77111">
        <ele>195.6</ele>
        <time>2021-05-09T08:28:22Z</time>
      </trkpt>
      <trkpt lat="44.25367" lon="0.77114">
        <ele>195.2</ele>
        <time>2021-05-09T08:28:24Z</time>
      </trkpt>
      <trkpt lat="44.25368" lon="0.77117">
        <ele>194.8</ele>
        <time>2021-05-09T08:28:26Z</time>
      </trkpt>
      <trkpt lat="44.25369" lon="0.7712">
        <ele>194.6</ele>
        <time>2021-05-09T08:28:28Z</time>
      </trkpt>
      <trkpt lat="44.2537" lon="0.77123">
        <ele>194.2</ele>
        <time>2021-05-09T08:28:30Z</time>
      </trkpt>
      <trkpt lat="44.2537" lon="0.77127">
        <ele>193.8</ele>
        <time>2021-05-09T08:28:33Z</time>
      </trkpt>
      <trkpt lat="44.25371" lon="0.7713">
        <ele>193.4</ele>
        <time>2021-05-09T08:28:35Z</time>
      </trkpt>
      <trkpt lat="44.25372" lon="0.77133">
        <ele>193.2</ele>
        <time>2021-05-09T08:28:37Z</time>
      </trkpt>
      <trkpt lat="44.25373" lon="0.77136">
        <ele>193</ele>
        <time>2021-05-09T08:28:40Z</time>
      </trkpt>
      <trkpt lat="44.25374" lon="0.77138">
        <ele>192.8</ele>
        <time>2021-05-09T08:28:42Z</time>
      </trkpt>
      <trkpt lat="44.25375" lon="0.77141">
        <ele>192.6</ele>
        <time>2021-05-09T08:28:44Z</time>
      </trkpt>
      <trkpt lat="44.25376" lon="0.77145">
        <ele>192.6</ele>
        <time>2021-05-09T08:28:46Z</time>
      </trkpt>
      <trkpt lat="44.25376" lon="0.77148">
        <ele>192.4</ele>
        <time>2021-05-09T08:28:48Z</time>
      </trkpt>
      <trkpt lat="44.25376" lon="0.77151">
        <ele>192.4</ele>
        <time>2021-05-09T08:28:50Z</time>
      </trkpt>
      <trkpt lat="44.25376" lon="0.77154">
        <ele>192.2</ele>
        <time>2021-05-09T08:28:52Z</time>
      </trkpt>
      <trkpt lat="44.25377" lon="0.77157">
        <ele>192.2</ele>
        <time>2021-05-09T08:28:54Z</time>
      </trkpt>
      <trkpt lat="44.25379" lon="0.7716">
        <ele>192.2</ele>
        <time>2021-05-09T08:28:56Z</time>
      </trkpt>
      <trkpt lat="44.2538" lon="0.77163">
        <ele>192.2</ele>
        <time>2021-05-09T08:28:58Z</time>
      </trkpt>
      <trkpt lat="44.2538" lon="0.77165">
        <ele>192</ele>
        <time>2021-05-09T08:29:00Z</time>
      </trkpt>
      <trkpt lat="44.25381" lon="0.77168">
        <ele>192</ele>
        <time>2021-05-09T08:29:02Z</time>
      </trkpt>
      <trkpt lat="44.25382" lon="0.77173">
        <ele>191.8</ele>
        <time>2021-05-09T08:29:04Z</time>
      </trkpt>
      <trkpt lat="44.25383" lon="0.77175">
        <ele>191.8</ele>
        <time>2021-05-09T08:29:05Z</time>
      </trkpt>
      <trkpt lat="44.25383" lon="0.7718">
        <ele>191.6</ele>
        <time>2021-05-09T08:29:07Z</time>
      </trkpt>
      <trkpt lat="44.25383" lon="0.77184">
        <ele>191.4</ele>
        <time>2021-05-09T08:29:09Z</time>
      </trkpt>
      <trkpt lat="44.25382" lon="0.77187">
        <ele>191.2</ele>
        <time>2021-05-09T08:29:11Z</time>
      </trkpt>
      <trkpt lat="44.2538" lon="0.77189">
        <ele>191.2</ele>
        <time>2021-05-09T08:29:13Z</time>
      </trkpt>
      <trkpt lat="44.25378" lon="0.77192">
        <ele>191</ele>
        <time>2021-05-09T08:29:15Z</time>
      </trkpt>
      <trkpt lat="44.25376" lon="0.77196">
        <ele>190.8</ele>
        <time>2021-05-09T08:29:17Z</time>
      </trkpt>
      <trkpt lat="44.25375" lon="0.77198">
        <ele>190.6</ele>
        <time>2021-05-09T08:29:19Z</time>
      </trkpt>
      <trkpt lat="44.25373" lon="0.772">
        <ele>190.6</ele>
        <time>2021-05-09T08:29:21Z</time>
      </trkpt>
      <trkpt lat="44.25371" lon="0.77203">
        <ele>190.4</ele>
        <time>2021-05-09T08:29:23Z</time>
      </trkpt>
      <trkpt lat="44.25369" lon="0.77205">
        <ele>190.4</ele>
        <time>2021-05-09T08:29:25Z</time>
      </trkpt>
      <trkpt lat="44.25367" lon="0.77206">
        <ele>190.4</ele>
        <time>2021-05-09T08:29:27Z</time>
      </trkpt>
      <trkpt lat="44.25365" lon="0.77208">
        <ele>190.4</ele>
        <time>2021-05-09T08:29:29Z</time>
      </trkpt>
      <trkpt lat="44.25364" lon="0.77209">
        <ele>190.4</ele>
        <time>2021-05-09T08:29:31Z</time>
      </trkpt>
      <trkpt lat="44.25361" lon="0.77212">
        <ele>190.4</ele>
        <time>2021-05-09T08:29:33Z</time>
      </trkpt>
      <trkpt lat="44.25358" lon="0.77213">
        <ele>190.4</ele>
        <time>2021-05-09T08:29:35Z</time>
      </trkpt>
      <trkpt lat="44.25355" lon="0.77215">
        <ele>190.4</ele>
        <time>2021-05-09T08:29:37Z</time>
      </trkpt>
      <trkpt lat="44.25353" lon="0.77216">
        <ele>190.2</ele>
        <time>2021-05-09T08:29:39Z</time>
      </trkpt>
      <trkpt lat="44.2535" lon="0.77218">
        <ele>190.2</ele>
        <time>2021-05-09T08:29:41Z</time>
      </trkpt>
      <trkpt lat="44.25348" lon="0.77221">
        <ele>190</ele>
        <time>2021-05-09T08:29:43Z</time>
      </trkpt>
      <trkpt lat="44.25346" lon="0.77223">
        <ele>190</ele>
        <time>2021-05-09T08:29:45Z</time>
      </trkpt>
      <trkpt lat="44.25343" lon="0.77225">
        <ele>190</ele>
        <time>2021-05-09T08:29:47Z</time>
      </trkpt>
      <trkpt lat="44.25341" lon="0.77227">
        <ele>190</ele>
        <time>2021-05-09T08:29:49Z</time>
      </trkpt>
      <trkpt lat="44.25339" lon="0.77229">
        <ele>190</ele>
        <time>2021-05-09T08:29:51Z</time>
      </trkpt>
      <trkpt lat="44.25337" lon="0.7723">
        <ele>190</ele>
        <time>2021-05-09T08:29:53Z</time>
      </trkpt>
      <trkpt lat="44.25335" lon="0.77232">
        <ele>189.8</ele>
        <time>2021-05-09T08:29:55Z</time>
      </trkpt>
      <trkpt lat="44.25333" lon="0.77233">
        <ele>189.8</ele>
        <time>2021-05-09T08:29:57Z</time>
      </trkpt>
      <trkpt lat="44.25331" lon="0.77234">
        <ele>189.6</ele>
        <time>2021-05-09T08:29:59Z</time>
      </trkpt>
      <trkpt lat="44.25328" lon="0.77236">
        <ele>189.4</ele>
        <time>2021-05-09T08:30:01Z</time>
      </trkpt>
      <trkpt lat="44.25326" lon="0.77238">
        <ele>189.2</ele>
        <time>2021-05-09T08:30:03Z</time>
      </trkpt>
      <trkpt lat="44.25324" lon="0.77239">
        <ele>189</ele>
        <time>2021-05-09T08:30:05Z</time>
      </trkpt>
      <trkpt lat="44.25322" lon="0.77241">
        <ele>189</ele>
        <time>2021-05-09T08:30:07Z</time>
      </trkpt>
      <trkpt lat="44.2532" lon="0.77242">
        <ele>189</ele>
        <time>2021-05-09T08:30:09Z</time>
      </trkpt>
      <trkpt lat="44.25318" lon="0.77243">
        <ele>189</ele>
        <time>2021-05-09T08:30:12Z</time>
      </trkpt>
      <trkpt lat="44.25316" lon="0.77244">
        <ele>189</ele>
        <time>2021-05-09T08:30:14Z</time>
      </trkpt>
      <trkpt lat="44.25314" lon="0.77245">
        <ele>189</ele>
        <time>2021-05-09T08:30:16Z</time>
      </trkpt>
      <trkpt lat="44.25311" lon="0.77246">
        <ele>188.8</ele>
        <time>2021-05-09T08:30:18Z</time>
      </trkpt>
      <trkpt lat="44.25309" lon="0.77246">
        <ele>188.6</ele>
        <time>2021-05-09T08:30:20Z</time>
      </trkpt>
      <trkpt lat="44.25307" lon="0.77247">
        <ele>188.6</ele>
        <time>2021-05-09T08:30:22Z</time>
      </trkpt>
      <trkpt lat="44.25305" lon="0.77247">
        <ele>188.6</ele>
        <time>2021-05-09T08:30:24Z</time>
      </trkpt>
      <trkpt lat="44.25302" lon="0.77248">
        <ele>188.4</ele>
        <time>2021-05-09T08:30:26Z</time>
      </trkpt>
      <trkpt lat="44.253" lon="0.77248">
        <ele>188.4</ele>
        <time>2021-05-09T08:30:28Z</time>
      </trkpt>
      <trkpt lat="44.25297" lon="0.77248">
        <ele>188.2</ele>
        <time>2021-05-09T08:30:30Z</time>
      </trkpt>
      <trkpt lat="44.25295" lon="0.77248">
        <ele>188</ele>
        <time>2021-05-09T08:30:32Z</time>
      </trkpt>
      <trkpt lat="44.25293" lon="0.77248">
        <ele>188</ele>
        <time>2021-05-09T08:30:34Z</time>
      </trkpt>
      <trkpt lat="44.2529" lon="0.77249">
        <ele>188</ele>
        <time>2021-05-09T08:30:36Z</time>
      </trkpt>
      <trkpt lat="44.25288" lon="0.7725">
        <ele>187.8</ele>
        <time>2021-05-09T08:30:38Z</time>
      </trkpt>
      <trkpt lat="44.25286" lon="0.7725">
        <ele>187.8</ele>
        <time>2021-05-09T08:30:39Z</time>
      </trkpt>
      <trkpt lat="44.25284" lon="0.77251">
        <ele>187.8</ele>
        <time>2021-05-09T08:30:41Z</time>
      </trkpt>
      <trkpt lat="44.25282" lon="0.77252">
        <ele>187.8</ele>
        <time>2021-05-09T08:30:43Z</time>
      </trkpt>
      <trkpt lat="44.2528" lon="0.77253">
        <ele>188</ele>
        <time>2021-05-09T08:30:45Z</time>
      </trkpt>
      <trkpt lat="44.25277" lon="0.77253">
        <ele>188</ele>
        <time>2021-05-09T08:30:47Z</time>
      </trkpt>
      <trkpt lat="44.25276" lon="0.77255">
        <ele>188</ele>
        <time>2021-05-09T08:30:49Z</time>
      </trkpt>
      <trkpt lat="44.25273" lon="0.77255">
        <ele>188.2</ele>
        <time>2021-05-09T08:30:51Z</time>
      </trkpt>
      <trkpt lat="44.25271" lon="0.77256">
        <ele>188.2</ele>
        <time>2021-05-09T08:30:53Z</time>
      </trkpt>
      <trkpt lat="44.25268" lon="0.77256">
        <ele>188.2</ele>
        <time>2021-05-09T08:30:55Z</time>
      </trkpt>
      <trkpt lat="44.25266" lon="0.77258">
        <ele>188.2</ele>
        <time>2021-05-09T08:30:57Z</time>
      </trkpt>
      <trkpt lat="44.25264" lon="0.77259">
        <ele>188.2</ele>
        <time>2021-05-09T08:30:59Z</time>
      </trkpt>
      <trkpt lat="44.25262" lon="0.77259">
        <ele>188.2</ele>
        <time>2021-05-09T08:31:01Z</time>
      </trkpt>
      <trkpt lat="44.2526" lon="0.77261">
        <ele>188.2</ele>
        <time>2021-05-09T08:31:03Z</time>
      </trkpt>
      <trkpt lat="44.25257" lon="0.77261">
        <ele>188.2</ele>
        <time>2021-05-09T08:31:05Z</time>
      </trkpt>
      <trkpt lat="44.25254" lon="0.77262">
        <ele>188</ele>
        <time>2021-05-09T08:31:07Z</time>
      </trkpt>
      <trkpt lat="44.25252" lon="0.77263">
        <ele>187.8</ele>
        <time>2021-05-09T08:31:09Z</time>
      </trkpt>
      <trkpt lat="44.2525" lon="0.77264">
        <ele>187.6</ele>
        <time>2021-05-09T08:31:11Z</time>
      </trkpt>
      <trkpt lat="44.25246" lon="0.77265">
        <ele>187.4</ele>
        <time>2021-05-09T08:31:13Z</time>
      </trkpt>
      <trkpt lat="44.25244" lon="0.77266">
        <ele>187.2</ele>
        <time>2021-05-09T08:31:15Z</time>
      </trkpt>
      <trkpt lat="44.25241" lon="0.77265">
        <ele>187.2</ele>
        <time>2021-05-09T08:31:17Z</time>
      </trkpt>
      <trkpt lat="44.25238" lon="0.77264">
        <ele>187.2</ele>
        <time>2021-05-09T08:31:19Z</time>
      </trkpt>
      <trkpt lat="44.25236" lon="0.77264">
        <ele>187</ele>
        <time>2021-05-09T08:31:20Z</time>
      </trkpt>
      <trkpt lat="44.25234" lon="0.77265">
        <ele>187</ele>
        <time>2021-05-09T08:31:22Z</time>
      </trkpt>
      <trkpt lat="44.25231" lon="0.77266">
        <ele>186.8</ele>
        <time>2021-05-09T08:31:24Z</time>
      </trkpt>
      <trkpt lat="44.25228" lon="0.77266">
        <ele>186.6</ele>
        <time>2021-05-09T08:31:26Z</time>
      </trkpt>
      <trkpt lat="44.25226" lon="0.77266">
        <ele>186.6</ele>
        <time>2021-05-09T08:31:28Z</time>
      </trkpt>
      <trkpt lat="44.25223" lon="0.77267">
        <ele>186.4</ele>
        <time>2021-05-09T08:31:30Z</time>
      </trkpt>
      <trkpt lat="44.2522" lon="0.77267">
        <ele>186.4</ele>
        <time>2021-05-09T08:31:32Z</time>
      </trkpt>
      <trkpt lat="44.25218" lon="0.77267">
        <ele>186.4</ele>
        <time>2021-05-09T08:31:33Z</time>
      </trkpt>
      <trkpt lat="44.25215" lon="0.77266">
        <ele>186.2</ele>
        <time>2021-05-09T08:31:35Z</time>
      </trkpt>
      <trkpt lat="44.25212" lon="0.77266">
        <ele>186.2</ele>
        <time>2021-05-09T08:31:37Z</time>
      </trkpt>
      <trkpt lat="44.25209" lon="0.77266">
        <ele>186</ele>
        <time>2021-05-09T08:31:39Z</time>
      </trkpt>
      <trkpt lat="44.25206" lon="0.77266">
        <ele>186</ele>
        <time>2021-05-09T08:31:41Z</time>
      </trkpt>
      <trkpt lat="44.25204" lon="0.77266">
        <ele>186</ele>
        <time>2021-05-09T08:31:43Z</time>
      </trkpt>
      <trkpt lat="44.25201" lon="0.77265">
        <ele>186.2</ele>
        <time>2021-05-09T08:31:45Z</time>
      </trkpt>
      <trkpt lat="44.25198" lon="0.77265">
        <ele>186.2</ele>
        <time>2021-05-09T08:31:47Z</time>
      </trkpt>
      <trkpt lat="44.25196" lon="0.77265">
        <ele>186</ele>
        <time>2021-05-09T08:31:49Z</time>
      </trkpt>
      <trkpt lat="44.25193" lon="0.77264">
        <ele>185.8</ele>
        <time>2021-05-09T08:31:51Z</time>
      </trkpt>
      <trkpt lat="44.2519" lon="0.77264">
        <ele>185.6</ele>
        <time>2021-05-09T08:31:53Z</time>
      </trkpt>
      <trkpt lat="44.25188" lon="0.77265">
        <ele>185.4</ele>
        <time>2021-05-09T08:31:55Z</time>
      </trkpt>
      <trkpt lat="44.25186" lon="0.77265">
        <ele>185.2</ele>
        <time>2021-05-09T08:31:57Z</time>
      </trkpt>
      <trkpt lat="44.25183" lon="0.77267">
        <ele>185</ele>
        <time>2021-05-09T08:32:00Z</time>
      </trkpt>
      <trkpt lat="44.25181" lon="0.77269">
        <ele>184.8</ele>
        <time>2021-05-09T08:32:02Z</time>
      </trkpt>
      <trkpt lat="44.25179" lon="0.7727">
        <ele>184.8</ele>
        <time>2021-05-09T08:32:04Z</time>
      </trkpt>
      <trkpt lat="44.25177" lon="0.77271">
        <ele>184.6</ele>
        <time>2021-05-09T08:32:06Z</time>
      </trkpt>
      <trkpt lat="44.25175" lon="0.77272">
        <ele>184.6</ele>
        <time>2021-05-09T08:32:08Z</time>
      </trkpt>
      <trkpt lat="44.25173" lon="0.77273">
        <ele>184.4</ele>
        <time>2021-05-09T08:32:10Z</time>
      </trkpt>
      <trkpt lat="44.25171" lon="0.77274">
        <ele>184.2</ele>
        <time>2021-05-09T08:32:12Z</time>
      </trkpt>
      <trkpt lat="44.25168" lon="0.77276">
        <ele>184</ele>
        <time>2021-05-09T08:32:15Z</time>
      </trkpt>
      <trkpt lat="44.25165" lon="0.77277">
        <ele>183.8</ele>
        <time>2021-05-09T08:32:17Z</time>
      </trkpt>
      <trkpt lat="44.25164" lon="0.77278">
        <ele>183.8</ele>
        <time>2021-05-09T08:32:19Z</time>
      </trkpt>
      <trkpt lat="44.25161" lon="0.7728">
        <ele>183.6</ele>
        <time>2021-05-09T08:32:21Z</time>
      </trkpt>
      <trkpt lat="44.25159" lon="0.77281">
        <ele>183.4</ele>
        <time>2021-05-09T08:32:23Z</time>
      </trkpt>
      <trkpt lat="44.25157" lon="0.77282">
        <ele>183</ele>
        <time>2021-05-09T08:32:25Z</time>
      </trkpt>
      <trkpt lat="44.25155" lon="0.77283">
        <ele>183</ele>
        <time>2021-05-09T08:32:27Z</time>
      </trkpt>
      <trkpt lat="44.25152" lon="0.77284">
        <ele>183</ele>
        <time>2021-05-09T08:32:29Z</time>
      </trkpt>
      <trkpt lat="44.25149" lon="0.77285">
        <ele>182.8</ele>
        <time>2021-05-09T08:32:31Z</time>
      </trkpt>
      <trkpt lat="44.25147" lon="0.77287">
        <ele>182.8</ele>
        <time>2021-05-09T08:32:33Z</time>
      </trkpt>
      <trkpt lat="44.25144" lon="0.77287">
        <ele>182.6</ele>
        <time>2021-05-09T08:32:35Z</time>
      </trkpt>
      <trkpt lat="44.25141" lon="0.77288">
        <ele>182.6</ele>
        <time>2021-05-09T08:32:38Z</time>
      </trkpt>
      <trkpt lat="44.25139" lon="0.77289">
        <ele>182.4</ele>
        <time>2021-05-09T08:32:40Z</time>
      </trkpt>
      <trkpt lat="44.25136" lon="0.77291">
        <ele>182.2</ele>
        <time>2021-05-09T08:32:43Z</time>
      </trkpt>
      <trkpt lat="44.25133" lon="0.77293">
        <ele>182.2</ele>
        <time>2021-05-09T08:32:45Z</time>
      </trkpt>
      <trkpt lat="44.25132" lon="0.77294">
        <ele>182</ele>
        <time>2021-05-09T08:32:47Z</time>
      </trkpt>
      <trkpt lat="44.2513" lon="0.77295">
        <ele>181.8</ele>
        <time>2021-05-09T08:32:49Z</time>
      </trkpt>
      <trkpt lat="44.25129" lon="0.77297">
        <ele>181.8</ele>
        <time>2021-05-09T08:32:51Z</time>
      </trkpt>
      <trkpt lat="44.25127" lon="0.77299">
        <ele>181.6</ele>
        <time>2021-05-09T08:32:53Z</time>
      </trkpt>
      <trkpt lat="44.25125" lon="0.77301">
        <ele>181.6</ele>
        <time>2021-05-09T08:32:55Z</time>
      </trkpt>
      <trkpt lat="44.25124" lon="0.77303">
        <ele>181.4</ele>
        <time>2021-05-09T08:32:57Z</time>
      </trkpt>
      <trkpt lat="44.25122" lon="0.77304">
        <ele>181.4</ele>
        <time>2021-05-09T08:32:59Z</time>
      </trkpt>
      <trkpt lat="44.2512" lon="0.77306">
        <ele>181.2</ele>
        <time>2021-05-09T08:33:04Z</time>
      </trkpt>
      <trkpt lat="44.25119" lon="0.77308">
        <ele>181</ele>
        <time>2021-05-09T08:33:06Z</time>
      </trkpt>
      <trkpt lat="44.25117" lon="0.7731">
        <ele>180.8</ele>
        <time>2021-05-09T08:33:08Z</time>
      </trkpt>
      <trkpt lat="44.25109" lon="0.77317">
        <ele>180.2</ele>
        <time>2021-05-09T08:33:19Z</time>
      </trkpt>
      <trkpt lat="44.25107" lon="0.77319">
        <ele>180</ele>
        <time>2021-05-09T08:33:21Z</time>
      </trkpt>
      <trkpt lat="44.25105" lon="0.77321">
        <ele>180.2</ele>
        <time>2021-05-09T08:33:23Z</time>
      </trkpt>
      <trkpt lat="44.25103" lon="0.77323">
        <ele>180.2</ele>
        <time>2021-05-09T08:33:25Z</time>
      </trkpt>
      <trkpt lat="44.251" lon="0.77326">
        <ele>180.2</ele>
        <time>2021-05-09T08:33:27Z</time>
      </trkpt>
      <trkpt lat="44.25098" lon="0.77328">
        <ele>180.4</ele>
        <time>2021-05-09T08:33:29Z</time>
      </trkpt>
      <trkpt lat="44.25095" lon="0.77331">
        <ele>180.4</ele>
        <time>2021-05-09T08:33:31Z</time>
      </trkpt>
      <trkpt lat="44.25093" lon="0.77332">
        <ele>180.4</ele>
        <time>2021-05-09T08:33:33Z</time>
      </trkpt>
      <trkpt lat="44.25091" lon="0.77334">
        <ele>180.6</ele>
        <time>2021-05-09T08:33:34Z</time>
      </trkpt>
      <trkpt lat="44.25089" lon="0.77337">
        <ele>180.6</ele>
        <time>2021-05-09T08:33:36Z</time>
      </trkpt>
      <trkpt lat="44.25087" lon="0.77338">
        <ele>180.6</ele>
        <time>2021-05-09T08:33:38Z</time>
      </trkpt>
      <trkpt lat="44.25085" lon="0.7734">
        <ele>180.6</ele>
        <time>2021-05-09T08:33:40Z</time>
      </trkpt>
      <trkpt lat="44.25082" lon="0.77341">
        <ele>180.6</ele>
        <time>2021-05-09T08:33:42Z</time>
      </trkpt>
      <trkpt lat="44.2508" lon="0.77342">
        <ele>180.4</ele>
        <time>2021-05-09T08:33:46Z</time>
      </trkpt>
      <trkpt lat="44.25078" lon="0.77344">
        <ele>180.2</ele>
        <time>2021-05-09T08:33:48Z</time>
      </trkpt>
      <trkpt lat="44.25076" lon="0.77346">
        <ele>180</ele>
        <time>2021-05-09T08:33:51Z</time>
      </trkpt>
      <trkpt lat="44.25073" lon="0.77349">
        <ele>179.8</ele>
        <time>2021-05-09T08:33:53Z</time>
      </trkpt>
      <trkpt lat="44.25071" lon="0.77351">
        <ele>179.8</ele>
        <time>2021-05-09T08:33:55Z</time>
      </trkpt>
      <trkpt lat="44.25069" lon="0.77353">
        <ele>179.6</ele>
        <time>2021-05-09T08:33:57Z</time>
      </trkpt>
      <trkpt lat="44.25068" lon="0.77354">
        <ele>179.2</ele>
        <time>2021-05-09T08:33:59Z</time>
      </trkpt>
      <trkpt lat="44.25066" lon="0.77356">
        <ele>179.2</ele>
        <time>2021-05-09T08:34:01Z</time>
      </trkpt>
      <trkpt lat="44.25064" lon="0.77358">
        <ele>179</ele>
        <time>2021-05-09T08:34:02Z</time>
      </trkpt>
      <trkpt lat="44.25064" lon="0.77361">
        <ele>178.8</ele>
        <time>2021-05-09T08:34:04Z</time>
      </trkpt>
      <trkpt lat="44.25061" lon="0.77363">
        <ele>178.6</ele>
        <time>2021-05-09T08:34:07Z</time>
      </trkpt>
      <trkpt lat="44.25059" lon="0.77366">
        <ele>178.6</ele>
        <time>2021-05-09T08:34:09Z</time>
      </trkpt>
      <trkpt lat="44.25057" lon="0.77368">
        <ele>178.6</ele>
        <time>2021-05-09T08:34:11Z</time>
      </trkpt>
      <trkpt lat="44.25054" lon="0.77368">
        <ele>178.4</ele>
        <time>2021-05-09T08:34:13Z</time>
      </trkpt>
      <trkpt lat="44.25052" lon="0.7737">
        <ele>178.4</ele>
        <time>2021-05-09T08:34:16Z</time>
      </trkpt>
      <trkpt lat="44.2505" lon="0.77373">
        <ele>178.2</ele>
        <time>2021-05-09T08:34:20Z</time>
      </trkpt>
      <trkpt lat="44.25048" lon="0.77375">
        <ele>178.2</ele>
        <time>2021-05-09T08:34:22Z</time>
      </trkpt>
      <trkpt lat="44.25047" lon="0.77377">
        <ele>178</ele>
        <time>2021-05-09T08:34:24Z</time>
      </trkpt>
      <trkpt lat="44.25045" lon="0.7738">
        <ele>177.8</ele>
        <time>2021-05-09T08:34:26Z</time>
      </trkpt>
      <trkpt lat="44.25044" lon="0.77383">
        <ele>177.6</ele>
        <time>2021-05-09T08:34:28Z</time>
      </trkpt>
      <trkpt lat="44.25042" lon="0.77386">
        <ele>177.4</ele>
        <time>2021-05-09T08:34:30Z</time>
      </trkpt>
      <trkpt lat="44.25041" lon="0.77389">
        <ele>177.4</ele>
        <time>2021-05-09T08:34:32Z</time>
      </trkpt>
      <trkpt lat="44.25039" lon="0.77391">
        <ele>177.4</ele>
        <time>2021-05-09T08:34:34Z</time>
      </trkpt>
      <trkpt lat="44.25038" lon="0.77394">
        <ele>177.4</ele>
        <time>2021-05-09T08:34:36Z</time>
      </trkpt>
      <trkpt lat="44.25036" lon="0.77395">
        <ele>177.2</ele>
        <time>2021-05-09T08:34:38Z</time>
      </trkpt>
      <trkpt lat="44.25035" lon="0.77398">
        <ele>177.2</ele>
        <time>2021-05-09T08:34:40Z</time>
      </trkpt>
      <trkpt lat="44.25033" lon="0.774">
        <ele>177.2</ele>
        <time>2021-05-09T08:34:42Z</time>
      </trkpt>
      <trkpt lat="44.2503" lon="0.77402">
        <ele>177.2</ele>
        <time>2021-05-09T08:34:44Z</time>
      </trkpt>
      <trkpt lat="44.25028" lon="0.77403">
        <ele>177.4</ele>
        <time>2021-05-09T08:34:46Z</time>
      </trkpt>
      <trkpt lat="44.25027" lon="0.77404">
        <ele>177.4</ele>
        <time>2021-05-09T08:34:48Z</time>
      </trkpt>
      <trkpt lat="44.25024" lon="0.77405">
        <ele>177.2</ele>
        <time>2021-05-09T08:34:50Z</time>
      </trkpt>
      <trkpt lat="44.25022" lon="0.77406">
        <ele>177.2</ele>
        <time>2021-05-09T08:34:52Z</time>
      </trkpt>
      <trkpt lat="44.2502" lon="0.77407">
        <ele>177</ele>
        <time>2021-05-09T08:34:54Z</time>
      </trkpt>
      <trkpt lat="44.25018" lon="0.77407">
        <ele>177</ele>
        <time>2021-05-09T08:34:56Z</time>
      </trkpt>
      <trkpt lat="44.25016" lon="0.77406">
        <ele>177</ele>
        <time>2021-05-09T08:34:58Z</time>
      </trkpt>
      <trkpt lat="44.25014" lon="0.77404">
        <ele>176.8</ele>
        <time>2021-05-09T08:35:00Z</time>
      </trkpt>
      <trkpt lat="44.25012" lon="0.77401">
        <ele>176.8</ele>
        <time>2021-05-09T08:35:02Z</time>
      </trkpt>
      <trkpt lat="44.2501" lon="0.77399">
        <ele>176.8</ele>
        <time>2021-05-09T08:35:05Z</time>
      </trkpt>
      <trkpt lat="44.25008" lon="0.77396">
        <ele>176.6</ele>
        <time>2021-05-09T08:35:07Z</time>
      </trkpt>
      <trkpt lat="44.25006" lon="0.77394">
        <ele>176.4</ele>
        <time>2021-05-09T08:35:09Z</time>
      </trkpt>
      <trkpt lat="44.25004" lon="0.77392">
        <ele>176.2</ele>
        <time>2021-05-09T08:35:11Z</time>
      </trkpt>
      <trkpt lat="44.25002" lon="0.7739">
        <ele>175.8</ele>
        <time>2021-05-09T08:35:16Z</time>
      </trkpt>
      <trkpt lat="44.25001" lon="0.77388">
        <ele>175.6</ele>
        <time>2021-05-09T08:35:18Z</time>
      </trkpt>
      <trkpt lat="44.24999" lon="0.77387">
        <ele>175.4</ele>
        <time>2021-05-09T08:35:20Z</time>
      </trkpt>
      <trkpt lat="44.24996" lon="0.77384">
        <ele>175.4</ele>
        <time>2021-05-09T08:35:23Z</time>
      </trkpt>
      <trkpt lat="44.24994" lon="0.77383">
        <ele>175.2</ele>
        <time>2021-05-09T08:35:26Z</time>
      </trkpt>
      <trkpt lat="44.24992" lon="0.77381">
        <ele>175.2</ele>
        <time>2021-05-09T08:35:29Z</time>
      </trkpt>
      <trkpt lat="44.2499" lon="0.77379">
        <ele>175</ele>
        <time>2021-05-09T08:35:31Z</time>
      </trkpt>
      <trkpt lat="44.24987" lon="0.77378">
        <ele>174.6</ele>
        <time>2021-05-09T08:35:33Z</time>
      </trkpt>
      <trkpt lat="44.24984" lon="0.77377">
        <ele>174.6</ele>
        <time>2021-05-09T08:35:34Z</time>
      </trkpt>
      <trkpt lat="44.24982" lon="0.77374">
        <ele>174.4</ele>
        <time>2021-05-09T08:35:36Z</time>
      </trkpt>
      <trkpt lat="44.2498" lon="0.77372">
        <ele>174.2</ele>
        <time>2021-05-09T08:35:38Z</time>
      </trkpt>
      <trkpt lat="44.24978" lon="0.77372">
        <ele>173.8</ele>
        <time>2021-05-09T08:35:40Z</time>
      </trkpt>
      <trkpt lat="44.2497" lon="0.77367">
        <ele>171.6</ele>
        <time>2021-05-09T08:40:29Z</time>
      </trkpt>
      <trkpt lat="44.24967" lon="0.77367">
        <ele>171.6</ele>
        <time>2021-05-09T08:40:31Z</time>
      </trkpt>
      <trkpt lat="44.24964" lon="0.77367">
        <ele>171.8</ele>
        <time>2021-05-09T08:40:33Z</time>
      </trkpt>
      <trkpt lat="44.24962" lon="0.77367">
        <ele>172</ele>
        <time>2021-05-09T08:40:35Z</time>
      </trkpt>
      <trkpt lat="44.2496" lon="0.77368">
        <ele>172</ele>
        <time>2021-05-09T08:40:37Z</time>
      </trkpt>
      <trkpt lat="44.24959" lon="0.7737">
        <ele>172</ele>
        <time>2021-05-09T08:40:39Z</time>
      </trkpt>
      <trkpt lat="44.24957" lon="0.77371">
        <ele>172</ele>
        <time>2021-05-09T08:40:41Z</time>
      </trkpt>
      <trkpt lat="44.24955" lon="0.77372">
        <ele>171.8</ele>
        <time>2021-05-09T08:40:43Z</time>
      </trkpt>
      <trkpt lat="44.24953" lon="0.77373">
        <ele>171.8</ele>
        <time>2021-05-09T08:40:45Z</time>
      </trkpt>
      <trkpt lat="44.24951" lon="0.77374">
        <ele>171.6</ele>
        <time>2021-05-09T08:40:47Z</time>
      </trkpt>
      <trkpt lat="44.24949" lon="0.77374">
        <ele>171.6</ele>
        <time>2021-05-09T08:40:49Z</time>
      </trkpt>
      <trkpt lat="44.24947" lon="0.77375">
        <ele>171.6</ele>
        <time>2021-05-09T08:40:51Z</time>
      </trkpt>
      <trkpt lat="44.24944" lon="0.77376">
        <ele>171.6</ele>
        <time>2021-05-09T08:40:53Z</time>
      </trkpt>
      <trkpt lat="44.24942" lon="0.77376">
        <ele>171.6</ele>
        <time>2021-05-09T08:40:55Z</time>
      </trkpt>
      <trkpt lat="44.2494" lon="0.77377">
        <ele>171.6</ele>
        <time>2021-05-09T08:40:57Z</time>
      </trkpt>
      <trkpt lat="44.24938" lon="0.77378">
        <ele>171.6</ele>
        <time>2021-05-09T08:40:59Z</time>
      </trkpt>
      <trkpt lat="44.24936" lon="0.77378">
        <ele>171.6</ele>
        <time>2021-05-09T08:41:03Z</time>
      </trkpt>
      <trkpt lat="44.24931" lon="0.77378">
        <ele>172</ele>
        <time>2021-05-09T08:41:07Z</time>
      </trkpt>
      <trkpt lat="44.24929" lon="0.77378">
        <ele>172</ele>
        <time>2021-05-09T08:41:09Z</time>
      </trkpt>
      <trkpt lat="44.24926" lon="0.77377">
        <ele>172</ele>
        <time>2021-05-09T08:41:11Z</time>
      </trkpt>
      <trkpt lat="44.24924" lon="0.77377">
        <ele>171.8</ele>
        <time>2021-05-09T08:41:13Z</time>
      </trkpt>
      <trkpt lat="44.24921" lon="0.77378">
        <ele>171.8</ele>
        <time>2021-05-09T08:41:15Z</time>
      </trkpt>
      <trkpt lat="44.24919" lon="0.77378">
        <ele>171.8</ele>
        <time>2021-05-09T08:41:17Z</time>
      </trkpt>
      <trkpt lat="44.24917" lon="0.77378">
        <ele>171.8</ele>
        <time>2021-05-09T08:41:19Z</time>
      </trkpt>
      <trkpt lat="44.24915" lon="0.77378">
        <ele>171.8</ele>
        <time>2021-05-09T08:41:21Z</time>
      </trkpt>
      <trkpt lat="44.24912" lon="0.77377">
        <ele>172</ele>
        <time>2021-05-09T08:41:24Z</time>
      </trkpt>
      <trkpt lat="44.2491" lon="0.77378">
        <ele>171.8</ele>
        <time>2021-05-09T08:41:26Z</time>
      </trkpt>
      <trkpt lat="44.24908" lon="0.77378">
        <ele>171.8</ele>
        <time>2021-05-09T08:41:28Z</time>
      </trkpt>
      <trkpt lat="44.24906" lon="0.77378">
        <ele>171.8</ele>
        <time>2021-05-09T08:41:30Z</time>
      </trkpt>
      <trkpt lat="44.24904" lon="0.77377">
        <ele>172</ele>
        <time>2021-05-09T08:41:32Z</time>
      </trkpt>
      <trkpt lat="44.24901" lon="0.77377">
        <ele>172</ele>
        <time>2021-05-09T08:41:34Z</time>
      </trkpt>
      <trkpt lat="44.24899" lon="0.77377">
        <ele>172.2</ele>
        <time>2021-05-09T08:41:36Z</time>
      </trkpt>
      <trkpt lat="44.24897" lon="0.77376">
        <ele>172.4</ele>
        <time>2021-05-09T08:41:38Z</time>
      </trkpt>
      <trkpt lat="44.24892" lon="0.77374">
        <ele>173.8</ele>
        <time>2021-05-09T08:41:46Z</time>
      </trkpt>
      <trkpt lat="44.2489" lon="0.77374">
        <ele>174</ele>
        <time>2021-05-09T08:41:47Z</time>
      </trkpt>
      <trkpt lat="44.24887" lon="0.77373">
        <ele>174.2</ele>
        <time>2021-05-09T08:41:49Z</time>
      </trkpt>
      <trkpt lat="44.24884" lon="0.77374">
        <ele>174.6</ele>
        <time>2021-05-09T08:41:51Z</time>
      </trkpt>
      <trkpt lat="44.24882" lon="0.77375">
        <ele>175</ele>
        <time>2021-05-09T08:41:53Z</time>
      </trkpt>
      <trkpt lat="44.24879" lon="0.77376">
        <ele>175.4</ele>
        <time>2021-05-09T08:41:55Z</time>
      </trkpt>
      <trkpt lat="44.24876" lon="0.77376">
        <ele>175.8</ele>
        <time>2021-05-09T08:41:57Z</time>
      </trkpt>
      <trkpt lat="44.24875" lon="0.77376">
        <ele>176.4</ele>
        <time>2021-05-09T08:42:00Z</time>
      </trkpt>
      <trkpt lat="44.24873" lon="0.77378">
        <ele>176.8</ele>
        <time>2021-05-09T08:42:02Z</time>
      </trkpt>
      <trkpt lat="44.24871" lon="0.77378">
        <ele>177.2</ele>
        <time>2021-05-09T08:42:04Z</time>
      </trkpt>
      <trkpt lat="44.24869" lon="0.77378">
        <ele>177.4</ele>
        <time>2021-05-09T08:42:06Z</time>
      </trkpt>
      <trkpt lat="44.24867" lon="0.77377">
        <ele>177.6</ele>
        <time>2021-05-09T08:42:08Z</time>
      </trkpt>
      <trkpt lat="44.24864" lon="0.77376">
        <ele>178</ele>
        <time>2021-05-09T08:42:10Z</time>
      </trkpt>
      <trkpt lat="44.24861" lon="0.77376">
        <ele>178.2</ele>
        <time>2021-05-09T08:42:12Z</time>
      </trkpt>
      <trkpt lat="44.24858" lon="0.77375">
        <ele>178.4</ele>
        <time>2021-05-09T08:42:14Z</time>
      </trkpt>
      <trkpt lat="44.24855" lon="0.77375">
        <ele>178.6</ele>
        <time>2021-05-09T08:42:16Z</time>
      </trkpt>
      <trkpt lat="44.24852" lon="0.77375">
        <ele>178.8</ele>
        <time>2021-05-09T08:42:18Z</time>
      </trkpt>
      <trkpt lat="44.24851" lon="0.77376">
        <ele>178.8</ele>
        <time>2021-05-09T08:42:20Z</time>
      </trkpt>
      <trkpt lat="44.24848" lon="0.77376">
        <ele>178.8</ele>
        <time>2021-05-09T08:42:21Z</time>
      </trkpt>
      <trkpt lat="44.24846" lon="0.77377">
        <ele>179</ele>
        <time>2021-05-09T08:42:23Z</time>
      </trkpt>
      <trkpt lat="44.24844" lon="0.77378">
        <ele>179.2</ele>
        <time>2021-05-09T08:42:25Z</time>
      </trkpt>
      <trkpt lat="44.24841" lon="0.77379">
        <ele>179.2</ele>
        <time>2021-05-09T08:42:26Z</time>
      </trkpt>
      <trkpt lat="44.24839" lon="0.77379">
        <ele>179.2</ele>
        <time>2021-05-09T08:42:27Z</time>
      </trkpt>
      <trkpt lat="44.24837" lon="0.7738">
        <ele>179.4</ele>
        <time>2021-05-09T08:42:28Z</time>
      </trkpt>
      <trkpt lat="44.24835" lon="0.77381">
        <ele>179.6</ele>
        <time>2021-05-09T08:42:31Z</time>
      </trkpt>
      <trkpt lat="44.24833" lon="0.77381">
        <ele>179.8</ele>
        <time>2021-05-09T08:42:34Z</time>
      </trkpt>
      <trkpt lat="44.24831" lon="0.77379">
        <ele>180</ele>
        <time>2021-05-09T08:42:37Z</time>
      </trkpt>
      <trkpt lat="44.24828" lon="0.77381">
        <ele>180.2</ele>
        <time>2021-05-09T08:42:39Z</time>
      </trkpt>
      <trkpt lat="44.24826" lon="0.77379">
        <ele>180.4</ele>
        <time>2021-05-09T08:42:41Z</time>
      </trkpt>
      <trkpt lat="44.24825" lon="0.77375">
        <ele>180.4</ele>
        <time>2021-05-09T08:42:43Z</time>
      </trkpt>
      <trkpt lat="44.24822" lon="0.77372">
        <ele>180.4</ele>
        <time>2021-05-09T08:42:45Z</time>
      </trkpt>
      <trkpt lat="44.2482" lon="0.77371">
        <ele>180.6</ele>
        <time>2021-05-09T08:42:47Z</time>
      </trkpt>
      <trkpt lat="44.24817" lon="0.7737">
        <ele>180.6</ele>
        <time>2021-05-09T08:42:50Z</time>
      </trkpt>
      <trkpt lat="44.24815" lon="0.7737">
        <ele>181</ele>
        <time>2021-05-09T08:42:53Z</time>
      </trkpt>
      <trkpt lat="44.24814" lon="0.77372">
        <ele>181.2</ele>
        <time>2021-05-09T08:42:55Z</time>
      </trkpt>
      <trkpt lat="44.24812" lon="0.77374">
        <ele>181.4</ele>
        <time>2021-05-09T08:42:56Z</time>
      </trkpt>
      <trkpt lat="44.24809" lon="0.77375">
        <ele>181.6</ele>
        <time>2021-05-09T08:42:58Z</time>
      </trkpt>
      <trkpt lat="44.24807" lon="0.77374">
        <ele>181.8</ele>
        <time>2021-05-09T08:43:00Z</time>
      </trkpt>
      <trkpt lat="44.24805" lon="0.77377">
        <ele>181.8</ele>
        <time>2021-05-09T08:43:02Z</time>
      </trkpt>
      <trkpt lat="44.24804" lon="0.77379">
        <ele>182</ele>
        <time>2021-05-09T08:43:05Z</time>
      </trkpt>
      <trkpt lat="44.24802" lon="0.7738">
        <ele>182.4</ele>
        <time>2021-05-09T08:43:07Z</time>
      </trkpt>
      <trkpt lat="44.24799" lon="0.77382">
        <ele>182.6</ele>
        <time>2021-05-09T08:43:09Z</time>
      </trkpt>
      <trkpt lat="44.24797" lon="0.77383">
        <ele>182.8</ele>
        <time>2021-05-09T08:43:12Z</time>
      </trkpt>
      <trkpt lat="44.24795" lon="0.77385">
        <ele>183</ele>
        <time>2021-05-09T08:43:14Z</time>
      </trkpt>
      <trkpt lat="44.24793" lon="0.77387">
        <ele>183</ele>
        <time>2021-05-09T08:43:17Z</time>
      </trkpt>
      <trkpt lat="44.24791" lon="0.77389">
        <ele>183.2</ele>
        <time>2021-05-09T08:43:19Z</time>
      </trkpt>
      <trkpt lat="44.24788" lon="0.77391">
        <ele>183.4</ele>
        <time>2021-05-09T08:43:21Z</time>
      </trkpt>
      <trkpt lat="44.24786" lon="0.77391">
        <ele>183.4</ele>
        <time>2021-05-09T08:43:22Z</time>
      </trkpt>
      <trkpt lat="44.24783" lon="0.77389">
        <ele>183.4</ele>
        <time>2021-05-09T08:43:24Z</time>
      </trkpt>
      <trkpt lat="44.24783" lon="0.77387">
        <ele>183.4</ele>
        <time>2021-05-09T08:43:26Z</time>
      </trkpt>
      <trkpt lat="44.24781" lon="0.77384">
        <ele>183.2</ele>
        <time>2021-05-09T08:43:28Z</time>
      </trkpt>
      <trkpt lat="44.2478" lon="0.77382">
        <ele>183.2</ele>
        <time>2021-05-09T08:43:30Z</time>
      </trkpt>
      <trkpt lat="44.24778" lon="0.7738">
        <ele>183.2</ele>
        <time>2021-05-09T08:43:32Z</time>
      </trkpt>
      <trkpt lat="44.24777" lon="0.77377">
        <ele>183.2</ele>
        <time>2021-05-09T08:43:34Z</time>
      </trkpt>
      <trkpt lat="44.24776" lon="0.77375">
        <ele>183.2</ele>
        <time>2021-05-09T08:43:36Z</time>
      </trkpt>
      <trkpt lat="44.24775" lon="0.77372">
        <ele>183.2</ele>
        <time>2021-05-09T08:43:39Z</time>
      </trkpt>
      <trkpt lat="44.24773" lon="0.77369">
        <ele>183.4</ele>
        <time>2021-05-09T08:43:41Z</time>
      </trkpt>
      <trkpt lat="44.24772" lon="0.77367">
        <ele>183.6</ele>
        <time>2021-05-09T08:43:43Z</time>
      </trkpt>
      <trkpt lat="44.24771" lon="0.77363">
        <ele>183.8</ele>
        <time>2021-05-09T08:43:45Z</time>
      </trkpt>
      <trkpt lat="44.2477" lon="0.7736">
        <ele>183.8</ele>
        <time>2021-05-09T08:43:47Z</time>
      </trkpt>
      <trkpt lat="44.24769" lon="0.77356">
        <ele>183.8</ele>
        <time>2021-05-09T08:43:49Z</time>
      </trkpt>
      <trkpt lat="44.24768" lon="0.77353">
        <ele>184</ele>
        <time>2021-05-09T08:43:51Z</time>
      </trkpt>
      <trkpt lat="44.24767" lon="0.77349">
        <ele>184</ele>
        <time>2021-05-09T08:43:53Z</time>
      </trkpt>
      <trkpt lat="44.24765" lon="0.77346">
        <ele>184</ele>
        <time>2021-05-09T08:43:55Z</time>
      </trkpt>
      <trkpt lat="44.24764" lon="0.77343">
        <ele>184</ele>
        <time>2021-05-09T08:43:57Z</time>
      </trkpt>
      <trkpt lat="44.24763" lon="0.77341">
        <ele>184</ele>
        <time>2021-05-09T08:43:58Z</time>
      </trkpt>
      <trkpt lat="44.24761" lon="0.77337">
        <ele>184.2</ele>
        <time>2021-05-09T08:44:00Z</time>
      </trkpt>
      <trkpt lat="44.2476" lon="0.77334">
        <ele>184.2</ele>
        <time>2021-05-09T08:44:01Z</time>
      </trkpt>
      <trkpt lat="44.24758" lon="0.77332">
        <ele>184.2</ele>
        <time>2021-05-09T08:44:02Z</time>
      </trkpt>
      <trkpt lat="44.24756" lon="0.77329">
        <ele>184.2</ele>
        <time>2021-05-09T08:44:04Z</time>
      </trkpt>
      <trkpt lat="44.24754" lon="0.77327">
        <ele>184.2</ele>
        <time>2021-05-09T08:44:06Z</time>
      </trkpt>
      <trkpt lat="44.24752" lon="0.77325">
        <ele>184</ele>
        <time>2021-05-09T08:44:10Z</time>
      </trkpt>
      <trkpt lat="44.24749" lon="0.77324">
        <ele>184</ele>
        <time>2021-05-09T08:44:12Z</time>
      </trkpt>
      <trkpt lat="44.24748" lon="0.77325">
        <ele>184</ele>
        <time>2021-05-09T08:44:14Z</time>
      </trkpt>
      <trkpt lat="44.24745" lon="0.77325">
        <ele>184</ele>
        <time>2021-05-09T08:44:16Z</time>
      </trkpt>
      <trkpt lat="44.24743" lon="0.77324">
        <ele>184.2</ele>
        <time>2021-05-09T08:44:20Z</time>
      </trkpt>
      <trkpt lat="44.24732" lon="0.77324">
        <ele>184.2</ele>
        <time>2021-05-09T08:44:29Z</time>
      </trkpt>
      <trkpt lat="44.24729" lon="0.77324">
        <ele>184.2</ele>
        <time>2021-05-09T08:44:31Z</time>
      </trkpt>
      <trkpt lat="44.24727" lon="0.77324">
        <ele>184</ele>
        <time>2021-05-09T08:44:33Z</time>
      </trkpt>
      <trkpt lat="44.24724" lon="0.77323">
        <ele>184</ele>
        <time>2021-05-09T08:44:36Z</time>
      </trkpt>
      <trkpt lat="44.24722" lon="0.77321">
        <ele>184</ele>
        <time>2021-05-09T08:44:38Z</time>
      </trkpt>
      <trkpt lat="44.2472" lon="0.77319">
        <ele>183.8</ele>
        <time>2021-05-09T08:44:40Z</time>
      </trkpt>
      <trkpt lat="44.24718" lon="0.77317">
        <ele>183.8</ele>
        <time>2021-05-09T08:44:42Z</time>
      </trkpt>
      <trkpt lat="44.24717" lon="0.77314">
        <ele>183.8</ele>
        <time>2021-05-09T08:44:44Z</time>
      </trkpt>
      <trkpt lat="44.24716" lon="0.77311">
        <ele>184</ele>
        <time>2021-05-09T08:44:46Z</time>
      </trkpt>
      <trkpt lat="44.24715" lon="0.77308">
        <ele>183.8</ele>
        <time>2021-05-09T08:44:48Z</time>
      </trkpt>
      <trkpt lat="44.24714" lon="0.77305">
        <ele>183.6</ele>
        <time>2021-05-09T08:44:50Z</time>
      </trkpt>
      <trkpt lat="44.24713" lon="0.77301">
        <ele>183.6</ele>
        <time>2021-05-09T08:44:52Z</time>
      </trkpt>
      <trkpt lat="44.24712" lon="0.77298">
        <ele>183.4</ele>
        <time>2021-05-09T08:44:54Z</time>
      </trkpt>
      <trkpt lat="44.24711" lon="0.77295">
        <ele>183.2</ele>
        <time>2021-05-09T08:44:56Z</time>
      </trkpt>
      <trkpt lat="44.2471" lon="0.77292">
        <ele>183.2</ele>
        <time>2021-05-09T08:44:59Z</time>
      </trkpt>
      <trkpt lat="44.24709" lon="0.77289">
        <ele>183.2</ele>
        <time>2021-05-09T08:45:02Z</time>
      </trkpt>
      <trkpt lat="44.24708" lon="0.77286">
        <ele>182.8</ele>
        <time>2021-05-09T08:45:04Z</time>
      </trkpt>
      <trkpt lat="44.24706" lon="0.77284">
        <ele>182.8</ele>
        <time>2021-05-09T08:45:05Z</time>
      </trkpt>
      <trkpt lat="44.24704" lon="0.77283">
        <ele>182.6</ele>
        <time>2021-05-09T08:45:07Z</time>
      </trkpt>
      <trkpt lat="44.24701" lon="0.77283">
        <ele>182.4</ele>
        <time>2021-05-09T08:45:10Z</time>
      </trkpt>
      <trkpt lat="44.24699" lon="0.77283">
        <ele>182.4</ele>
        <time>2021-05-09T08:45:12Z</time>
      </trkpt>
      <trkpt lat="44.24696" lon="0.77284">
        <ele>182.4</ele>
        <time>2021-05-09T08:45:14Z</time>
      </trkpt>
      <trkpt lat="44.24694" lon="0.77283">
        <ele>182.4</ele>
        <time>2021-05-09T08:45:16Z</time>
      </trkpt>
      <trkpt lat="44.24692" lon="0.77282">
        <ele>182.4</ele>
        <time>2021-05-09T08:45:18Z</time>
      </trkpt>
      <trkpt lat="44.2469" lon="0.77281">
        <ele>182.4</ele>
        <time>2021-05-09T08:45:20Z</time>
      </trkpt>
      <trkpt lat="44.24688" lon="0.77279">
        <ele>182.4</ele>
        <time>2021-05-09T08:45:21Z</time>
      </trkpt>
      <trkpt lat="44.24686" lon="0.77279">
        <ele>182.4</ele>
        <time>2021-05-09T08:45:22Z</time>
      </trkpt>
      <trkpt lat="44.24684" lon="0.77278">
        <ele>182.4</ele>
        <time>2021-05-09T08:45:23Z</time>
      </trkpt>
      <trkpt lat="44.24683" lon="0.77275">
        <ele>182.4</ele>
        <time>2021-05-09T08:45:25Z</time>
      </trkpt>
      <trkpt lat="44.24682" lon="0.77271">
        <ele>182.4</ele>
        <time>2021-05-09T08:45:27Z</time>
      </trkpt>
      <trkpt lat="44.2468" lon="0.77267">
        <ele>182.4</ele>
        <time>2021-05-09T08:45:29Z</time>
      </trkpt>
      <trkpt lat="44.2468" lon="0.77265">
        <ele>182.4</ele>
        <time>2021-05-09T08:45:30Z</time>
      </trkpt>
      <trkpt lat="44.24679" lon="0.77261">
        <ele>182.4</ele>
        <time>2021-05-09T08:45:32Z</time>
      </trkpt>
      <trkpt lat="44.24678" lon="0.77256">
        <ele>182.6</ele>
        <time>2021-05-09T08:45:34Z</time>
      </trkpt>
      <trkpt lat="44.24677" lon="0.77254">
        <ele>182.8</ele>
        <time>2021-05-09T08:45:35Z</time>
      </trkpt>
      <trkpt lat="44.24676" lon="0.77251">
        <ele>182.8</ele>
        <time>2021-05-09T08:45:36Z</time>
      </trkpt>
      <trkpt lat="44.24675" lon="0.77249">
        <ele>183</ele>
        <time>2021-05-09T08:45:37Z</time>
      </trkpt>
      <trkpt lat="44.24675" lon="0.77246">
        <ele>183</ele>
        <time>2021-05-09T08:45:38Z</time>
      </trkpt>
      <trkpt lat="44.24674" lon="0.77242">
        <ele>183.2</ele>
        <time>2021-05-09T08:45:40Z</time>
      </trkpt>
      <trkpt lat="44.24673" lon="0.77238">
        <ele>183.4</ele>
        <time>2021-05-09T08:45:41Z</time>
      </trkpt>
      <trkpt lat="44.24672" lon="0.77232">
        <ele>183.4</ele>
        <time>2021-05-09T08:45:42Z</time>
      </trkpt>
      <trkpt lat="44.24672" lon="0.77229">
        <ele>183.4</ele>
        <time>2021-05-09T08:45:43Z</time>
      </trkpt>
      <trkpt lat="44.24674" lon="0.77228">
        <ele>183.4</ele>
        <time>2021-05-09T08:45:44Z</time>
      </trkpt>
      <trkpt lat="44.24678" lon="0.77227">
        <ele>183.4</ele>
        <time>2021-05-09T08:45:45Z</time>
      </trkpt>
      <trkpt lat="44.24679" lon="0.77225">
        <ele>183.6</ele>
        <time>2021-05-09T08:45:46Z</time>
      </trkpt>
      <trkpt lat="44.2468" lon="0.77222">
        <ele>183.8</ele>
        <time>2021-05-09T08:45:49Z</time>
      </trkpt>
      <trkpt lat="44.2468" lon="0.7722">
        <ele>183.8</ele>
        <time>2021-05-09T08:45:52Z</time>
      </trkpt>
      <trkpt lat="44.24681" lon="0.77217">
        <ele>183.8</ele>
        <time>2021-05-09T08:45:54Z</time>
      </trkpt>
      <trkpt lat="44.24682" lon="0.77214">
        <ele>183.8</ele>
        <time>2021-05-09T08:45:56Z</time>
      </trkpt>
      <trkpt lat="44.24683" lon="0.77211">
        <ele>183.6</ele>
        <time>2021-05-09T08:45:59Z</time>
      </trkpt>
      <trkpt lat="44.24684" lon="0.77209">
        <ele>183.2</ele>
        <time>2021-05-09T08:46:02Z</time>
      </trkpt>
      <trkpt lat="44.24685" lon="0.77197">
        <ele>182.4</ele>
        <time>2021-05-09T08:46:11Z</time>
      </trkpt>
      <trkpt lat="44.24685" lon="0.77194">
        <ele>182.2</ele>
        <time>2021-05-09T08:46:13Z</time>
      </trkpt>
      <trkpt lat="44.24684" lon="0.77192">
        <ele>182</ele>
        <time>2021-05-09T08:46:15Z</time>
      </trkpt>
      <trkpt lat="44.24684" lon="0.77189">
        <ele>181.8</ele>
        <time>2021-05-09T08:46:17Z</time>
      </trkpt>
      <trkpt lat="44.24684" lon="0.77185">
        <ele>181.6</ele>
        <time>2021-05-09T08:46:19Z</time>
      </trkpt>
      <trkpt lat="44.24683" lon="0.77182">
        <ele>181.4</ele>
        <time>2021-05-09T08:46:21Z</time>
      </trkpt>
      <trkpt lat="44.24683" lon="0.77179">
        <ele>181.2</ele>
        <time>2021-05-09T08:46:23Z</time>
      </trkpt>
      <trkpt lat="44.24683" lon="0.77175">
        <ele>181</ele>
        <time>2021-05-09T08:46:25Z</time>
      </trkpt>
      <trkpt lat="44.24682" lon="0.77171">
        <ele>180.8</ele>
        <time>2021-05-09T08:46:27Z</time>
      </trkpt>
      <trkpt lat="44.24682" lon="0.77167">
        <ele>180.6</ele>
        <time>2021-05-09T08:46:29Z</time>
      </trkpt>
      <trkpt lat="44.24681" lon="0.77165">
        <ele>180.6</ele>
        <time>2021-05-09T08:46:31Z</time>
      </trkpt>
      <trkpt lat="44.2468" lon="0.77162">
        <ele>180.4</ele>
        <time>2021-05-09T08:46:33Z</time>
      </trkpt>
      <trkpt lat="44.2468" lon="0.77158">
        <ele>180.2</ele>
        <time>2021-05-09T08:46:35Z</time>
      </trkpt>
      <trkpt lat="44.2468" lon="0.77155">
        <ele>180.2</ele>
        <time>2021-05-09T08:46:37Z</time>
      </trkpt>
      <trkpt lat="44.24678" lon="0.77154">
        <ele>180</ele>
        <time>2021-05-09T08:46:39Z</time>
      </trkpt>
      <trkpt lat="44.24677" lon="0.77151">
        <ele>180</ele>
        <time>2021-05-09T08:46:41Z</time>
      </trkpt>
      <trkpt lat="44.24677" lon="0.77147">
        <ele>179.8</ele>
        <time>2021-05-09T08:46:44Z</time>
      </trkpt>
      <trkpt lat="44.24676" lon="0.77144">
        <ele>179.6</ele>
        <time>2021-05-09T08:46:46Z</time>
      </trkpt>
      <trkpt lat="44.24676" lon="0.77141">
        <ele>179.4</ele>
        <time>2021-05-09T08:46:48Z</time>
      </trkpt>
      <trkpt lat="44.24675" lon="0.77138">
        <ele>179.2</ele>
        <time>2021-05-09T08:46:50Z</time>
      </trkpt>
      <trkpt lat="44.24673" lon="0.77135">
        <ele>179</ele>
        <time>2021-05-09T08:46:52Z</time>
      </trkpt>
      <trkpt lat="44.24671" lon="0.77133">
        <ele>178.8</ele>
        <time>2021-05-09T08:46:55Z</time>
      </trkpt>
      <trkpt lat="44.2467" lon="0.7713">
        <ele>178.8</ele>
        <time>2021-05-09T08:46:57Z</time>
      </trkpt>
      <trkpt lat="44.24669" lon="0.77127">
        <ele>178.8</ele>
        <time>2021-05-09T08:46:59Z</time>
      </trkpt>
      <trkpt lat="44.24668" lon="0.77124">
        <ele>178.8</ele>
        <time>2021-05-09T08:47:01Z</time>
      </trkpt>
      <trkpt lat="44.24667" lon="0.77121">
        <ele>179</ele>
        <time>2021-05-09T08:47:03Z</time>
      </trkpt>
      <trkpt lat="44.24666" lon="0.77118">
        <ele>178.8</ele>
        <time>2021-05-09T08:47:06Z</time>
      </trkpt>
      <trkpt lat="44.24665" lon="0.77116">
        <ele>178.6</ele>
        <time>2021-05-09T08:47:08Z</time>
      </trkpt>
      <trkpt lat="44.24664" lon="0.77113">
        <ele>178.6</ele>
        <time>2021-05-09T08:47:10Z</time>
      </trkpt>
      <trkpt lat="44.24662" lon="0.7711">
        <ele>178.8</ele>
        <time>2021-05-09T08:47:12Z</time>
      </trkpt>
      <trkpt lat="44.24661" lon="0.77107">
        <ele>179.2</ele>
        <time>2021-05-09T08:47:15Z</time>
      </trkpt>
      <trkpt lat="44.24659" lon="0.77105">
        <ele>179.8</ele>
        <time>2021-05-09T08:47:18Z</time>
      </trkpt>
      <trkpt lat="44.24657" lon="0.77102">
        <ele>180.2</ele>
        <time>2021-05-09T08:47:21Z</time>
      </trkpt>
      <trkpt lat="44.24656" lon="0.771">
        <ele>180.4</ele>
        <time>2021-05-09T08:47:23Z</time>
      </trkpt>
      <trkpt lat="44.24656" lon="0.77096">
        <ele>180.4</ele>
        <time>2021-05-09T08:47:25Z</time>
      </trkpt>
      <trkpt lat="44.24654" lon="0.77094">
        <ele>180.6</ele>
        <time>2021-05-09T08:47:27Z</time>
      </trkpt>
      <trkpt lat="44.24653" lon="0.77092">
        <ele>180.8</ele>
        <time>2021-05-09T08:47:29Z</time>
      </trkpt>
      <trkpt lat="44.24652" lon="0.77089">
        <ele>181</ele>
        <time>2021-05-09T08:47:31Z</time>
      </trkpt>
      <trkpt lat="44.24651" lon="0.77086">
        <ele>181.2</ele>
        <time>2021-05-09T08:47:33Z</time>
      </trkpt>
      <trkpt lat="44.24651" lon="0.77084">
        <ele>181.4</ele>
        <time>2021-05-09T08:47:35Z</time>
      </trkpt>
      <trkpt lat="44.24651" lon="0.77081">
        <ele>181.6</ele>
        <time>2021-05-09T08:47:37Z</time>
      </trkpt>
      <trkpt lat="44.24651" lon="0.77077">
        <ele>181.8</ele>
        <time>2021-05-09T08:47:39Z</time>
      </trkpt>
      <trkpt lat="44.2465" lon="0.77074">
        <ele>181.8</ele>
        <time>2021-05-09T08:47:41Z</time>
      </trkpt>
      <trkpt lat="44.24649" lon="0.77071">
        <ele>181.8</ele>
        <time>2021-05-09T08:47:43Z</time>
      </trkpt>
      <trkpt lat="44.24648" lon="0.77069">
        <ele>181.6</ele>
        <time>2021-05-09T08:47:45Z</time>
      </trkpt>
      <trkpt lat="44.24647" lon="0.77066">
        <ele>181.6</ele>
        <time>2021-05-09T08:47:48Z</time>
      </trkpt>
      <trkpt lat="44.24646" lon="0.77063">
        <ele>181.4</ele>
        <time>2021-05-09T08:47:50Z</time>
      </trkpt>
      <trkpt lat="44.24646" lon="0.7706">
        <ele>181.4</ele>
        <time>2021-05-09T08:47:53Z</time>
      </trkpt>
      <trkpt lat="44.24646" lon="0.77056">
        <ele>181.4</ele>
        <time>2021-05-09T08:47:55Z</time>
      </trkpt>
      <trkpt lat="44.24646" lon="0.77054">
        <ele>181.4</ele>
        <time>2021-05-09T08:47:57Z</time>
      </trkpt>
      <trkpt lat="44.24644" lon="0.77049">
        <ele>181.2</ele>
        <time>2021-05-09T08:47:59Z</time>
      </trkpt>
      <trkpt lat="44.24643" lon="0.77047">
        <ele>181.2</ele>
        <time>2021-05-09T08:48:00Z</time>
      </trkpt>
      <trkpt lat="44.24642" lon="0.77043">
        <ele>181.2</ele>
        <time>2021-05-09T08:48:02Z</time>
      </trkpt>
      <trkpt lat="44.2464" lon="0.77041">
        <ele>181</ele>
        <time>2021-05-09T08:48:04Z</time>
      </trkpt>
      <trkpt lat="44.24639" lon="0.77039">
        <ele>181</ele>
        <time>2021-05-09T08:48:05Z</time>
      </trkpt>
      <trkpt lat="44.24637" lon="0.77036">
        <ele>181</ele>
        <time>2021-05-09T08:48:07Z</time>
      </trkpt>
      <trkpt lat="44.24634" lon="0.77034">
        <ele>181</ele>
        <time>2021-05-09T08:48:09Z</time>
      </trkpt>
      <trkpt lat="44.24633" lon="0.77032">
        <ele>181</ele>
        <time>2021-05-09T08:48:11Z</time>
      </trkpt>
      <trkpt lat="44.24631" lon="0.7703">
        <ele>181.2</ele>
        <time>2021-05-09T08:48:15Z</time>
      </trkpt>
      <trkpt lat="44.24629" lon="0.77027">
        <ele>181.4</ele>
        <time>2021-05-09T08:48:18Z</time>
      </trkpt>
      <trkpt lat="44.24628" lon="0.77025">
        <ele>181.6</ele>
        <time>2021-05-09T08:48:20Z</time>
      </trkpt>
      <trkpt lat="44.24627" lon="0.77028">
        <ele>181.8</ele>
        <time>2021-05-09T08:48:30Z</time>
      </trkpt>
      <trkpt lat="44.24628" lon="0.77031">
        <ele>181.8</ele>
        <time>2021-05-09T08:48:51Z</time>
      </trkpt>
      <trkpt lat="44.24629" lon="0.77034">
        <ele>181.8</ele>
        <time>2021-05-09T08:48:52Z</time>
      </trkpt>
      <trkpt lat="44.24629" lon="0.77037">
        <ele>181.8</ele>
        <time>2021-05-09T08:48:53Z</time>
      </trkpt>
      <trkpt lat="44.24629" lon="0.7704">
        <ele>181.8</ele>
        <time>2021-05-09T08:48:54Z</time>
      </trkpt>
      <trkpt lat="44.24629" lon="0.77042">
        <ele>181.8</ele>
        <time>2021-05-09T08:48:55Z</time>
      </trkpt>
      <trkpt lat="44.2463" lon="0.77045">
        <ele>181.8</ele>
        <time>2021-05-09T08:48:56Z</time>
      </trkpt>
      <trkpt lat="44.24631" lon="0.77049">
        <ele>181.8</ele>
        <time>2021-05-09T08:48:58Z</time>
      </trkpt>
      <trkpt lat="44.24631" lon="0.77053">
        <ele>181.8</ele>
        <time>2021-05-09T08:49:00Z</time>
      </trkpt>
      <trkpt lat="44.24631" lon="0.77055">
        <ele>181.8</ele>
        <time>2021-05-09T08:49:02Z</time>
      </trkpt>
      <trkpt lat="44.24631" lon="0.77058">
        <ele>181.8</ele>
        <time>2021-05-09T08:49:04Z</time>
      </trkpt>
      <trkpt lat="44.24629" lon="0.77062">
        <ele>181.8</ele>
        <time>2021-05-09T08:49:06Z</time>
      </trkpt>
      <trkpt lat="44.2463" lon="0.77065">
        <ele>182</ele>
        <time>2021-05-09T08:49:08Z</time>
      </trkpt>
      <trkpt lat="44.24631" lon="0.77069">
        <ele>182.2</ele>
        <time>2021-05-09T08:49:10Z</time>
      </trkpt>
      <trkpt lat="44.24631" lon="0.77073">
        <ele>182.4</ele>
        <time>2021-05-09T08:49:13Z</time>
      </trkpt>
      <trkpt lat="44.2463" lon="0.77075">
        <ele>182.6</ele>
        <time>2021-05-09T08:49:15Z</time>
      </trkpt>
      <trkpt lat="44.2463" lon="0.77078">
        <ele>182.6</ele>
        <time>2021-05-09T08:49:17Z</time>
      </trkpt>
      <trkpt lat="44.24629" lon="0.77081">
        <ele>182.8</ele>
        <time>2021-05-09T08:49:19Z</time>
      </trkpt>
      <trkpt lat="44.24629" lon="0.77085">
        <ele>183</ele>
        <time>2021-05-09T08:49:22Z</time>
      </trkpt>
      <trkpt lat="44.24627" lon="0.77086">
        <ele>183.2</ele>
        <time>2021-05-09T08:49:24Z</time>
      </trkpt>
      <trkpt lat="44.24627" lon="0.77089">
        <ele>183.8</ele>
        <time>2021-05-09T08:49:30Z</time>
      </trkpt>
      <trkpt lat="44.24626" lon="0.77093">
        <ele>184.4</ele>
        <time>2021-05-09T08:49:33Z</time>
      </trkpt>
      <trkpt lat="44.24625" lon="0.77097">
        <ele>184.6</ele>
        <time>2021-05-09T08:49:35Z</time>
      </trkpt>
      <trkpt lat="44.24626" lon="0.771">
        <ele>185</ele>
        <time>2021-05-09T08:49:37Z</time>
      </trkpt>
      <trkpt lat="44.24626" lon="0.77103">
        <ele>185.4</ele>
        <time>2021-05-09T08:49:40Z</time>
      </trkpt>
      <trkpt lat="44.24625" lon="0.77106">
        <ele>185.8</ele>
        <time>2021-05-09T08:49:42Z</time>
      </trkpt>
      <trkpt lat="44.24624" lon="0.77109">
        <ele>186</ele>
        <time>2021-05-09T08:49:44Z</time>
      </trkpt>
      <trkpt lat="44.24623" lon="0.77112">
        <ele>186.6</ele>
        <time>2021-05-09T08:49:47Z</time>
      </trkpt>
      <trkpt lat="44.24623" lon="0.77116">
        <ele>187.2</ele>
        <time>2021-05-09T08:49:50Z</time>
      </trkpt>
      <trkpt lat="44.24623" lon="0.77118">
        <ele>187.4</ele>
        <time>2021-05-09T08:49:52Z</time>
      </trkpt>
      <trkpt lat="44.24624" lon="0.7712">
        <ele>187.8</ele>
        <time>2021-05-09T08:49:54Z</time>
      </trkpt>
      <trkpt lat="44.24625" lon="0.77124">
        <ele>188.2</ele>
        <time>2021-05-09T08:49:57Z</time>
      </trkpt>
      <trkpt lat="44.24625" lon="0.77128">
        <ele>188.4</ele>
        <time>2021-05-09T08:49:59Z</time>
      </trkpt>
      <trkpt lat="44.24624" lon="0.77131">
        <ele>188.8</ele>
        <time>2021-05-09T08:50:01Z</time>
      </trkpt>
      <trkpt lat="44.24623" lon="0.77135">
        <ele>189.2</ele>
        <time>2021-05-09T08:50:04Z</time>
      </trkpt>
      <trkpt lat="44.24622" lon="0.77138">
        <ele>189.4</ele>
        <time>2021-05-09T08:50:06Z</time>
      </trkpt>
      <trkpt lat="44.24621" lon="0.7714">
        <ele>189.6</ele>
        <time>2021-05-09T08:50:07Z</time>
      </trkpt>
      <trkpt lat="44.2462" lon="0.77144">
        <ele>190</ele>
        <time>2021-05-09T08:50:09Z</time>
      </trkpt>
      <trkpt lat="44.24619" lon="0.77148">
        <ele>190.4</ele>
        <time>2021-05-09T08:50:12Z</time>
      </trkpt>
      <trkpt lat="44.24619" lon="0.77151">
        <ele>191</ele>
        <time>2021-05-09T08:50:15Z</time>
      </trkpt>
      <trkpt lat="44.24617" lon="0.77154">
        <ele>191.6</ele>
        <time>2021-05-09T08:50:18Z</time>
      </trkpt>
      <trkpt lat="44.24617" lon="0.77157">
        <ele>191.8</ele>
        <time>2021-05-09T08:50:20Z</time>
      </trkpt>
      <trkpt lat="44.24615" lon="0.77159">
        <ele>192.2</ele>
        <time>2021-05-09T08:50:22Z</time>
      </trkpt>
      <trkpt lat="44.24614" lon="0.77161">
        <ele>192.4</ele>
        <time>2021-05-09T08:50:24Z</time>
      </trkpt>
      <trkpt lat="44.24612" lon="0.77165">
        <ele>192.6</ele>
        <time>2021-05-09T08:50:26Z</time>
      </trkpt>
      <trkpt lat="44.24611" lon="0.77167">
        <ele>192.6</ele>
        <time>2021-05-09T08:50:28Z</time>
      </trkpt>
      <trkpt lat="44.2461" lon="0.77171">
        <ele>192.4</ele>
        <time>2021-05-09T08:50:31Z</time>
      </trkpt>
      <trkpt lat="44.24611" lon="0.77176">
        <ele>192.2</ele>
        <time>2021-05-09T08:50:33Z</time>
      </trkpt>
      <trkpt lat="44.24609" lon="0.77178">
        <ele>192.2</ele>
        <time>2021-05-09T08:50:36Z</time>
      </trkpt>
      <trkpt lat="44.24606" lon="0.7718">
        <ele>192</ele>
        <time>2021-05-09T08:50:38Z</time>
      </trkpt>
      <trkpt lat="44.24604" lon="0.77182">
        <ele>192</ele>
        <time>2021-05-09T08:50:40Z</time>
      </trkpt>
      <trkpt lat="44.24603" lon="0.77184">
        <ele>191.8</ele>
        <time>2021-05-09T08:50:42Z</time>
      </trkpt>
      <trkpt lat="44.24601" lon="0.77185">
        <ele>191.8</ele>
        <time>2021-05-09T08:50:44Z</time>
      </trkpt>
      <trkpt lat="44.24598" lon="0.77187">
        <ele>191.6</ele>
        <time>2021-05-09T08:50:46Z</time>
      </trkpt>
      <trkpt lat="44.24597" lon="0.77189">
        <ele>191.6</ele>
        <time>2021-05-09T08:50:48Z</time>
      </trkpt>
      <trkpt lat="44.24595" lon="0.77191">
        <ele>191.6</ele>
        <time>2021-05-09T08:50:50Z</time>
      </trkpt>
      <trkpt lat="44.24592" lon="0.77192">
        <ele>191.6</ele>
        <time>2021-05-09T08:50:53Z</time>
      </trkpt>
      <trkpt lat="44.24589" lon="0.77195">
        <ele>191.8</ele>
        <time>2021-05-09T08:50:55Z</time>
      </trkpt>
      <trkpt lat="44.24588" lon="0.77199">
        <ele>191.8</ele>
        <time>2021-05-09T08:50:57Z</time>
      </trkpt>
      <trkpt lat="44.24587" lon="0.772">
        <ele>191.8</ele>
        <time>2021-05-09T08:50:58Z</time>
      </trkpt>
      <trkpt lat="44.24585" lon="0.77202">
        <ele>191.8</ele>
        <time>2021-05-09T08:51:00Z</time>
      </trkpt>
      <trkpt lat="44.24583" lon="0.77205">
        <ele>191.8</ele>
        <time>2021-05-09T08:51:02Z</time>
      </trkpt>
      <trkpt lat="44.24581" lon="0.77208">
        <ele>191.8</ele>
        <time>2021-05-09T08:51:04Z</time>
      </trkpt>
      <trkpt lat="44.2458" lon="0.7721">
        <ele>192</ele>
        <time>2021-05-09T08:51:06Z</time>
      </trkpt>
      <trkpt lat="44.24577" lon="0.77212">
        <ele>192</ele>
        <time>2021-05-09T08:51:09Z</time>
      </trkpt>
      <trkpt lat="44.24576" lon="0.77214">
        <ele>192</ele>
        <time>2021-05-09T08:51:11Z</time>
      </trkpt>
      <trkpt lat="44.24573" lon="0.77217">
        <ele>192.2</ele>
        <time>2021-05-09T08:51:14Z</time>
      </trkpt>
      <trkpt lat="44.24572" lon="0.7722">
        <ele>192.4</ele>
        <time>2021-05-09T08:51:16Z</time>
      </trkpt>
      <trkpt lat="44.24571" lon="0.77224">
        <ele>192.4</ele>
        <time>2021-05-09T08:51:18Z</time>
      </trkpt>
      <trkpt lat="44.24569" lon="0.77226">
        <ele>192.6</ele>
        <time>2021-05-09T08:51:20Z</time>
      </trkpt>
      <trkpt lat="44.24568" lon="0.7723">
        <ele>192.6</ele>
        <time>2021-05-09T08:51:22Z</time>
      </trkpt>
      <trkpt lat="44.24567" lon="0.77232">
        <ele>192.6</ele>
        <time>2021-05-09T08:51:24Z</time>
      </trkpt>
      <trkpt lat="44.24565" lon="0.77237">
        <ele>192.8</ele>
        <time>2021-05-09T08:51:28Z</time>
      </trkpt>
      <trkpt lat="44.24566" lon="0.7724">
        <ele>193</ele>
        <time>2021-05-09T08:51:30Z</time>
      </trkpt>
      <trkpt lat="44.24565" lon="0.77243">
        <ele>193</ele>
        <time>2021-05-09T08:51:32Z</time>
      </trkpt>
      <trkpt lat="44.24564" lon="0.77245">
        <ele>193</ele>
        <time>2021-05-09T08:51:34Z</time>
      </trkpt>
      <trkpt lat="44.24563" lon="0.77248">
        <ele>192.8</ele>
        <time>2021-05-09T08:51:37Z</time>
      </trkpt>
      <trkpt lat="44.24563" lon="0.77252">
        <ele>192.8</ele>
        <time>2021-05-09T08:51:40Z</time>
      </trkpt>
      <trkpt lat="44.24561" lon="0.77255">
        <ele>192.8</ele>
        <time>2021-05-09T08:51:42Z</time>
      </trkpt>
      <trkpt lat="44.2456" lon="0.77259">
        <ele>192.8</ele>
        <time>2021-05-09T08:51:44Z</time>
      </trkpt>
      <trkpt lat="44.2456" lon="0.77264">
        <ele>192.8</ele>
        <time>2021-05-09T08:51:46Z</time>
      </trkpt>
      <trkpt lat="44.24558" lon="0.7727">
        <ele>192.4</ele>
        <time>2021-05-09T08:52:00Z</time>
      </trkpt>
      <trkpt lat="44.24558" lon="0.77274">
        <ele>192.4</ele>
        <time>2021-05-09T08:52:03Z</time>
      </trkpt>
      <trkpt lat="44.24558" lon="0.77277">
        <ele>192.4</ele>
        <time>2021-05-09T08:52:05Z</time>
      </trkpt>
      <trkpt lat="44.24557" lon="0.7728">
        <ele>192.4</ele>
        <time>2021-05-09T08:52:07Z</time>
      </trkpt>
      <trkpt lat="44.24557" lon="0.77284">
        <ele>192.8</ele>
        <time>2021-05-09T08:52:10Z</time>
      </trkpt>
      <trkpt lat="44.24556" lon="0.77288">
        <ele>192.8</ele>
        <time>2021-05-09T08:52:13Z</time>
      </trkpt>
      <trkpt lat="44.24554" lon="0.77292">
        <ele>193</ele>
        <time>2021-05-09T08:52:15Z</time>
      </trkpt>
      <trkpt lat="44.24554" lon="0.77295">
        <ele>193</ele>
        <time>2021-05-09T08:52:17Z</time>
      </trkpt>
      <trkpt lat="44.24554" lon="0.77299">
        <ele>192.8</ele>
        <time>2021-05-09T08:52:19Z</time>
      </trkpt>
      <trkpt lat="44.24553" lon="0.77301">
        <ele>192.8</ele>
        <time>2021-05-09T08:52:21Z</time>
      </trkpt>
      <trkpt lat="44.24553" lon="0.77304">
        <ele>192.6</ele>
        <time>2021-05-09T08:52:23Z</time>
      </trkpt>
      <trkpt lat="44.24553" lon="0.77307">
        <ele>192.4</ele>
        <time>2021-05-09T08:52:25Z</time>
      </trkpt>
      <trkpt lat="44.24553" lon="0.77311">
        <ele>192.4</ele>
        <time>2021-05-09T08:52:27Z</time>
      </trkpt>
      <trkpt lat="44.24553" lon="0.77314">
        <ele>192.4</ele>
        <time>2021-05-09T08:52:29Z</time>
      </trkpt>
      <trkpt lat="44.24552" lon="0.77318">
        <ele>192.6</ele>
        <time>2021-05-09T08:52:32Z</time>
      </trkpt>
      <trkpt lat="44.24552" lon="0.77321">
        <ele>192.6</ele>
        <time>2021-05-09T08:52:34Z</time>
      </trkpt>
      <trkpt lat="44.24551" lon="0.77323">
        <ele>192.8</ele>
        <time>2021-05-09T08:52:36Z</time>
      </trkpt>
      <trkpt lat="44.24549" lon="0.77325">
        <ele>193</ele>
        <time>2021-05-09T08:52:38Z</time>
      </trkpt>
      <trkpt lat="44.24549" lon="0.77328">
        <ele>193</ele>
        <time>2021-05-09T08:52:39Z</time>
      </trkpt>
      <trkpt lat="44.24549" lon="0.77331">
        <ele>193.2</ele>
        <time>2021-05-09T08:52:41Z</time>
      </trkpt>
      <trkpt lat="44.24549" lon="0.77335">
        <ele>193.6</ele>
        <time>2021-05-09T08:52:45Z</time>
      </trkpt>
      <trkpt lat="44.24549" lon="0.77337">
        <ele>193.8</ele>
        <time>2021-05-09T08:52:47Z</time>
      </trkpt>
      <trkpt lat="44.24548" lon="0.77339">
        <ele>194</ele>
        <time>2021-05-09T08:52:48Z</time>
      </trkpt>
      <trkpt lat="44.24545" lon="0.77342">
        <ele>194.2</ele>
        <time>2021-05-09T08:52:50Z</time>
      </trkpt>
      <trkpt lat="44.24543" lon="0.77346">
        <ele>194.4</ele>
        <time>2021-05-09T08:52:52Z</time>
      </trkpt>
      <trkpt lat="44.24542" lon="0.77348">
        <ele>194.4</ele>
        <time>2021-05-09T08:52:53Z</time>
      </trkpt>
      <trkpt lat="44.24541" lon="0.77352">
        <ele>194.8</ele>
        <time>2021-05-09T08:52:55Z</time>
      </trkpt>
      <trkpt lat="44.24539" lon="0.77355">
        <ele>195</ele>
        <time>2021-05-09T08:52:57Z</time>
      </trkpt>
      <trkpt lat="44.24538" lon="0.77358">
        <ele>195.2</ele>
        <time>2021-05-09T08:52:58Z</time>
      </trkpt>
      <trkpt lat="44.24537" lon="0.77362">
        <ele>195.4</ele>
        <time>2021-05-09T08:53:00Z</time>
      </trkpt>
      <trkpt lat="44.24536" lon="0.77365">
        <ele>195.8</ele>
        <time>2021-05-09T08:53:02Z</time>
      </trkpt>
      <trkpt lat="44.24535" lon="0.77368">
        <ele>196</ele>
        <time>2021-05-09T08:53:04Z</time>
      </trkpt>
      <trkpt lat="44.24533" lon="0.7737">
        <ele>196.4</ele>
        <time>2021-05-09T08:53:06Z</time>
      </trkpt>
      <trkpt lat="44.24532" lon="0.77374">
        <ele>196.6</ele>
        <time>2021-05-09T08:53:08Z</time>
      </trkpt>
      <trkpt lat="44.24531" lon="0.77377">
        <ele>197.2</ele>
        <time>2021-05-09T08:53:11Z</time>
      </trkpt>
      <trkpt lat="44.24533" lon="0.77379">
        <ele>197.2</ele>
        <time>2021-05-09T08:53:12Z</time>
      </trkpt>
      <trkpt lat="44.24534" lon="0.77382">
        <ele>197.6</ele>
        <time>2021-05-09T08:53:14Z</time>
      </trkpt>
      <trkpt lat="44.24535" lon="0.77387">
        <ele>197.8</ele>
        <time>2021-05-09T08:53:16Z</time>
      </trkpt>
      <trkpt lat="44.24535" lon="0.7739">
        <ele>198</ele>
        <time>2021-05-09T08:53:17Z</time>
      </trkpt>
      <trkpt lat="44.24533" lon="0.77394">
        <ele>198.4</ele>
        <time>2021-05-09T08:53:19Z</time>
      </trkpt>
      <trkpt lat="44.24532" lon="0.77396">
        <ele>198.6</ele>
        <time>2021-05-09T08:53:21Z</time>
      </trkpt>
      <trkpt lat="44.24527" lon="0.77399">
        <ele>198.8</ele>
        <time>2021-05-09T08:53:22Z</time>
      </trkpt>
      <trkpt lat="44.24524" lon="0.77401">
        <ele>198.8</ele>
        <time>2021-05-09T08:53:23Z</time>
      </trkpt>
      <trkpt lat="44.2452" lon="0.77406">
        <ele>199</ele>
        <time>2021-05-09T08:53:24Z</time>
      </trkpt>
      <trkpt lat="44.24518" lon="0.77408">
        <ele>199.2</ele>
        <time>2021-05-09T08:53:25Z</time>
      </trkpt>
      <trkpt lat="44.24516" lon="0.77411">
        <ele>199.4</ele>
        <time>2021-05-09T08:53:26Z</time>
      </trkpt>
      <trkpt lat="44.24514" lon="0.77412">
        <ele>200</ele>
        <time>2021-05-09T08:53:29Z</time>
      </trkpt>
      <trkpt lat="44.24513" lon="0.77416">
        <ele>200.8</ele>
        <time>2021-05-09T08:53:33Z</time>
      </trkpt>
      <trkpt lat="44.24512" lon="0.7742">
        <ele>201.2</ele>
        <time>2021-05-09T08:53:35Z</time>
      </trkpt>
      <trkpt lat="44.24512" lon="0.77422">
        <ele>201.6</ele>
        <time>2021-05-09T08:53:38Z</time>
      </trkpt>
      <trkpt lat="44.24511" lon="0.77425">
        <ele>202.4</ele>
        <time>2021-05-09T08:53:43Z</time>
      </trkpt>
      <trkpt lat="44.24508" lon="0.77426">
        <ele>202.8</ele>
        <time>2021-05-09T08:53:45Z</time>
      </trkpt>
      <trkpt lat="44.24507" lon="0.77428">
        <ele>203</ele>
        <time>2021-05-09T08:53:47Z</time>
      </trkpt>
      <trkpt lat="44.24505" lon="0.77429">
        <ele>203</ele>
        <time>2021-05-09T08:53:49Z</time>
      </trkpt>
      <trkpt lat="44.24505" lon="0.77439">
        <ele>204</ele>
        <time>2021-05-09T08:53:58Z</time>
      </trkpt>
      <trkpt lat="44.24505" lon="0.77443">
        <ele>204.2</ele>
        <time>2021-05-09T08:54:01Z</time>
      </trkpt>
      <trkpt lat="44.24504" lon="0.77445">
        <ele>204.2</ele>
        <time>2021-05-09T08:54:03Z</time>
      </trkpt>
      <trkpt lat="44.24503" lon="0.77449">
        <ele>204.2</ele>
        <time>2021-05-09T08:54:05Z</time>
      </trkpt>
      <trkpt lat="44.24499" lon="0.7745">
        <ele>204.4</ele>
        <time>2021-05-09T08:54:07Z</time>
      </trkpt>
      <trkpt lat="44.24497" lon="0.7745">
        <ele>204.6</ele>
        <time>2021-05-09T08:54:09Z</time>
      </trkpt>
      <trkpt lat="44.24495" lon="0.7745">
        <ele>204.6</ele>
        <time>2021-05-09T08:54:12Z</time>
      </trkpt>
      <trkpt lat="44.24492" lon="0.7745">
        <ele>204.6</ele>
        <time>2021-05-09T08:54:14Z</time>
      </trkpt>
      <trkpt lat="44.24489" lon="0.7745">
        <ele>204.6</ele>
        <time>2021-05-09T08:54:16Z</time>
      </trkpt>
      <trkpt lat="44.24487" lon="0.7745">
        <ele>204.6</ele>
        <time>2021-05-09T08:54:17Z</time>
      </trkpt>
      <trkpt lat="44.24484" lon="0.7745">
        <ele>204.8</ele>
        <time>2021-05-09T08:54:19Z</time>
      </trkpt>
      <trkpt lat="44.24482" lon="0.77452">
        <ele>204.8</ele>
        <time>2021-05-09T08:54:21Z</time>
      </trkpt>
      <trkpt lat="44.2448" lon="0.7745">
        <ele>204.6</ele>
        <time>2021-05-09T08:54:23Z</time>
      </trkpt>
      <trkpt lat="44.24478" lon="0.77448">
        <ele>204.6</ele>
        <time>2021-05-09T08:54:25Z</time>
      </trkpt>
      <trkpt lat="44.24476" lon="0.77447">
        <ele>204.6</ele>
        <time>2021-05-09T08:54:27Z</time>
      </trkpt>
      <trkpt lat="44.24473" lon="0.77445">
        <ele>204.6</ele>
        <time>2021-05-09T08:54:29Z</time>
      </trkpt>
      <trkpt lat="44.2447" lon="0.77446">
        <ele>204.6</ele>
        <time>2021-05-09T08:54:31Z</time>
      </trkpt>
      <trkpt lat="44.24468" lon="0.77445">
        <ele>204.8</ele>
        <time>2021-05-09T08:54:34Z</time>
      </trkpt>
      <trkpt lat="44.24466" lon="0.77444">
        <ele>205</ele>
        <time>2021-05-09T08:54:36Z</time>
      </trkpt>
      <trkpt lat="44.24464" lon="0.77444">
        <ele>205</ele>
        <time>2021-05-09T08:54:38Z</time>
      </trkpt>
      <trkpt lat="44.24462" lon="0.77443">
        <ele>204.8</ele>
        <time>2021-05-09T08:54:40Z</time>
      </trkpt>
      <trkpt lat="44.2446" lon="0.77444">
        <ele>204.8</ele>
        <time>2021-05-09T08:54:42Z</time>
      </trkpt>
      <trkpt lat="44.24459" lon="0.77444">
        <ele>204.8</ele>
        <time>2021-05-09T08:54:43Z</time>
      </trkpt>
      <trkpt lat="44.24457" lon="0.77441">
        <ele>204.4</ele>
        <time>2021-05-09T08:54:45Z</time>
      </trkpt>
      <trkpt lat="44.24454" lon="0.77441">
        <ele>204.2</ele>
        <time>2021-05-09T08:54:47Z</time>
      </trkpt>
      <trkpt lat="44.24452" lon="0.7744">
        <ele>204.2</ele>
        <time>2021-05-09T08:54:49Z</time>
      </trkpt>
      <trkpt lat="44.2445" lon="0.7744">
        <ele>204</ele>
        <time>2021-05-09T08:54:51Z</time>
      </trkpt>
      <trkpt lat="44.24448" lon="0.77438">
        <ele>203.8</ele>
        <time>2021-05-09T08:54:53Z</time>
      </trkpt>
      <trkpt lat="44.24446" lon="0.77437">
        <ele>203.6</ele>
        <time>2021-05-09T08:54:55Z</time>
      </trkpt>
      <trkpt lat="44.24444" lon="0.77436">
        <ele>203.4</ele>
        <time>2021-05-09T08:54:57Z</time>
      </trkpt>
      <trkpt lat="44.24442" lon="0.77435">
        <ele>203.2</ele>
        <time>2021-05-09T08:54:59Z</time>
      </trkpt>
      <trkpt lat="44.24439" lon="0.77434">
        <ele>197.2</ele>
        <time>2021-05-09T08:55:50Z</time>
      </trkpt>
      <trkpt lat="44.24437" lon="0.77433">
        <ele>197.2</ele>
        <time>2021-05-09T08:55:51Z</time>
      </trkpt>
      <trkpt lat="44.24434" lon="0.77433">
        <ele>197</ele>
        <time>2021-05-09T08:55:53Z</time>
      </trkpt>
      <trkpt lat="44.2443" lon="0.77432">
        <ele>196.8</ele>
        <time>2021-05-09T08:55:55Z</time>
      </trkpt>
      <trkpt lat="44.24428" lon="0.77431">
        <ele>196.8</ele>
        <time>2021-05-09T08:55:56Z</time>
      </trkpt>
      <trkpt lat="44.24425" lon="0.7743">
        <ele>196.6</ele>
        <time>2021-05-09T08:55:58Z</time>
      </trkpt>
      <trkpt lat="44.24423" lon="0.77429">
        <ele>196.2</ele>
        <time>2021-05-09T08:56:00Z</time>
      </trkpt>
      <trkpt lat="44.2442" lon="0.77429">
        <ele>196</ele>
        <time>2021-05-09T08:56:02Z</time>
      </trkpt>
      <trkpt lat="44.24418" lon="0.77428">
        <ele>195.8</ele>
        <time>2021-05-09T08:56:04Z</time>
      </trkpt>
      <trkpt lat="44.24415" lon="0.77427">
        <ele>195.6</ele>
        <time>2021-05-09T08:56:06Z</time>
      </trkpt>
      <trkpt lat="44.24413" lon="0.77426">
        <ele>195.2</ele>
        <time>2021-05-09T08:56:09Z</time>
      </trkpt>
      <trkpt lat="44.2441" lon="0.77424">
        <ele>194.8</ele>
        <time>2021-05-09T08:56:11Z</time>
      </trkpt>
      <trkpt lat="44.24407" lon="0.77423">
        <ele>194.6</ele>
        <time>2021-05-09T08:56:13Z</time>
      </trkpt>
      <trkpt lat="44.24404" lon="0.77422">
        <ele>194.4</ele>
        <time>2021-05-09T08:56:14Z</time>
      </trkpt>
      <trkpt lat="44.24402" lon="0.77422">
        <ele>194</ele>
        <time>2021-05-09T08:56:16Z</time>
      </trkpt>
      <trkpt lat="44.24399" lon="0.77421">
        <ele>193.8</ele>
        <time>2021-05-09T08:56:18Z</time>
      </trkpt>
      <trkpt lat="44.24396" lon="0.7742">
        <ele>193.6</ele>
        <time>2021-05-09T08:56:20Z</time>
      </trkpt>
      <trkpt lat="44.24393" lon="0.77419">
        <ele>193.4</ele>
        <time>2021-05-09T08:56:22Z</time>
      </trkpt>
      <trkpt lat="44.2439" lon="0.77418">
        <ele>193.2</ele>
        <time>2021-05-09T08:56:24Z</time>
      </trkpt>
      <trkpt lat="44.24388" lon="0.77417">
        <ele>193</ele>
        <time>2021-05-09T08:56:26Z</time>
      </trkpt>
      <trkpt lat="44.24386" lon="0.77415">
        <ele>192.8</ele>
        <time>2021-05-09T08:56:28Z</time>
      </trkpt>
      <trkpt lat="44.24384" lon="0.77414">
        <ele>192.6</ele>
        <time>2021-05-09T08:56:30Z</time>
      </trkpt>
      <trkpt lat="44.24382" lon="0.77412">
        <ele>192.4</ele>
        <time>2021-05-09T08:56:32Z</time>
      </trkpt>
      <trkpt lat="44.24379" lon="0.7741">
        <ele>192.2</ele>
        <time>2021-05-09T08:56:35Z</time>
      </trkpt>
      <trkpt lat="44.24377" lon="0.7741">
        <ele>192</ele>
        <time>2021-05-09T08:56:37Z</time>
      </trkpt>
      <trkpt lat="44.24375" lon="0.77409">
        <ele>191.8</ele>
        <time>2021-05-09T08:56:39Z</time>
      </trkpt>
      <trkpt lat="44.24371" lon="0.77409">
        <ele>191.6</ele>
        <time>2021-05-09T08:56:41Z</time>
      </trkpt>
      <trkpt lat="44.24368" lon="0.77409">
        <ele>191.4</ele>
        <time>2021-05-09T08:56:43Z</time>
      </trkpt>
      <trkpt lat="44.24366" lon="0.77409">
        <ele>191.4</ele>
        <time>2021-05-09T08:56:44Z</time>
      </trkpt>
      <trkpt lat="44.24364" lon="0.7741">
        <ele>191.2</ele>
        <time>2021-05-09T08:56:45Z</time>
      </trkpt>
      <trkpt lat="44.24361" lon="0.7741">
        <ele>191.2</ele>
        <time>2021-05-09T08:56:47Z</time>
      </trkpt>
      <trkpt lat="44.24358" lon="0.7741">
        <ele>191.2</ele>
        <time>2021-05-09T08:56:49Z</time>
      </trkpt>
      <trkpt lat="44.24356" lon="0.7741">
        <ele>191.2</ele>
        <time>2021-05-09T08:56:51Z</time>
      </trkpt>
      <trkpt lat="44.24353" lon="0.7741">
        <ele>191</ele>
        <time>2021-05-09T08:56:53Z</time>
      </trkpt>
      <trkpt lat="44.24351" lon="0.77409">
        <ele>190.8</ele>
        <time>2021-05-09T08:56:55Z</time>
      </trkpt>
      <trkpt lat="44.24348" lon="0.77407">
        <ele>190.6</ele>
        <time>2021-05-09T08:56:57Z</time>
      </trkpt>
      <trkpt lat="44.24345" lon="0.77406">
        <ele>190.4</ele>
        <time>2021-05-09T08:56:59Z</time>
      </trkpt>
      <trkpt lat="44.24342" lon="0.77405">
        <ele>190.2</ele>
        <time>2021-05-09T08:57:01Z</time>
      </trkpt>
      <trkpt lat="44.2434" lon="0.77404">
        <ele>190</ele>
        <time>2021-05-09T08:57:03Z</time>
      </trkpt>
      <trkpt lat="44.24337" lon="0.77403">
        <ele>189.6</ele>
        <time>2021-05-09T08:57:05Z</time>
      </trkpt>
      <trkpt lat="44.24335" lon="0.77402">
        <ele>189.4</ele>
        <time>2021-05-09T08:57:07Z</time>
      </trkpt>
      <trkpt lat="44.24333" lon="0.77399">
        <ele>189.2</ele>
        <time>2021-05-09T08:57:09Z</time>
      </trkpt>
      <trkpt lat="44.24332" lon="0.77396">
        <ele>189</ele>
        <time>2021-05-09T08:57:11Z</time>
      </trkpt>
      <trkpt lat="44.2433" lon="0.77394">
        <ele>188.6</ele>
        <time>2021-05-09T08:57:13Z</time>
      </trkpt>
      <trkpt lat="44.24328" lon="0.77392">
        <ele>188.4</ele>
        <time>2021-05-09T08:57:15Z</time>
      </trkpt>
      <trkpt lat="44.24326" lon="0.77391">
        <ele>188.4</ele>
        <time>2021-05-09T08:57:17Z</time>
      </trkpt>
      <trkpt lat="44.24324" lon="0.7739">
        <ele>188.2</ele>
        <time>2021-05-09T08:57:19Z</time>
      </trkpt>
      <trkpt lat="44.24322" lon="0.77389">
        <ele>188</ele>
        <time>2021-05-09T08:57:21Z</time>
      </trkpt>
      <trkpt lat="44.2432" lon="0.77389">
        <ele>188</ele>
        <time>2021-05-09T08:57:22Z</time>
      </trkpt>
      <trkpt lat="44.24318" lon="0.77389">
        <ele>187.8</ele>
        <time>2021-05-09T08:57:24Z</time>
      </trkpt>
      <trkpt lat="44.24316" lon="0.77389">
        <ele>187.8</ele>
        <time>2021-05-09T08:57:26Z</time>
      </trkpt>
      <trkpt lat="44.24313" lon="0.77388">
        <ele>187.8</ele>
        <time>2021-05-09T08:57:28Z</time>
      </trkpt>
      <trkpt lat="44.24311" lon="0.77386">
        <ele>187.6</ele>
        <time>2021-05-09T08:57:29Z</time>
      </trkpt>
      <trkpt lat="44.24309" lon="0.77384">
        <ele>187.4</ele>
        <time>2021-05-09T08:57:31Z</time>
      </trkpt>
      <trkpt lat="44.24306" lon="0.77382">
        <ele>187.2</ele>
        <time>2021-05-09T08:57:33Z</time>
      </trkpt>
      <trkpt lat="44.24304" lon="0.77381">
        <ele>187</ele>
        <time>2021-05-09T08:57:34Z</time>
      </trkpt>
      <trkpt lat="44.24302" lon="0.77379">
        <ele>186.8</ele>
        <time>2021-05-09T08:57:36Z</time>
      </trkpt>
      <trkpt lat="44.24299" lon="0.77377">
        <ele>186.6</ele>
        <time>2021-05-09T08:57:38Z</time>
      </trkpt>
      <trkpt lat="44.24295" lon="0.77377">
        <ele>186.4</ele>
        <time>2021-05-09T08:57:40Z</time>
      </trkpt>
      <trkpt lat="44.24292" lon="0.77376">
        <ele>186.2</ele>
        <time>2021-05-09T08:57:42Z</time>
      </trkpt>
      <trkpt lat="44.2429" lon="0.77375">
        <ele>186</ele>
        <time>2021-05-09T08:57:44Z</time>
      </trkpt>
      <trkpt lat="44.24288" lon="0.77374">
        <ele>186</ele>
        <time>2021-05-09T08:57:46Z</time>
      </trkpt>
      <trkpt lat="44.24285" lon="0.77372">
        <ele>185.8</ele>
        <time>2021-05-09T08:57:49Z</time>
      </trkpt>
      <trkpt lat="44.24282" lon="0.77371">
        <ele>185.8</ele>
        <time>2021-05-09T08:57:51Z</time>
      </trkpt>
      <trkpt lat="44.24279" lon="0.7737">
        <ele>185.8</ele>
        <time>2021-05-09T08:57:53Z</time>
      </trkpt>
      <trkpt lat="44.24277" lon="0.77369">
        <ele>186</ele>
        <time>2021-05-09T08:57:54Z</time>
      </trkpt>
      <trkpt lat="44.24274" lon="0.77368">
        <ele>186</ele>
        <time>2021-05-09T08:57:56Z</time>
      </trkpt>
      <trkpt lat="44.24271" lon="0.77367">
        <ele>186</ele>
        <time>2021-05-09T08:57:58Z</time>
      </trkpt>
      <trkpt lat="44.24268" lon="0.77367">
        <ele>185.8</ele>
        <time>2021-05-09T08:58:00Z</time>
      </trkpt>
      <trkpt lat="44.24266" lon="0.77366">
        <ele>185.8</ele>
        <time>2021-05-09T08:58:01Z</time>
      </trkpt>
      <trkpt lat="44.24264" lon="0.77365">
        <ele>186</ele>
        <time>2021-05-09T08:58:03Z</time>
      </trkpt>
      <trkpt lat="44.24261" lon="0.77363">
        <ele>186</ele>
        <time>2021-05-09T08:58:05Z</time>
      </trkpt>
      <trkpt lat="44.2426" lon="0.77362">
        <ele>186.2</ele>
        <time>2021-05-09T08:58:06Z</time>
      </trkpt>
      <trkpt lat="44.24257" lon="0.77361">
        <ele>186.2</ele>
        <time>2021-05-09T08:58:08Z</time>
      </trkpt>
      <trkpt lat="44.24255" lon="0.77358">
        <ele>186.2</ele>
        <time>2021-05-09T08:58:10Z</time>
      </trkpt>
      <trkpt lat="44.24252" lon="0.77356">
        <ele>186.4</ele>
        <time>2021-05-09T08:58:12Z</time>
      </trkpt>
      <trkpt lat="44.24251" lon="0.77354">
        <ele>186.6</ele>
        <time>2021-05-09T08:58:14Z</time>
      </trkpt>
      <trkpt lat="44.2425" lon="0.77351">
        <ele>186.6</ele>
        <time>2021-05-09T08:58:16Z</time>
      </trkpt>
      <trkpt lat="44.24249" lon="0.77347">
        <ele>186.6</ele>
        <time>2021-05-09T08:58:18Z</time>
      </trkpt>
      <trkpt lat="44.24245" lon="0.77345">
        <ele>186.4</ele>
        <time>2021-05-09T08:58:20Z</time>
      </trkpt>
      <trkpt lat="44.24243" lon="0.77343">
        <ele>186.4</ele>
        <time>2021-05-09T08:58:22Z</time>
      </trkpt>
      <trkpt lat="44.24242" lon="0.7734">
        <ele>186.4</ele>
        <time>2021-05-09T08:58:24Z</time>
      </trkpt>
      <trkpt lat="44.24241" lon="0.77336">
        <ele>186.4</ele>
        <time>2021-05-09T08:58:26Z</time>
      </trkpt>
      <trkpt lat="44.2424" lon="0.77332">
        <ele>186.2</ele>
        <time>2021-05-09T08:58:29Z</time>
      </trkpt>
      <trkpt lat="44.24237" lon="0.77331">
        <ele>186.2</ele>
        <time>2021-05-09T08:58:31Z</time>
      </trkpt>
      <trkpt lat="44.24235" lon="0.77329">
        <ele>186.2</ele>
        <time>2021-05-09T08:58:33Z</time>
      </trkpt>
      <trkpt lat="44.24232" lon="0.77327">
        <ele>186.2</ele>
        <time>2021-05-09T08:58:35Z</time>
      </trkpt>
      <trkpt lat="44.24229" lon="0.77326">
        <ele>186.4</ele>
        <time>2021-05-09T08:58:37Z</time>
      </trkpt>
      <trkpt lat="44.24228" lon="0.77325">
        <ele>186.6</ele>
        <time>2021-05-09T08:58:39Z</time>
      </trkpt>
      <trkpt lat="44.24225" lon="0.77323">
        <ele>187</ele>
        <time>2021-05-09T08:58:42Z</time>
      </trkpt>
      <trkpt lat="44.24223" lon="0.77322">
        <ele>187</ele>
        <time>2021-05-09T08:58:43Z</time>
      </trkpt>
      <trkpt lat="44.24221" lon="0.7732">
        <ele>187.2</ele>
        <time>2021-05-09T08:58:46Z</time>
      </trkpt>
      <trkpt lat="44.24219" lon="0.77319">
        <ele>187.4</ele>
        <time>2021-05-09T08:58:48Z</time>
      </trkpt>
      <trkpt lat="44.24217" lon="0.77317">
        <ele>187.6</ele>
        <time>2021-05-09T08:58:50Z</time>
      </trkpt>
      <trkpt lat="44.24215" lon="0.77316">
        <ele>187.6</ele>
        <time>2021-05-09T08:58:52Z</time>
      </trkpt>
      <trkpt lat="44.24213" lon="0.77315">
        <ele>187.4</ele>
        <time>2021-05-09T08:58:54Z</time>
      </trkpt>
      <trkpt lat="44.2421" lon="0.77313">
        <ele>187.2</ele>
        <time>2021-05-09T08:58:56Z</time>
      </trkpt>
      <trkpt lat="44.24208" lon="0.77312">
        <ele>187</ele>
        <time>2021-05-09T08:58:59Z</time>
      </trkpt>
      <trkpt lat="44.24205" lon="0.77311">
        <ele>186.8</ele>
        <time>2021-05-09T08:59:01Z</time>
      </trkpt>
      <trkpt lat="44.24203" lon="0.77309">
        <ele>186.6</ele>
        <time>2021-05-09T08:59:03Z</time>
      </trkpt>
      <trkpt lat="44.24201" lon="0.77306">
        <ele>186.4</ele>
        <time>2021-05-09T08:59:05Z</time>
      </trkpt>
      <trkpt lat="44.24199" lon="0.77304">
        <ele>186</ele>
        <time>2021-05-09T08:59:08Z</time>
      </trkpt>
      <trkpt lat="44.24199" lon="0.77301">
        <ele>185.6</ele>
        <time>2021-05-09T08:59:10Z</time>
      </trkpt>
      <trkpt lat="44.24198" lon="0.77298">
        <ele>185.4</ele>
        <time>2021-05-09T08:59:13Z</time>
      </trkpt>
      <trkpt lat="44.24196" lon="0.77297">
        <ele>185.2</ele>
        <time>2021-05-09T08:59:15Z</time>
      </trkpt>
      <trkpt lat="44.2419" lon="0.773">
        <ele>187.4</ele>
        <time>2021-05-09T09:00:10Z</time>
      </trkpt>
      <trkpt lat="44.24188" lon="0.77301">
        <ele>187.4</ele>
        <time>2021-05-09T09:00:12Z</time>
      </trkpt>
      <trkpt lat="44.24186" lon="0.77302">
        <ele>187.4</ele>
        <time>2021-05-09T09:00:14Z</time>
      </trkpt>
      <trkpt lat="44.2418" lon="0.77295">
        <ele>187</ele>
        <time>2021-05-09T09:00:31Z</time>
      </trkpt>
      <trkpt lat="44.24178" lon="0.77294">
        <ele>187</ele>
        <time>2021-05-09T09:00:32Z</time>
      </trkpt>
      <trkpt lat="44.24176" lon="0.77294">
        <ele>187</ele>
        <time>2021-05-09T09:00:33Z</time>
      </trkpt>
      <trkpt lat="44.24174" lon="0.77292">
        <ele>187</ele>
        <time>2021-05-09T09:00:34Z</time>
      </trkpt>
      <trkpt lat="44.24172" lon="0.77291">
        <ele>187</ele>
        <time>2021-05-09T09:00:35Z</time>
      </trkpt>
      <trkpt lat="44.24171" lon="0.77289">
        <ele>187</ele>
        <time>2021-05-09T09:00:36Z</time>
      </trkpt>
      <trkpt lat="44.24169" lon="0.77286">
        <ele>187</ele>
        <time>2021-05-09T09:00:38Z</time>
      </trkpt>
      <trkpt lat="44.24167" lon="0.77283">
        <ele>186.8</ele>
        <time>2021-05-09T09:00:40Z</time>
      </trkpt>
      <trkpt lat="44.24165" lon="0.7728">
        <ele>186.8</ele>
        <time>2021-05-09T09:00:42Z</time>
      </trkpt>
      <trkpt lat="44.24165" lon="0.77275">
        <ele>186.6</ele>
        <time>2021-05-09T09:00:44Z</time>
      </trkpt>
      <trkpt lat="44.24165" lon="0.77271">
        <ele>186.4</ele>
        <time>2021-05-09T09:00:46Z</time>
      </trkpt>
      <trkpt lat="44.24165" lon="0.77268">
        <ele>186.4</ele>
        <time>2021-05-09T09:00:48Z</time>
      </trkpt>
      <trkpt lat="44.24164" lon="0.77266">
        <ele>186.2</ele>
        <time>2021-05-09T09:00:50Z</time>
      </trkpt>
      <trkpt lat="44.24162" lon="0.77263">
        <ele>186.2</ele>
        <time>2021-05-09T09:00:52Z</time>
      </trkpt>
      <trkpt lat="44.24162" lon="0.77261">
        <ele>186</ele>
        <time>2021-05-09T09:00:54Z</time>
      </trkpt>
      <trkpt lat="44.24162" lon="0.77258">
        <ele>186.2</ele>
        <time>2021-05-09T09:00:56Z</time>
      </trkpt>
      <trkpt lat="44.24164" lon="0.77256">
        <ele>186.4</ele>
        <time>2021-05-09T09:00:58Z</time>
      </trkpt>
      <trkpt lat="44.24165" lon="0.77254">
        <ele>186.6</ele>
        <time>2021-05-09T09:01:00Z</time>
      </trkpt>
      <trkpt lat="44.24167" lon="0.77251">
        <ele>186.8</ele>
        <time>2021-05-09T09:01:03Z</time>
      </trkpt>
      <trkpt lat="44.24168" lon="0.77248">
        <ele>187</ele>
        <time>2021-05-09T09:01:06Z</time>
      </trkpt>
      <trkpt lat="44.24169" lon="0.77243">
        <ele>187.2</ele>
        <time>2021-05-09T09:01:08Z</time>
      </trkpt>
      <trkpt lat="44.24167" lon="0.77241">
        <ele>187.4</ele>
        <time>2021-05-09T09:01:10Z</time>
      </trkpt>
      <trkpt lat="44.24165" lon="0.77238">
        <ele>187.4</ele>
        <time>2021-05-09T09:01:12Z</time>
      </trkpt>
      <trkpt lat="44.24163" lon="0.77235">
        <ele>187.6</ele>
        <time>2021-05-09T09:01:14Z</time>
      </trkpt>
      <trkpt lat="44.24162" lon="0.77231">
        <ele>187.8</ele>
        <time>2021-05-09T09:01:16Z</time>
      </trkpt>
      <trkpt lat="44.24161" lon="0.77227">
        <ele>188</ele>
        <time>2021-05-09T09:01:18Z</time>
      </trkpt>
      <trkpt lat="44.2416" lon="0.77223">
        <ele>188</ele>
        <time>2021-05-09T09:01:20Z</time>
      </trkpt>
      <trkpt lat="44.24158" lon="0.77219">
        <ele>188</ele>
        <time>2021-05-09T09:01:22Z</time>
      </trkpt>
      <trkpt lat="44.24157" lon="0.77217">
        <ele>188.2</ele>
        <time>2021-05-09T09:01:23Z</time>
      </trkpt>
      <trkpt lat="44.24156" lon="0.77214">
        <ele>188.2</ele>
        <time>2021-05-09T09:01:25Z</time>
      </trkpt>
      <trkpt lat="44.24154" lon="0.77211">
        <ele>188.2</ele>
        <time>2021-05-09T09:01:27Z</time>
      </trkpt>
      <trkpt lat="44.24152" lon="0.77207">
        <ele>188.2</ele>
        <time>2021-05-09T09:01:29Z</time>
      </trkpt>
      <trkpt lat="44.24151" lon="0.77203">
        <ele>188.2</ele>
        <time>2021-05-09T09:01:31Z</time>
      </trkpt>
      <trkpt lat="44.24149" lon="0.77201">
        <ele>188.4</ele>
        <time>2021-05-09T09:01:33Z</time>
      </trkpt>
      <trkpt lat="44.24147" lon="0.77197">
        <ele>188.4</ele>
        <time>2021-05-09T09:01:35Z</time>
      </trkpt>
      <trkpt lat="44.24146" lon="0.77195">
        <ele>188.2</ele>
        <time>2021-05-09T09:01:37Z</time>
      </trkpt>
      <trkpt lat="44.24144" lon="0.77192">
        <ele>188</ele>
        <time>2021-05-09T09:01:39Z</time>
      </trkpt>
      <trkpt lat="44.24142" lon="0.77189">
        <ele>187.6</ele>
        <time>2021-05-09T09:01:41Z</time>
      </trkpt>
      <trkpt lat="44.24141" lon="0.77186">
        <ele>187.4</ele>
        <time>2021-05-09T09:01:43Z</time>
      </trkpt>
      <trkpt lat="44.24139" lon="0.77183">
        <ele>187.2</ele>
        <time>2021-05-09T09:01:45Z</time>
      </trkpt>
      <trkpt lat="44.24138" lon="0.7718">
        <ele>186.8</ele>
        <time>2021-05-09T09:01:47Z</time>
      </trkpt>
      <trkpt lat="44.24136" lon="0.77176">
        <ele>186.6</ele>
        <time>2021-05-09T09:01:49Z</time>
      </trkpt>
      <trkpt lat="44.24135" lon="0.77174">
        <ele>186.2</ele>
        <time>2021-05-09T09:01:51Z</time>
      </trkpt>
      <trkpt lat="44.24134" lon="0.77171">
        <ele>186</ele>
        <time>2021-05-09T09:01:53Z</time>
      </trkpt>
      <trkpt lat="44.24134" lon="0.77168">
        <ele>185.8</ele>
        <time>2021-05-09T09:01:55Z</time>
      </trkpt>
      <trkpt lat="44.24132" lon="0.77166">
        <ele>185.8</ele>
        <time>2021-05-09T09:01:57Z</time>
      </trkpt>
      <trkpt lat="44.24132" lon="0.77163">
        <ele>185.8</ele>
        <time>2021-05-09T09:01:59Z</time>
      </trkpt>
      <trkpt lat="44.24131" lon="0.7716">
        <ele>185.8</ele>
        <time>2021-05-09T09:02:01Z</time>
      </trkpt>
      <trkpt lat="44.2413" lon="0.77157">
        <ele>185.8</ele>
        <time>2021-05-09T09:02:03Z</time>
      </trkpt>
      <trkpt lat="44.24128" lon="0.77155">
        <ele>185.6</ele>
        <time>2021-05-09T09:02:05Z</time>
      </trkpt>
      <trkpt lat="44.24127" lon="0.77152">
        <ele>185.6</ele>
        <time>2021-05-09T09:02:07Z</time>
      </trkpt>
      <trkpt lat="44.24126" lon="0.77148">
        <ele>185.4</ele>
        <time>2021-05-09T09:02:09Z</time>
      </trkpt>
      <trkpt lat="44.24125" lon="0.77145">
        <ele>185.4</ele>
        <time>2021-05-09T09:02:11Z</time>
      </trkpt>
      <trkpt lat="44.24124" lon="0.77141">
        <ele>185.2</ele>
        <time>2021-05-09T09:02:13Z</time>
      </trkpt>
      <trkpt lat="44.24124" lon="0.77138">
        <ele>185</ele>
        <time>2021-05-09T09:02:15Z</time>
      </trkpt>
      <trkpt lat="44.24123" lon="0.77135">
        <ele>184.8</ele>
        <time>2021-05-09T09:02:17Z</time>
      </trkpt>
      <trkpt lat="44.24122" lon="0.77132">
        <ele>184.6</ele>
        <time>2021-05-09T09:02:19Z</time>
      </trkpt>
      <trkpt lat="44.24122" lon="0.77128">
        <ele>184.4</ele>
        <time>2021-05-09T09:02:21Z</time>
      </trkpt>
      <trkpt lat="44.2412" lon="0.77125">
        <ele>184.2</ele>
        <time>2021-05-09T09:02:23Z</time>
      </trkpt>
      <trkpt lat="44.24119" lon="0.77122">
        <ele>184</ele>
        <time>2021-05-09T09:02:25Z</time>
      </trkpt>
      <trkpt lat="44.24118" lon="0.77119">
        <ele>184</ele>
        <time>2021-05-09T09:02:27Z</time>
      </trkpt>
      <trkpt lat="44.24117" lon="0.77115">
        <ele>183.8</ele>
        <time>2021-05-09T09:02:29Z</time>
      </trkpt>
      <trkpt lat="44.24116" lon="0.77112">
        <ele>183.6</ele>
        <time>2021-05-09T09:02:31Z</time>
      </trkpt>
      <trkpt lat="44.24116" lon="0.77109">
        <ele>183.4</ele>
        <time>2021-05-09T09:02:33Z</time>
      </trkpt>
      <trkpt lat="44.24114" lon="0.77106">
        <ele>183</ele>
        <time>2021-05-09T09:02:35Z</time>
      </trkpt>
      <trkpt lat="44.24114" lon="0.77103">
        <ele>182.6</ele>
        <time>2021-05-09T09:02:37Z</time>
      </trkpt>
      <trkpt lat="44.24112" lon="0.77101">
        <ele>182.4</ele>
        <time>2021-05-09T09:02:39Z</time>
      </trkpt>
      <trkpt lat="44.2411" lon="0.77099">
        <ele>182.2</ele>
        <time>2021-05-09T09:02:41Z</time>
      </trkpt>
      <trkpt lat="44.24108" lon="0.77098">
        <ele>182</ele>
        <time>2021-05-09T09:02:43Z</time>
      </trkpt>
      <trkpt lat="44.24106" lon="0.77095">
        <ele>182</ele>
        <time>2021-05-09T09:02:45Z</time>
      </trkpt>
      <trkpt lat="44.24104" lon="0.77094">
        <ele>182</ele>
        <time>2021-05-09T09:02:47Z</time>
      </trkpt>
      <trkpt lat="44.24104" lon="0.77091">
        <ele>182</ele>
        <time>2021-05-09T09:02:49Z</time>
      </trkpt>
      <trkpt lat="44.24102" lon="0.77089">
        <ele>182.2</ele>
        <time>2021-05-09T09:02:51Z</time>
      </trkpt>
      <trkpt lat="44.24101" lon="0.77086">
        <ele>182.4</ele>
        <time>2021-05-09T09:02:53Z</time>
      </trkpt>
      <trkpt lat="44.24099" lon="0.77084">
        <ele>182.4</ele>
        <time>2021-05-09T09:02:55Z</time>
      </trkpt>
      <trkpt lat="44.24097" lon="0.77082">
        <ele>182.4</ele>
        <time>2021-05-09T09:02:57Z</time>
      </trkpt>
      <trkpt lat="44.24095" lon="0.7708">
        <ele>182.6</ele>
        <time>2021-05-09T09:02:59Z</time>
      </trkpt>
      <trkpt lat="44.24093" lon="0.77078">
        <ele>182.6</ele>
        <time>2021-05-09T09:03:01Z</time>
      </trkpt>
      <trkpt lat="44.24092" lon="0.77076">
        <ele>182.6</ele>
        <time>2021-05-09T09:03:03Z</time>
      </trkpt>
      <trkpt lat="44.2409" lon="0.77073">
        <ele>182.8</ele>
        <time>2021-05-09T09:03:05Z</time>
      </trkpt>
      <trkpt lat="44.24088" lon="0.77071">
        <ele>182.8</ele>
        <time>2021-05-09T09:03:07Z</time>
      </trkpt>
      <trkpt lat="44.24087" lon="0.77068">
        <ele>183</ele>
        <time>2021-05-09T09:03:09Z</time>
      </trkpt>
      <trkpt lat="44.24086" lon="0.77065">
        <ele>183.2</ele>
        <time>2021-05-09T09:03:11Z</time>
      </trkpt>
      <trkpt lat="44.24084" lon="0.77063">
        <ele>183.2</ele>
        <time>2021-05-09T09:03:13Z</time>
      </trkpt>
      <trkpt lat="44.24082" lon="0.77061">
        <ele>183.2</ele>
        <time>2021-05-09T09:03:15Z</time>
      </trkpt>
      <trkpt lat="44.24081" lon="0.77058">
        <ele>183.2</ele>
        <time>2021-05-09T09:03:17Z</time>
      </trkpt>
      <trkpt lat="44.24078" lon="0.77056">
        <ele>183.4</ele>
        <time>2021-05-09T09:03:19Z</time>
      </trkpt>
      <trkpt lat="44.24076" lon="0.77054">
        <ele>183.6</ele>
        <time>2021-05-09T09:03:21Z</time>
      </trkpt>
      <trkpt lat="44.24073" lon="0.77052">
        <ele>184</ele>
        <time>2021-05-09T09:03:23Z</time>
      </trkpt>
      <trkpt lat="44.24071" lon="0.7705">
        <ele>184.2</ele>
        <time>2021-05-09T09:03:25Z</time>
      </trkpt>
      <trkpt lat="44.2407" lon="0.77047">
        <ele>184.4</ele>
        <time>2021-05-09T09:03:27Z</time>
      </trkpt>
      <trkpt lat="44.24068" lon="0.77044">
        <ele>184.4</ele>
        <time>2021-05-09T09:03:29Z</time>
      </trkpt>
      <trkpt lat="44.24068" lon="0.77041">
        <ele>184.6</ele>
        <time>2021-05-09T09:03:31Z</time>
      </trkpt>
      <trkpt lat="44.24068" lon="0.77038">
        <ele>184.6</ele>
        <time>2021-05-09T09:03:33Z</time>
      </trkpt>
      <trkpt lat="44.24068" lon="0.77035">
        <ele>184.6</ele>
        <time>2021-05-09T09:03:36Z</time>
      </trkpt>
      <trkpt lat="44.2407" lon="0.77032">
        <ele>184.6</ele>
        <time>2021-05-09T09:03:38Z</time>
      </trkpt>
      <trkpt lat="44.24072" lon="0.7703">
        <ele>184.8</ele>
        <time>2021-05-09T09:03:40Z</time>
      </trkpt>
      <trkpt lat="44.24073" lon="0.77023">
        <ele>185</ele>
        <time>2021-05-09T09:03:47Z</time>
      </trkpt>
      <trkpt lat="44.24074" lon="0.7702">
        <ele>185</ele>
        <time>2021-05-09T09:03:49Z</time>
      </trkpt>
      <trkpt lat="44.24075" lon="0.77017">
        <ele>185</ele>
        <time>2021-05-09T09:03:51Z</time>
      </trkpt>
      <trkpt lat="44.24074" lon="0.77014">
        <ele>185</ele>
        <time>2021-05-09T09:03:53Z</time>
      </trkpt>
      <trkpt lat="44.24074" lon="0.77011">
        <ele>185</ele>
        <time>2021-05-09T09:03:55Z</time>
      </trkpt>
      <trkpt lat="44.24073" lon="0.77007">
        <ele>185</ele>
        <time>2021-05-09T09:03:57Z</time>
      </trkpt>
      <trkpt lat="44.24073" lon="0.77004">
        <ele>185.2</ele>
        <time>2021-05-09T09:03:59Z</time>
      </trkpt>
      <trkpt lat="44.24073" lon="0.77">
        <ele>185.4</ele>
        <time>2021-05-09T09:04:01Z</time>
      </trkpt>
      <trkpt lat="44.24073" lon="0.76997">
        <ele>185.4</ele>
        <time>2021-05-09T09:04:03Z</time>
      </trkpt>
      <trkpt lat="44.24073" lon="0.76993">
        <ele>185.4</ele>
        <time>2021-05-09T09:04:05Z</time>
      </trkpt>
      <trkpt lat="44.24073" lon="0.7699">
        <ele>185.4</ele>
        <time>2021-05-09T09:04:07Z</time>
      </trkpt>
      <trkpt lat="44.24073" lon="0.76987">
        <ele>185.4</ele>
        <time>2021-05-09T09:04:09Z</time>
      </trkpt>
      <trkpt lat="44.24074" lon="0.76984">
        <ele>185.4</ele>
        <time>2021-05-09T09:04:11Z</time>
      </trkpt>
      <trkpt lat="44.24075" lon="0.76981">
        <ele>185.4</ele>
        <time>2021-05-09T09:04:13Z</time>
      </trkpt>
      <trkpt lat="44.24075" lon="0.76977">
        <ele>185.2</ele>
        <time>2021-05-09T09:04:15Z</time>
      </trkpt>
      <trkpt lat="44.24075" lon="0.76974">
        <ele>185.2</ele>
        <time>2021-05-09T09:04:17Z</time>
      </trkpt>
      <trkpt lat="44.24075" lon="0.7697">
        <ele>185</ele>
        <time>2021-05-09T09:04:19Z</time>
      </trkpt>
      <trkpt lat="44.24075" lon="0.76967">
        <ele>185</ele>
        <time>2021-05-09T09:04:21Z</time>
      </trkpt>
      <trkpt lat="44.24075" lon="0.76963">
        <ele>184.8</ele>
        <time>2021-05-09T09:04:23Z</time>
      </trkpt>
      <trkpt lat="44.24075" lon="0.76961">
        <ele>184.6</ele>
        <time>2021-05-09T09:04:25Z</time>
      </trkpt>
      <trkpt lat="44.24075" lon="0.76957">
        <ele>184.2</ele>
        <time>2021-05-09T09:04:27Z</time>
      </trkpt>
      <trkpt lat="44.24077" lon="0.76954">
        <ele>184</ele>
        <time>2021-05-09T09:04:29Z</time>
      </trkpt>
      <trkpt lat="44.24077" lon="0.7695">
        <ele>183.8</ele>
        <time>2021-05-09T09:04:31Z</time>
      </trkpt>
      <trkpt lat="44.24076" lon="0.76946">
        <ele>183.8</ele>
        <time>2021-05-09T09:04:33Z</time>
      </trkpt>
      <trkpt lat="44.24077" lon="0.76943">
        <ele>183.8</ele>
        <time>2021-05-09T09:04:35Z</time>
      </trkpt>
      <trkpt lat="44.24077" lon="0.76939">
        <ele>183.8</ele>
        <time>2021-05-09T09:04:37Z</time>
      </trkpt>
      <trkpt lat="44.24077" lon="0.76936">
        <ele>183.6</ele>
        <time>2021-05-09T09:04:39Z</time>
      </trkpt>
      <trkpt lat="44.24078" lon="0.76933">
        <ele>183.6</ele>
        <time>2021-05-09T09:04:41Z</time>
      </trkpt>
      <trkpt lat="44.24078" lon="0.76929">
        <ele>183.6</ele>
        <time>2021-05-09T09:04:43Z</time>
      </trkpt>
      <trkpt lat="44.24078" lon="0.76926">
        <ele>183.4</ele>
        <time>2021-05-09T09:04:45Z</time>
      </trkpt>
      <trkpt lat="44.24078" lon="0.76922">
        <ele>183.4</ele>
        <time>2021-05-09T09:04:47Z</time>
      </trkpt>
      <trkpt lat="44.24078" lon="0.76919">
        <ele>183.2</ele>
        <time>2021-05-09T09:04:49Z</time>
      </trkpt>
      <trkpt lat="44.24079" lon="0.76915">
        <ele>183.2</ele>
        <time>2021-05-09T09:04:51Z</time>
      </trkpt>
      <trkpt lat="44.24079" lon="0.76912">
        <ele>183.4</ele>
        <time>2021-05-09T09:04:53Z</time>
      </trkpt>
      <trkpt lat="44.24079" lon="0.7691">
        <ele>183.2</ele>
        <time>2021-05-09T09:04:55Z</time>
      </trkpt>
      <trkpt lat="44.24078" lon="0.76906">
        <ele>183.2</ele>
        <time>2021-05-09T09:04:57Z</time>
      </trkpt>
      <trkpt lat="44.24078" lon="0.76902">
        <ele>183.2</ele>
        <time>2021-05-09T09:04:59Z</time>
      </trkpt>
      <trkpt lat="44.24078" lon="0.76899">
        <ele>183.2</ele>
        <time>2021-05-09T09:05:02Z</time>
      </trkpt>
      <trkpt lat="44.24079" lon="0.76891">
        <ele>184.2</ele>
        <time>2021-05-09T09:05:17Z</time>
      </trkpt>
      <trkpt lat="44.24079" lon="0.76888">
        <ele>184.4</ele>
        <time>2021-05-09T09:05:19Z</time>
      </trkpt>
      <trkpt lat="44.24079" lon="0.76884">
        <ele>184.8</ele>
        <time>2021-05-09T09:05:22Z</time>
      </trkpt>
      <trkpt lat="44.24078" lon="0.76881">
        <ele>185.2</ele>
        <time>2021-05-09T09:05:25Z</time>
      </trkpt>
      <trkpt lat="44.24078" lon="0.76877">
        <ele>185.6</ele>
        <time>2021-05-09T09:05:28Z</time>
      </trkpt>
      <trkpt lat="44.24079" lon="0.76873">
        <ele>185.8</ele>
        <time>2021-05-09T09:05:30Z</time>
      </trkpt>
      <trkpt lat="44.24079" lon="0.76869">
        <ele>185.8</ele>
        <time>2021-05-09T09:05:32Z</time>
      </trkpt>
      <trkpt lat="44.24079" lon="0.76866">
        <ele>186</ele>
        <time>2021-05-09T09:05:34Z</time>
      </trkpt>
      <trkpt lat="44.24079" lon="0.76862">
        <ele>186</ele>
        <time>2021-05-09T09:05:36Z</time>
      </trkpt>
      <trkpt lat="44.2408" lon="0.76859">
        <ele>186</ele>
        <time>2021-05-09T09:05:38Z</time>
      </trkpt>
      <trkpt lat="44.2408" lon="0.76856">
        <ele>186</ele>
        <time>2021-05-09T09:05:40Z</time>
      </trkpt>
      <trkpt lat="44.2408" lon="0.76853">
        <ele>186</ele>
        <time>2021-05-09T09:05:42Z</time>
      </trkpt>
      <trkpt lat="44.24081" lon="0.7685">
        <ele>186</ele>
        <time>2021-05-09T09:05:45Z</time>
      </trkpt>
      <trkpt lat="44.24083" lon="0.76846">
        <ele>187</ele>
        <time>2021-05-09T09:06:18Z</time>
      </trkpt>
      <trkpt lat="44.24082" lon="0.76842">
        <ele>187.2</ele>
        <time>2021-05-09T09:06:20Z</time>
      </trkpt>
      <trkpt lat="44.24081" lon="0.76838">
        <ele>187.2</ele>
        <time>2021-05-09T09:06:22Z</time>
      </trkpt>
      <trkpt lat="44.24081" lon="0.76834">
        <ele>187.4</ele>
        <time>2021-05-09T09:06:24Z</time>
      </trkpt>
      <trkpt lat="44.2408" lon="0.7683">
        <ele>187.6</ele>
        <time>2021-05-09T09:06:26Z</time>
      </trkpt>
      <trkpt lat="44.24078" lon="0.76828">
        <ele>187.6</ele>
        <time>2021-05-09T09:06:28Z</time>
      </trkpt>
      <trkpt lat="44.24076" lon="0.76826">
        <ele>187.8</ele>
        <time>2021-05-09T09:06:30Z</time>
      </trkpt>
      <trkpt lat="44.24075" lon="0.76823">
        <ele>187.8</ele>
        <time>2021-05-09T09:06:32Z</time>
      </trkpt>
      <trkpt lat="44.24073" lon="0.76821">
        <ele>187.8</ele>
        <time>2021-05-09T09:06:34Z</time>
      </trkpt>
      <trkpt lat="44.24071" lon="0.76819">
        <ele>188</ele>
        <time>2021-05-09T09:06:36Z</time>
      </trkpt>
      <trkpt lat="44.24069" lon="0.76817">
        <ele>188.2</ele>
        <time>2021-05-09T09:06:39Z</time>
      </trkpt>
      <trkpt lat="44.24067" lon="0.76815">
        <ele>188.2</ele>
        <time>2021-05-09T09:06:41Z</time>
      </trkpt>
      <trkpt lat="44.24065" lon="0.76813">
        <ele>188.2</ele>
        <time>2021-05-09T09:06:44Z</time>
      </trkpt>
      <trkpt lat="44.24063" lon="0.76812">
        <ele>188.2</ele>
        <time>2021-05-09T09:06:45Z</time>
      </trkpt>
      <trkpt lat="44.24061" lon="0.7681">
        <ele>188.2</ele>
        <time>2021-05-09T09:06:46Z</time>
      </trkpt>
      <trkpt lat="44.24059" lon="0.76807">
        <ele>188.2</ele>
        <time>2021-05-09T09:06:48Z</time>
      </trkpt>
      <trkpt lat="44.24057" lon="0.76805">
        <ele>188.4</ele>
        <time>2021-05-09T09:06:50Z</time>
      </trkpt>
      <trkpt lat="44.24055" lon="0.76802">
        <ele>188.4</ele>
        <time>2021-05-09T09:06:53Z</time>
      </trkpt>
      <trkpt lat="44.24054" lon="0.76799">
        <ele>188.4</ele>
        <time>2021-05-09T09:06:55Z</time>
      </trkpt>
      <trkpt lat="44.24053" lon="0.76797">
        <ele>188.4</ele>
        <time>2021-05-09T09:06:57Z</time>
      </trkpt>
      <trkpt lat="44.24052" lon="0.76795">
        <ele>188.4</ele>
        <time>2021-05-09T09:06:59Z</time>
      </trkpt>
      <trkpt lat="44.24051" lon="0.76792">
        <ele>188.4</ele>
        <time>2021-05-09T09:07:02Z</time>
      </trkpt>
      <trkpt lat="44.24049" lon="0.76789">
        <ele>188.2</ele>
        <time>2021-05-09T09:07:04Z</time>
      </trkpt>
      <trkpt lat="44.24048" lon="0.76786">
        <ele>188</ele>
        <time>2021-05-09T09:07:06Z</time>
      </trkpt>
      <trkpt lat="44.24047" lon="0.76783">
        <ele>187.8</ele>
        <time>2021-05-09T09:07:08Z</time>
      </trkpt>
      <trkpt lat="44.24045" lon="0.7678">
        <ele>188</ele>
        <time>2021-05-09T09:07:10Z</time>
      </trkpt>
      <trkpt lat="44.24044" lon="0.76777">
        <ele>188</ele>
        <time>2021-05-09T09:07:13Z</time>
      </trkpt>
      <trkpt lat="44.24042" lon="0.76775">
        <ele>188</ele>
        <time>2021-05-09T09:07:15Z</time>
      </trkpt>
      <trkpt lat="44.24039" lon="0.76773">
        <ele>188</ele>
        <time>2021-05-09T09:07:17Z</time>
      </trkpt>
      <trkpt lat="44.24037" lon="0.76771">
        <ele>187.8</ele>
        <time>2021-05-09T09:07:19Z</time>
      </trkpt>
      <trkpt lat="44.24035" lon="0.76769">
        <ele>187.8</ele>
        <time>2021-05-09T09:07:21Z</time>
      </trkpt>
      <trkpt lat="44.24033" lon="0.76767">
        <ele>187.6</ele>
        <time>2021-05-09T09:07:23Z</time>
      </trkpt>
      <trkpt lat="44.24032" lon="0.76765">
        <ele>187.4</ele>
        <time>2021-05-09T09:07:25Z</time>
      </trkpt>
      <trkpt lat="44.2403" lon="0.76762">
        <ele>187.4</ele>
        <time>2021-05-09T09:07:27Z</time>
      </trkpt>
      <trkpt lat="44.24028" lon="0.7676">
        <ele>187.2</ele>
        <time>2021-05-09T09:07:29Z</time>
      </trkpt>
      <trkpt lat="44.24027" lon="0.76757">
        <ele>187.2</ele>
        <time>2021-05-09T09:07:31Z</time>
      </trkpt>
      <trkpt lat="44.24024" lon="0.76755">
        <ele>186.8</ele>
        <time>2021-05-09T09:07:34Z</time>
      </trkpt>
      <trkpt lat="44.24021" lon="0.76753">
        <ele>186.6</ele>
        <time>2021-05-09T09:07:36Z</time>
      </trkpt>
      <trkpt lat="44.2402" lon="0.76751">
        <ele>186.4</ele>
        <time>2021-05-09T09:07:38Z</time>
      </trkpt>
      <trkpt lat="44.24018" lon="0.76749">
        <ele>186.2</ele>
        <time>2021-05-09T09:07:40Z</time>
      </trkpt>
      <trkpt lat="44.24016" lon="0.76747">
        <ele>186</ele>
        <time>2021-05-09T09:07:42Z</time>
      </trkpt>
      <trkpt lat="44.24013" lon="0.76745">
        <ele>185.8</ele>
        <time>2021-05-09T09:07:44Z</time>
      </trkpt>
      <trkpt lat="44.24012" lon="0.76743">
        <ele>185.6</ele>
        <time>2021-05-09T09:07:47Z</time>
      </trkpt>
      <trkpt lat="44.24011" lon="0.7674">
        <ele>185.6</ele>
        <time>2021-05-09T09:07:49Z</time>
      </trkpt>
      <trkpt lat="44.24009" lon="0.76739">
        <ele>185.4</ele>
        <time>2021-05-09T09:07:51Z</time>
      </trkpt>
      <trkpt lat="44.24006" lon="0.76737">
        <ele>185.2</ele>
        <time>2021-05-09T09:07:53Z</time>
      </trkpt>
      <trkpt lat="44.24004" lon="0.76735">
        <ele>185.2</ele>
        <time>2021-05-09T09:07:55Z</time>
      </trkpt>
      <trkpt lat="44.24003" lon="0.76733">
        <ele>185.2</ele>
        <time>2021-05-09T09:07:57Z</time>
      </trkpt>
      <trkpt lat="44.24" lon="0.76731">
        <ele>185.2</ele>
        <time>2021-05-09T09:07:59Z</time>
      </trkpt>
      <trkpt lat="44.23999" lon="0.76729">
        <ele>185</ele>
        <time>2021-05-09T09:08:01Z</time>
      </trkpt>
      <trkpt lat="44.23997" lon="0.76728">
        <ele>184.8</ele>
        <time>2021-05-09T09:08:02Z</time>
      </trkpt>
      <trkpt lat="44.23995" lon="0.76726">
        <ele>184.4</ele>
        <time>2021-05-09T09:08:04Z</time>
      </trkpt>
      <trkpt lat="44.23993" lon="0.76725">
        <ele>184.2</ele>
        <time>2021-05-09T09:08:06Z</time>
      </trkpt>
      <trkpt lat="44.23991" lon="0.76723">
        <ele>184</ele>
        <time>2021-05-09T09:08:08Z</time>
      </trkpt>
      <trkpt lat="44.23988" lon="0.76722">
        <ele>183.6</ele>
        <time>2021-05-09T09:08:10Z</time>
      </trkpt>
      <trkpt lat="44.23986" lon="0.76721">
        <ele>183.4</ele>
        <time>2021-05-09T09:08:12Z</time>
      </trkpt>
      <trkpt lat="44.23984" lon="0.76719">
        <ele>183.2</ele>
        <time>2021-05-09T09:08:14Z</time>
      </trkpt>
      <trkpt lat="44.23982" lon="0.76718">
        <ele>183</ele>
        <time>2021-05-09T09:08:16Z</time>
      </trkpt>
      <trkpt lat="44.2398" lon="0.76716">
        <ele>183</ele>
        <time>2021-05-09T09:08:18Z</time>
      </trkpt>
      <trkpt lat="44.23979" lon="0.76714">
        <ele>182.6</ele>
        <time>2021-05-09T09:08:20Z</time>
      </trkpt>
      <trkpt lat="44.23977" lon="0.76713">
        <ele>182.6</ele>
        <time>2021-05-09T09:08:22Z</time>
      </trkpt>
      <trkpt lat="44.23975" lon="0.76711">
        <ele>182.4</ele>
        <time>2021-05-09T09:08:24Z</time>
      </trkpt>
      <trkpt lat="44.23974" lon="0.7671">
        <ele>182.2</ele>
        <time>2021-05-09T09:08:26Z</time>
      </trkpt>
      <trkpt lat="44.23971" lon="0.76707">
        <ele>182</ele>
        <time>2021-05-09T09:08:29Z</time>
      </trkpt>
      <trkpt lat="44.23969" lon="0.76707">
        <ele>181.8</ele>
        <time>2021-05-09T09:08:31Z</time>
      </trkpt>
      <trkpt lat="44.23967" lon="0.76705">
        <ele>181.4</ele>
        <time>2021-05-09T09:08:33Z</time>
      </trkpt>
      <trkpt lat="44.23965" lon="0.76703">
        <ele>181.2</ele>
        <time>2021-05-09T09:08:35Z</time>
      </trkpt>
      <trkpt lat="44.23964" lon="0.76702">
        <ele>181.2</ele>
        <time>2021-05-09T09:08:37Z</time>
      </trkpt>
      <trkpt lat="44.23962" lon="0.767">
        <ele>181</ele>
        <time>2021-05-09T09:08:39Z</time>
      </trkpt>
      <trkpt lat="44.2396" lon="0.76698">
        <ele>181</ele>
        <time>2021-05-09T09:08:41Z</time>
      </trkpt>
      <trkpt lat="44.23958" lon="0.76696">
        <ele>181</ele>
        <time>2021-05-09T09:08:43Z</time>
      </trkpt>
      <trkpt lat="44.23955" lon="0.76694">
        <ele>181</ele>
        <time>2021-05-09T09:08:45Z</time>
      </trkpt>
      <trkpt lat="44.23953" lon="0.76693">
        <ele>181</ele>
        <time>2021-05-09T09:08:47Z</time>
      </trkpt>
      <trkpt lat="44.23951" lon="0.76692">
        <ele>181</ele>
        <time>2021-05-09T09:08:49Z</time>
      </trkpt>
      <trkpt lat="44.23949" lon="0.76691">
        <ele>181</ele>
        <time>2021-05-09T09:08:51Z</time>
      </trkpt>
      <trkpt lat="44.23947" lon="0.76689">
        <ele>181.2</ele>
        <time>2021-05-09T09:08:53Z</time>
      </trkpt>
      <trkpt lat="44.23945" lon="0.76687">
        <ele>181.2</ele>
        <time>2021-05-09T09:08:55Z</time>
      </trkpt>
      <trkpt lat="44.23943" lon="0.76684">
        <ele>181.2</ele>
        <time>2021-05-09T09:08:57Z</time>
      </trkpt>
      <trkpt lat="44.23941" lon="0.76681">
        <ele>181.4</ele>
        <time>2021-05-09T09:08:59Z</time>
      </trkpt>
      <trkpt lat="44.23938" lon="0.7668">
        <ele>181.4</ele>
        <time>2021-05-09T09:09:01Z</time>
      </trkpt>
      <trkpt lat="44.23936" lon="0.76679">
        <ele>181.4</ele>
        <time>2021-05-09T09:09:03Z</time>
      </trkpt>
      <trkpt lat="44.23934" lon="0.76677">
        <ele>181.6</ele>
        <time>2021-05-09T09:09:05Z</time>
      </trkpt>
      <trkpt lat="44.23933" lon="0.76675">
        <ele>181.4</ele>
        <time>2021-05-09T09:09:07Z</time>
      </trkpt>
      <trkpt lat="44.23931" lon="0.76673">
        <ele>181.6</ele>
        <time>2021-05-09T09:09:09Z</time>
      </trkpt>
      <trkpt lat="44.2393" lon="0.7667">
        <ele>181.6</ele>
        <time>2021-05-09T09:09:11Z</time>
      </trkpt>
      <trkpt lat="44.23928" lon="0.76668">
        <ele>181.8</ele>
        <time>2021-05-09T09:09:13Z</time>
      </trkpt>
      <trkpt lat="44.23926" lon="0.76667">
        <ele>182</ele>
        <time>2021-05-09T09:09:15Z</time>
      </trkpt>
      <trkpt lat="44.23924" lon="0.76664">
        <ele>182</ele>
        <time>2021-05-09T09:09:17Z</time>
      </trkpt>
      <trkpt lat="44.23922" lon="0.76662">
        <ele>182</ele>
        <time>2021-05-09T09:09:19Z</time>
      </trkpt>
      <trkpt lat="44.2392" lon="0.7666">
        <ele>182</ele>
        <time>2021-05-09T09:09:21Z</time>
      </trkpt>
      <trkpt lat="44.23917" lon="0.76659">
        <ele>182.2</ele>
        <time>2021-05-09T09:09:23Z</time>
      </trkpt>
      <trkpt lat="44.23914" lon="0.76657">
        <ele>182.2</ele>
        <time>2021-05-09T09:09:25Z</time>
      </trkpt>
      <trkpt lat="44.23912" lon="0.76654">
        <ele>182</ele>
        <time>2021-05-09T09:09:27Z</time>
      </trkpt>
      <trkpt lat="44.2391" lon="0.76653">
        <ele>182</ele>
        <time>2021-05-09T09:09:29Z</time>
      </trkpt>
      <trkpt lat="44.23908" lon="0.76651">
        <ele>182</ele>
        <time>2021-05-09T09:09:31Z</time>
      </trkpt>
      <trkpt lat="44.23906" lon="0.76649">
        <ele>181.8</ele>
        <time>2021-05-09T09:09:32Z</time>
      </trkpt>
      <trkpt lat="44.23906" lon="0.76645">
        <ele>181.6</ele>
        <time>2021-05-09T09:09:34Z</time>
      </trkpt>
      <trkpt lat="44.23904" lon="0.76642">
        <ele>181.6</ele>
        <time>2021-05-09T09:09:36Z</time>
      </trkpt>
      <trkpt lat="44.23902" lon="0.7664">
        <ele>181.4</ele>
        <time>2021-05-09T09:09:37Z</time>
      </trkpt>
      <trkpt lat="44.239" lon="0.76638">
        <ele>181.4</ele>
        <time>2021-05-09T09:09:38Z</time>
      </trkpt>
      <trkpt lat="44.23898" lon="0.76636">
        <ele>181.2</ele>
        <time>2021-05-09T09:09:40Z</time>
      </trkpt>
      <trkpt lat="44.23897" lon="0.76634">
        <ele>181.2</ele>
        <time>2021-05-09T09:09:42Z</time>
      </trkpt>
      <trkpt lat="44.23895" lon="0.76632">
        <ele>181</ele>
        <time>2021-05-09T09:09:44Z</time>
      </trkpt>
      <trkpt lat="44.23894" lon="0.7663">
        <ele>181</ele>
        <time>2021-05-09T09:09:46Z</time>
      </trkpt>
      <trkpt lat="44.23892" lon="0.76628">
        <ele>180.8</ele>
        <time>2021-05-09T09:09:50Z</time>
      </trkpt>
      <trkpt lat="44.2389" lon="0.76624">
        <ele>180.4</ele>
        <time>2021-05-09T09:09:55Z</time>
      </trkpt>
      <trkpt lat="44.23889" lon="0.76621">
        <ele>180.2</ele>
        <time>2021-05-09T09:09:57Z</time>
      </trkpt>
      <trkpt lat="44.23887" lon="0.76618">
        <ele>179.8</ele>
        <time>2021-05-09T09:10:00Z</time>
      </trkpt>
      <trkpt lat="44.23885" lon="0.76615">
        <ele>179.8</ele>
        <time>2021-05-09T09:10:02Z</time>
      </trkpt>
      <trkpt lat="44.23884" lon="0.76613">
        <ele>179.6</ele>
        <time>2021-05-09T09:10:04Z</time>
      </trkpt>
      <trkpt lat="44.23882" lon="0.76611">
        <ele>179.4</ele>
        <time>2021-05-09T09:10:06Z</time>
      </trkpt>
      <trkpt lat="44.2388" lon="0.76609">
        <ele>179.2</ele>
        <time>2021-05-09T09:10:08Z</time>
      </trkpt>
      <trkpt lat="44.23879" lon="0.76606">
        <ele>179</ele>
        <time>2021-05-09T09:10:10Z</time>
      </trkpt>
      <trkpt lat="44.23877" lon="0.76604">
        <ele>179</ele>
        <time>2021-05-09T09:10:12Z</time>
      </trkpt>
      <trkpt lat="44.23876" lon="0.76601">
        <ele>178.8</ele>
        <time>2021-05-09T09:10:14Z</time>
      </trkpt>
      <trkpt lat="44.23875" lon="0.76598">
        <ele>178.6</ele>
        <time>2021-05-09T09:10:16Z</time>
      </trkpt>
      <trkpt lat="44.23873" lon="0.76595">
        <ele>178.6</ele>
        <time>2021-05-09T09:10:18Z</time>
      </trkpt>
      <trkpt lat="44.23872" lon="0.76593">
        <ele>178.6</ele>
        <time>2021-05-09T09:10:20Z</time>
      </trkpt>
      <trkpt lat="44.2387" lon="0.7659">
        <ele>178.6</ele>
        <time>2021-05-09T09:10:22Z</time>
      </trkpt>
      <trkpt lat="44.23869" lon="0.76588">
        <ele>178.6</ele>
        <time>2021-05-09T09:10:24Z</time>
      </trkpt>
      <trkpt lat="44.23868" lon="0.76585">
        <ele>178.6</ele>
        <time>2021-05-09T09:10:26Z</time>
      </trkpt>
      <trkpt lat="44.23867" lon="0.76583">
        <ele>178.6</ele>
        <time>2021-05-09T09:10:28Z</time>
      </trkpt>
      <trkpt lat="44.23866" lon="0.76581">
        <ele>178.4</ele>
        <time>2021-05-09T09:10:30Z</time>
      </trkpt>
      <trkpt lat="44.23864" lon="0.76578">
        <ele>178.4</ele>
        <time>2021-05-09T09:10:32Z</time>
      </trkpt>
      <trkpt lat="44.23862" lon="0.76576">
        <ele>178.2</ele>
        <time>2021-05-09T09:10:34Z</time>
      </trkpt>
      <trkpt lat="44.23861" lon="0.76573">
        <ele>178.2</ele>
        <time>2021-05-09T09:10:36Z</time>
      </trkpt>
      <trkpt lat="44.2386" lon="0.76571">
        <ele>178.2</ele>
        <time>2021-05-09T09:10:38Z</time>
      </trkpt>
      <trkpt lat="44.23857" lon="0.76569">
        <ele>178.2</ele>
        <time>2021-05-09T09:10:40Z</time>
      </trkpt>
      <trkpt lat="44.23856" lon="0.76566">
        <ele>178.2</ele>
        <time>2021-05-09T09:10:42Z</time>
      </trkpt>
      <trkpt lat="44.23854" lon="0.76564">
        <ele>178</ele>
        <time>2021-05-09T09:10:44Z</time>
      </trkpt>
      <trkpt lat="44.23854" lon="0.7656">
        <ele>177.8</ele>
        <time>2021-05-09T09:10:47Z</time>
      </trkpt>
      <trkpt lat="44.23852" lon="0.76558">
        <ele>177.8</ele>
        <time>2021-05-09T09:10:49Z</time>
      </trkpt>
      <trkpt lat="44.23851" lon="0.76555">
        <ele>177.8</ele>
        <time>2021-05-09T09:10:51Z</time>
      </trkpt>
      <trkpt lat="44.2385" lon="0.76552">
        <ele>177.8</ele>
        <time>2021-05-09T09:10:53Z</time>
      </trkpt>
      <trkpt lat="44.23849" lon="0.76549">
        <ele>177.8</ele>
        <time>2021-05-09T09:10:55Z</time>
      </trkpt>
      <trkpt lat="44.23848" lon="0.76546">
        <ele>177.6</ele>
        <time>2021-05-09T09:10:58Z</time>
      </trkpt>
      <trkpt lat="44.23847" lon="0.76542">
        <ele>177.4</ele>
        <time>2021-05-09T09:11:01Z</time>
      </trkpt>
      <trkpt lat="44.23847" lon="0.7654">
        <ele>177.4</ele>
        <time>2021-05-09T09:11:03Z</time>
      </trkpt>
      <trkpt lat="44.23845" lon="0.76538">
        <ele>177.4</ele>
        <time>2021-05-09T09:11:05Z</time>
      </trkpt>
      <trkpt lat="44.23844" lon="0.76536">
        <ele>177.4</ele>
        <time>2021-05-09T09:11:07Z</time>
      </trkpt>
      <trkpt lat="44.23842" lon="0.76534">
        <ele>177.4</ele>
        <time>2021-05-09T09:11:09Z</time>
      </trkpt>
      <trkpt lat="44.2384" lon="0.76532">
        <ele>177.6</ele>
        <time>2021-05-09T09:11:11Z</time>
      </trkpt>
      <trkpt lat="44.23838" lon="0.76531">
        <ele>177.6</ele>
        <time>2021-05-09T09:11:13Z</time>
      </trkpt>
      <trkpt lat="44.23837" lon="0.76528">
        <ele>177.6</ele>
        <time>2021-05-09T09:11:15Z</time>
      </trkpt>
      <trkpt lat="44.23835" lon="0.76527">
        <ele>177.6</ele>
        <time>2021-05-09T09:11:17Z</time>
      </trkpt>
      <trkpt lat="44.23834" lon="0.76524">
        <ele>177.8</ele>
        <time>2021-05-09T09:11:19Z</time>
      </trkpt>
      <trkpt lat="44.23832" lon="0.76522">
        <ele>177.8</ele>
        <time>2021-05-09T09:11:21Z</time>
      </trkpt>
      <trkpt lat="44.23831" lon="0.76519">
        <ele>177.8</ele>
        <time>2021-05-09T09:11:23Z</time>
      </trkpt>
      <trkpt lat="44.2383" lon="0.76516">
        <ele>177.6</ele>
        <time>2021-05-09T09:11:25Z</time>
      </trkpt>
      <trkpt lat="44.23828" lon="0.76514">
        <ele>177.6</ele>
        <time>2021-05-09T09:11:27Z</time>
      </trkpt>
      <trkpt lat="44.23828" lon="0.7651">
        <ele>177.4</ele>
        <time>2021-05-09T09:11:29Z</time>
      </trkpt>
      <trkpt lat="44.23826" lon="0.76507">
        <ele>177</ele>
        <time>2021-05-09T09:11:31Z</time>
      </trkpt>
      <trkpt lat="44.23825" lon="0.76505">
        <ele>176.6</ele>
        <time>2021-05-09T09:11:33Z</time>
      </trkpt>
      <trkpt lat="44.23823" lon="0.76502">
        <ele>176.6</ele>
        <time>2021-05-09T09:11:35Z</time>
      </trkpt>
      <trkpt lat="44.23822" lon="0.76499">
        <ele>176.4</ele>
        <time>2021-05-09T09:11:37Z</time>
      </trkpt>
      <trkpt lat="44.2382" lon="0.76496">
        <ele>176.2</ele>
        <time>2021-05-09T09:11:39Z</time>
      </trkpt>
      <trkpt lat="44.23818" lon="0.76493">
        <ele>176.2</ele>
        <time>2021-05-09T09:11:41Z</time>
      </trkpt>
      <trkpt lat="44.23816" lon="0.7649">
        <ele>176.2</ele>
        <time>2021-05-09T09:11:43Z</time>
      </trkpt>
      <trkpt lat="44.23814" lon="0.76487">
        <ele>176</ele>
        <time>2021-05-09T09:11:45Z</time>
      </trkpt>
      <trkpt lat="44.23813" lon="0.76483">
        <ele>175.8</ele>
        <time>2021-05-09T09:11:47Z</time>
      </trkpt>
      <trkpt lat="44.23812" lon="0.76481">
        <ele>175.8</ele>
        <time>2021-05-09T09:11:49Z</time>
      </trkpt>
      <trkpt lat="44.2381" lon="0.76478">
        <ele>175.6</ele>
        <time>2021-05-09T09:11:51Z</time>
      </trkpt>
      <trkpt lat="44.23809" lon="0.76475">
        <ele>175.4</ele>
        <time>2021-05-09T09:11:53Z</time>
      </trkpt>
      <trkpt lat="44.23808" lon="0.76472">
        <ele>175.2</ele>
        <time>2021-05-09T09:11:55Z</time>
      </trkpt>
      <trkpt lat="44.23806" lon="0.76469">
        <ele>175.2</ele>
        <time>2021-05-09T09:11:57Z</time>
      </trkpt>
      <trkpt lat="44.23805" lon="0.76467">
        <ele>175.2</ele>
        <time>2021-05-09T09:11:59Z</time>
      </trkpt>
      <trkpt lat="44.23803" lon="0.76464">
        <ele>175.2</ele>
        <time>2021-05-09T09:12:01Z</time>
      </trkpt>
      <trkpt lat="44.23802" lon="0.7646">
        <ele>175.2</ele>
        <time>2021-05-09T09:12:03Z</time>
      </trkpt>
      <trkpt lat="44.23801" lon="0.76458">
        <ele>175.2</ele>
        <time>2021-05-09T09:12:05Z</time>
      </trkpt>
      <trkpt lat="44.238" lon="0.76455">
        <ele>175</ele>
        <time>2021-05-09T09:12:07Z</time>
      </trkpt>
      <trkpt lat="44.23799" lon="0.76452">
        <ele>175</ele>
        <time>2021-05-09T09:12:09Z</time>
      </trkpt>
      <trkpt lat="44.23798" lon="0.76449">
        <ele>174.8</ele>
        <time>2021-05-09T09:12:11Z</time>
      </trkpt>
      <trkpt lat="44.23796" lon="0.76446">
        <ele>174.8</ele>
        <time>2021-05-09T09:12:13Z</time>
      </trkpt>
      <trkpt lat="44.23795" lon="0.76444">
        <ele>174.6</ele>
        <time>2021-05-09T09:12:15Z</time>
      </trkpt>
      <trkpt lat="44.23794" lon="0.76441">
        <ele>174.6</ele>
        <time>2021-05-09T09:12:17Z</time>
      </trkpt>
      <trkpt lat="44.23793" lon="0.76438">
        <ele>174.6</ele>
        <time>2021-05-09T09:12:19Z</time>
      </trkpt>
      <trkpt lat="44.23791" lon="0.76436">
        <ele>174.6</ele>
        <time>2021-05-09T09:12:21Z</time>
      </trkpt>
      <trkpt lat="44.23789" lon="0.76433">
        <ele>174.8</ele>
        <time>2021-05-09T09:12:23Z</time>
      </trkpt>
      <trkpt lat="44.23788" lon="0.7643">
        <ele>174.8</ele>
        <time>2021-05-09T09:12:25Z</time>
      </trkpt>
      <trkpt lat="44.23786" lon="0.76427">
        <ele>174.6</ele>
        <time>2021-05-09T09:12:27Z</time>
      </trkpt>
      <trkpt lat="44.23785" lon="0.76424">
        <ele>174.6</ele>
        <time>2021-05-09T09:12:29Z</time>
      </trkpt>
      <trkpt lat="44.23783" lon="0.76422">
        <ele>174.4</ele>
        <time>2021-05-09T09:12:31Z</time>
      </trkpt>
      <trkpt lat="44.23782" lon="0.76419">
        <ele>174.2</ele>
        <time>2021-05-09T09:12:33Z</time>
      </trkpt>
      <trkpt lat="44.2378" lon="0.76416">
        <ele>174.2</ele>
        <time>2021-05-09T09:12:35Z</time>
      </trkpt>
      <trkpt lat="44.23779" lon="0.76413">
        <ele>174.2</ele>
        <time>2021-05-09T09:12:37Z</time>
      </trkpt>
      <trkpt lat="44.23777" lon="0.7641">
        <ele>173.8</ele>
        <time>2021-05-09T09:12:39Z</time>
      </trkpt>
      <trkpt lat="44.23775" lon="0.76407">
        <ele>173.6</ele>
        <time>2021-05-09T09:12:41Z</time>
      </trkpt>
      <trkpt lat="44.23774" lon="0.76405">
        <ele>173.6</ele>
        <time>2021-05-09T09:12:43Z</time>
      </trkpt>
      <trkpt lat="44.23772" lon="0.76402">
        <ele>173.6</ele>
        <time>2021-05-09T09:12:45Z</time>
      </trkpt>
      <trkpt lat="44.23771" lon="0.76399">
        <ele>173.6</ele>
        <time>2021-05-09T09:12:47Z</time>
      </trkpt>
      <trkpt lat="44.23769" lon="0.76397">
        <ele>173.4</ele>
        <time>2021-05-09T09:12:49Z</time>
      </trkpt>
      <trkpt lat="44.23767" lon="0.76393">
        <ele>173.4</ele>
        <time>2021-05-09T09:12:51Z</time>
      </trkpt>
      <trkpt lat="44.23766" lon="0.76391">
        <ele>173.2</ele>
        <time>2021-05-09T09:12:53Z</time>
      </trkpt>
      <trkpt lat="44.23764" lon="0.76389">
        <ele>173</ele>
        <time>2021-05-09T09:12:55Z</time>
      </trkpt>
      <trkpt lat="44.23763" lon="0.76386">
        <ele>172.8</ele>
        <time>2021-05-09T09:12:57Z</time>
      </trkpt>
      <trkpt lat="44.23761" lon="0.76383">
        <ele>172.8</ele>
        <time>2021-05-09T09:12:59Z</time>
      </trkpt>
      <trkpt lat="44.2376" lon="0.7638">
        <ele>172.8</ele>
        <time>2021-05-09T09:13:01Z</time>
      </trkpt>
      <trkpt lat="44.23758" lon="0.76377">
        <ele>172.6</ele>
        <time>2021-05-09T09:13:03Z</time>
      </trkpt>
      <trkpt lat="44.23757" lon="0.76375">
        <ele>172.6</ele>
        <time>2021-05-09T09:13:05Z</time>
      </trkpt>
      <trkpt lat="44.23756" lon="0.76373">
        <ele>172.6</ele>
        <time>2021-05-09T09:13:07Z</time>
      </trkpt>
      <trkpt lat="44.23754" lon="0.7637">
        <ele>172.4</ele>
        <time>2021-05-09T09:13:09Z</time>
      </trkpt>
      <trkpt lat="44.23751" lon="0.76367">
        <ele>172.4</ele>
        <time>2021-05-09T09:13:12Z</time>
      </trkpt>
      <trkpt lat="44.23749" lon="0.76365">
        <ele>172.6</ele>
        <time>2021-05-09T09:13:14Z</time>
      </trkpt>
      <trkpt lat="44.23747" lon="0.76363">
        <ele>172.8</ele>
        <time>2021-05-09T09:13:17Z</time>
      </trkpt>
      <trkpt lat="44.23745" lon="0.76362">
        <ele>173</ele>
        <time>2021-05-09T09:13:19Z</time>
      </trkpt>
      <trkpt lat="44.23744" lon="0.7636">
        <ele>173.2</ele>
        <time>2021-05-09T09:13:21Z</time>
      </trkpt>
      <trkpt lat="44.23742" lon="0.76359">
        <ele>173.4</ele>
        <time>2021-05-09T09:13:23Z</time>
      </trkpt>
      <trkpt lat="44.23739" lon="0.76358">
        <ele>173.4</ele>
        <time>2021-05-09T09:13:26Z</time>
      </trkpt>
      <trkpt lat="44.23737" lon="0.76356">
        <ele>173.6</ele>
        <time>2021-05-09T09:13:28Z</time>
      </trkpt>
      <trkpt lat="44.23735" lon="0.76355">
        <ele>173.6</ele>
        <time>2021-05-09T09:13:30Z</time>
      </trkpt>
      <trkpt lat="44.23732" lon="0.76353">
        <ele>173.6</ele>
        <time>2021-05-09T09:13:32Z</time>
      </trkpt>
      <trkpt lat="44.23731" lon="0.76351">
        <ele>173.8</ele>
        <time>2021-05-09T09:13:34Z</time>
      </trkpt>
      <trkpt lat="44.23728" lon="0.7635">
        <ele>173.8</ele>
        <time>2021-05-09T09:13:36Z</time>
      </trkpt>
      <trkpt lat="44.23727" lon="0.76348">
        <ele>173.6</ele>
        <time>2021-05-09T09:13:38Z</time>
      </trkpt>
      <trkpt lat="44.23724" lon="0.76347">
        <ele>173.6</ele>
        <time>2021-05-09T09:13:40Z</time>
      </trkpt>
      <trkpt lat="44.23722" lon="0.76346">
        <ele>173.6</ele>
        <time>2021-05-09T09:13:42Z</time>
      </trkpt>
      <trkpt lat="44.23719" lon="0.76345">
        <ele>173.6</ele>
        <time>2021-05-09T09:13:45Z</time>
      </trkpt>
      <trkpt lat="44.23717" lon="0.76344">
        <ele>173.6</ele>
        <time>2021-05-09T09:13:47Z</time>
      </trkpt>
      <trkpt lat="44.23714" lon="0.76343">
        <ele>173.8</ele>
        <time>2021-05-09T09:13:49Z</time>
      </trkpt>
      <trkpt lat="44.23712" lon="0.76342">
        <ele>173.8</ele>
        <time>2021-05-09T09:13:51Z</time>
      </trkpt>
      <trkpt lat="44.23709" lon="0.76342">
        <ele>173.8</ele>
        <time>2021-05-09T09:13:53Z</time>
      </trkpt>
      <trkpt lat="44.23707" lon="0.76342">
        <ele>173.6</ele>
        <time>2021-05-09T09:13:55Z</time>
      </trkpt>
      <trkpt lat="44.23705" lon="0.76341">
        <ele>173.6</ele>
        <time>2021-05-09T09:13:57Z</time>
      </trkpt>
      <trkpt lat="44.23703" lon="0.76341">
        <ele>173.6</ele>
        <time>2021-05-09T09:14:00Z</time>
      </trkpt>
      <trkpt lat="44.23701" lon="0.76341">
        <ele>173.6</ele>
        <time>2021-05-09T09:14:02Z</time>
      </trkpt>
      <trkpt lat="44.23698" lon="0.76341">
        <ele>173.6</ele>
        <time>2021-05-09T09:14:04Z</time>
      </trkpt>
      <trkpt lat="44.23696" lon="0.76341">
        <ele>173.8</ele>
        <time>2021-05-09T09:14:06Z</time>
      </trkpt>
      <trkpt lat="44.23693" lon="0.7634">
        <ele>173.8</ele>
        <time>2021-05-09T09:14:08Z</time>
      </trkpt>
      <trkpt lat="44.23691" lon="0.76339">
        <ele>173.8</ele>
        <time>2021-05-09T09:14:10Z</time>
      </trkpt>
      <trkpt lat="44.23687" lon="0.76339">
        <ele>173.8</ele>
        <time>2021-05-09T09:14:12Z</time>
      </trkpt>
      <trkpt lat="44.23685" lon="0.76339">
        <ele>173.8</ele>
        <time>2021-05-09T09:14:14Z</time>
      </trkpt>
      <trkpt lat="44.23682" lon="0.76339">
        <ele>173.8</ele>
        <time>2021-05-09T09:14:16Z</time>
      </trkpt>
      <trkpt lat="44.23679" lon="0.76339">
        <ele>174</ele>
        <time>2021-05-09T09:14:18Z</time>
      </trkpt>
      <trkpt lat="44.23677" lon="0.76339">
        <ele>174</ele>
        <time>2021-05-09T09:14:20Z</time>
      </trkpt>
      <trkpt lat="44.23674" lon="0.76339">
        <ele>174</ele>
        <time>2021-05-09T09:14:22Z</time>
      </trkpt>
      <trkpt lat="44.23671" lon="0.76339">
        <ele>174</ele>
        <time>2021-05-09T09:14:24Z</time>
      </trkpt>
      <trkpt lat="44.23669" lon="0.76338">
        <ele>174</ele>
        <time>2021-05-09T09:14:25Z</time>
      </trkpt>
      <trkpt lat="44.23667" lon="0.76339">
        <ele>174</ele>
        <time>2021-05-09T09:14:27Z</time>
      </trkpt>
      <trkpt lat="44.23664" lon="0.76339">
        <ele>173.8</ele>
        <time>2021-05-09T09:14:29Z</time>
      </trkpt>
      <trkpt lat="44.23661" lon="0.76339">
        <ele>174</ele>
        <time>2021-05-09T09:14:31Z</time>
      </trkpt>
      <trkpt lat="44.23659" lon="0.76339">
        <ele>173.8</ele>
        <time>2021-05-09T09:14:33Z</time>
      </trkpt>
      <trkpt lat="44.23656" lon="0.76338">
        <ele>173.8</ele>
        <time>2021-05-09T09:14:35Z</time>
      </trkpt>
      <trkpt lat="44.23654" lon="0.76339">
        <ele>173.8</ele>
        <time>2021-05-09T09:14:37Z</time>
      </trkpt>
      <trkpt lat="44.23652" lon="0.76339">
        <ele>173.8</ele>
        <time>2021-05-09T09:14:38Z</time>
      </trkpt>
      <trkpt lat="44.2365" lon="0.76338">
        <ele>174</ele>
        <time>2021-05-09T09:14:40Z</time>
      </trkpt>
      <trkpt lat="44.23648" lon="0.76339">
        <ele>174</ele>
        <time>2021-05-09T09:14:42Z</time>
      </trkpt>
      <trkpt lat="44.23644" lon="0.76339">
        <ele>174</ele>
        <time>2021-05-09T09:14:44Z</time>
      </trkpt>
      <trkpt lat="44.23642" lon="0.76338">
        <ele>173.8</ele>
        <time>2021-05-09T09:14:46Z</time>
      </trkpt>
      <trkpt lat="44.2364" lon="0.76338">
        <ele>173.8</ele>
        <time>2021-05-09T09:14:48Z</time>
      </trkpt>
      <trkpt lat="44.23637" lon="0.76338">
        <ele>173.6</ele>
        <time>2021-05-09T09:14:50Z</time>
      </trkpt>
      <trkpt lat="44.23635" lon="0.76339">
        <ele>173.6</ele>
        <time>2021-05-09T09:14:52Z</time>
      </trkpt>
      <trkpt lat="44.23632" lon="0.76339">
        <ele>173.6</ele>
        <time>2021-05-09T09:14:54Z</time>
      </trkpt>
      <trkpt lat="44.2363" lon="0.7634">
        <ele>173.6</ele>
        <time>2021-05-09T09:14:56Z</time>
      </trkpt>
      <trkpt lat="44.23628" lon="0.7634">
        <ele>173.6</ele>
        <time>2021-05-09T09:14:57Z</time>
      </trkpt>
      <trkpt lat="44.23626" lon="0.76341">
        <ele>173.6</ele>
        <time>2021-05-09T09:14:59Z</time>
      </trkpt>
      <trkpt lat="44.23624" lon="0.7634">
        <ele>173.6</ele>
        <time>2021-05-09T09:15:01Z</time>
      </trkpt>
      <trkpt lat="44.23622" lon="0.7634">
        <ele>173.4</ele>
        <time>2021-05-09T09:15:03Z</time>
      </trkpt>
      <trkpt lat="44.23619" lon="0.76341">
        <ele>173.4</ele>
        <time>2021-05-09T09:15:05Z</time>
      </trkpt>
      <trkpt lat="44.23616" lon="0.76342">
        <ele>173.4</ele>
        <time>2021-05-09T09:15:07Z</time>
      </trkpt>
      <trkpt lat="44.23614" lon="0.76342">
        <ele>173.2</ele>
        <time>2021-05-09T09:15:09Z</time>
      </trkpt>
      <trkpt lat="44.23612" lon="0.76342">
        <ele>173</ele>
        <time>2021-05-09T09:15:11Z</time>
      </trkpt>
      <trkpt lat="44.2361" lon="0.76342">
        <ele>172.6</ele>
        <time>2021-05-09T09:15:13Z</time>
      </trkpt>
      <trkpt lat="44.23607" lon="0.76343">
        <ele>172.4</ele>
        <time>2021-05-09T09:15:15Z</time>
      </trkpt>
      <trkpt lat="44.23604" lon="0.76344">
        <ele>172.4</ele>
        <time>2021-05-09T09:15:17Z</time>
      </trkpt>
      <trkpt lat="44.23602" lon="0.76344">
        <ele>172.4</ele>
        <time>2021-05-09T09:15:19Z</time>
      </trkpt>
      <trkpt lat="44.236" lon="0.76345">
        <ele>172.4</ele>
        <time>2021-05-09T09:15:21Z</time>
      </trkpt>
      <trkpt lat="44.23597" lon="0.76345">
        <ele>172.4</ele>
        <time>2021-05-09T09:15:23Z</time>
      </trkpt>
      <trkpt lat="44.23595" lon="0.76345">
        <ele>172.2</ele>
        <time>2021-05-09T09:15:25Z</time>
      </trkpt>
      <trkpt lat="44.23592" lon="0.76346">
        <ele>172.2</ele>
        <time>2021-05-09T09:15:27Z</time>
      </trkpt>
      <trkpt lat="44.2359" lon="0.76347">
        <ele>172</ele>
        <time>2021-05-09T09:15:29Z</time>
      </trkpt>
      <trkpt lat="44.23588" lon="0.76348">
        <ele>171.8</ele>
        <time>2021-05-09T09:15:31Z</time>
      </trkpt>
      <trkpt lat="44.23586" lon="0.76349">
        <ele>171.8</ele>
        <time>2021-05-09T09:15:33Z</time>
      </trkpt>
      <trkpt lat="44.23583" lon="0.7635">
        <ele>171.6</ele>
        <time>2021-05-09T09:15:35Z</time>
      </trkpt>
      <trkpt lat="44.2358" lon="0.7635">
        <ele>171.6</ele>
        <time>2021-05-09T09:15:37Z</time>
      </trkpt>
      <trkpt lat="44.23578" lon="0.76351">
        <ele>171.6</ele>
        <time>2021-05-09T09:15:39Z</time>
      </trkpt>
      <trkpt lat="44.23576" lon="0.76352">
        <ele>171.4</ele>
        <time>2021-05-09T09:15:42Z</time>
      </trkpt>
      <trkpt lat="44.23573" lon="0.76351">
        <ele>171.2</ele>
        <time>2021-05-09T09:15:44Z</time>
      </trkpt>
      <trkpt lat="44.23571" lon="0.76352">
        <ele>171</ele>
        <time>2021-05-09T09:15:46Z</time>
      </trkpt>
      <trkpt lat="44.23568" lon="0.76352">
        <ele>171</ele>
        <time>2021-05-09T09:15:48Z</time>
      </trkpt>
      <trkpt lat="44.23566" lon="0.76353">
        <ele>170.8</ele>
        <time>2021-05-09T09:15:50Z</time>
      </trkpt>
      <trkpt lat="44.23563" lon="0.76354">
        <ele>170.8</ele>
        <time>2021-05-09T09:15:52Z</time>
      </trkpt>
      <trkpt lat="44.23561" lon="0.76355">
        <ele>170.6</ele>
        <time>2021-05-09T09:15:54Z</time>
      </trkpt>
      <trkpt lat="44.23559" lon="0.76355">
        <ele>170.6</ele>
        <time>2021-05-09T09:15:56Z</time>
      </trkpt>
      <trkpt lat="44.23556" lon="0.76355">
        <ele>170.4</ele>
        <time>2021-05-09T09:15:58Z</time>
      </trkpt>
      <trkpt lat="44.23553" lon="0.76355">
        <ele>170.4</ele>
        <time>2021-05-09T09:16:00Z</time>
      </trkpt>
      <trkpt lat="44.2355" lon="0.76356">
        <ele>170.4</ele>
        <time>2021-05-09T09:16:02Z</time>
      </trkpt>
      <trkpt lat="44.23548" lon="0.76356">
        <ele>170.4</ele>
        <time>2021-05-09T09:16:04Z</time>
      </trkpt>
      <trkpt lat="44.23546" lon="0.76355">
        <ele>170.2</ele>
        <time>2021-05-09T09:16:06Z</time>
      </trkpt>
      <trkpt lat="44.23543" lon="0.76355">
        <ele>170.2</ele>
        <time>2021-05-09T09:16:08Z</time>
      </trkpt>
      <trkpt lat="44.2354" lon="0.76356">
        <ele>170.2</ele>
        <time>2021-05-09T09:16:10Z</time>
      </trkpt>
      <trkpt lat="44.23537" lon="0.76355">
        <ele>170.2</ele>
        <time>2021-05-09T09:16:12Z</time>
      </trkpt>
      <trkpt lat="44.23535" lon="0.76355">
        <ele>170.2</ele>
        <time>2021-05-09T09:16:14Z</time>
      </trkpt>
      <trkpt lat="44.23532" lon="0.76354">
        <ele>170.2</ele>
        <time>2021-05-09T09:16:16Z</time>
      </trkpt>
      <trkpt lat="44.2353" lon="0.76354">
        <ele>170</ele>
        <time>2021-05-09T09:16:18Z</time>
      </trkpt>
      <trkpt lat="44.23527" lon="0.76354">
        <ele>170</ele>
        <time>2021-05-09T09:16:20Z</time>
      </trkpt>
      <trkpt lat="44.23525" lon="0.76354">
        <ele>170</ele>
        <time>2021-05-09T09:16:22Z</time>
      </trkpt>
      <trkpt lat="44.23522" lon="0.76353">
        <ele>170</ele>
        <time>2021-05-09T09:16:24Z</time>
      </trkpt>
      <trkpt lat="44.23519" lon="0.76353">
        <ele>170</ele>
        <time>2021-05-09T09:16:26Z</time>
      </trkpt>
      <trkpt lat="44.23517" lon="0.76353">
        <ele>170</ele>
        <time>2021-05-09T09:16:28Z</time>
      </trkpt>
      <trkpt lat="44.23515" lon="0.76353">
        <ele>170</ele>
        <time>2021-05-09T09:16:30Z</time>
      </trkpt>
      <trkpt lat="44.23512" lon="0.76353">
        <ele>169.8</ele>
        <time>2021-05-09T09:16:32Z</time>
      </trkpt>
      <trkpt lat="44.2351" lon="0.76353">
        <ele>169.8</ele>
        <time>2021-05-09T09:16:34Z</time>
      </trkpt>
      <trkpt lat="44.23508" lon="0.76352">
        <ele>169.6</ele>
        <time>2021-05-09T09:16:36Z</time>
      </trkpt>
      <trkpt lat="44.23505" lon="0.76352">
        <ele>169.4</ele>
        <time>2021-05-09T09:16:38Z</time>
      </trkpt>
      <trkpt lat="44.23503" lon="0.76351">
        <ele>169</ele>
        <time>2021-05-09T09:16:40Z</time>
      </trkpt>
      <trkpt lat="44.235" lon="0.7635">
        <ele>168.8</ele>
        <time>2021-05-09T09:16:42Z</time>
      </trkpt>
      <trkpt lat="44.23498" lon="0.7635">
        <ele>168.6</ele>
        <time>2021-05-09T09:16:44Z</time>
      </trkpt>
      <trkpt lat="44.23495" lon="0.76351">
        <ele>168.4</ele>
        <time>2021-05-09T09:16:46Z</time>
      </trkpt>
      <trkpt lat="44.23492" lon="0.7635">
        <ele>168.2</ele>
        <time>2021-05-09T09:16:48Z</time>
      </trkpt>
      <trkpt lat="44.23491" lon="0.7635">
        <ele>168.2</ele>
        <time>2021-05-09T09:16:50Z</time>
      </trkpt>
      <trkpt lat="44.23488" lon="0.7635">
        <ele>168</ele>
        <time>2021-05-09T09:16:52Z</time>
      </trkpt>
      <trkpt lat="44.23486" lon="0.7635">
        <ele>167.8</ele>
        <time>2021-05-09T09:16:54Z</time>
      </trkpt>
      <trkpt lat="44.23484" lon="0.7635">
        <ele>167.6</ele>
        <time>2021-05-09T09:16:56Z</time>
      </trkpt>
      <trkpt lat="44.23481" lon="0.7635">
        <ele>167.4</ele>
        <time>2021-05-09T09:16:58Z</time>
      </trkpt>
      <trkpt lat="44.23479" lon="0.76351">
        <ele>167.4</ele>
        <time>2021-05-09T09:17:00Z</time>
      </trkpt>
      <trkpt lat="44.23477" lon="0.76351">
        <ele>167.2</ele>
        <time>2021-05-09T09:17:02Z</time>
      </trkpt>
      <trkpt lat="44.23475" lon="0.76351">
        <ele>167.2</ele>
        <time>2021-05-09T09:17:04Z</time>
      </trkpt>
      <trkpt lat="44.23472" lon="0.76352">
        <ele>167.2</ele>
        <time>2021-05-09T09:17:06Z</time>
      </trkpt>
      <trkpt lat="44.2347" lon="0.76352">
        <ele>167.2</ele>
        <time>2021-05-09T09:17:08Z</time>
      </trkpt>
      <trkpt lat="44.23467" lon="0.76351">
        <ele>167</ele>
        <time>2021-05-09T09:17:10Z</time>
      </trkpt>
      <trkpt lat="44.23464" lon="0.76351">
        <ele>166.8</ele>
        <time>2021-05-09T09:17:12Z</time>
      </trkpt>
      <trkpt lat="44.23462" lon="0.76351">
        <ele>166.8</ele>
        <time>2021-05-09T09:17:13Z</time>
      </trkpt>
      <trkpt lat="44.23459" lon="0.76351">
        <ele>166.8</ele>
        <time>2021-05-09T09:17:15Z</time>
      </trkpt>
      <trkpt lat="44.23457" lon="0.76351">
        <ele>166.8</ele>
        <time>2021-05-09T09:17:17Z</time>
      </trkpt>
      <trkpt lat="44.23454" lon="0.76351">
        <ele>166.8</ele>
        <time>2021-05-09T09:17:19Z</time>
      </trkpt>
      <trkpt lat="44.23452" lon="0.76352">
        <ele>166.8</ele>
        <time>2021-05-09T09:17:21Z</time>
      </trkpt>
      <trkpt lat="44.2345" lon="0.76352">
        <ele>167</ele>
        <time>2021-05-09T09:17:23Z</time>
      </trkpt>
      <trkpt lat="44.23447" lon="0.76353">
        <ele>167</ele>
        <time>2021-05-09T09:17:25Z</time>
      </trkpt>
      <trkpt lat="44.23444" lon="0.76354">
        <ele>166.8</ele>
        <time>2021-05-09T09:17:28Z</time>
      </trkpt>
      <trkpt lat="44.23441" lon="0.76356">
        <ele>167</ele>
        <time>2021-05-09T09:17:30Z</time>
      </trkpt>
      <trkpt lat="44.23439" lon="0.76357">
        <ele>167</ele>
        <time>2021-05-09T09:17:32Z</time>
      </trkpt>
      <trkpt lat="44.23436" lon="0.76359">
        <ele>167.2</ele>
        <time>2021-05-09T09:17:34Z</time>
      </trkpt>
      <trkpt lat="44.23434" lon="0.76361">
        <ele>167.2</ele>
        <time>2021-05-09T09:17:36Z</time>
      </trkpt>
      <trkpt lat="44.23431" lon="0.76364">
        <ele>167.4</ele>
        <time>2021-05-09T09:17:38Z</time>
      </trkpt>
      <trkpt lat="44.2343" lon="0.76365">
        <ele>167.4</ele>
        <time>2021-05-09T09:17:39Z</time>
      </trkpt>
      <trkpt lat="44.23427" lon="0.76368">
        <ele>167.6</ele>
        <time>2021-05-09T09:17:42Z</time>
      </trkpt>
      <trkpt lat="44.23425" lon="0.7637">
        <ele>167.4</ele>
        <time>2021-05-09T09:17:44Z</time>
      </trkpt>
      <trkpt lat="44.23423" lon="0.76372">
        <ele>167.4</ele>
        <time>2021-05-09T09:17:46Z</time>
      </trkpt>
      <trkpt lat="44.23421" lon="0.76374">
        <ele>167.4</ele>
        <time>2021-05-09T09:17:48Z</time>
      </trkpt>
      <trkpt lat="44.2342" lon="0.76376">
        <ele>167.4</ele>
        <time>2021-05-09T09:17:50Z</time>
      </trkpt>
      <trkpt lat="44.23419" lon="0.76379">
        <ele>167.6</ele>
        <time>2021-05-09T09:17:52Z</time>
      </trkpt>
      <trkpt lat="44.23417" lon="0.76381">
        <ele>167.6</ele>
        <time>2021-05-09T09:17:54Z</time>
      </trkpt>
      <trkpt lat="44.23415" lon="0.76383">
        <ele>167.8</ele>
        <time>2021-05-09T09:17:56Z</time>
      </trkpt>
      <trkpt lat="44.23413" lon="0.76385">
        <ele>168</ele>
        <time>2021-05-09T09:17:58Z</time>
      </trkpt>
      <trkpt lat="44.23411" lon="0.76388">
        <ele>168.2</ele>
        <time>2021-05-09T09:18:00Z</time>
      </trkpt>
      <trkpt lat="44.2341" lon="0.7639">
        <ele>168.4</ele>
        <time>2021-05-09T09:18:02Z</time>
      </trkpt>
      <trkpt lat="44.23408" lon="0.76392">
        <ele>168.4</ele>
        <time>2021-05-09T09:18:04Z</time>
      </trkpt>
      <trkpt lat="44.23406" lon="0.76394">
        <ele>168.4</ele>
        <time>2021-05-09T09:18:06Z</time>
      </trkpt>
      <trkpt lat="44.23405" lon="0.76396">
        <ele>168.4</ele>
        <time>2021-05-09T09:18:08Z</time>
      </trkpt>
      <trkpt lat="44.23403" lon="0.76399">
        <ele>168.6</ele>
        <time>2021-05-09T09:18:10Z</time>
      </trkpt>
      <trkpt lat="44.23401" lon="0.76401">
        <ele>168.6</ele>
        <time>2021-05-09T09:18:12Z</time>
      </trkpt>
      <trkpt lat="44.23399" lon="0.76403">
        <ele>168.6</ele>
        <time>2021-05-09T09:18:14Z</time>
      </trkpt>
      <trkpt lat="44.23398" lon="0.76405">
        <ele>168.4</ele>
        <time>2021-05-09T09:18:16Z</time>
      </trkpt>
      <trkpt lat="44.23397" lon="0.76408">
        <ele>168.2</ele>
        <time>2021-05-09T09:18:18Z</time>
      </trkpt>
      <trkpt lat="44.23391" lon="0.76414">
        <ele>167.8</ele>
        <time>2021-05-09T09:18:28Z</time>
      </trkpt>
      <trkpt lat="44.23389" lon="0.76416">
        <ele>167.8</ele>
        <time>2021-05-09T09:18:30Z</time>
      </trkpt>
      <trkpt lat="44.23387" lon="0.76418">
        <ele>167.8</ele>
        <time>2021-05-09T09:18:32Z</time>
      </trkpt>
      <trkpt lat="44.23385" lon="0.76421">
        <ele>167.8</ele>
        <time>2021-05-09T09:18:34Z</time>
      </trkpt>
      <trkpt lat="44.23383" lon="0.76422">
        <ele>167.8</ele>
        <time>2021-05-09T09:18:35Z</time>
      </trkpt>
      <trkpt lat="44.23382" lon="0.76425">
        <ele>167.6</ele>
        <time>2021-05-09T09:18:37Z</time>
      </trkpt>
      <trkpt lat="44.2338" lon="0.76427">
        <ele>167.8</ele>
        <time>2021-05-09T09:18:39Z</time>
      </trkpt>
      <trkpt lat="44.23378" lon="0.7643">
        <ele>167.8</ele>
        <time>2021-05-09T09:18:41Z</time>
      </trkpt>
      <trkpt lat="44.23375" lon="0.76431">
        <ele>167.6</ele>
        <time>2021-05-09T09:18:43Z</time>
      </trkpt>
      <trkpt lat="44.23373" lon="0.76429">
        <ele>167.8</ele>
        <time>2021-05-09T09:18:46Z</time>
      </trkpt>
      <trkpt lat="44.23372" lon="0.76427">
        <ele>167.8</ele>
        <time>2021-05-09T09:18:48Z</time>
      </trkpt>
      <trkpt lat="44.2337" lon="0.76424">
        <ele>168</ele>
        <time>2021-05-09T09:18:50Z</time>
      </trkpt>
      <trkpt lat="44.23369" lon="0.7642">
        <ele>168</ele>
        <time>2021-05-09T09:18:52Z</time>
      </trkpt>
      <trkpt lat="44.23369" lon="0.76417">
        <ele>168</ele>
        <time>2021-05-09T09:18:54Z</time>
      </trkpt>
      <trkpt lat="44.23367" lon="0.76413">
        <ele>168.2</ele>
        <time>2021-05-09T09:18:56Z</time>
      </trkpt>
      <trkpt lat="44.23366" lon="0.76409">
        <ele>168.2</ele>
        <time>2021-05-09T09:18:58Z</time>
      </trkpt>
      <trkpt lat="44.23366" lon="0.76405">
        <ele>168.4</ele>
        <time>2021-05-09T09:19:00Z</time>
      </trkpt>
      <trkpt lat="44.23366" lon="0.76401">
        <ele>168.4</ele>
        <time>2021-05-09T09:19:02Z</time>
      </trkpt>
      <trkpt lat="44.23365" lon="0.76396">
        <ele>168.4</ele>
        <time>2021-05-09T09:19:04Z</time>
      </trkpt>
      <trkpt lat="44.23365" lon="0.76392">
        <ele>168.4</ele>
        <time>2021-05-09T09:19:06Z</time>
      </trkpt>
      <trkpt lat="44.23365" lon="0.76388">
        <ele>168.2</ele>
        <time>2021-05-09T09:19:08Z</time>
      </trkpt>
      <trkpt lat="44.23364" lon="0.76385">
        <ele>168.2</ele>
        <time>2021-05-09T09:19:10Z</time>
      </trkpt>
      <trkpt lat="44.23364" lon="0.76382">
        <ele>168</ele>
        <time>2021-05-09T09:19:12Z</time>
      </trkpt>
      <trkpt lat="44.23363" lon="0.76379">
        <ele>168.2</ele>
        <time>2021-05-09T09:19:14Z</time>
      </trkpt>
      <trkpt lat="44.23363" lon="0.76375">
        <ele>168.2</ele>
        <time>2021-05-09T09:19:16Z</time>
      </trkpt>
      <trkpt lat="44.23362" lon="0.76372">
        <ele>168.2</ele>
        <time>2021-05-09T09:19:18Z</time>
      </trkpt>
      <trkpt lat="44.23361" lon="0.76368">
        <ele>168</ele>
        <time>2021-05-09T09:19:20Z</time>
      </trkpt>
      <trkpt lat="44.2336" lon="0.76364">
        <ele>168.2</ele>
        <time>2021-05-09T09:19:22Z</time>
      </trkpt>
      <trkpt lat="44.23359" lon="0.76361">
        <ele>168.2</ele>
        <time>2021-05-09T09:19:23Z</time>
      </trkpt>
      <trkpt lat="44.23359" lon="0.76357">
        <ele>168.2</ele>
        <time>2021-05-09T09:19:25Z</time>
      </trkpt>
      <trkpt lat="44.23358" lon="0.76352">
        <ele>168.2</ele>
        <time>2021-05-09T09:19:27Z</time>
      </trkpt>
      <trkpt lat="44.23358" lon="0.76348">
        <ele>168.2</ele>
        <time>2021-05-09T09:19:29Z</time>
      </trkpt>
      <trkpt lat="44.23358" lon="0.76344">
        <ele>168.2</ele>
        <time>2021-05-09T09:19:31Z</time>
      </trkpt>
      <trkpt lat="44.23358" lon="0.7634">
        <ele>168.4</ele>
        <time>2021-05-09T09:19:33Z</time>
      </trkpt>
      <trkpt lat="44.23358" lon="0.76336">
        <ele>168.4</ele>
        <time>2021-05-09T09:19:35Z</time>
      </trkpt>
      <trkpt lat="44.23358" lon="0.76333">
        <ele>168.2</ele>
        <time>2021-05-09T09:19:37Z</time>
      </trkpt>
      <trkpt lat="44.23357" lon="0.76329">
        <ele>168.2</ele>
        <time>2021-05-09T09:19:39Z</time>
      </trkpt>
      <trkpt lat="44.23356" lon="0.76325">
        <ele>168.2</ele>
        <time>2021-05-09T09:19:41Z</time>
      </trkpt>
      <trkpt lat="44.23356" lon="0.76322">
        <ele>168</ele>
        <time>2021-05-09T09:19:43Z</time>
      </trkpt>
      <trkpt lat="44.23356" lon="0.76319">
        <ele>168</ele>
        <time>2021-05-09T09:19:45Z</time>
      </trkpt>
      <trkpt lat="44.23356" lon="0.76315">
        <ele>168</ele>
        <time>2021-05-09T09:19:47Z</time>
      </trkpt>
      <trkpt lat="44.23356" lon="0.76312">
        <ele>168</ele>
        <time>2021-05-09T09:19:49Z</time>
      </trkpt>
      <trkpt lat="44.23357" lon="0.76308">
        <ele>168</ele>
        <time>2021-05-09T09:19:51Z</time>
      </trkpt>
      <trkpt lat="44.23358" lon="0.76304">
        <ele>168</ele>
        <time>2021-05-09T09:19:53Z</time>
      </trkpt>
      <trkpt lat="44.23359" lon="0.76301">
        <ele>168</ele>
        <time>2021-05-09T09:19:55Z</time>
      </trkpt>
      <trkpt lat="44.2336" lon="0.76297">
        <ele>168</ele>
        <time>2021-05-09T09:19:57Z</time>
      </trkpt>
      <trkpt lat="44.2336" lon="0.76293">
        <ele>168</ele>
        <time>2021-05-09T09:19:59Z</time>
      </trkpt>
      <trkpt lat="44.2336" lon="0.7629">
        <ele>168</ele>
        <time>2021-05-09T09:20:01Z</time>
      </trkpt>
      <trkpt lat="44.23361" lon="0.76286">
        <ele>168.2</ele>
        <time>2021-05-09T09:20:03Z</time>
      </trkpt>
      <trkpt lat="44.23361" lon="0.76283">
        <ele>168.2</ele>
        <time>2021-05-09T09:20:05Z</time>
      </trkpt>
      <trkpt lat="44.23362" lon="0.76279">
        <ele>168.2</ele>
        <time>2021-05-09T09:20:07Z</time>
      </trkpt>
      <trkpt lat="44.23363" lon="0.76276">
        <ele>168.4</ele>
        <time>2021-05-09T09:20:09Z</time>
      </trkpt>
      <trkpt lat="44.23364" lon="0.76272">
        <ele>168.4</ele>
        <time>2021-05-09T09:20:11Z</time>
      </trkpt>
      <trkpt lat="44.23364" lon="0.76269">
        <ele>168.4</ele>
        <time>2021-05-09T09:20:13Z</time>
      </trkpt>
      <trkpt lat="44.23364" lon="0.76266">
        <ele>168.4</ele>
        <time>2021-05-09T09:20:15Z</time>
      </trkpt>
      <trkpt lat="44.23365" lon="0.76262">
        <ele>168.2</ele>
        <time>2021-05-09T09:20:17Z</time>
      </trkpt>
      <trkpt lat="44.23365" lon="0.76259">
        <ele>168</ele>
        <time>2021-05-09T09:20:19Z</time>
      </trkpt>
      <trkpt lat="44.23366" lon="0.76256">
        <ele>168</ele>
        <time>2021-05-09T09:20:21Z</time>
      </trkpt>
      <trkpt lat="44.23366" lon="0.76253">
        <ele>168</ele>
        <time>2021-05-09T09:20:24Z</time>
      </trkpt>
      <trkpt lat="44.23366" lon="0.76249">
        <ele>168</ele>
        <time>2021-05-09T09:20:26Z</time>
      </trkpt>
      <trkpt lat="44.23367" lon="0.76247">
        <ele>168</ele>
        <time>2021-05-09T09:20:27Z</time>
      </trkpt>
      <trkpt lat="44.23367" lon="0.76244">
        <ele>168</ele>
        <time>2021-05-09T09:20:29Z</time>
      </trkpt>
      <trkpt lat="44.23368" lon="0.7624">
        <ele>168.2</ele>
        <time>2021-05-09T09:20:31Z</time>
      </trkpt>
      <trkpt lat="44.23369" lon="0.76236">
        <ele>168.2</ele>
        <time>2021-05-09T09:20:33Z</time>
      </trkpt>
      <trkpt lat="44.23369" lon="0.76232">
        <ele>168.2</ele>
        <time>2021-05-09T09:20:35Z</time>
      </trkpt>
      <trkpt lat="44.2337" lon="0.76228">
        <ele>168.2</ele>
        <time>2021-05-09T09:20:37Z</time>
      </trkpt>
      <trkpt lat="44.23371" lon="0.76224">
        <ele>168.2</ele>
        <time>2021-05-09T09:20:39Z</time>
      </trkpt>
      <trkpt lat="44.23372" lon="0.76221">
        <ele>168.2</ele>
        <time>2021-05-09T09:20:41Z</time>
      </trkpt>
      <trkpt lat="44.23373" lon="0.76217">
        <ele>168.4</ele>
        <time>2021-05-09T09:20:43Z</time>
      </trkpt>
      <trkpt lat="44.23374" lon="0.76213">
        <ele>168.6</ele>
        <time>2021-05-09T09:20:45Z</time>
      </trkpt>
      <trkpt lat="44.23374" lon="0.76209">
        <ele>168.6</ele>
        <time>2021-05-09T09:20:47Z</time>
      </trkpt>
      <trkpt lat="44.23375" lon="0.76205">
        <ele>168.6</ele>
        <time>2021-05-09T09:20:49Z</time>
      </trkpt>
      <trkpt lat="44.23376" lon="0.76201">
        <ele>168.4</ele>
        <time>2021-05-09T09:20:51Z</time>
      </trkpt>
      <trkpt lat="44.23377" lon="0.76198">
        <ele>168.4</ele>
        <time>2021-05-09T09:20:53Z</time>
      </trkpt>
      <trkpt lat="44.23377" lon="0.76195">
        <ele>168.2</ele>
        <time>2021-05-09T09:20:55Z</time>
      </trkpt>
      <trkpt lat="44.23378" lon="0.76192">
        <ele>167.8</ele>
        <time>2021-05-09T09:20:57Z</time>
      </trkpt>
      <trkpt lat="44.23378" lon="0.76188">
        <ele>167.6</ele>
        <time>2021-05-09T09:20:59Z</time>
      </trkpt>
      <trkpt lat="44.23379" lon="0.76186">
        <ele>167.6</ele>
        <time>2021-05-09T09:21:01Z</time>
      </trkpt>
      <trkpt lat="44.2338" lon="0.76183">
        <ele>167.6</ele>
        <time>2021-05-09T09:21:03Z</time>
      </trkpt>
      <trkpt lat="44.2338" lon="0.7618">
        <ele>167.4</ele>
        <time>2021-05-09T09:21:05Z</time>
      </trkpt>
      <trkpt lat="44.2338" lon="0.76177">
        <ele>167.4</ele>
        <time>2021-05-09T09:21:07Z</time>
      </trkpt>
      <trkpt lat="44.2338" lon="0.76173">
        <ele>167.2</ele>
        <time>2021-05-09T09:21:09Z</time>
      </trkpt>
      <trkpt lat="44.23381" lon="0.76169">
        <ele>167.2</ele>
        <time>2021-05-09T09:21:11Z</time>
      </trkpt>
      <trkpt lat="44.23383" lon="0.76165">
        <ele>167.4</ele>
        <time>2021-05-09T09:21:13Z</time>
      </trkpt>
      <trkpt lat="44.23383" lon="0.76161">
        <ele>167.4</ele>
        <time>2021-05-09T09:21:15Z</time>
      </trkpt>
      <trkpt lat="44.23385" lon="0.76156">
        <ele>167.4</ele>
        <time>2021-05-09T09:21:17Z</time>
      </trkpt>
      <trkpt lat="44.23386" lon="0.76153">
        <ele>167.2</ele>
        <time>2021-05-09T09:21:19Z</time>
      </trkpt>
      <trkpt lat="44.23386" lon="0.76149">
        <ele>167</ele>
        <time>2021-05-09T09:21:21Z</time>
      </trkpt>
      <trkpt lat="44.23388" lon="0.76145">
        <ele>167</ele>
        <time>2021-05-09T09:21:23Z</time>
      </trkpt>
      <trkpt lat="44.23389" lon="0.76142">
        <ele>167</ele>
        <time>2021-05-09T09:21:25Z</time>
      </trkpt>
      <trkpt lat="44.2339" lon="0.76138">
        <ele>167</ele>
        <time>2021-05-09T09:21:27Z</time>
      </trkpt>
      <trkpt lat="44.23391" lon="0.76134">
        <ele>166.8</ele>
        <time>2021-05-09T09:21:29Z</time>
      </trkpt>
      <trkpt lat="44.23392" lon="0.76131">
        <ele>166.8</ele>
        <time>2021-05-09T09:21:31Z</time>
      </trkpt>
      <trkpt lat="44.23392" lon="0.76128">
        <ele>166.8</ele>
        <time>2021-05-09T09:21:33Z</time>
      </trkpt>
      <trkpt lat="44.23393" lon="0.76124">
        <ele>166.6</ele>
        <time>2021-05-09T09:21:35Z</time>
      </trkpt>
      <trkpt lat="44.23393" lon="0.76121">
        <ele>166.6</ele>
        <time>2021-05-09T09:21:37Z</time>
      </trkpt>
      <trkpt lat="44.23394" lon="0.76118">
        <ele>166.4</ele>
        <time>2021-05-09T09:21:39Z</time>
      </trkpt>
      <trkpt lat="44.23394" lon="0.76116">
        <ele>166.4</ele>
        <time>2021-05-09T09:21:41Z</time>
      </trkpt>
      <trkpt lat="44.23395" lon="0.76113">
        <ele>166.2</ele>
        <time>2021-05-09T09:21:43Z</time>
      </trkpt>
      <trkpt lat="44.23395" lon="0.7611">
        <ele>166.2</ele>
        <time>2021-05-09T09:21:45Z</time>
      </trkpt>
      <trkpt lat="44.23395" lon="0.76107">
        <ele>166.2</ele>
        <time>2021-05-09T09:21:47Z</time>
      </trkpt>
      <trkpt lat="44.23396" lon="0.76104">
        <ele>165.8</ele>
        <time>2021-05-09T09:21:49Z</time>
      </trkpt>
      <trkpt lat="44.23396" lon="0.76101">
        <ele>165.6</ele>
        <time>2021-05-09T09:21:51Z</time>
      </trkpt>
      <trkpt lat="44.23397" lon="0.76097">
        <ele>165.4</ele>
        <time>2021-05-09T09:21:53Z</time>
      </trkpt>
      <trkpt lat="44.23397" lon="0.76094">
        <ele>165.4</ele>
        <time>2021-05-09T09:21:55Z</time>
      </trkpt>
      <trkpt lat="44.23397" lon="0.7609">
        <ele>165.2</ele>
        <time>2021-05-09T09:21:57Z</time>
      </trkpt>
      <trkpt lat="44.23398" lon="0.76086">
        <ele>165.2</ele>
        <time>2021-05-09T09:21:59Z</time>
      </trkpt>
      <trkpt lat="44.23399" lon="0.76083">
        <ele>165.2</ele>
        <time>2021-05-09T09:22:01Z</time>
      </trkpt>
      <trkpt lat="44.23399" lon="0.7608">
        <ele>165.2</ele>
        <time>2021-05-09T09:22:03Z</time>
      </trkpt>
      <trkpt lat="44.23399" lon="0.76077">
        <ele>165</ele>
        <time>2021-05-09T09:22:05Z</time>
      </trkpt>
      <trkpt lat="44.23399" lon="0.76073">
        <ele>165</ele>
        <time>2021-05-09T09:22:07Z</time>
      </trkpt>
      <trkpt lat="44.234" lon="0.76069">
        <ele>164.8</ele>
        <time>2021-05-09T09:22:09Z</time>
      </trkpt>
      <trkpt lat="44.23401" lon="0.76066">
        <ele>164.8</ele>
        <time>2021-05-09T09:22:11Z</time>
      </trkpt>
      <trkpt lat="44.23401" lon="0.76062">
        <ele>164.8</ele>
        <time>2021-05-09T09:22:13Z</time>
      </trkpt>
      <trkpt lat="44.23402" lon="0.76058">
        <ele>164.6</ele>
        <time>2021-05-09T09:22:15Z</time>
      </trkpt>
      <trkpt lat="44.23403" lon="0.76055">
        <ele>164.6</ele>
        <time>2021-05-09T09:22:17Z</time>
      </trkpt>
      <trkpt lat="44.23404" lon="0.76051">
        <ele>164.6</ele>
        <time>2021-05-09T09:22:19Z</time>
      </trkpt>
      <trkpt lat="44.23404" lon="0.76047">
        <ele>164.8</ele>
        <time>2021-05-09T09:22:21Z</time>
      </trkpt>
      <trkpt lat="44.23405" lon="0.76044">
        <ele>164.8</ele>
        <time>2021-05-09T09:22:23Z</time>
      </trkpt>
      <trkpt lat="44.23405" lon="0.7604">
        <ele>164.8</ele>
        <time>2021-05-09T09:22:25Z</time>
      </trkpt>
      <trkpt lat="44.23406" lon="0.76036">
        <ele>164.6</ele>
        <time>2021-05-09T09:22:27Z</time>
      </trkpt>
      <trkpt lat="44.23407" lon="0.76033">
        <ele>164.6</ele>
        <time>2021-05-09T09:22:29Z</time>
      </trkpt>
      <trkpt lat="44.23409" lon="0.76029">
        <ele>164.6</ele>
        <time>2021-05-09T09:22:31Z</time>
      </trkpt>
      <trkpt lat="44.2341" lon="0.76026">
        <ele>164.6</ele>
        <time>2021-05-09T09:22:33Z</time>
      </trkpt>
      <trkpt lat="44.2341" lon="0.76022">
        <ele>164.6</ele>
        <time>2021-05-09T09:22:35Z</time>
      </trkpt>
      <trkpt lat="44.23411" lon="0.76019">
        <ele>164.6</ele>
        <time>2021-05-09T09:22:37Z</time>
      </trkpt>
      <trkpt lat="44.23412" lon="0.76016">
        <ele>164.6</ele>
        <time>2021-05-09T09:22:39Z</time>
      </trkpt>
      <trkpt lat="44.23413" lon="0.76013">
        <ele>164.4</ele>
        <time>2021-05-09T09:22:41Z</time>
      </trkpt>
      <trkpt lat="44.23414" lon="0.7601">
        <ele>164.4</ele>
        <time>2021-05-09T09:22:43Z</time>
      </trkpt>
      <trkpt lat="44.23415" lon="0.76006">
        <ele>164.4</ele>
        <time>2021-05-09T09:22:45Z</time>
      </trkpt>
      <trkpt lat="44.23417" lon="0.76003">
        <ele>164.4</ele>
        <time>2021-05-09T09:22:47Z</time>
      </trkpt>
      <trkpt lat="44.23418" lon="0.76">
        <ele>164.6</ele>
        <time>2021-05-09T09:22:49Z</time>
      </trkpt>
      <trkpt lat="44.23419" lon="0.75997">
        <ele>164.6</ele>
        <time>2021-05-09T09:22:51Z</time>
      </trkpt>
      <trkpt lat="44.23419" lon="0.75993">
        <ele>164.4</ele>
        <time>2021-05-09T09:22:53Z</time>
      </trkpt>
      <trkpt lat="44.23419" lon="0.7599">
        <ele>164.4</ele>
        <time>2021-05-09T09:22:55Z</time>
      </trkpt>
      <trkpt lat="44.2342" lon="0.75987">
        <ele>164.4</ele>
        <time>2021-05-09T09:22:57Z</time>
      </trkpt>
      <trkpt lat="44.2342" lon="0.75993">
        <ele>164.4</ele>
        <time>2021-05-09T09:23:06Z</time>
      </trkpt>
      <trkpt lat="44.23419" lon="0.7599">
        <ele>163.8</ele>
        <time>2021-05-09T09:23:13Z</time>
      </trkpt>
      <trkpt lat="44.23418" lon="0.75987">
        <ele>163.8</ele>
        <time>2021-05-09T09:23:15Z</time>
      </trkpt>
      <trkpt lat="44.23418" lon="0.75983">
        <ele>163.8</ele>
        <time>2021-05-09T09:23:17Z</time>
      </trkpt>
      <trkpt lat="44.23417" lon="0.7598">
        <ele>163.6</ele>
        <time>2021-05-09T09:23:19Z</time>
      </trkpt>
      <trkpt lat="44.23417" lon="0.75977">
        <ele>163.6</ele>
        <time>2021-05-09T09:23:21Z</time>
      </trkpt>
      <trkpt lat="44.23417" lon="0.75973">
        <ele>163.4</ele>
        <time>2021-05-09T09:23:23Z</time>
      </trkpt>
      <trkpt lat="44.23417" lon="0.7597">
        <ele>163.4</ele>
        <time>2021-05-09T09:23:25Z</time>
      </trkpt>
      <trkpt lat="44.23418" lon="0.75967">
        <ele>163.4</ele>
        <time>2021-05-09T09:23:27Z</time>
      </trkpt>
      <trkpt lat="44.23417" lon="0.75964">
        <ele>163.2</ele>
        <time>2021-05-09T09:23:30Z</time>
      </trkpt>
      <trkpt lat="44.23419" lon="0.75962">
        <ele>163.2</ele>
        <time>2021-05-09T09:23:33Z</time>
      </trkpt>
      <trkpt lat="44.23419" lon="0.75959">
        <ele>163.2</ele>
        <time>2021-05-09T09:23:36Z</time>
      </trkpt>
      <trkpt lat="44.2342" lon="0.75956">
        <ele>163.2</ele>
        <time>2021-05-09T09:23:38Z</time>
      </trkpt>
      <trkpt lat="44.2342" lon="0.75954">
        <ele>163.4</ele>
        <time>2021-05-09T09:23:41Z</time>
      </trkpt>
      <trkpt lat="44.23419" lon="0.75941">
        <ele>163.6</ele>
        <time>2021-05-09T09:23:52Z</time>
      </trkpt>
      <trkpt lat="44.23419" lon="0.75937">
        <ele>163.6</ele>
        <time>2021-05-09T09:23:54Z</time>
      </trkpt>
      <trkpt lat="44.2342" lon="0.75933">
        <ele>163.8</ele>
        <time>2021-05-09T09:23:56Z</time>
      </trkpt>
      <trkpt lat="44.23421" lon="0.75931">
        <ele>163.8</ele>
        <time>2021-05-09T09:23:58Z</time>
      </trkpt>
      <trkpt lat="44.23421" lon="0.75928">
        <ele>164</ele>
        <time>2021-05-09T09:24:00Z</time>
      </trkpt>
      <trkpt lat="44.23422" lon="0.75924">
        <ele>164.2</ele>
        <time>2021-05-09T09:24:02Z</time>
      </trkpt>
      <trkpt lat="44.23422" lon="0.75921">
        <ele>164.2</ele>
        <time>2021-05-09T09:24:04Z</time>
      </trkpt>
      <trkpt lat="44.23421" lon="0.75918">
        <ele>164.4</ele>
        <time>2021-05-09T09:24:07Z</time>
      </trkpt>
      <trkpt lat="44.23421" lon="0.75915">
        <ele>164.4</ele>
        <time>2021-05-09T09:24:09Z</time>
      </trkpt>
      <trkpt lat="44.23421" lon="0.75911">
        <ele>164.4</ele>
        <time>2021-05-09T09:24:11Z</time>
      </trkpt>
      <trkpt lat="44.23421" lon="0.75907">
        <ele>164.4</ele>
        <time>2021-05-09T09:24:13Z</time>
      </trkpt>
      <trkpt lat="44.2342" lon="0.75902">
        <ele>164.2</ele>
        <time>2021-05-09T09:24:15Z</time>
      </trkpt>
      <trkpt lat="44.23419" lon="0.75899">
        <ele>164</ele>
        <time>2021-05-09T09:24:17Z</time>
      </trkpt>
      <trkpt lat="44.23418" lon="0.75895">
        <ele>163.8</ele>
        <time>2021-05-09T09:24:19Z</time>
      </trkpt>
      <trkpt lat="44.23418" lon="0.75891">
        <ele>163.6</ele>
        <time>2021-05-09T09:24:21Z</time>
      </trkpt>
      <trkpt lat="44.23417" lon="0.75887">
        <ele>163</ele>
        <time>2021-05-09T09:24:23Z</time>
      </trkpt>
      <trkpt lat="44.23417" lon="0.75883">
        <ele>162.6</ele>
        <time>2021-05-09T09:24:25Z</time>
      </trkpt>
      <trkpt lat="44.23417" lon="0.75879">
        <ele>162.2</ele>
        <time>2021-05-09T09:24:27Z</time>
      </trkpt>
      <trkpt lat="44.23418" lon="0.75875">
        <ele>162</ele>
        <time>2021-05-09T09:24:29Z</time>
      </trkpt>
      <trkpt lat="44.23418" lon="0.75871">
        <ele>161.8</ele>
        <time>2021-05-09T09:24:31Z</time>
      </trkpt>
      <trkpt lat="44.23419" lon="0.75867">
        <ele>161.6</ele>
        <time>2021-05-09T09:24:33Z</time>
      </trkpt>
      <trkpt lat="44.2342" lon="0.75864">
        <ele>161.2</ele>
        <time>2021-05-09T09:24:35Z</time>
      </trkpt>
      <trkpt lat="44.23421" lon="0.7586">
        <ele>161</ele>
        <time>2021-05-09T09:24:37Z</time>
      </trkpt>
      <trkpt lat="44.23421" lon="0.75857">
        <ele>160.8</ele>
        <time>2021-05-09T09:24:38Z</time>
      </trkpt>
      <trkpt lat="44.23422" lon="0.75854">
        <ele>160.6</ele>
        <time>2021-05-09T09:24:40Z</time>
      </trkpt>
      <trkpt lat="44.23423" lon="0.7585">
        <ele>160.2</ele>
        <time>2021-05-09T09:24:42Z</time>
      </trkpt>
      <trkpt lat="44.23423" lon="0.75846">
        <ele>160</ele>
        <time>2021-05-09T09:24:44Z</time>
      </trkpt>
      <trkpt lat="44.23424" lon="0.75842">
        <ele>159.8</ele>
        <time>2021-05-09T09:24:46Z</time>
      </trkpt>
      <trkpt lat="44.23424" lon="0.75839">
        <ele>159.6</ele>
        <time>2021-05-09T09:24:48Z</time>
      </trkpt>
      <trkpt lat="44.23424" lon="0.75835">
        <ele>159.2</ele>
        <time>2021-05-09T09:24:50Z</time>
      </trkpt>
      <trkpt lat="44.23425" lon="0.75832">
        <ele>159</ele>
        <time>2021-05-09T09:24:52Z</time>
      </trkpt>
      <trkpt lat="44.23425" lon="0.75829">
        <ele>158.6</ele>
        <time>2021-05-09T09:24:54Z</time>
      </trkpt>
      <trkpt lat="44.23426" lon="0.75826">
        <ele>158.4</ele>
        <time>2021-05-09T09:24:56Z</time>
      </trkpt>
      <trkpt lat="44.23426" lon="0.75823">
        <ele>158</ele>
        <time>2021-05-09T09:24:58Z</time>
      </trkpt>
      <trkpt lat="44.23426" lon="0.7582">
        <ele>157.8</ele>
        <time>2021-05-09T09:25:00Z</time>
      </trkpt>
      <trkpt lat="44.23426" lon="0.75817">
        <ele>157.6</ele>
        <time>2021-05-09T09:25:02Z</time>
      </trkpt>
      <trkpt lat="44.23427" lon="0.75814">
        <ele>157.6</ele>
        <time>2021-05-09T09:25:04Z</time>
      </trkpt>
      <trkpt lat="44.23427" lon="0.7581">
        <ele>157.4</ele>
        <time>2021-05-09T09:25:06Z</time>
      </trkpt>
      <trkpt lat="44.23427" lon="0.75807">
        <ele>157.2</ele>
        <time>2021-05-09T09:25:08Z</time>
      </trkpt>
      <trkpt lat="44.23428" lon="0.75803">
        <ele>157.2</ele>
        <time>2021-05-09T09:25:10Z</time>
      </trkpt>
      <trkpt lat="44.23429" lon="0.758">
        <ele>157.2</ele>
        <time>2021-05-09T09:25:12Z</time>
      </trkpt>
      <trkpt lat="44.2343" lon="0.75797">
        <ele>157.2</ele>
        <time>2021-05-09T09:25:14Z</time>
      </trkpt>
      <trkpt lat="44.23431" lon="0.75794">
        <ele>157.2</ele>
        <time>2021-05-09T09:25:16Z</time>
      </trkpt>
      <trkpt lat="44.23433" lon="0.75791">
        <ele>157.2</ele>
        <time>2021-05-09T09:25:18Z</time>
      </trkpt>
      <trkpt lat="44.23434" lon="0.75787">
        <ele>157.2</ele>
        <time>2021-05-09T09:25:20Z</time>
      </trkpt>
      <trkpt lat="44.23435" lon="0.75783">
        <ele>157.4</ele>
        <time>2021-05-09T09:25:22Z</time>
      </trkpt>
      <trkpt lat="44.23437" lon="0.75781">
        <ele>157.4</ele>
        <time>2021-05-09T09:25:24Z</time>
      </trkpt>
      <trkpt lat="44.23438" lon="0.75778">
        <ele>157.4</ele>
        <time>2021-05-09T09:25:26Z</time>
      </trkpt>
      <trkpt lat="44.2344" lon="0.75776">
        <ele>157.6</ele>
        <time>2021-05-09T09:25:29Z</time>
      </trkpt>
      <trkpt lat="44.23439" lon="0.75772">
        <ele>157.4</ele>
        <time>2021-05-09T09:25:37Z</time>
      </trkpt>
      <trkpt lat="44.23437" lon="0.7577">
        <ele>157.2</ele>
        <time>2021-05-09T09:25:40Z</time>
      </trkpt>
      <trkpt lat="44.23435" lon="0.75769">
        <ele>156.8</ele>
        <time>2021-05-09T09:25:42Z</time>
      </trkpt>
      <trkpt lat="44.23433" lon="0.75767">
        <ele>156.6</ele>
        <time>2021-05-09T09:25:44Z</time>
      </trkpt>
      <trkpt lat="44.23432" lon="0.75765">
        <ele>156.2</ele>
        <time>2021-05-09T09:25:47Z</time>
      </trkpt>
      <trkpt lat="44.23431" lon="0.75763">
        <ele>155.8</ele>
        <time>2021-05-09T09:25:50Z</time>
      </trkpt>
      <trkpt lat="44.23428" lon="0.75763">
        <ele>155.6</ele>
        <time>2021-05-09T09:25:53Z</time>
      </trkpt>
      <trkpt lat="44.23425" lon="0.75763">
        <ele>155.6</ele>
        <time>2021-05-09T09:25:55Z</time>
      </trkpt>
      <trkpt lat="44.23423" lon="0.75763">
        <ele>155.6</ele>
        <time>2021-05-09T09:25:57Z</time>
      </trkpt>
      <trkpt lat="44.23421" lon="0.75761">
        <ele>155.6</ele>
        <time>2021-05-09T09:25:59Z</time>
      </trkpt>
      <trkpt lat="44.2342" lon="0.7576">
        <ele>155.6</ele>
        <time>2021-05-09T09:26:01Z</time>
      </trkpt>
      <trkpt lat="44.23418" lon="0.75759">
        <ele>155.6</ele>
        <time>2021-05-09T09:26:03Z</time>
      </trkpt>
      <trkpt lat="44.23416" lon="0.75757">
        <ele>155.6</ele>
        <time>2021-05-09T09:26:06Z</time>
      </trkpt>
      <trkpt lat="44.23414" lon="0.75756">
        <ele>155.6</ele>
        <time>2021-05-09T09:26:08Z</time>
      </trkpt>
      <trkpt lat="44.23412" lon="0.75754">
        <ele>155.4</ele>
        <time>2021-05-09T09:26:10Z</time>
      </trkpt>
      <trkpt lat="44.23415" lon="0.75748">
        <ele>156.6</ele>
        <time>2021-05-09T09:26:41Z</time>
      </trkpt>
      <trkpt lat="44.23417" lon="0.75749">
        <ele>156.4</ele>
        <time>2021-05-09T09:26:43Z</time>
      </trkpt>
      <trkpt lat="44.23419" lon="0.75749">
        <ele>156</ele>
        <time>2021-05-09T09:26:46Z</time>
      </trkpt>
      <trkpt lat="44.23421" lon="0.75748">
        <ele>155.6</ele>
        <time>2021-05-09T09:26:48Z</time>
      </trkpt>
      <trkpt lat="44.23423" lon="0.75748">
        <ele>155.4</ele>
        <time>2021-05-09T09:26:50Z</time>
      </trkpt>
      <trkpt lat="44.23426" lon="0.75748">
        <ele>155.2</ele>
        <time>2021-05-09T09:26:52Z</time>
      </trkpt>
      <trkpt lat="44.23428" lon="0.75747">
        <ele>155</ele>
        <time>2021-05-09T09:26:54Z</time>
      </trkpt>
      <trkpt lat="44.2343" lon="0.75748">
        <ele>154.8</ele>
        <time>2021-05-09T09:26:56Z</time>
      </trkpt>
      <trkpt lat="44.23433" lon="0.75747">
        <ele>154.6</ele>
        <time>2021-05-09T09:26:58Z</time>
      </trkpt>
      <trkpt lat="44.23436" lon="0.75746">
        <ele>154.4</ele>
        <time>2021-05-09T09:27:00Z</time>
      </trkpt>
      <trkpt lat="44.23437" lon="0.75746">
        <ele>154.4</ele>
        <time>2021-05-09T09:27:01Z</time>
      </trkpt>
      <trkpt lat="44.2344" lon="0.75747">
        <ele>154.2</ele>
        <time>2021-05-09T09:27:03Z</time>
      </trkpt>
      <trkpt lat="44.23443" lon="0.75747">
        <ele>154</ele>
        <time>2021-05-09T09:27:05Z</time>
      </trkpt>
      <trkpt lat="44.23445" lon="0.75747">
        <ele>153.8</ele>
        <time>2021-05-09T09:27:07Z</time>
      </trkpt>
      <trkpt lat="44.23449" lon="0.75744">
        <ele>153.6</ele>
        <time>2021-05-09T09:27:09Z</time>
      </trkpt>
      <trkpt lat="44.23451" lon="0.75744">
        <ele>153.6</ele>
        <time>2021-05-09T09:27:11Z</time>
      </trkpt>
      <trkpt lat="44.23454" lon="0.75743">
        <ele>153.4</ele>
        <time>2021-05-09T09:27:13Z</time>
      </trkpt>
      <trkpt lat="44.23456" lon="0.75743">
        <ele>153.4</ele>
        <time>2021-05-09T09:27:15Z</time>
      </trkpt>
      <trkpt lat="44.23459" lon="0.75743">
        <ele>153.2</ele>
        <time>2021-05-09T09:27:18Z</time>
      </trkpt>
      <trkpt lat="44.2346" lon="0.75742">
        <ele>153.2</ele>
        <time>2021-05-09T09:27:20Z</time>
      </trkpt>
      <trkpt lat="44.23463" lon="0.7574">
        <ele>153.2</ele>
        <time>2021-05-09T09:27:23Z</time>
      </trkpt>
      <trkpt lat="44.23465" lon="0.75739">
        <ele>153</ele>
        <time>2021-05-09T09:27:25Z</time>
      </trkpt>
      <trkpt lat="44.23468" lon="0.75738">
        <ele>153</ele>
        <time>2021-05-09T09:27:27Z</time>
      </trkpt>
      <trkpt lat="44.23469" lon="0.75737">
        <ele>152.8</ele>
        <time>2021-05-09T09:27:29Z</time>
      </trkpt>
      <trkpt lat="44.23472" lon="0.75735">
        <ele>152.6</ele>
        <time>2021-05-09T09:27:31Z</time>
      </trkpt>
      <trkpt lat="44.23474" lon="0.75734">
        <ele>152.4</ele>
        <time>2021-05-09T09:27:32Z</time>
      </trkpt>
      <trkpt lat="44.23477" lon="0.75732">
        <ele>152.4</ele>
        <time>2021-05-09T09:27:34Z</time>
      </trkpt>
      <trkpt lat="44.23479" lon="0.7573">
        <ele>152.2</ele>
        <time>2021-05-09T09:27:36Z</time>
      </trkpt>
      <trkpt lat="44.23477" lon="0.75729">
        <ele>152</ele>
        <time>2021-05-09T09:27:40Z</time>
      </trkpt>
      <trkpt lat="44.23475" lon="0.75726">
        <ele>151.8</ele>
        <time>2021-05-09T09:27:43Z</time>
      </trkpt>
      <trkpt lat="44.23473" lon="0.75725">
        <ele>151.4</ele>
        <time>2021-05-09T09:27:45Z</time>
      </trkpt>
      <trkpt lat="44.23471" lon="0.75723">
        <ele>151.2</ele>
        <time>2021-05-09T09:27:47Z</time>
      </trkpt>
      <trkpt lat="44.23469" lon="0.75723">
        <ele>150.8</ele>
        <time>2021-05-09T09:27:50Z</time>
      </trkpt>
      <trkpt lat="44.23468" lon="0.75721">
        <ele>150.4</ele>
        <time>2021-05-09T09:27:52Z</time>
      </trkpt>
      <trkpt lat="44.23467" lon="0.75718">
        <ele>149.6</ele>
        <time>2021-05-09T09:27:56Z</time>
      </trkpt>
      <trkpt lat="44.23467" lon="0.75716">
        <ele>148.6</ele>
        <time>2021-05-09T09:28:00Z</time>
      </trkpt>
      <trkpt lat="44.23465" lon="0.75713">
        <ele>147.2</ele>
        <time>2021-05-09T09:28:04Z</time>
      </trkpt>
      <trkpt lat="44.23464" lon="0.75709">
        <ele>146.6</ele>
        <time>2021-05-09T09:28:06Z</time>
      </trkpt>
      <trkpt lat="44.23464" lon="0.75706">
        <ele>146</ele>
        <time>2021-05-09T09:28:08Z</time>
      </trkpt>
      <trkpt lat="44.23464" lon="0.75703">
        <ele>145.4</ele>
        <time>2021-05-09T09:28:11Z</time>
      </trkpt>
      <trkpt lat="44.23465" lon="0.75699">
        <ele>145</ele>
        <time>2021-05-09T09:28:13Z</time>
      </trkpt>
      <trkpt lat="44.23465" lon="0.75695">
        <ele>144.8</ele>
        <time>2021-05-09T09:28:15Z</time>
      </trkpt>
      <trkpt lat="44.23466" lon="0.75692">
        <ele>144.6</ele>
        <time>2021-05-09T09:28:17Z</time>
      </trkpt>
      <trkpt lat="44.23466" lon="0.75689">
        <ele>144.4</ele>
        <time>2021-05-09T09:28:19Z</time>
      </trkpt>
      <trkpt lat="44.23465" lon="0.75684">
        <ele>144.4</ele>
        <time>2021-05-09T09:28:21Z</time>
      </trkpt>
      <trkpt lat="44.23464" lon="0.7568">
        <ele>144.4</ele>
        <time>2021-05-09T09:28:23Z</time>
      </trkpt>
      <trkpt lat="44.23464" lon="0.75677">
        <ele>144.2</ele>
        <time>2021-05-09T09:28:25Z</time>
      </trkpt>
      <trkpt lat="44.23466" lon="0.75673">
        <ele>144.2</ele>
        <time>2021-05-09T09:28:27Z</time>
      </trkpt>
      <trkpt lat="44.23467" lon="0.75669">
        <ele>144.2</ele>
        <time>2021-05-09T09:28:29Z</time>
      </trkpt>
      <trkpt lat="44.23468" lon="0.75667">
        <ele>144.2</ele>
        <time>2021-05-09T09:28:30Z</time>
      </trkpt>
      <trkpt lat="44.23469" lon="0.75663">
        <ele>144.4</ele>
        <time>2021-05-09T09:28:32Z</time>
      </trkpt>
      <trkpt lat="44.23471" lon="0.75659">
        <ele>144.4</ele>
        <time>2021-05-09T09:28:34Z</time>
      </trkpt>
      <trkpt lat="44.23473" lon="0.75657">
        <ele>144.6</ele>
        <time>2021-05-09T09:28:35Z</time>
      </trkpt>
      <trkpt lat="44.23475" lon="0.75655">
        <ele>144.6</ele>
        <time>2021-05-09T09:28:37Z</time>
      </trkpt>
      <trkpt lat="44.23476" lon="0.75653">
        <ele>144.6</ele>
        <time>2021-05-09T09:28:39Z</time>
      </trkpt>
      <trkpt lat="44.23478" lon="0.75652">
        <ele>144.6</ele>
        <time>2021-05-09T09:28:42Z</time>
      </trkpt>
      <trkpt lat="44.2348" lon="0.75651">
        <ele>144.6</ele>
        <time>2021-05-09T09:28:44Z</time>
      </trkpt>
      <trkpt lat="44.23488" lon="0.75647">
        <ele>144.2</ele>
        <time>2021-05-09T09:28:51Z</time>
      </trkpt>
      <trkpt lat="44.2349" lon="0.75645">
        <ele>144</ele>
        <time>2021-05-09T09:28:53Z</time>
      </trkpt>
      <trkpt lat="44.23492" lon="0.75644">
        <ele>143.8</ele>
        <time>2021-05-09T09:28:55Z</time>
      </trkpt>
      <trkpt lat="44.23495" lon="0.75641">
        <ele>143.4</ele>
        <time>2021-05-09T09:28:58Z</time>
      </trkpt>
      <trkpt lat="44.23496" lon="0.75638">
        <ele>143.2</ele>
        <time>2021-05-09T09:29:02Z</time>
      </trkpt>
      <trkpt lat="44.23498" lon="0.75637">
        <ele>143.2</ele>
        <time>2021-05-09T09:29:03Z</time>
      </trkpt>
      <trkpt lat="44.23499" lon="0.75634">
        <ele>143.2</ele>
        <time>2021-05-09T09:29:06Z</time>
      </trkpt>
      <trkpt lat="44.23501" lon="0.75632">
        <ele>143.2</ele>
        <time>2021-05-09T09:29:08Z</time>
      </trkpt>
      <trkpt lat="44.23503" lon="0.7563">
        <ele>143.2</ele>
        <time>2021-05-09T09:29:10Z</time>
      </trkpt>
      <trkpt lat="44.23505" lon="0.75628">
        <ele>143.2</ele>
        <time>2021-05-09T09:29:12Z</time>
      </trkpt>
      <trkpt lat="44.23506" lon="0.75625">
        <ele>142.8</ele>
        <time>2021-05-09T09:29:14Z</time>
      </trkpt>
      <trkpt lat="44.23507" lon="0.75623">
        <ele>142.6</ele>
        <time>2021-05-09T09:29:16Z</time>
      </trkpt>
      <trkpt lat="44.23509" lon="0.7562">
        <ele>142.4</ele>
        <time>2021-05-09T09:29:18Z</time>
      </trkpt>
      <trkpt lat="44.23511" lon="0.75618">
        <ele>142.4</ele>
        <time>2021-05-09T09:29:19Z</time>
      </trkpt>
      <trkpt lat="44.23513" lon="0.75615">
        <ele>142.2</ele>
        <time>2021-05-09T09:29:21Z</time>
      </trkpt>
      <trkpt lat="44.23514" lon="0.75611">
        <ele>142.2</ele>
        <time>2021-05-09T09:29:23Z</time>
      </trkpt>
      <trkpt lat="44.23515" lon="0.75607">
        <ele>142</ele>
        <time>2021-05-09T09:29:25Z</time>
      </trkpt>
      <trkpt lat="44.23516" lon="0.75604">
        <ele>142</ele>
        <time>2021-05-09T09:29:27Z</time>
      </trkpt>
      <trkpt lat="44.23516" lon="0.75601">
        <ele>142</ele>
        <time>2021-05-09T09:29:29Z</time>
      </trkpt>
      <trkpt lat="44.23517" lon="0.75598">
        <ele>141.8</ele>
        <time>2021-05-09T09:29:32Z</time>
      </trkpt>
      <trkpt lat="44.23519" lon="0.75597">
        <ele>141.8</ele>
        <time>2021-05-09T09:29:34Z</time>
      </trkpt>
      <trkpt lat="44.23521" lon="0.75595">
        <ele>141.8</ele>
        <time>2021-05-09T09:29:36Z</time>
      </trkpt>
      <trkpt lat="44.2352" lon="0.75592">
        <ele>141.8</ele>
        <time>2021-05-09T09:29:38Z</time>
      </trkpt>
      <trkpt lat="44.23522" lon="0.75589">
        <ele>141.6</ele>
        <time>2021-05-09T09:29:40Z</time>
      </trkpt>
      <trkpt lat="44.23524" lon="0.75587">
        <ele>141.6</ele>
        <time>2021-05-09T09:29:42Z</time>
      </trkpt>
      <trkpt lat="44.23527" lon="0.75585">
        <ele>141.4</ele>
        <time>2021-05-09T09:29:44Z</time>
      </trkpt>
      <trkpt lat="44.23528" lon="0.75584">
        <ele>141.2</ele>
        <time>2021-05-09T09:29:46Z</time>
      </trkpt>
      <trkpt lat="44.23531" lon="0.75583">
        <ele>141</ele>
        <time>2021-05-09T09:29:48Z</time>
      </trkpt>
      <trkpt lat="44.23533" lon="0.75582">
        <ele>140.8</ele>
        <time>2021-05-09T09:29:50Z</time>
      </trkpt>
      <trkpt lat="44.23536" lon="0.75583">
        <ele>140.6</ele>
        <time>2021-05-09T09:29:52Z</time>
      </trkpt>
      <trkpt lat="44.23538" lon="0.75582">
        <ele>140.4</ele>
        <time>2021-05-09T09:29:54Z</time>
      </trkpt>
      <trkpt lat="44.2354" lon="0.7558">
        <ele>140.2</ele>
        <time>2021-05-09T09:29:56Z</time>
      </trkpt>
      <trkpt lat="44.23543" lon="0.75579">
        <ele>140</ele>
        <time>2021-05-09T09:29:58Z</time>
      </trkpt>
      <trkpt lat="44.23546" lon="0.75579">
        <ele>139.8</ele>
        <time>2021-05-09T09:30:01Z</time>
      </trkpt>
      <trkpt lat="44.23548" lon="0.75578">
        <ele>139.6</ele>
        <time>2021-05-09T09:30:03Z</time>
      </trkpt>
      <trkpt lat="44.2355" lon="0.75579">
        <ele>139.4</ele>
        <time>2021-05-09T09:30:05Z</time>
      </trkpt>
      <trkpt lat="44.23552" lon="0.75579">
        <ele>139.2</ele>
        <time>2021-05-09T09:30:07Z</time>
      </trkpt>
      <trkpt lat="44.23554" lon="0.75579">
        <ele>139.2</ele>
        <time>2021-05-09T09:30:09Z</time>
      </trkpt>
      <trkpt lat="44.23556" lon="0.7558">
        <ele>139.4</ele>
        <time>2021-05-09T09:30:11Z</time>
      </trkpt>
      <trkpt lat="44.23559" lon="0.75579">
        <ele>139.6</ele>
        <time>2021-05-09T09:30:13Z</time>
      </trkpt>
      <trkpt lat="44.23561" lon="0.75578">
        <ele>139.8</ele>
        <time>2021-05-09T09:30:15Z</time>
      </trkpt>
      <trkpt lat="44.23564" lon="0.75578">
        <ele>140</ele>
        <time>2021-05-09T09:30:17Z</time>
      </trkpt>
      <trkpt lat="44.23565" lon="0.75578">
        <ele>140.2</ele>
        <time>2021-05-09T09:30:19Z</time>
      </trkpt>
      <trkpt lat="44.23568" lon="0.75577">
        <ele>140.4</ele>
        <time>2021-05-09T09:30:21Z</time>
      </trkpt>
      <trkpt lat="44.2357" lon="0.75576">
        <ele>140.6</ele>
        <time>2021-05-09T09:30:23Z</time>
      </trkpt>
      <trkpt lat="44.23574" lon="0.75575">
        <ele>140.8</ele>
        <time>2021-05-09T09:30:25Z</time>
      </trkpt>
      <trkpt lat="44.23575" lon="0.75573">
        <ele>140.8</ele>
        <time>2021-05-09T09:30:26Z</time>
      </trkpt>
      <trkpt lat="44.23578" lon="0.75572">
        <ele>141.2</ele>
        <time>2021-05-09T09:30:29Z</time>
      </trkpt>
      <trkpt lat="44.2358" lon="0.75571">
        <ele>141.4</ele>
        <time>2021-05-09T09:30:31Z</time>
      </trkpt>
      <trkpt lat="44.23581" lon="0.7557">
        <ele>141.8</ele>
        <time>2021-05-09T09:30:33Z</time>
      </trkpt>
      <trkpt lat="44.23582" lon="0.75566">
        <ele>142.4</ele>
        <time>2021-05-09T09:30:36Z</time>
      </trkpt>
      <trkpt lat="44.23582" lon="0.75563">
        <ele>142.8</ele>
        <time>2021-05-09T09:30:38Z</time>
      </trkpt>
      <trkpt lat="44.23583" lon="0.75559">
        <ele>143.2</ele>
        <time>2021-05-09T09:30:40Z</time>
      </trkpt>
      <trkpt lat="44.23582" lon="0.75556">
        <ele>143.2</ele>
        <time>2021-05-09T09:30:42Z</time>
      </trkpt>
      <trkpt lat="44.23582" lon="0.75554">
        <ele>143.4</ele>
        <time>2021-05-09T09:30:44Z</time>
      </trkpt>
      <trkpt lat="44.2358" lon="0.75552">
        <ele>143.4</ele>
        <time>2021-05-09T09:30:46Z</time>
      </trkpt>
      <trkpt lat="44.2358" lon="0.75548">
        <ele>143.6</ele>
        <time>2021-05-09T09:30:48Z</time>
      </trkpt>
      <trkpt lat="44.2358" lon="0.75545">
        <ele>143.6</ele>
        <time>2021-05-09T09:30:50Z</time>
      </trkpt>
      <trkpt lat="44.2358" lon="0.75542">
        <ele>143.8</ele>
        <time>2021-05-09T09:30:52Z</time>
      </trkpt>
      <trkpt lat="44.2358" lon="0.75538">
        <ele>144.2</ele>
        <time>2021-05-09T09:30:54Z</time>
      </trkpt>
      <trkpt lat="44.2358" lon="0.75534">
        <ele>144.4</ele>
        <time>2021-05-09T09:30:56Z</time>
      </trkpt>
      <trkpt lat="44.2358" lon="0.75531">
        <ele>144.6</ele>
        <time>2021-05-09T09:30:58Z</time>
      </trkpt>
      <trkpt lat="44.2358" lon="0.75528">
        <ele>145</ele>
        <time>2021-05-09T09:31:00Z</time>
      </trkpt>
      <trkpt lat="44.2358" lon="0.75524">
        <ele>145.2</ele>
        <time>2021-05-09T09:31:02Z</time>
      </trkpt>
      <trkpt lat="44.2358" lon="0.75521">
        <ele>145.2</ele>
        <time>2021-05-09T09:31:04Z</time>
      </trkpt>
      <trkpt lat="44.2358" lon="0.75518">
        <ele>145.2</ele>
        <time>2021-05-09T09:31:06Z</time>
      </trkpt>
      <trkpt lat="44.2358" lon="0.75515">
        <ele>145.2</ele>
        <time>2021-05-09T09:31:09Z</time>
      </trkpt>
      <trkpt lat="44.2358" lon="0.75511">
        <ele>145</ele>
        <time>2021-05-09T09:31:12Z</time>
      </trkpt>
      <trkpt lat="44.2358" lon="0.75507">
        <ele>145.2</ele>
        <time>2021-05-09T09:31:15Z</time>
      </trkpt>
      <trkpt lat="44.2358" lon="0.75504">
        <ele>145.2</ele>
        <time>2021-05-09T09:31:17Z</time>
      </trkpt>
      <trkpt lat="44.23581" lon="0.75501">
        <ele>145.2</ele>
        <time>2021-05-09T09:31:18Z</time>
      </trkpt>
      <trkpt lat="44.23581" lon="0.75497">
        <ele>145.4</ele>
        <time>2021-05-09T09:31:20Z</time>
      </trkpt>
      <trkpt lat="44.23582" lon="0.75494">
        <ele>145.6</ele>
        <time>2021-05-09T09:31:22Z</time>
      </trkpt>
      <trkpt lat="44.23582" lon="0.75491">
        <ele>145.8</ele>
        <time>2021-05-09T09:31:24Z</time>
      </trkpt>
      <trkpt lat="44.23582" lon="0.75487">
        <ele>146.2</ele>
        <time>2021-05-09T09:31:27Z</time>
      </trkpt>
      <trkpt lat="44.23584" lon="0.75485">
        <ele>146.6</ele>
        <time>2021-05-09T09:31:30Z</time>
      </trkpt>
      <trkpt lat="44.23586" lon="0.75483">
        <ele>147</ele>
        <time>2021-05-09T09:31:32Z</time>
      </trkpt>
      <trkpt lat="44.23588" lon="0.75483">
        <ele>147.6</ele>
        <time>2021-05-09T09:31:34Z</time>
      </trkpt>
      <trkpt lat="44.23589" lon="0.75481">
        <ele>148.2</ele>
        <time>2021-05-09T09:31:37Z</time>
      </trkpt>
      <trkpt lat="44.23591" lon="0.75479">
        <ele>148.8</ele>
        <time>2021-05-09T09:31:39Z</time>
      </trkpt>
      <trkpt lat="44.23594" lon="0.75477">
        <ele>149.2</ele>
        <time>2021-05-09T09:31:41Z</time>
      </trkpt>
      <trkpt lat="44.23596" lon="0.75475">
        <ele>149.8</ele>
        <time>2021-05-09T09:31:43Z</time>
      </trkpt>
      <trkpt lat="44.23597" lon="0.75475">
        <ele>150.2</ele>
        <time>2021-05-09T09:31:46Z</time>
      </trkpt>
      <trkpt lat="44.236" lon="0.75475">
        <ele>150.8</ele>
        <time>2021-05-09T09:31:49Z</time>
      </trkpt>
      <trkpt lat="44.23602" lon="0.75473">
        <ele>151</ele>
        <time>2021-05-09T09:31:52Z</time>
      </trkpt>
      <trkpt lat="44.23603" lon="0.75471">
        <ele>151</ele>
        <time>2021-05-09T09:31:54Z</time>
      </trkpt>
      <trkpt lat="44.23604" lon="0.75467">
        <ele>151.4</ele>
        <time>2021-05-09T09:31:57Z</time>
      </trkpt>
      <trkpt lat="44.23606" lon="0.75466">
        <ele>151.6</ele>
        <time>2021-05-09T09:32:02Z</time>
      </trkpt>
      <trkpt lat="44.23614" lon="0.7546">
        <ele>149.6</ele>
        <time>2021-05-09T09:33:28Z</time>
      </trkpt>
      <trkpt lat="44.23615" lon="0.75459">
        <ele>149.8</ele>
        <time>2021-05-09T09:33:29Z</time>
      </trkpt>
      <trkpt lat="44.23617" lon="0.75456">
        <ele>149.8</ele>
        <time>2021-05-09T09:33:31Z</time>
      </trkpt>
      <trkpt lat="44.23619" lon="0.75454">
        <ele>150</ele>
        <time>2021-05-09T09:33:33Z</time>
      </trkpt>
      <trkpt lat="44.23621" lon="0.75451">
        <ele>150.2</ele>
        <time>2021-05-09T09:33:35Z</time>
      </trkpt>
      <trkpt lat="44.23622" lon="0.75449">
        <ele>150.4</ele>
        <time>2021-05-09T09:33:37Z</time>
      </trkpt>
      <trkpt lat="44.23624" lon="0.75447">
        <ele>150.4</ele>
        <time>2021-05-09T09:33:39Z</time>
      </trkpt>
      <trkpt lat="44.23626" lon="0.75444">
        <ele>150.6</ele>
        <time>2021-05-09T09:33:42Z</time>
      </trkpt>
      <trkpt lat="44.23628" lon="0.75443">
        <ele>150.8</ele>
        <time>2021-05-09T09:33:44Z</time>
      </trkpt>
      <trkpt lat="44.23629" lon="0.7544">
        <ele>151.2</ele>
        <time>2021-05-09T09:33:47Z</time>
      </trkpt>
      <trkpt lat="44.2363" lon="0.75438">
        <ele>151.6</ele>
        <time>2021-05-09T09:33:49Z</time>
      </trkpt>
      <trkpt lat="44.23632" lon="0.75436">
        <ele>151.8</ele>
        <time>2021-05-09T09:33:51Z</time>
      </trkpt>
      <trkpt lat="44.23633" lon="0.75433">
        <ele>152.2</ele>
        <time>2021-05-09T09:33:53Z</time>
      </trkpt>
      <trkpt lat="44.23634" lon="0.75431">
        <ele>152.4</ele>
        <time>2021-05-09T09:33:55Z</time>
      </trkpt>
      <trkpt lat="44.23635" lon="0.75428">
        <ele>152.8</ele>
        <time>2021-05-09T09:33:57Z</time>
      </trkpt>
      <trkpt lat="44.23636" lon="0.75424">
        <ele>153.4</ele>
        <time>2021-05-09T09:34:00Z</time>
      </trkpt>
      <trkpt lat="44.23638" lon="0.75421">
        <ele>153.8</ele>
        <time>2021-05-09T09:34:02Z</time>
      </trkpt>
      <trkpt lat="44.23639" lon="0.75418">
        <ele>154</ele>
        <time>2021-05-09T09:34:04Z</time>
      </trkpt>
      <trkpt lat="44.2364" lon="0.75415">
        <ele>154.2</ele>
        <time>2021-05-09T09:34:06Z</time>
      </trkpt>
      <trkpt lat="44.23641" lon="0.75413">
        <ele>154.4</ele>
        <time>2021-05-09T09:34:08Z</time>
      </trkpt>
      <trkpt lat="44.23644" lon="0.7541">
        <ele>154.8</ele>
        <time>2021-05-09T09:34:11Z</time>
      </trkpt>
      <trkpt lat="44.23646" lon="0.75409">
        <ele>155</ele>
        <time>2021-05-09T09:34:13Z</time>
      </trkpt>
      <trkpt lat="44.23648" lon="0.75408">
        <ele>155.4</ele>
        <time>2021-05-09T09:34:15Z</time>
      </trkpt>
      <trkpt lat="44.2365" lon="0.75408">
        <ele>155.6</ele>
        <time>2021-05-09T09:34:17Z</time>
      </trkpt>
      <trkpt lat="44.23653" lon="0.75408">
        <ele>156</ele>
        <time>2021-05-09T09:34:20Z</time>
      </trkpt>
      <trkpt lat="44.23655" lon="0.75409">
        <ele>156</ele>
        <time>2021-05-09T09:34:22Z</time>
      </trkpt>
      <trkpt lat="44.23657" lon="0.75409">
        <ele>156</ele>
        <time>2021-05-09T09:34:24Z</time>
      </trkpt>
      <trkpt lat="44.2366" lon="0.7541">
        <ele>156.2</ele>
        <time>2021-05-09T09:34:26Z</time>
      </trkpt>
      <trkpt lat="44.23662" lon="0.75411">
        <ele>156.2</ele>
        <time>2021-05-09T09:34:28Z</time>
      </trkpt>
      <trkpt lat="44.23664" lon="0.75412">
        <ele>156.4</ele>
        <time>2021-05-09T09:34:30Z</time>
      </trkpt>
      <trkpt lat="44.23667" lon="0.75414">
        <ele>156.2</ele>
        <time>2021-05-09T09:34:32Z</time>
      </trkpt>
      <trkpt lat="44.23669" lon="0.75415">
        <ele>156.2</ele>
        <time>2021-05-09T09:34:33Z</time>
      </trkpt>
      <trkpt lat="44.23672" lon="0.75417">
        <ele>156.2</ele>
        <time>2021-05-09T09:34:36Z</time>
      </trkpt>
      <trkpt lat="44.23674" lon="0.75418">
        <ele>156.2</ele>
        <time>2021-05-09T09:34:38Z</time>
      </trkpt>
      <trkpt lat="44.23677" lon="0.75419">
        <ele>156.4</ele>
        <time>2021-05-09T09:34:40Z</time>
      </trkpt>
      <trkpt lat="44.23679" lon="0.7542">
        <ele>156.6</ele>
        <time>2021-05-09T09:34:42Z</time>
      </trkpt>
      <trkpt lat="44.23681" lon="0.75422">
        <ele>156.6</ele>
        <time>2021-05-09T09:34:44Z</time>
      </trkpt>
      <trkpt lat="44.23684" lon="0.75423">
        <ele>156.4</ele>
        <time>2021-05-09T09:34:46Z</time>
      </trkpt>
      <trkpt lat="44.23686" lon="0.75425">
        <ele>156.2</ele>
        <time>2021-05-09T09:34:48Z</time>
      </trkpt>
      <trkpt lat="44.23688" lon="0.75426">
        <ele>156.2</ele>
        <time>2021-05-09T09:34:50Z</time>
      </trkpt>
      <trkpt lat="44.23691" lon="0.75428">
        <ele>156</ele>
        <time>2021-05-09T09:34:52Z</time>
      </trkpt>
      <trkpt lat="44.23692" lon="0.75426">
        <ele>155.8</ele>
        <time>2021-05-09T09:34:55Z</time>
      </trkpt>
      <trkpt lat="44.23694" lon="0.75424">
        <ele>155.8</ele>
        <time>2021-05-09T09:34:57Z</time>
      </trkpt>
      <trkpt lat="44.23695" lon="0.75422">
        <ele>156</ele>
        <time>2021-05-09T09:34:59Z</time>
      </trkpt>
      <trkpt lat="44.23698" lon="0.7542">
        <ele>156.2</ele>
        <time>2021-05-09T09:35:01Z</time>
      </trkpt>
      <trkpt lat="44.23699" lon="0.75418">
        <ele>156.6</ele>
        <time>2021-05-09T09:35:03Z</time>
      </trkpt>
      <trkpt lat="44.237" lon="0.75415">
        <ele>156.8</ele>
        <time>2021-05-09T09:35:05Z</time>
      </trkpt>
      <trkpt lat="44.23701" lon="0.75412">
        <ele>157</ele>
        <time>2021-05-09T09:35:07Z</time>
      </trkpt>
      <trkpt lat="44.23703" lon="0.7541">
        <ele>157.2</ele>
        <time>2021-05-09T09:35:09Z</time>
      </trkpt>
      <trkpt lat="44.23704" lon="0.75407">
        <ele>157.6</ele>
        <time>2021-05-09T09:35:12Z</time>
      </trkpt>
      <trkpt lat="44.23706" lon="0.75405">
        <ele>157.6</ele>
        <time>2021-05-09T09:35:14Z</time>
      </trkpt>
      <trkpt lat="44.23707" lon="0.75402">
        <ele>157.8</ele>
        <time>2021-05-09T09:35:17Z</time>
      </trkpt>
      <trkpt lat="44.23708" lon="0.75399">
        <ele>157.6</ele>
        <time>2021-05-09T09:35:19Z</time>
      </trkpt>
      <trkpt lat="44.23709" lon="0.75397">
        <ele>157.6</ele>
        <time>2021-05-09T09:35:21Z</time>
      </trkpt>
      <trkpt lat="44.23711" lon="0.75394">
        <ele>157.6</ele>
        <time>2021-05-09T09:35:23Z</time>
      </trkpt>
      <trkpt lat="44.23712" lon="0.75392">
        <ele>157.6</ele>
        <time>2021-05-09T09:35:26Z</time>
      </trkpt>
      <trkpt lat="44.23713" lon="0.75389">
        <ele>157.6</ele>
        <time>2021-05-09T09:35:28Z</time>
      </trkpt>
      <trkpt lat="44.23714" lon="0.75387">
        <ele>157.6</ele>
        <time>2021-05-09T09:35:30Z</time>
      </trkpt>
      <trkpt lat="44.23716" lon="0.75383">
        <ele>157.6</ele>
        <time>2021-05-09T09:35:32Z</time>
      </trkpt>
      <trkpt lat="44.23717" lon="0.75381">
        <ele>157.6</ele>
        <time>2021-05-09T09:35:34Z</time>
      </trkpt>
      <trkpt lat="44.23719" lon="0.75378">
        <ele>157.6</ele>
        <time>2021-05-09T09:35:36Z</time>
      </trkpt>
      <trkpt lat="44.23721" lon="0.75375">
        <ele>157.6</ele>
        <time>2021-05-09T09:35:38Z</time>
      </trkpt>
      <trkpt lat="44.23722" lon="0.75372">
        <ele>157.6</ele>
        <time>2021-05-09T09:35:40Z</time>
      </trkpt>
      <trkpt lat="44.23723" lon="0.7537">
        <ele>157.8</ele>
        <time>2021-05-09T09:35:42Z</time>
      </trkpt>
      <trkpt lat="44.23725" lon="0.75361">
        <ele>158</ele>
        <time>2021-05-09T09:35:50Z</time>
      </trkpt>
      <trkpt lat="44.23727" lon="0.75358">
        <ele>158</ele>
        <time>2021-05-09T09:35:52Z</time>
      </trkpt>
      <trkpt lat="44.23729" lon="0.75356">
        <ele>158.2</ele>
        <time>2021-05-09T09:35:54Z</time>
      </trkpt>
      <trkpt lat="44.23731" lon="0.75353">
        <ele>158</ele>
        <time>2021-05-09T09:35:56Z</time>
      </trkpt>
      <trkpt lat="44.23732" lon="0.75349">
        <ele>158</ele>
        <time>2021-05-09T09:35:59Z</time>
      </trkpt>
      <trkpt lat="44.23733" lon="0.75345">
        <ele>158.2</ele>
        <time>2021-05-09T09:36:01Z</time>
      </trkpt>
      <trkpt lat="44.23735" lon="0.75342">
        <ele>158.4</ele>
        <time>2021-05-09T09:36:03Z</time>
      </trkpt>
      <trkpt lat="44.23736" lon="0.75339">
        <ele>158.2</ele>
        <time>2021-05-09T09:36:06Z</time>
      </trkpt>
      <trkpt lat="44.23737" lon="0.75338">
        <ele>158.2</ele>
        <time>2021-05-09T09:36:08Z</time>
      </trkpt>
      <trkpt lat="44.23741" lon="0.75328">
        <ele>155.8</ele>
        <time>2021-05-09T09:36:54Z</time>
      </trkpt>
      <trkpt lat="44.23742" lon="0.75326">
        <ele>155.8</ele>
        <time>2021-05-09T09:36:55Z</time>
      </trkpt>
      <trkpt lat="44.23743" lon="0.75323">
        <ele>155.8</ele>
        <time>2021-05-09T09:36:56Z</time>
      </trkpt>
      <trkpt lat="44.23745" lon="0.75318">
        <ele>156</ele>
        <time>2021-05-09T09:36:58Z</time>
      </trkpt>
      <trkpt lat="44.23747" lon="0.75316">
        <ele>156</ele>
        <time>2021-05-09T09:36:59Z</time>
      </trkpt>
      <trkpt lat="44.23748" lon="0.75313">
        <ele>156</ele>
        <time>2021-05-09T09:37:00Z</time>
      </trkpt>
      <trkpt lat="44.23749" lon="0.7531">
        <ele>156</ele>
        <time>2021-05-09T09:37:01Z</time>
      </trkpt>
      <trkpt lat="44.2375" lon="0.75307">
        <ele>156.2</ele>
        <time>2021-05-09T09:37:03Z</time>
      </trkpt>
      <trkpt lat="44.23751" lon="0.75304">
        <ele>156.4</ele>
        <time>2021-05-09T09:37:06Z</time>
      </trkpt>
      <trkpt lat="44.23752" lon="0.75301">
        <ele>156.6</ele>
        <time>2021-05-09T09:37:08Z</time>
      </trkpt>
      <trkpt lat="44.23754" lon="0.75298">
        <ele>156.6</ele>
        <time>2021-05-09T09:37:10Z</time>
      </trkpt>
      <trkpt lat="44.23755" lon="0.75295">
        <ele>156.8</ele>
        <time>2021-05-09T09:37:12Z</time>
      </trkpt>
      <trkpt lat="44.23756" lon="0.75292">
        <ele>156.8</ele>
        <time>2021-05-09T09:37:15Z</time>
      </trkpt>
      <trkpt lat="44.23757" lon="0.75289">
        <ele>157</ele>
        <time>2021-05-09T09:37:17Z</time>
      </trkpt>
      <trkpt lat="44.23759" lon="0.75287">
        <ele>157</ele>
        <time>2021-05-09T09:37:19Z</time>
      </trkpt>
      <trkpt lat="44.23761" lon="0.75284">
        <ele>157</ele>
        <time>2021-05-09T09:37:21Z</time>
      </trkpt>
      <trkpt lat="44.23763" lon="0.75281">
        <ele>157</ele>
        <time>2021-05-09T09:37:23Z</time>
      </trkpt>
      <trkpt lat="44.23764" lon="0.75277">
        <ele>157</ele>
        <time>2021-05-09T09:37:25Z</time>
      </trkpt>
      <trkpt lat="44.23765" lon="0.75275">
        <ele>157.2</ele>
        <time>2021-05-09T09:37:27Z</time>
      </trkpt>
      <trkpt lat="44.23766" lon="0.75273">
        <ele>157.2</ele>
        <time>2021-05-09T09:37:28Z</time>
      </trkpt>
      <trkpt lat="44.23768" lon="0.7527">
        <ele>157.4</ele>
        <time>2021-05-09T09:37:30Z</time>
      </trkpt>
      <trkpt lat="44.2377" lon="0.75267">
        <ele>157.6</ele>
        <time>2021-05-09T09:37:32Z</time>
      </trkpt>
      <trkpt lat="44.23771" lon="0.75264">
        <ele>157.8</ele>
        <time>2021-05-09T09:37:34Z</time>
      </trkpt>
      <trkpt lat="44.23772" lon="0.75261">
        <ele>158</ele>
        <time>2021-05-09T09:37:36Z</time>
      </trkpt>
      <trkpt lat="44.23773" lon="0.75258">
        <ele>158.2</ele>
        <time>2021-05-09T09:37:38Z</time>
      </trkpt>
      <trkpt lat="44.23774" lon="0.75256">
        <ele>158.4</ele>
        <time>2021-05-09T09:37:40Z</time>
      </trkpt>
      <trkpt lat="44.23776" lon="0.75252">
        <ele>158.6</ele>
        <time>2021-05-09T09:37:42Z</time>
      </trkpt>
      <trkpt lat="44.23778" lon="0.7525">
        <ele>158.8</ele>
        <time>2021-05-09T09:37:44Z</time>
      </trkpt>
      <trkpt lat="44.23779" lon="0.75248">
        <ele>159</ele>
        <time>2021-05-09T09:37:46Z</time>
      </trkpt>
      <trkpt lat="44.2378" lon="0.75244">
        <ele>159.4</ele>
        <time>2021-05-09T09:37:49Z</time>
      </trkpt>
      <trkpt lat="44.23781" lon="0.75242">
        <ele>159.8</ele>
        <time>2021-05-09T09:37:51Z</time>
      </trkpt>
      <trkpt lat="44.23782" lon="0.75239">
        <ele>160</ele>
        <time>2021-05-09T09:37:53Z</time>
      </trkpt>
      <trkpt lat="44.23782" lon="0.75236">
        <ele>160</ele>
        <time>2021-05-09T09:37:55Z</time>
      </trkpt>
      <trkpt lat="44.23784" lon="0.75233">
        <ele>160.2</ele>
        <time>2021-05-09T09:37:57Z</time>
      </trkpt>
      <trkpt lat="44.23785" lon="0.7523">
        <ele>160.2</ele>
        <time>2021-05-09T09:37:59Z</time>
      </trkpt>
      <trkpt lat="44.23787" lon="0.75228">
        <ele>160.4</ele>
        <time>2021-05-09T09:38:01Z</time>
      </trkpt>
      <trkpt lat="44.23789" lon="0.75225">
        <ele>160.4</ele>
        <time>2021-05-09T09:38:03Z</time>
      </trkpt>
      <trkpt lat="44.2379" lon="0.75223">
        <ele>160.4</ele>
        <time>2021-05-09T09:38:05Z</time>
      </trkpt>
      <trkpt lat="44.23791" lon="0.7522">
        <ele>160.6</ele>
        <time>2021-05-09T09:38:07Z</time>
      </trkpt>
      <trkpt lat="44.23793" lon="0.75217">
        <ele>160.6</ele>
        <time>2021-05-09T09:38:09Z</time>
      </trkpt>
      <trkpt lat="44.23795" lon="0.75214">
        <ele>160.6</ele>
        <time>2021-05-09T09:38:11Z</time>
      </trkpt>
      <trkpt lat="44.23796" lon="0.7521">
        <ele>160.4</ele>
        <time>2021-05-09T09:38:13Z</time>
      </trkpt>
      <trkpt lat="44.23797" lon="0.75207">
        <ele>160.4</ele>
        <time>2021-05-09T09:38:15Z</time>
      </trkpt>
      <trkpt lat="44.23799" lon="0.75204">
        <ele>160.4</ele>
        <time>2021-05-09T09:38:17Z</time>
      </trkpt>
      <trkpt lat="44.23801" lon="0.75201">
        <ele>160.4</ele>
        <time>2021-05-09T09:38:19Z</time>
      </trkpt>
      <trkpt lat="44.23802" lon="0.75197">
        <ele>160.4</ele>
        <time>2021-05-09T09:38:21Z</time>
      </trkpt>
      <trkpt lat="44.23803" lon="0.75194">
        <ele>160.4</ele>
        <time>2021-05-09T09:38:23Z</time>
      </trkpt>
      <trkpt lat="44.23805" lon="0.75191">
        <ele>160.6</ele>
        <time>2021-05-09T09:38:26Z</time>
      </trkpt>
      <trkpt lat="44.23806" lon="0.75189">
        <ele>160.6</ele>
        <time>2021-05-09T09:38:28Z</time>
      </trkpt>
      <trkpt lat="44.23808" lon="0.75186">
        <ele>160.4</ele>
        <time>2021-05-09T09:38:30Z</time>
      </trkpt>
      <trkpt lat="44.23809" lon="0.75183">
        <ele>160.4</ele>
        <time>2021-05-09T09:38:32Z</time>
      </trkpt>
      <trkpt lat="44.23811" lon="0.75181">
        <ele>160.4</ele>
        <time>2021-05-09T09:38:34Z</time>
      </trkpt>
      <trkpt lat="44.23812" lon="0.75177">
        <ele>160.6</ele>
        <time>2021-05-09T09:38:36Z</time>
      </trkpt>
      <trkpt lat="44.23814" lon="0.75174">
        <ele>160.8</ele>
        <time>2021-05-09T09:38:38Z</time>
      </trkpt>
      <trkpt lat="44.23816" lon="0.7517">
        <ele>160.8</ele>
        <time>2021-05-09T09:38:40Z</time>
      </trkpt>
      <trkpt lat="44.23818" lon="0.75168">
        <ele>160.6</ele>
        <time>2021-05-09T09:38:42Z</time>
      </trkpt>
      <trkpt lat="44.23819" lon="0.75164">
        <ele>160.6</ele>
        <time>2021-05-09T09:38:44Z</time>
      </trkpt>
      <trkpt lat="44.23821" lon="0.75161">
        <ele>160.4</ele>
        <time>2021-05-09T09:38:46Z</time>
      </trkpt>
      <trkpt lat="44.23823" lon="0.75158">
        <ele>160.2</ele>
        <time>2021-05-09T09:38:48Z</time>
      </trkpt>
      <trkpt lat="44.23824" lon="0.75156">
        <ele>160.2</ele>
        <time>2021-05-09T09:38:50Z</time>
      </trkpt>
      <trkpt lat="44.23826" lon="0.75154">
        <ele>160.2</ele>
        <time>2021-05-09T09:38:52Z</time>
      </trkpt>
      <trkpt lat="44.23827" lon="0.75152">
        <ele>160</ele>
        <time>2021-05-09T09:38:54Z</time>
      </trkpt>
      <trkpt lat="44.23828" lon="0.75149">
        <ele>160</ele>
        <time>2021-05-09T09:38:56Z</time>
      </trkpt>
      <trkpt lat="44.2383" lon="0.75146">
        <ele>159.8</ele>
        <time>2021-05-09T09:38:59Z</time>
      </trkpt>
      <trkpt lat="44.23831" lon="0.75143">
        <ele>159.8</ele>
        <time>2021-05-09T09:39:01Z</time>
      </trkpt>
      <trkpt lat="44.23832" lon="0.75141">
        <ele>160</ele>
        <time>2021-05-09T09:39:03Z</time>
      </trkpt>
      <trkpt lat="44.23834" lon="0.75138">
        <ele>160</ele>
        <time>2021-05-09T09:39:05Z</time>
      </trkpt>
      <trkpt lat="44.23835" lon="0.75135">
        <ele>160</ele>
        <time>2021-05-09T09:39:07Z</time>
      </trkpt>
      <trkpt lat="44.23837" lon="0.75133">
        <ele>160</ele>
        <time>2021-05-09T09:39:09Z</time>
      </trkpt>
      <trkpt lat="44.23839" lon="0.7513">
        <ele>160</ele>
        <time>2021-05-09T09:39:11Z</time>
      </trkpt>
      <trkpt lat="44.2384" lon="0.75127">
        <ele>160</ele>
        <time>2021-05-09T09:39:13Z</time>
      </trkpt>
      <trkpt lat="44.23842" lon="0.75124">
        <ele>160</ele>
        <time>2021-05-09T09:39:15Z</time>
      </trkpt>
      <trkpt lat="44.23843" lon="0.75121">
        <ele>160</ele>
        <time>2021-05-09T09:39:17Z</time>
      </trkpt>
      <trkpt lat="44.23844" lon="0.75118">
        <ele>160.2</ele>
        <time>2021-05-09T09:39:19Z</time>
      </trkpt>
      <trkpt lat="44.23846" lon="0.75116">
        <ele>160.2</ele>
        <time>2021-05-09T09:39:21Z</time>
      </trkpt>
      <trkpt lat="44.23848" lon="0.75113">
        <ele>160.2</ele>
        <time>2021-05-09T09:39:23Z</time>
      </trkpt>
      <trkpt lat="44.2385" lon="0.75111">
        <ele>160.2</ele>
        <time>2021-05-09T09:39:26Z</time>
      </trkpt>
      <trkpt lat="44.23851" lon="0.75109">
        <ele>160.2</ele>
        <time>2021-05-09T09:39:29Z</time>
      </trkpt>
      <trkpt lat="44.23852" lon="0.75107">
        <ele>160.2</ele>
        <time>2021-05-09T09:39:31Z</time>
      </trkpt>
      <trkpt lat="44.23854" lon="0.75105">
        <ele>160.4</ele>
        <time>2021-05-09T09:39:34Z</time>
      </trkpt>
      <trkpt lat="44.23856" lon="0.75103">
        <ele>160.4</ele>
        <time>2021-05-09T09:39:37Z</time>
      </trkpt>
      <trkpt lat="44.23858" lon="0.751">
        <ele>160.6</ele>
        <time>2021-05-09T09:39:40Z</time>
      </trkpt>
      <trkpt lat="44.23859" lon="0.75098">
        <ele>160.6</ele>
        <time>2021-05-09T09:39:42Z</time>
      </trkpt>
      <trkpt lat="44.2386" lon="0.75095">
        <ele>160.8</ele>
        <time>2021-05-09T09:39:45Z</time>
      </trkpt>
      <trkpt lat="44.23861" lon="0.75093">
        <ele>160.8</ele>
        <time>2021-05-09T09:39:46Z</time>
      </trkpt>
      <trkpt lat="44.23863" lon="0.75091">
        <ele>160.8</ele>
        <time>2021-05-09T09:39:48Z</time>
      </trkpt>
      <trkpt lat="44.23867" lon="0.75088">
        <ele>160.8</ele>
        <time>2021-05-09T09:39:50Z</time>
      </trkpt>
      <trkpt lat="44.23869" lon="0.75087">
        <ele>160.8</ele>
        <time>2021-05-09T09:39:52Z</time>
      </trkpt>
      <trkpt lat="44.23872" lon="0.75084">
        <ele>160.8</ele>
        <time>2021-05-09T09:39:54Z</time>
      </trkpt>
      <trkpt lat="44.23874" lon="0.75082">
        <ele>161</ele>
        <time>2021-05-09T09:39:56Z</time>
      </trkpt>
      <trkpt lat="44.23876" lon="0.75079">
        <ele>161</ele>
        <time>2021-05-09T09:39:58Z</time>
      </trkpt>
      <trkpt lat="44.23877" lon="0.75077">
        <ele>161.2</ele>
        <time>2021-05-09T09:40:00Z</time>
      </trkpt>
      <trkpt lat="44.23879" lon="0.75075">
        <ele>161.2</ele>
        <time>2021-05-09T09:40:02Z</time>
      </trkpt>
      <trkpt lat="44.2388" lon="0.75073">
        <ele>161.6</ele>
        <time>2021-05-09T09:40:06Z</time>
      </trkpt>
      <trkpt lat="44.23883" lon="0.75071">
        <ele>161.8</ele>
        <time>2021-05-09T09:40:08Z</time>
      </trkpt>
      <trkpt lat="44.23884" lon="0.75068">
        <ele>162</ele>
        <time>2021-05-09T09:40:10Z</time>
      </trkpt>
      <trkpt lat="44.23887" lon="0.75067">
        <ele>162</ele>
        <time>2021-05-09T09:40:12Z</time>
      </trkpt>
      <trkpt lat="44.2389" lon="0.75066">
        <ele>162</ele>
        <time>2021-05-09T09:40:14Z</time>
      </trkpt>
      <trkpt lat="44.23892" lon="0.75063">
        <ele>162.2</ele>
        <time>2021-05-09T09:40:16Z</time>
      </trkpt>
      <trkpt lat="44.23893" lon="0.75062">
        <ele>162.4</ele>
        <time>2021-05-09T09:40:17Z</time>
      </trkpt>
      <trkpt lat="44.23895" lon="0.7506">
        <ele>162.6</ele>
        <time>2021-05-09T09:40:19Z</time>
      </trkpt>
      <trkpt lat="44.23896" lon="0.75058">
        <ele>162.8</ele>
        <time>2021-05-09T09:40:21Z</time>
      </trkpt>
      <trkpt lat="44.23899" lon="0.75056">
        <ele>163</ele>
        <time>2021-05-09T09:40:23Z</time>
      </trkpt>
      <trkpt lat="44.23901" lon="0.75054">
        <ele>163</ele>
        <time>2021-05-09T09:40:25Z</time>
      </trkpt>
      <trkpt lat="44.23903" lon="0.75052">
        <ele>163</ele>
        <time>2021-05-09T09:40:27Z</time>
      </trkpt>
      <trkpt lat="44.23905" lon="0.7505">
        <ele>163</ele>
        <time>2021-05-09T09:40:30Z</time>
      </trkpt>
      <trkpt lat="44.23906" lon="0.75048">
        <ele>163</ele>
        <time>2021-05-09T09:40:32Z</time>
      </trkpt>
      <trkpt lat="44.23908" lon="0.75046">
        <ele>163</ele>
        <time>2021-05-09T09:40:34Z</time>
      </trkpt>
      <trkpt lat="44.2391" lon="0.75043">
        <ele>163</ele>
        <time>2021-05-09T09:40:36Z</time>
      </trkpt>
      <trkpt lat="44.23913" lon="0.75041">
        <ele>163</ele>
        <time>2021-05-09T09:40:38Z</time>
      </trkpt>
      <trkpt lat="44.23916" lon="0.7504">
        <ele>163.2</ele>
        <time>2021-05-09T09:40:40Z</time>
      </trkpt>
      <trkpt lat="44.23918" lon="0.75037">
        <ele>163</ele>
        <time>2021-05-09T09:40:42Z</time>
      </trkpt>
      <trkpt lat="44.2392" lon="0.75035">
        <ele>163</ele>
        <time>2021-05-09T09:40:44Z</time>
      </trkpt>
      <trkpt lat="44.23923" lon="0.75033">
        <ele>163</ele>
        <time>2021-05-09T09:40:46Z</time>
      </trkpt>
      <trkpt lat="44.23926" lon="0.75029">
        <ele>162.8</ele>
        <time>2021-05-09T09:40:58Z</time>
      </trkpt>
      <trkpt lat="44.23928" lon="0.75028">
        <ele>162.8</ele>
        <time>2021-05-09T09:41:00Z</time>
      </trkpt>
      <trkpt lat="44.23931" lon="0.75027">
        <ele>162.8</ele>
        <time>2021-05-09T09:41:03Z</time>
      </trkpt>
      <trkpt lat="44.23936" lon="0.75022">
        <ele>162.6</ele>
        <time>2021-05-09T09:41:44Z</time>
      </trkpt>
      <trkpt lat="44.23938" lon="0.75021">
        <ele>162.6</ele>
        <time>2021-05-09T09:41:45Z</time>
      </trkpt>
      <trkpt lat="44.23939" lon="0.75019">
        <ele>162.8</ele>
        <time>2021-05-09T09:41:46Z</time>
      </trkpt>
      <trkpt lat="44.23941" lon="0.75017">
        <ele>162.8</ele>
        <time>2021-05-09T09:41:47Z</time>
      </trkpt>
      <trkpt lat="44.23943" lon="0.75016">
        <ele>162.8</ele>
        <time>2021-05-09T09:41:48Z</time>
      </trkpt>
      <trkpt lat="44.23944" lon="0.75014">
        <ele>162.8</ele>
        <time>2021-05-09T09:41:49Z</time>
      </trkpt>
      <trkpt lat="44.23946" lon="0.75013">
        <ele>162.8</ele>
        <time>2021-05-09T09:41:50Z</time>
      </trkpt>
      <trkpt lat="44.23948" lon="0.75012">
        <ele>163</ele>
        <time>2021-05-09T09:41:52Z</time>
      </trkpt>
      <trkpt lat="44.2395" lon="0.75011">
        <ele>163</ele>
        <time>2021-05-09T09:41:54Z</time>
      </trkpt>
      <trkpt lat="44.23952" lon="0.75009">
        <ele>163.2</ele>
        <time>2021-05-09T09:41:57Z</time>
      </trkpt>
      <trkpt lat="44.23953" lon="0.75007">
        <ele>163.2</ele>
        <time>2021-05-09T09:42:01Z</time>
      </trkpt>
      <trkpt lat="44.23959" lon="0.75004">
        <ele>163.2</ele>
        <time>2021-05-09T09:42:08Z</time>
      </trkpt>
      <trkpt lat="44.23962" lon="0.75003">
        <ele>163.2</ele>
        <time>2021-05-09T09:42:10Z</time>
      </trkpt>
      <trkpt lat="44.23964" lon="0.75003">
        <ele>163.2</ele>
        <time>2021-05-09T09:42:12Z</time>
      </trkpt>
      <trkpt lat="44.23967" lon="0.75004">
        <ele>163.2</ele>
        <time>2021-05-09T09:42:15Z</time>
      </trkpt>
      <trkpt lat="44.23971" lon="0.75008">
        <ele>163.2</ele>
        <time>2021-05-09T09:42:41Z</time>
      </trkpt>
      <trkpt lat="44.23972" lon="0.75009">
        <ele>163.2</ele>
        <time>2021-05-09T09:42:42Z</time>
      </trkpt>
      <trkpt lat="44.23974" lon="0.75012">
        <ele>163.2</ele>
        <time>2021-05-09T09:42:44Z</time>
      </trkpt>
      <trkpt lat="44.23976" lon="0.75015">
        <ele>163</ele>
        <time>2021-05-09T09:42:46Z</time>
      </trkpt>
      <trkpt lat="44.23978" lon="0.75018">
        <ele>163.2</ele>
        <time>2021-05-09T09:42:48Z</time>
      </trkpt>
      <trkpt lat="44.23979" lon="0.7502">
        <ele>163</ele>
        <time>2021-05-09T09:42:50Z</time>
      </trkpt>
      <trkpt lat="44.2398" lon="0.75023">
        <ele>163.2</ele>
        <time>2021-05-09T09:42:52Z</time>
      </trkpt>
      <trkpt lat="44.23981" lon="0.75025">
        <ele>163.2</ele>
        <time>2021-05-09T09:42:54Z</time>
      </trkpt>
      <trkpt lat="44.23983" lon="0.75027">
        <ele>163.2</ele>
        <time>2021-05-09T09:42:56Z</time>
      </trkpt>
      <trkpt lat="44.23985" lon="0.7503">
        <ele>163.2</ele>
        <time>2021-05-09T09:42:58Z</time>
      </trkpt>
      <trkpt lat="44.23987" lon="0.75033">
        <ele>163.2</ele>
        <time>2021-05-09T09:43:00Z</time>
      </trkpt>
      <trkpt lat="44.23988" lon="0.75036">
        <ele>163.2</ele>
        <time>2021-05-09T09:43:02Z</time>
      </trkpt>
      <trkpt lat="44.2399" lon="0.75038">
        <ele>163.2</ele>
        <time>2021-05-09T09:43:04Z</time>
      </trkpt>
      <trkpt lat="44.23992" lon="0.7504">
        <ele>163.2</ele>
        <time>2021-05-09T09:43:06Z</time>
      </trkpt>
      <trkpt lat="44.23993" lon="0.75042">
        <ele>163</ele>
        <time>2021-05-09T09:43:08Z</time>
      </trkpt>
      <trkpt lat="44.23995" lon="0.75044">
        <ele>163</ele>
        <time>2021-05-09T09:43:10Z</time>
      </trkpt>
      <trkpt lat="44.23996" lon="0.75046">
        <ele>162.8</ele>
        <time>2021-05-09T09:43:12Z</time>
      </trkpt>
      <trkpt lat="44.23997" lon="0.75048">
        <ele>163</ele>
        <time>2021-05-09T09:43:14Z</time>
      </trkpt>
      <trkpt lat="44.23999" lon="0.75051">
        <ele>163</ele>
        <time>2021-05-09T09:43:16Z</time>
      </trkpt>
      <trkpt lat="44.24" lon="0.75054">
        <ele>163</ele>
        <time>2021-05-09T09:43:19Z</time>
      </trkpt>
      <trkpt lat="44.24001" lon="0.75057">
        <ele>163</ele>
        <time>2021-05-09T09:43:21Z</time>
      </trkpt>
      <trkpt lat="44.24002" lon="0.75059">
        <ele>163</ele>
        <time>2021-05-09T09:43:23Z</time>
      </trkpt>
      <trkpt lat="44.24004" lon="0.75062">
        <ele>163</ele>
        <time>2021-05-09T09:43:25Z</time>
      </trkpt>
      <trkpt lat="44.24006" lon="0.75064">
        <ele>162.8</ele>
        <time>2021-05-09T09:43:27Z</time>
      </trkpt>
      <trkpt lat="44.24008" lon="0.75068">
        <ele>162.8</ele>
        <time>2021-05-09T09:43:30Z</time>
      </trkpt>
      <trkpt lat="44.24009" lon="0.7507">
        <ele>162.8</ele>
        <time>2021-05-09T09:43:32Z</time>
      </trkpt>
      <trkpt lat="44.24011" lon="0.75072">
        <ele>162.8</ele>
        <time>2021-05-09T09:43:34Z</time>
      </trkpt>
      <trkpt lat="44.24012" lon="0.75074">
        <ele>162.8</ele>
        <time>2021-05-09T09:43:36Z</time>
      </trkpt>
      <trkpt lat="44.24014" lon="0.75077">
        <ele>162.8</ele>
        <time>2021-05-09T09:43:39Z</time>
      </trkpt>
      <trkpt lat="44.24016" lon="0.75079">
        <ele>162.8</ele>
        <time>2021-05-09T09:43:41Z</time>
      </trkpt>
      <trkpt lat="44.24017" lon="0.75081">
        <ele>162.8</ele>
        <time>2021-05-09T09:43:43Z</time>
      </trkpt>
      <trkpt lat="44.24021" lon="0.75087">
        <ele>163.2</ele>
        <time>2021-05-09T09:44:03Z</time>
      </trkpt>
      <trkpt lat="44.24024" lon="0.7509">
        <ele>163.4</ele>
        <time>2021-05-09T09:44:05Z</time>
      </trkpt>
      <trkpt lat="44.24026" lon="0.75093">
        <ele>163.6</ele>
        <time>2021-05-09T09:44:07Z</time>
      </trkpt>
      <trkpt lat="44.24027" lon="0.75095">
        <ele>163.6</ele>
        <time>2021-05-09T09:44:08Z</time>
      </trkpt>
      <trkpt lat="44.24029" lon="0.75098">
        <ele>163.8</ele>
        <time>2021-05-09T09:44:10Z</time>
      </trkpt>
      <trkpt lat="44.24031" lon="0.75101">
        <ele>163.8</ele>
        <time>2021-05-09T09:44:12Z</time>
      </trkpt>
      <trkpt lat="44.24033" lon="0.75103">
        <ele>163.8</ele>
        <time>2021-05-09T09:44:13Z</time>
      </trkpt>
      <trkpt lat="44.24035" lon="0.75106">
        <ele>163.8</ele>
        <time>2021-05-09T09:44:15Z</time>
      </trkpt>
      <trkpt lat="44.24036" lon="0.75109">
        <ele>163.8</ele>
        <time>2021-05-09T09:44:17Z</time>
      </trkpt>
      <trkpt lat="44.24038" lon="0.75112">
        <ele>163.8</ele>
        <time>2021-05-09T09:44:19Z</time>
      </trkpt>
      <trkpt lat="44.2404" lon="0.75115">
        <ele>163.8</ele>
        <time>2021-05-09T09:44:21Z</time>
      </trkpt>
      <trkpt lat="44.24042" lon="0.75117">
        <ele>163.8</ele>
        <time>2021-05-09T09:44:23Z</time>
      </trkpt>
      <trkpt lat="44.24044" lon="0.75119">
        <ele>164</ele>
        <time>2021-05-09T09:44:25Z</time>
      </trkpt>
      <trkpt lat="44.24046" lon="0.75121">
        <ele>164</ele>
        <time>2021-05-09T09:44:27Z</time>
      </trkpt>
      <trkpt lat="44.24048" lon="0.75124">
        <ele>164</ele>
        <time>2021-05-09T09:44:29Z</time>
      </trkpt>
      <trkpt lat="44.2405" lon="0.75126">
        <ele>164.2</ele>
        <time>2021-05-09T09:44:31Z</time>
      </trkpt>
      <trkpt lat="44.24052" lon="0.75128">
        <ele>164.2</ele>
        <time>2021-05-09T09:44:33Z</time>
      </trkpt>
      <trkpt lat="44.24054" lon="0.75129">
        <ele>164.4</ele>
        <time>2021-05-09T09:44:35Z</time>
      </trkpt>
      <trkpt lat="44.24056" lon="0.75132">
        <ele>164.4</ele>
        <time>2021-05-09T09:44:37Z</time>
      </trkpt>
      <trkpt lat="44.24059" lon="0.75135">
        <ele>164.6</ele>
        <time>2021-05-09T09:44:39Z</time>
      </trkpt>
      <trkpt lat="44.2406" lon="0.75137">
        <ele>164.6</ele>
        <time>2021-05-09T09:44:41Z</time>
      </trkpt>
      <trkpt lat="44.24062" lon="0.75139">
        <ele>164.8</ele>
        <time>2021-05-09T09:44:43Z</time>
      </trkpt>
      <trkpt lat="44.24065" lon="0.75141">
        <ele>165</ele>
        <time>2021-05-09T09:44:45Z</time>
      </trkpt>
      <trkpt lat="44.24067" lon="0.75143">
        <ele>165.2</ele>
        <time>2021-05-09T09:44:50Z</time>
      </trkpt>
      <trkpt lat="44.24069" lon="0.75145">
        <ele>165.2</ele>
        <time>2021-05-09T09:44:52Z</time>
      </trkpt>
      <trkpt lat="44.24071" lon="0.75146">
        <ele>165.2</ele>
        <time>2021-05-09T09:44:55Z</time>
      </trkpt>
      <trkpt lat="44.24073" lon="0.75148">
        <ele>165.4</ele>
        <time>2021-05-09T09:44:58Z</time>
      </trkpt>
      <trkpt lat="44.24075" lon="0.7515">
        <ele>165.4</ele>
        <time>2021-05-09T09:45:00Z</time>
      </trkpt>
      <trkpt lat="44.24077" lon="0.75151">
        <ele>165.4</ele>
        <time>2021-05-09T09:45:01Z</time>
      </trkpt>
      <trkpt lat="44.24078" lon="0.75153">
        <ele>165.6</ele>
        <time>2021-05-09T09:45:03Z</time>
      </trkpt>
      <trkpt lat="44.2408" lon="0.75155">
        <ele>165.8</ele>
        <time>2021-05-09T09:45:05Z</time>
      </trkpt>
      <trkpt lat="44.24082" lon="0.75157">
        <ele>166</ele>
        <time>2021-05-09T09:45:07Z</time>
      </trkpt>
      <trkpt lat="44.24084" lon="0.75158">
        <ele>166.2</ele>
        <time>2021-05-09T09:45:10Z</time>
      </trkpt>
      <trkpt lat="44.24086" lon="0.7516">
        <ele>166.2</ele>
        <time>2021-05-09T09:45:12Z</time>
      </trkpt>
      <trkpt lat="44.24088" lon="0.75162">
        <ele>166.4</ele>
        <time>2021-05-09T09:45:15Z</time>
      </trkpt>
      <trkpt lat="44.2409" lon="0.75164">
        <ele>166.6</ele>
        <time>2021-05-09T09:45:17Z</time>
      </trkpt>
      <trkpt lat="44.24091" lon="0.75166">
        <ele>166.6</ele>
        <time>2021-05-09T09:45:19Z</time>
      </trkpt>
      <trkpt lat="44.24093" lon="0.75167">
        <ele>166.8</ele>
        <time>2021-05-09T09:45:21Z</time>
      </trkpt>
      <trkpt lat="44.24095" lon="0.75169">
        <ele>166.8</ele>
        <time>2021-05-09T09:45:23Z</time>
      </trkpt>
      <trkpt lat="44.24097" lon="0.7517">
        <ele>167</ele>
        <time>2021-05-09T09:45:25Z</time>
      </trkpt>
      <trkpt lat="44.24098" lon="0.75171">
        <ele>167.2</ele>
        <time>2021-05-09T09:45:26Z</time>
      </trkpt>
      <trkpt lat="44.241" lon="0.75173">
        <ele>167.4</ele>
        <time>2021-05-09T09:45:28Z</time>
      </trkpt>
      <trkpt lat="44.24103" lon="0.75174">
        <ele>167.6</ele>
        <time>2021-05-09T09:45:30Z</time>
      </trkpt>
      <trkpt lat="44.24105" lon="0.75175">
        <ele>168</ele>
        <time>2021-05-09T09:45:32Z</time>
      </trkpt>
      <trkpt lat="44.24108" lon="0.75177">
        <ele>168.4</ele>
        <time>2021-05-09T09:45:35Z</time>
      </trkpt>
      <trkpt lat="44.2411" lon="0.75178">
        <ele>168.8</ele>
        <time>2021-05-09T09:45:38Z</time>
      </trkpt>
      <trkpt lat="44.24112" lon="0.7518">
        <ele>169.2</ele>
        <time>2021-05-09T09:45:41Z</time>
      </trkpt>
      <trkpt lat="44.24114" lon="0.75182">
        <ele>169.6</ele>
        <time>2021-05-09T09:45:44Z</time>
      </trkpt>
      <trkpt lat="44.24116" lon="0.75184">
        <ele>170</ele>
        <time>2021-05-09T09:45:46Z</time>
      </trkpt>
      <trkpt lat="44.24119" lon="0.75186">
        <ele>170.4</ele>
        <time>2021-05-09T09:45:48Z</time>
      </trkpt>
      <trkpt lat="44.24121" lon="0.75189">
        <ele>170.6</ele>
        <time>2021-05-09T09:45:50Z</time>
      </trkpt>
      <trkpt lat="44.24123" lon="0.75192">
        <ele>170.6</ele>
        <time>2021-05-09T09:45:52Z</time>
      </trkpt>
      <trkpt lat="44.24125" lon="0.75193">
        <ele>170.8</ele>
        <time>2021-05-09T09:45:54Z</time>
      </trkpt>
      <trkpt lat="44.24128" lon="0.75196">
        <ele>171.2</ele>
        <time>2021-05-09T09:45:56Z</time>
      </trkpt>
      <trkpt lat="44.24129" lon="0.75198">
        <ele>171.4</ele>
        <time>2021-05-09T09:45:58Z</time>
      </trkpt>
      <trkpt lat="44.24131" lon="0.752">
        <ele>171.6</ele>
        <time>2021-05-09T09:46:00Z</time>
      </trkpt>
      <trkpt lat="44.24132" lon="0.75203">
        <ele>171.8</ele>
        <time>2021-05-09T09:46:02Z</time>
      </trkpt>
      <trkpt lat="44.24134" lon="0.75205">
        <ele>172</ele>
        <time>2021-05-09T09:46:04Z</time>
      </trkpt>
      <trkpt lat="44.24135" lon="0.75207">
        <ele>172.2</ele>
        <time>2021-05-09T09:46:06Z</time>
      </trkpt>
      <trkpt lat="44.24136" lon="0.7521">
        <ele>172.2</ele>
        <time>2021-05-09T09:46:08Z</time>
      </trkpt>
      <trkpt lat="44.24138" lon="0.75212">
        <ele>172.2</ele>
        <time>2021-05-09T09:46:10Z</time>
      </trkpt>
      <trkpt lat="44.2414" lon="0.75214">
        <ele>172.2</ele>
        <time>2021-05-09T09:46:12Z</time>
      </trkpt>
      <trkpt lat="44.24141" lon="0.75217">
        <ele>172.4</ele>
        <time>2021-05-09T09:46:14Z</time>
      </trkpt>
      <trkpt lat="44.24142" lon="0.7522">
        <ele>172.4</ele>
        <time>2021-05-09T09:46:16Z</time>
      </trkpt>
      <trkpt lat="44.24143" lon="0.75223">
        <ele>172.4</ele>
        <time>2021-05-09T09:46:20Z</time>
      </trkpt>
      <trkpt lat="44.24145" lon="0.75225">
        <ele>172.2</ele>
        <time>2021-05-09T09:46:22Z</time>
      </trkpt>
      <trkpt lat="44.24147" lon="0.75227">
        <ele>172.2</ele>
        <time>2021-05-09T09:46:24Z</time>
      </trkpt>
      <trkpt lat="44.24149" lon="0.7523">
        <ele>172</ele>
        <time>2021-05-09T09:46:27Z</time>
      </trkpt>
      <trkpt lat="44.24151" lon="0.75232">
        <ele>172.2</ele>
        <time>2021-05-09T09:46:29Z</time>
      </trkpt>
      <trkpt lat="44.24153" lon="0.75234">
        <ele>172.2</ele>
        <time>2021-05-09T09:46:31Z</time>
      </trkpt>
      <trkpt lat="44.24155" lon="0.75237">
        <ele>172.2</ele>
        <time>2021-05-09T09:46:33Z</time>
      </trkpt>
      <trkpt lat="44.24156" lon="0.75238">
        <ele>172.2</ele>
        <time>2021-05-09T09:46:35Z</time>
      </trkpt>
      <trkpt lat="44.24158" lon="0.75241">
        <ele>172.2</ele>
        <time>2021-05-09T09:46:37Z</time>
      </trkpt>
      <trkpt lat="44.2416" lon="0.75245">
        <ele>172.4</ele>
        <time>2021-05-09T09:46:39Z</time>
      </trkpt>
      <trkpt lat="44.24161" lon="0.75247">
        <ele>172.6</ele>
        <time>2021-05-09T09:46:41Z</time>
      </trkpt>
      <trkpt lat="44.24163" lon="0.7525">
        <ele>172.8</ele>
        <time>2021-05-09T09:46:43Z</time>
      </trkpt>
      <trkpt lat="44.24164" lon="0.75252">
        <ele>172.8</ele>
        <time>2021-05-09T09:46:45Z</time>
      </trkpt>
      <trkpt lat="44.24165" lon="0.75254">
        <ele>173</ele>
        <time>2021-05-09T09:46:46Z</time>
      </trkpt>
      <trkpt lat="44.24167" lon="0.75257">
        <ele>173.2</ele>
        <time>2021-05-09T09:46:48Z</time>
      </trkpt>
      <trkpt lat="44.24169" lon="0.75259">
        <ele>173.2</ele>
        <time>2021-05-09T09:46:50Z</time>
      </trkpt>
      <trkpt lat="44.24171" lon="0.75262">
        <ele>173.4</ele>
        <time>2021-05-09T09:46:52Z</time>
      </trkpt>
      <trkpt lat="44.24172" lon="0.75265">
        <ele>173.6</ele>
        <time>2021-05-09T09:46:54Z</time>
      </trkpt>
      <trkpt lat="44.24173" lon="0.75268">
        <ele>173.8</ele>
        <time>2021-05-09T09:46:56Z</time>
      </trkpt>
      <trkpt lat="44.24176" lon="0.75271">
        <ele>174</ele>
        <time>2021-05-09T09:46:59Z</time>
      </trkpt>
      <trkpt lat="44.24177" lon="0.75272">
        <ele>174.2</ele>
        <time>2021-05-09T09:47:00Z</time>
      </trkpt>
      <trkpt lat="44.2418" lon="0.75274">
        <ele>174.4</ele>
        <time>2021-05-09T09:47:02Z</time>
      </trkpt>
      <trkpt lat="44.24181" lon="0.75276">
        <ele>174.6</ele>
        <time>2021-05-09T09:47:04Z</time>
      </trkpt>
      <trkpt lat="44.24184" lon="0.75277">
        <ele>175</ele>
        <time>2021-05-09T09:47:06Z</time>
      </trkpt>
      <trkpt lat="44.24186" lon="0.75279">
        <ele>175.2</ele>
        <time>2021-05-09T09:47:08Z</time>
      </trkpt>
      <trkpt lat="44.24188" lon="0.75281">
        <ele>175.2</ele>
        <time>2021-05-09T09:47:10Z</time>
      </trkpt>
      <trkpt lat="44.2419" lon="0.75283">
        <ele>175.2</ele>
        <time>2021-05-09T09:47:12Z</time>
      </trkpt>
      <trkpt lat="44.24192" lon="0.75285">
        <ele>175.2</ele>
        <time>2021-05-09T09:47:14Z</time>
      </trkpt>
      <trkpt lat="44.24194" lon="0.75286">
        <ele>175.2</ele>
        <time>2021-05-09T09:47:16Z</time>
      </trkpt>
      <trkpt lat="44.24196" lon="0.75287">
        <ele>175.2</ele>
        <time>2021-05-09T09:47:18Z</time>
      </trkpt>
      <trkpt lat="44.24198" lon="0.75289">
        <ele>175.2</ele>
        <time>2021-05-09T09:47:20Z</time>
      </trkpt>
      <trkpt lat="44.24199" lon="0.75292">
        <ele>175.2</ele>
        <time>2021-05-09T09:47:23Z</time>
      </trkpt>
      <trkpt lat="44.24201" lon="0.75294">
        <ele>175.2</ele>
        <time>2021-05-09T09:47:25Z</time>
      </trkpt>
      <trkpt lat="44.24203" lon="0.75296">
        <ele>175.4</ele>
        <time>2021-05-09T09:47:27Z</time>
      </trkpt>
      <trkpt lat="44.24204" lon="0.75298">
        <ele>175.6</ele>
        <time>2021-05-09T09:47:29Z</time>
      </trkpt>
      <trkpt lat="44.24206" lon="0.753">
        <ele>175.8</ele>
        <time>2021-05-09T09:47:31Z</time>
      </trkpt>
      <trkpt lat="44.24208" lon="0.75301">
        <ele>175.8</ele>
        <time>2021-05-09T09:47:32Z</time>
      </trkpt>
      <trkpt lat="44.24209" lon="0.75303">
        <ele>176.2</ele>
        <time>2021-05-09T09:47:34Z</time>
      </trkpt>
      <trkpt lat="44.24211" lon="0.75306">
        <ele>176.6</ele>
        <time>2021-05-09T09:47:39Z</time>
      </trkpt>
      <trkpt lat="44.24214" lon="0.75309">
        <ele>177</ele>
        <time>2021-05-09T09:47:43Z</time>
      </trkpt>
      <trkpt lat="44.24216" lon="0.75311">
        <ele>177.2</ele>
        <time>2021-05-09T09:47:45Z</time>
      </trkpt>
      <trkpt lat="44.24218" lon="0.75313">
        <ele>177.4</ele>
        <time>2021-05-09T09:47:47Z</time>
      </trkpt>
      <trkpt lat="44.2422" lon="0.75313">
        <ele>177.6</ele>
        <time>2021-05-09T09:47:49Z</time>
      </trkpt>
      <trkpt lat="44.24221" lon="0.75315">
        <ele>177.8</ele>
        <time>2021-05-09T09:47:51Z</time>
      </trkpt>
      <trkpt lat="44.24223" lon="0.75317">
        <ele>178</ele>
        <time>2021-05-09T09:47:53Z</time>
      </trkpt>
      <trkpt lat="44.24225" lon="0.7532">
        <ele>178.4</ele>
        <time>2021-05-09T09:47:56Z</time>
      </trkpt>
      <trkpt lat="44.24227" lon="0.75323">
        <ele>178.6</ele>
        <time>2021-05-09T09:47:58Z</time>
      </trkpt>
      <trkpt lat="44.24229" lon="0.75325">
        <ele>178.8</ele>
        <time>2021-05-09T09:48:00Z</time>
      </trkpt>
      <trkpt lat="44.24231" lon="0.75328">
        <ele>179</ele>
        <time>2021-05-09T09:48:02Z</time>
      </trkpt>
      <trkpt lat="44.24233" lon="0.75331">
        <ele>179.2</ele>
        <time>2021-05-09T09:48:04Z</time>
      </trkpt>
      <trkpt lat="44.24235" lon="0.75333">
        <ele>179.6</ele>
        <time>2021-05-09T09:48:06Z</time>
      </trkpt>
      <trkpt lat="44.24237" lon="0.75334">
        <ele>179.8</ele>
        <time>2021-05-09T09:48:08Z</time>
      </trkpt>
      <trkpt lat="44.24239" lon="0.75337">
        <ele>180</ele>
        <time>2021-05-09T09:48:10Z</time>
      </trkpt>
      <trkpt lat="44.24241" lon="0.75338">
        <ele>180.4</ele>
        <time>2021-05-09T09:48:12Z</time>
      </trkpt>
      <trkpt lat="44.24243" lon="0.7534">
        <ele>180.6</ele>
        <time>2021-05-09T09:48:14Z</time>
      </trkpt>
      <trkpt lat="44.24245" lon="0.75343">
        <ele>181</ele>
        <time>2021-05-09T09:48:17Z</time>
      </trkpt>
      <trkpt lat="44.24247" lon="0.75344">
        <ele>181.2</ele>
        <time>2021-05-09T09:48:19Z</time>
      </trkpt>
      <trkpt lat="44.24248" lon="0.75346">
        <ele>181.4</ele>
        <time>2021-05-09T09:48:21Z</time>
      </trkpt>
      <trkpt lat="44.2425" lon="0.75348">
        <ele>181.6</ele>
        <time>2021-05-09T09:48:23Z</time>
      </trkpt>
      <trkpt lat="44.24252" lon="0.75349">
        <ele>181.8</ele>
        <time>2021-05-09T09:48:26Z</time>
      </trkpt>
      <trkpt lat="44.24254" lon="0.7535">
        <ele>182</ele>
        <time>2021-05-09T09:48:28Z</time>
      </trkpt>
      <trkpt lat="44.24256" lon="0.75352">
        <ele>182</ele>
        <time>2021-05-09T09:48:30Z</time>
      </trkpt>
      <trkpt lat="44.24257" lon="0.75354">
        <ele>182.2</ele>
        <time>2021-05-09T09:48:32Z</time>
      </trkpt>
      <trkpt lat="44.24259" lon="0.75356">
        <ele>182.2</ele>
        <time>2021-05-09T09:48:34Z</time>
      </trkpt>
      <trkpt lat="44.24261" lon="0.75359">
        <ele>182.4</ele>
        <time>2021-05-09T09:48:36Z</time>
      </trkpt>
      <trkpt lat="44.24263" lon="0.75361">
        <ele>182.6</ele>
        <time>2021-05-09T09:48:38Z</time>
      </trkpt>
      <trkpt lat="44.24265" lon="0.75363">
        <ele>182.8</ele>
        <time>2021-05-09T09:48:40Z</time>
      </trkpt>
      <trkpt lat="44.24267" lon="0.75366">
        <ele>183</ele>
        <time>2021-05-09T09:48:42Z</time>
      </trkpt>
      <trkpt lat="44.24269" lon="0.75368">
        <ele>183.2</ele>
        <time>2021-05-09T09:48:44Z</time>
      </trkpt>
      <trkpt lat="44.24271" lon="0.7537">
        <ele>183.4</ele>
        <time>2021-05-09T09:48:46Z</time>
      </trkpt>
      <trkpt lat="44.24273" lon="0.75372">
        <ele>183.4</ele>
        <time>2021-05-09T09:48:48Z</time>
      </trkpt>
      <trkpt lat="44.24275" lon="0.75374">
        <ele>183.6</ele>
        <time>2021-05-09T09:48:51Z</time>
      </trkpt>
      <trkpt lat="44.24277" lon="0.75376">
        <ele>183.6</ele>
        <time>2021-05-09T09:48:53Z</time>
      </trkpt>
      <trkpt lat="44.24279" lon="0.75379">
        <ele>183.8</ele>
        <time>2021-05-09T09:48:55Z</time>
      </trkpt>
      <trkpt lat="44.24281" lon="0.7538">
        <ele>183.8</ele>
        <time>2021-05-09T09:48:57Z</time>
      </trkpt>
      <trkpt lat="44.24283" lon="0.75382">
        <ele>183.8</ele>
        <time>2021-05-09T09:48:59Z</time>
      </trkpt>
      <trkpt lat="44.24284" lon="0.75384">
        <ele>183.8</ele>
        <time>2021-05-09T09:49:01Z</time>
      </trkpt>
      <trkpt lat="44.24286" lon="0.75387">
        <ele>183.8</ele>
        <time>2021-05-09T09:49:03Z</time>
      </trkpt>
      <trkpt lat="44.24288" lon="0.75389">
        <ele>184</ele>
        <time>2021-05-09T09:49:05Z</time>
      </trkpt>
      <trkpt lat="44.2429" lon="0.75391">
        <ele>184</ele>
        <time>2021-05-09T09:49:07Z</time>
      </trkpt>
      <trkpt lat="44.24291" lon="0.75394">
        <ele>184</ele>
        <time>2021-05-09T09:49:09Z</time>
      </trkpt>
      <trkpt lat="44.24293" lon="0.75396">
        <ele>184.2</ele>
        <time>2021-05-09T09:49:11Z</time>
      </trkpt>
      <trkpt lat="44.24295" lon="0.75398">
        <ele>184.2</ele>
        <time>2021-05-09T09:49:13Z</time>
      </trkpt>
      <trkpt lat="44.24297" lon="0.75399">
        <ele>184.2</ele>
        <time>2021-05-09T09:49:15Z</time>
      </trkpt>
      <trkpt lat="44.24299" lon="0.75401">
        <ele>184.2</ele>
        <time>2021-05-09T09:49:17Z</time>
      </trkpt>
      <trkpt lat="44.243" lon="0.75402">
        <ele>184.2</ele>
        <time>2021-05-09T09:49:19Z</time>
      </trkpt>
      <trkpt lat="44.24303" lon="0.75405">
        <ele>184.4</ele>
        <time>2021-05-09T09:49:22Z</time>
      </trkpt>
      <trkpt lat="44.24305" lon="0.75407">
        <ele>184.4</ele>
        <time>2021-05-09T09:49:24Z</time>
      </trkpt>
      <trkpt lat="44.24307" lon="0.75408">
        <ele>184.6</ele>
        <time>2021-05-09T09:49:26Z</time>
      </trkpt>
      <trkpt lat="44.24308" lon="0.7541">
        <ele>184.8</ele>
        <time>2021-05-09T09:49:28Z</time>
      </trkpt>
      <trkpt lat="44.24311" lon="0.7541">
        <ele>185</ele>
        <time>2021-05-09T09:49:29Z</time>
      </trkpt>
      <trkpt lat="44.24313" lon="0.75411">
        <ele>185.2</ele>
        <time>2021-05-09T09:49:31Z</time>
      </trkpt>
      <trkpt lat="44.24316" lon="0.75413">
        <ele>185.2</ele>
        <time>2021-05-09T09:49:33Z</time>
      </trkpt>
      <trkpt lat="44.24317" lon="0.75415">
        <ele>185.4</ele>
        <time>2021-05-09T09:49:35Z</time>
      </trkpt>
      <trkpt lat="44.24319" lon="0.75416">
        <ele>185.4</ele>
        <time>2021-05-09T09:49:36Z</time>
      </trkpt>
      <trkpt lat="44.24321" lon="0.75416">
        <ele>185.6</ele>
        <time>2021-05-09T09:49:38Z</time>
      </trkpt>
      <trkpt lat="44.24323" lon="0.75417">
        <ele>185.6</ele>
        <time>2021-05-09T09:49:41Z</time>
      </trkpt>
      <trkpt lat="44.24325" lon="0.75417">
        <ele>185.6</ele>
        <time>2021-05-09T09:49:43Z</time>
      </trkpt>
      <trkpt lat="44.24327" lon="0.75418">
        <ele>185.8</ele>
        <time>2021-05-09T09:49:45Z</time>
      </trkpt>
      <trkpt lat="44.24329" lon="0.75419">
        <ele>186</ele>
        <time>2021-05-09T09:49:47Z</time>
      </trkpt>
      <trkpt lat="44.24332" lon="0.75421">
        <ele>186</ele>
        <time>2021-05-09T09:49:50Z</time>
      </trkpt>
      <trkpt lat="44.24334" lon="0.75422">
        <ele>186.2</ele>
        <time>2021-05-09T09:49:52Z</time>
      </trkpt>
      <trkpt lat="44.24336" lon="0.75423">
        <ele>186.4</ele>
        <time>2021-05-09T09:49:54Z</time>
      </trkpt>
      <trkpt lat="44.24338" lon="0.75424">
        <ele>186.6</ele>
        <time>2021-05-09T09:49:56Z</time>
      </trkpt>
      <trkpt lat="44.2434" lon="0.75426">
        <ele>186.8</ele>
        <time>2021-05-09T09:49:59Z</time>
      </trkpt>
      <trkpt lat="44.24342" lon="0.75428">
        <ele>187</ele>
        <time>2021-05-09T09:50:01Z</time>
      </trkpt>
      <trkpt lat="44.2435" lon="0.75433">
        <ele>188</ele>
        <time>2021-05-09T09:50:15Z</time>
      </trkpt>
      <trkpt lat="44.24352" lon="0.75433">
        <ele>188.2</ele>
        <time>2021-05-09T09:50:17Z</time>
      </trkpt>
      <trkpt lat="44.24354" lon="0.75434">
        <ele>188.2</ele>
        <time>2021-05-09T09:50:19Z</time>
      </trkpt>
      <trkpt lat="44.24356" lon="0.75435">
        <ele>188.4</ele>
        <time>2021-05-09T09:50:21Z</time>
      </trkpt>
      <trkpt lat="44.24358" lon="0.75436">
        <ele>188.6</ele>
        <time>2021-05-09T09:50:24Z</time>
      </trkpt>
      <trkpt lat="44.24361" lon="0.75437">
        <ele>188.6</ele>
        <time>2021-05-09T09:50:26Z</time>
      </trkpt>
      <trkpt lat="44.24363" lon="0.75438">
        <ele>188.8</ele>
        <time>2021-05-09T09:50:29Z</time>
      </trkpt>
      <trkpt lat="44.24366" lon="0.75439">
        <ele>188.8</ele>
        <time>2021-05-09T09:50:31Z</time>
      </trkpt>
      <trkpt lat="44.24368" lon="0.75439">
        <ele>188.8</ele>
        <time>2021-05-09T09:50:33Z</time>
      </trkpt>
      <trkpt lat="44.2437" lon="0.75441">
        <ele>188.8</ele>
        <time>2021-05-09T09:50:36Z</time>
      </trkpt>
      <trkpt lat="44.24372" lon="0.75442">
        <ele>188.8</ele>
        <time>2021-05-09T09:50:38Z</time>
      </trkpt>
      <trkpt lat="44.24374" lon="0.75442">
        <ele>188.8</ele>
        <time>2021-05-09T09:50:40Z</time>
      </trkpt>
      <trkpt lat="44.24384" lon="0.75445">
        <ele>189</ele>
        <time>2021-05-09T09:50:59Z</time>
      </trkpt>
      <trkpt lat="44.24387" lon="0.75445">
        <ele>189</ele>
        <time>2021-05-09T09:51:01Z</time>
      </trkpt>
      <trkpt lat="44.24389" lon="0.75446">
        <ele>189</ele>
        <time>2021-05-09T09:51:03Z</time>
      </trkpt>
      <trkpt lat="44.24391" lon="0.75447">
        <ele>189.2</ele>
        <time>2021-05-09T09:51:06Z</time>
      </trkpt>
      <trkpt lat="44.24393" lon="0.75448">
        <ele>189.2</ele>
        <time>2021-05-09T09:51:08Z</time>
      </trkpt>
      <trkpt lat="44.24395" lon="0.75449">
        <ele>189.2</ele>
        <time>2021-05-09T09:51:10Z</time>
      </trkpt>
      <trkpt lat="44.24398" lon="0.7545">
        <ele>189.4</ele>
        <time>2021-05-09T09:51:12Z</time>
      </trkpt>
      <trkpt lat="44.244" lon="0.7545">
        <ele>189.4</ele>
        <time>2021-05-09T09:51:14Z</time>
      </trkpt>
      <trkpt lat="44.24402" lon="0.75451">
        <ele>189.4</ele>
        <time>2021-05-09T09:51:17Z</time>
      </trkpt>
      <trkpt lat="44.24404" lon="0.75452">
        <ele>189.4</ele>
        <time>2021-05-09T09:51:20Z</time>
      </trkpt>
      <trkpt lat="44.24406" lon="0.75453">
        <ele>189.4</ele>
        <time>2021-05-09T09:51:22Z</time>
      </trkpt>
      <trkpt lat="44.24408" lon="0.75454">
        <ele>189.4</ele>
        <time>2021-05-09T09:51:24Z</time>
      </trkpt>
      <trkpt lat="44.2441" lon="0.75455">
        <ele>189.4</ele>
        <time>2021-05-09T09:51:26Z</time>
      </trkpt>
      <trkpt lat="44.24413" lon="0.75456">
        <ele>189.4</ele>
        <time>2021-05-09T09:51:29Z</time>
      </trkpt>
      <trkpt lat="44.24416" lon="0.75458">
        <ele>189.4</ele>
        <time>2021-05-09T09:51:32Z</time>
      </trkpt>
      <trkpt lat="44.24418" lon="0.75459">
        <ele>189.6</ele>
        <time>2021-05-09T09:51:34Z</time>
      </trkpt>
      <trkpt lat="44.2442" lon="0.7546">
        <ele>189.6</ele>
        <time>2021-05-09T09:51:36Z</time>
      </trkpt>
      <trkpt lat="44.24422" lon="0.75461">
        <ele>189.6</ele>
        <time>2021-05-09T09:51:38Z</time>
      </trkpt>
      <trkpt lat="44.24424" lon="0.75462">
        <ele>189.6</ele>
        <time>2021-05-09T09:51:40Z</time>
      </trkpt>
      <trkpt lat="44.24426" lon="0.75464">
        <ele>189.6</ele>
        <time>2021-05-09T09:51:43Z</time>
      </trkpt>
      <trkpt lat="44.24428" lon="0.75465">
        <ele>189.8</ele>
        <time>2021-05-09T09:51:46Z</time>
      </trkpt>
      <trkpt lat="44.24431" lon="0.75466">
        <ele>189.8</ele>
        <time>2021-05-09T09:51:48Z</time>
      </trkpt>
      <trkpt lat="44.24433" lon="0.75467">
        <ele>189.8</ele>
        <time>2021-05-09T09:51:50Z</time>
      </trkpt>
      <trkpt lat="44.24435" lon="0.75469">
        <ele>189.8</ele>
        <time>2021-05-09T09:51:52Z</time>
      </trkpt>
      <trkpt lat="44.24436" lon="0.7547">
        <ele>189.8</ele>
        <time>2021-05-09T09:51:54Z</time>
      </trkpt>
      <trkpt lat="44.24438" lon="0.75471">
        <ele>189.6</ele>
        <time>2021-05-09T09:51:56Z</time>
      </trkpt>
      <trkpt lat="44.2444" lon="0.75472">
        <ele>189.6</ele>
        <time>2021-05-09T09:51:58Z</time>
      </trkpt>
      <trkpt lat="44.24443" lon="0.75474">
        <ele>189.4</ele>
        <time>2021-05-09T09:52:01Z</time>
      </trkpt>
      <trkpt lat="44.24445" lon="0.75475">
        <ele>189.4</ele>
        <time>2021-05-09T09:52:03Z</time>
      </trkpt>
      <trkpt lat="44.24447" lon="0.75476">
        <ele>189.4</ele>
        <time>2021-05-09T09:52:05Z</time>
      </trkpt>
      <trkpt lat="44.24449" lon="0.75478">
        <ele>189.6</ele>
        <time>2021-05-09T09:52:07Z</time>
      </trkpt>
      <trkpt lat="44.24451" lon="0.7548">
        <ele>189.6</ele>
        <time>2021-05-09T09:52:09Z</time>
      </trkpt>
      <trkpt lat="44.24453" lon="0.75482">
        <ele>189.6</ele>
        <time>2021-05-09T09:52:11Z</time>
      </trkpt>
      <trkpt lat="44.24456" lon="0.75484">
        <ele>189.6</ele>
        <time>2021-05-09T09:52:13Z</time>
      </trkpt>
      <trkpt lat="44.24458" lon="0.75485">
        <ele>189.8</ele>
        <time>2021-05-09T09:52:15Z</time>
      </trkpt>
      <trkpt lat="44.2446" lon="0.75486">
        <ele>189.8</ele>
        <time>2021-05-09T09:52:17Z</time>
      </trkpt>
      <trkpt lat="44.24462" lon="0.75488">
        <ele>189.8</ele>
        <time>2021-05-09T09:52:19Z</time>
      </trkpt>
      <trkpt lat="44.24465" lon="0.75489">
        <ele>189.8</ele>
        <time>2021-05-09T09:52:22Z</time>
      </trkpt>
      <trkpt lat="44.24468" lon="0.75491">
        <ele>190</ele>
        <time>2021-05-09T09:52:25Z</time>
      </trkpt>
      <trkpt lat="44.2447" lon="0.75492">
        <ele>190</ele>
        <time>2021-05-09T09:52:28Z</time>
      </trkpt>
      <trkpt lat="44.24472" lon="0.75494">
        <ele>190.2</ele>
        <time>2021-05-09T09:52:30Z</time>
      </trkpt>
      <trkpt lat="44.24474" lon="0.75495">
        <ele>190.4</ele>
        <time>2021-05-09T09:52:32Z</time>
      </trkpt>
      <trkpt lat="44.24476" lon="0.75495">
        <ele>190.6</ele>
        <time>2021-05-09T09:52:34Z</time>
      </trkpt>
      <trkpt lat="44.24478" lon="0.75497">
        <ele>190.6</ele>
        <time>2021-05-09T09:52:36Z</time>
      </trkpt>
      <trkpt lat="44.2448" lon="0.75497">
        <ele>190.8</ele>
        <time>2021-05-09T09:52:38Z</time>
      </trkpt>
      <trkpt lat="44.24482" lon="0.75498">
        <ele>190.8</ele>
        <time>2021-05-09T09:52:40Z</time>
      </trkpt>
      <trkpt lat="44.24485" lon="0.755">
        <ele>190.8</ele>
        <time>2021-05-09T09:52:42Z</time>
      </trkpt>
      <trkpt lat="44.24487" lon="0.75501">
        <ele>190.8</ele>
        <time>2021-05-09T09:52:44Z</time>
      </trkpt>
      <trkpt lat="44.2449" lon="0.75502">
        <ele>190.8</ele>
        <time>2021-05-09T09:52:47Z</time>
      </trkpt>
      <trkpt lat="44.24492" lon="0.75503">
        <ele>190.8</ele>
        <time>2021-05-09T09:52:49Z</time>
      </trkpt>
      <trkpt lat="44.24494" lon="0.75503">
        <ele>191</ele>
        <time>2021-05-09T09:52:51Z</time>
      </trkpt>
      <trkpt lat="44.24496" lon="0.75504">
        <ele>191.2</ele>
        <time>2021-05-09T09:52:53Z</time>
      </trkpt>
      <trkpt lat="44.24498" lon="0.75504">
        <ele>191.2</ele>
        <time>2021-05-09T09:52:54Z</time>
      </trkpt>
      <trkpt lat="44.245" lon="0.75505">
        <ele>191.6</ele>
        <time>2021-05-09T09:52:56Z</time>
      </trkpt>
      <trkpt lat="44.24503" lon="0.75506">
        <ele>191.6</ele>
        <time>2021-05-09T09:52:58Z</time>
      </trkpt>
      <trkpt lat="44.24505" lon="0.75507">
        <ele>191.6</ele>
        <time>2021-05-09T09:53:00Z</time>
      </trkpt>
      <trkpt lat="44.24508" lon="0.75507">
        <ele>191.6</ele>
        <time>2021-05-09T09:53:03Z</time>
      </trkpt>
      <trkpt lat="44.2451" lon="0.75508">
        <ele>191.6</ele>
        <time>2021-05-09T09:53:05Z</time>
      </trkpt>
      <trkpt lat="44.24512" lon="0.75509">
        <ele>191.6</ele>
        <time>2021-05-09T09:53:07Z</time>
      </trkpt>
      <trkpt lat="44.24514" lon="0.75509">
        <ele>191.6</ele>
        <time>2021-05-09T09:53:09Z</time>
      </trkpt>
      <trkpt lat="44.24516" lon="0.75511">
        <ele>191.6</ele>
        <time>2021-05-09T09:53:11Z</time>
      </trkpt>
      <trkpt lat="44.24518" lon="0.75512">
        <ele>191.6</ele>
        <time>2021-05-09T09:53:13Z</time>
      </trkpt>
      <trkpt lat="44.2452" lon="0.75513">
        <ele>191.6</ele>
        <time>2021-05-09T09:53:15Z</time>
      </trkpt>
      <trkpt lat="44.24522" lon="0.75514">
        <ele>191.6</ele>
        <time>2021-05-09T09:53:17Z</time>
      </trkpt>
      <trkpt lat="44.24524" lon="0.75515">
        <ele>191.6</ele>
        <time>2021-05-09T09:53:19Z</time>
      </trkpt>
      <trkpt lat="44.24527" lon="0.75516">
        <ele>191.6</ele>
        <time>2021-05-09T09:53:21Z</time>
      </trkpt>
      <trkpt lat="44.24529" lon="0.75517">
        <ele>191.8</ele>
        <time>2021-05-09T09:53:23Z</time>
      </trkpt>
      <trkpt lat="44.24531" lon="0.75517">
        <ele>191.8</ele>
        <time>2021-05-09T09:53:25Z</time>
      </trkpt>
      <trkpt lat="44.24533" lon="0.75517">
        <ele>192</ele>
        <time>2021-05-09T09:53:27Z</time>
      </trkpt>
      <trkpt lat="44.24535" lon="0.75518">
        <ele>192</ele>
        <time>2021-05-09T09:53:29Z</time>
      </trkpt>
      <trkpt lat="44.24539" lon="0.75518">
        <ele>192</ele>
        <time>2021-05-09T09:53:31Z</time>
      </trkpt>
      <trkpt lat="44.24541" lon="0.75519">
        <ele>192.2</ele>
        <time>2021-05-09T09:53:33Z</time>
      </trkpt>
      <trkpt lat="44.24544" lon="0.7552">
        <ele>192.2</ele>
        <time>2021-05-09T09:53:35Z</time>
      </trkpt>
      <trkpt lat="44.24547" lon="0.75521">
        <ele>192.2</ele>
        <time>2021-05-09T09:53:37Z</time>
      </trkpt>
      <trkpt lat="44.24548" lon="0.75521">
        <ele>192</ele>
        <time>2021-05-09T09:53:39Z</time>
      </trkpt>
      <trkpt lat="44.24551" lon="0.75522">
        <ele>192</ele>
        <time>2021-05-09T09:53:41Z</time>
      </trkpt>
      <trkpt lat="44.24554" lon="0.75522">
        <ele>191.8</ele>
        <time>2021-05-09T09:53:43Z</time>
      </trkpt>
      <trkpt lat="44.24556" lon="0.75523">
        <ele>192</ele>
        <time>2021-05-09T09:53:46Z</time>
      </trkpt>
      <trkpt lat="44.24559" lon="0.75525">
        <ele>192</ele>
        <time>2021-05-09T09:53:49Z</time>
      </trkpt>
      <trkpt lat="44.24561" lon="0.75525">
        <ele>192</ele>
        <time>2021-05-09T09:53:51Z</time>
      </trkpt>
      <trkpt lat="44.24563" lon="0.75526">
        <ele>192</ele>
        <time>2021-05-09T09:53:53Z</time>
      </trkpt>
      <trkpt lat="44.24565" lon="0.75526">
        <ele>192</ele>
        <time>2021-05-09T09:53:55Z</time>
      </trkpt>
      <trkpt lat="44.24567" lon="0.75526">
        <ele>192.2</ele>
        <time>2021-05-09T09:53:58Z</time>
      </trkpt>
      <trkpt lat="44.24571" lon="0.75504">
        <ele>193.8</ele>
        <time>2021-05-09T09:54:19Z</time>
      </trkpt>
      <trkpt lat="44.24571" lon="0.75501">
        <ele>193.8</ele>
        <time>2021-05-09T09:54:21Z</time>
      </trkpt>
      <trkpt lat="44.24571" lon="0.75498">
        <ele>193.8</ele>
        <time>2021-05-09T09:54:24Z</time>
      </trkpt>
      <trkpt lat="44.24572" lon="0.75495">
        <ele>194</ele>
        <time>2021-05-09T09:54:26Z</time>
      </trkpt>
      <trkpt lat="44.24572" lon="0.75493">
        <ele>194</ele>
        <time>2021-05-09T09:54:28Z</time>
      </trkpt>
      <trkpt lat="44.24572" lon="0.7549">
        <ele>194</ele>
        <time>2021-05-09T09:54:30Z</time>
      </trkpt>
      <trkpt lat="44.24573" lon="0.75487">
        <ele>194</ele>
        <time>2021-05-09T09:54:32Z</time>
      </trkpt>
      <trkpt lat="44.24573" lon="0.75484">
        <ele>194.2</ele>
        <time>2021-05-09T09:54:34Z</time>
      </trkpt>
      <trkpt lat="44.24573" lon="0.75481">
        <ele>194.4</ele>
        <time>2021-05-09T09:54:36Z</time>
      </trkpt>
      <trkpt lat="44.24574" lon="0.75478">
        <ele>194.6</ele>
        <time>2021-05-09T09:54:38Z</time>
      </trkpt>
      <trkpt lat="44.24575" lon="0.75474">
        <ele>194.6</ele>
        <time>2021-05-09T09:54:40Z</time>
      </trkpt>
      <trkpt lat="44.24576" lon="0.75471">
        <ele>194.8</ele>
        <time>2021-05-09T09:54:42Z</time>
      </trkpt>
      <trkpt lat="44.24576" lon="0.75467">
        <ele>194.8</ele>
        <time>2021-05-09T09:54:44Z</time>
      </trkpt>
      <trkpt lat="44.24577" lon="0.75464">
        <ele>194.8</ele>
        <time>2021-05-09T09:54:46Z</time>
      </trkpt>
      <trkpt lat="44.24577" lon="0.75461">
        <ele>195</ele>
        <time>2021-05-09T09:54:48Z</time>
      </trkpt>
      <trkpt lat="44.24577" lon="0.75458">
        <ele>195</ele>
        <time>2021-05-09T09:54:50Z</time>
      </trkpt>
      <trkpt lat="44.24577" lon="0.75455">
        <ele>195</ele>
        <time>2021-05-09T09:54:52Z</time>
      </trkpt>
      <trkpt lat="44.24577" lon="0.75452">
        <ele>195.2</ele>
        <time>2021-05-09T09:54:55Z</time>
      </trkpt>
      <trkpt lat="44.24578" lon="0.75448">
        <ele>195.2</ele>
        <time>2021-05-09T09:54:58Z</time>
      </trkpt>
      <trkpt lat="44.24579" lon="0.75445">
        <ele>195.2</ele>
        <time>2021-05-09T09:55:00Z</time>
      </trkpt>
      <trkpt lat="44.24579" lon="0.75442">
        <ele>195.4</ele>
        <time>2021-05-09T09:55:02Z</time>
      </trkpt>
      <trkpt lat="44.24579" lon="0.75438">
        <ele>195.4</ele>
        <time>2021-05-09T09:55:04Z</time>
      </trkpt>
      <trkpt lat="44.2458" lon="0.75435">
        <ele>195.4</ele>
        <time>2021-05-09T09:55:06Z</time>
      </trkpt>
      <trkpt lat="44.2458" lon="0.75432">
        <ele>195.6</ele>
        <time>2021-05-09T09:55:08Z</time>
      </trkpt>
      <trkpt lat="44.2458" lon="0.75428">
        <ele>195.8</ele>
        <time>2021-05-09T09:55:10Z</time>
      </trkpt>
      <trkpt lat="44.24581" lon="0.75424">
        <ele>195.8</ele>
        <time>2021-05-09T09:55:12Z</time>
      </trkpt>
      <trkpt lat="44.24581" lon="0.7542">
        <ele>196</ele>
        <time>2021-05-09T09:55:14Z</time>
      </trkpt>
      <trkpt lat="44.24581" lon="0.75417">
        <ele>196.2</ele>
        <time>2021-05-09T09:55:16Z</time>
      </trkpt>
      <trkpt lat="44.24582" lon="0.75414">
        <ele>196.2</ele>
        <time>2021-05-09T09:55:18Z</time>
      </trkpt>
      <trkpt lat="44.24582" lon="0.75412">
        <ele>196</ele>
        <time>2021-05-09T09:55:20Z</time>
      </trkpt>
      <trkpt lat="44.24582" lon="0.75409">
        <ele>196.2</ele>
        <time>2021-05-09T09:55:22Z</time>
      </trkpt>
      <trkpt lat="44.24582" lon="0.75406">
        <ele>196.2</ele>
        <time>2021-05-09T09:55:24Z</time>
      </trkpt>
      <trkpt lat="44.24583" lon="0.75403">
        <ele>196.2</ele>
        <time>2021-05-09T09:55:26Z</time>
      </trkpt>
      <trkpt lat="44.24583" lon="0.754">
        <ele>196.2</ele>
        <time>2021-05-09T09:55:28Z</time>
      </trkpt>
      <trkpt lat="44.24583" lon="0.75397">
        <ele>196.4</ele>
        <time>2021-05-09T09:55:30Z</time>
      </trkpt>
      <trkpt lat="44.24583" lon="0.75394">
        <ele>196.4</ele>
        <time>2021-05-09T09:55:32Z</time>
      </trkpt>
      <trkpt lat="44.24583" lon="0.75391">
        <ele>196.6</ele>
        <time>2021-05-09T09:55:34Z</time>
      </trkpt>
      <trkpt lat="44.24583" lon="0.75388">
        <ele>196.8</ele>
        <time>2021-05-09T09:55:36Z</time>
      </trkpt>
      <trkpt lat="44.24584" lon="0.75386">
        <ele>197</ele>
        <time>2021-05-09T09:55:38Z</time>
      </trkpt>
      <trkpt lat="44.24584" lon="0.75382">
        <ele>197.4</ele>
        <time>2021-05-09T09:55:40Z</time>
      </trkpt>
      <trkpt lat="44.24585" lon="0.75379">
        <ele>197.4</ele>
        <time>2021-05-09T09:55:42Z</time>
      </trkpt>
      <trkpt lat="44.24585" lon="0.75376">
        <ele>197.6</ele>
        <time>2021-05-09T09:55:44Z</time>
      </trkpt>
      <trkpt lat="44.24585" lon="0.75373">
        <ele>197.6</ele>
        <time>2021-05-09T09:55:46Z</time>
      </trkpt>
      <trkpt lat="44.24586" lon="0.75369">
        <ele>197.8</ele>
        <time>2021-05-09T09:55:48Z</time>
      </trkpt>
      <trkpt lat="44.24587" lon="0.75365">
        <ele>197.8</ele>
        <time>2021-05-09T09:55:50Z</time>
      </trkpt>
      <trkpt lat="44.24587" lon="0.75361">
        <ele>198</ele>
        <time>2021-05-09T09:55:52Z</time>
      </trkpt>
      <trkpt lat="44.24587" lon="0.75358">
        <ele>198</ele>
        <time>2021-05-09T09:55:54Z</time>
      </trkpt>
      <trkpt lat="44.24588" lon="0.75355">
        <ele>198</ele>
        <time>2021-05-09T09:55:57Z</time>
      </trkpt>
      <trkpt lat="44.24588" lon="0.75352">
        <ele>198.2</ele>
        <time>2021-05-09T09:56:00Z</time>
      </trkpt>
      <trkpt lat="44.24589" lon="0.75349">
        <ele>198.4</ele>
        <time>2021-05-09T09:56:02Z</time>
      </trkpt>
      <trkpt lat="44.24591" lon="0.75345">
        <ele>198.6</ele>
        <time>2021-05-09T09:56:04Z</time>
      </trkpt>
      <trkpt lat="44.24591" lon="0.75342">
        <ele>198.6</ele>
        <time>2021-05-09T09:56:06Z</time>
      </trkpt>
      <trkpt lat="44.24591" lon="0.75339">
        <ele>198.6</ele>
        <time>2021-05-09T09:56:08Z</time>
      </trkpt>
      <trkpt lat="44.24591" lon="0.75336">
        <ele>198.6</ele>
        <time>2021-05-09T09:56:11Z</time>
      </trkpt>
      <trkpt lat="44.24592" lon="0.75333">
        <ele>198.4</ele>
        <time>2021-05-09T09:56:13Z</time>
      </trkpt>
      <trkpt lat="44.24593" lon="0.7533">
        <ele>198.4</ele>
        <time>2021-05-09T09:56:15Z</time>
      </trkpt>
      <trkpt lat="44.24593" lon="0.75327">
        <ele>198.4</ele>
        <time>2021-05-09T09:56:17Z</time>
      </trkpt>
      <trkpt lat="44.24593" lon="0.75323">
        <ele>198.6</ele>
        <time>2021-05-09T09:56:19Z</time>
      </trkpt>
      <trkpt lat="44.24593" lon="0.7532">
        <ele>198.4</ele>
        <time>2021-05-09T09:56:21Z</time>
      </trkpt>
      <trkpt lat="44.24593" lon="0.75317">
        <ele>198.6</ele>
        <time>2021-05-09T09:56:23Z</time>
      </trkpt>
      <trkpt lat="44.24593" lon="0.75313">
        <ele>198.8</ele>
        <time>2021-05-09T09:56:25Z</time>
      </trkpt>
      <trkpt lat="44.24593" lon="0.7531">
        <ele>198.8</ele>
        <time>2021-05-09T09:56:27Z</time>
      </trkpt>
      <trkpt lat="44.24594" lon="0.75307">
        <ele>198.8</ele>
        <time>2021-05-09T09:56:29Z</time>
      </trkpt>
      <trkpt lat="44.24595" lon="0.75305">
        <ele>198.6</ele>
        <time>2021-05-09T09:56:30Z</time>
      </trkpt>
      <trkpt lat="44.24595" lon="0.753">
        <ele>198.6</ele>
        <time>2021-05-09T09:56:32Z</time>
      </trkpt>
      <trkpt lat="44.24596" lon="0.75298">
        <ele>198.6</ele>
        <time>2021-05-09T09:56:33Z</time>
      </trkpt>
      <trkpt lat="44.24596" lon="0.75294">
        <ele>198.6</ele>
        <time>2021-05-09T09:56:35Z</time>
      </trkpt>
      <trkpt lat="44.24597" lon="0.75292">
        <ele>198.6</ele>
        <time>2021-05-09T09:56:37Z</time>
      </trkpt>
      <trkpt lat="44.24597" lon="0.75288">
        <ele>198.6</ele>
        <time>2021-05-09T09:56:39Z</time>
      </trkpt>
      <trkpt lat="44.24597" lon="0.75284">
        <ele>198.6</ele>
        <time>2021-05-09T09:56:41Z</time>
      </trkpt>
      <trkpt lat="44.24598" lon="0.7528">
        <ele>198.6</ele>
        <time>2021-05-09T09:56:43Z</time>
      </trkpt>
      <trkpt lat="44.24598" lon="0.75276">
        <ele>198.8</ele>
        <time>2021-05-09T09:56:45Z</time>
      </trkpt>
      <trkpt lat="44.24598" lon="0.75273">
        <ele>198.8</ele>
        <time>2021-05-09T09:56:47Z</time>
      </trkpt>
      <trkpt lat="44.24599" lon="0.7527">
        <ele>198.8</ele>
        <time>2021-05-09T09:56:49Z</time>
      </trkpt>
      <trkpt lat="44.24599" lon="0.75267">
        <ele>198.8</ele>
        <time>2021-05-09T09:56:51Z</time>
      </trkpt>
      <trkpt lat="44.246" lon="0.75264">
        <ele>198.8</ele>
        <time>2021-05-09T09:56:53Z</time>
      </trkpt>
      <trkpt lat="44.246" lon="0.75261">
        <ele>198.8</ele>
        <time>2021-05-09T09:56:55Z</time>
      </trkpt>
      <trkpt lat="44.246" lon="0.75258">
        <ele>198.8</ele>
        <time>2021-05-09T09:56:57Z</time>
      </trkpt>
      <trkpt lat="44.246" lon="0.75255">
        <ele>198.8</ele>
        <time>2021-05-09T09:56:59Z</time>
      </trkpt>
      <trkpt lat="44.246" lon="0.75251">
        <ele>198.8</ele>
        <time>2021-05-09T09:57:01Z</time>
      </trkpt>
      <trkpt lat="44.24601" lon="0.75248">
        <ele>199</ele>
        <time>2021-05-09T09:57:03Z</time>
      </trkpt>
      <trkpt lat="44.24601" lon="0.75244">
        <ele>199</ele>
        <time>2021-05-09T09:57:05Z</time>
      </trkpt>
      <trkpt lat="44.24601" lon="0.75242">
        <ele>199</ele>
        <time>2021-05-09T09:57:07Z</time>
      </trkpt>
      <trkpt lat="44.24602" lon="0.75238">
        <ele>198.8</ele>
        <time>2021-05-09T09:57:09Z</time>
      </trkpt>
      <trkpt lat="44.24603" lon="0.75234">
        <ele>198.8</ele>
        <time>2021-05-09T09:57:11Z</time>
      </trkpt>
      <trkpt lat="44.24603" lon="0.75231">
        <ele>198.8</ele>
        <time>2021-05-09T09:57:12Z</time>
      </trkpt>
      <trkpt lat="44.24604" lon="0.75228">
        <ele>198.8</ele>
        <time>2021-05-09T09:57:14Z</time>
      </trkpt>
      <trkpt lat="44.24604" lon="0.75225">
        <ele>199</ele>
        <time>2021-05-09T09:57:16Z</time>
      </trkpt>
      <trkpt lat="44.24603" lon="0.75222">
        <ele>199</ele>
        <time>2021-05-09T09:57:18Z</time>
      </trkpt>
      <trkpt lat="44.24604" lon="0.75219">
        <ele>199</ele>
        <time>2021-05-09T09:57:20Z</time>
      </trkpt>
      <trkpt lat="44.24604" lon="0.75216">
        <ele>199.2</ele>
        <time>2021-05-09T09:57:22Z</time>
      </trkpt>
      <trkpt lat="44.24604" lon="0.75212">
        <ele>199.4</ele>
        <time>2021-05-09T09:57:24Z</time>
      </trkpt>
      <trkpt lat="44.24605" lon="0.75208">
        <ele>199.4</ele>
        <time>2021-05-09T09:57:26Z</time>
      </trkpt>
      <trkpt lat="44.24605" lon="0.75205">
        <ele>199.4</ele>
        <time>2021-05-09T09:57:28Z</time>
      </trkpt>
      <trkpt lat="44.24605" lon="0.75202">
        <ele>199.4</ele>
        <time>2021-05-09T09:57:30Z</time>
      </trkpt>
      <trkpt lat="44.24606" lon="0.75199">
        <ele>199.4</ele>
        <time>2021-05-09T09:57:32Z</time>
      </trkpt>
      <trkpt lat="44.24606" lon="0.75195">
        <ele>199.4</ele>
        <time>2021-05-09T09:57:34Z</time>
      </trkpt>
      <trkpt lat="44.24606" lon="0.75192">
        <ele>199.4</ele>
        <time>2021-05-09T09:57:36Z</time>
      </trkpt>
      <trkpt lat="44.24607" lon="0.75188">
        <ele>199.4</ele>
        <time>2021-05-09T09:57:38Z</time>
      </trkpt>
      <trkpt lat="44.24607" lon="0.75185">
        <ele>199.4</ele>
        <time>2021-05-09T09:57:40Z</time>
      </trkpt>
      <trkpt lat="44.24607" lon="0.75182">
        <ele>199.4</ele>
        <time>2021-05-09T09:57:42Z</time>
      </trkpt>
      <trkpt lat="44.24608" lon="0.75178">
        <ele>199.2</ele>
        <time>2021-05-09T09:57:44Z</time>
      </trkpt>
      <trkpt lat="44.24609" lon="0.75175">
        <ele>199.2</ele>
        <time>2021-05-09T09:57:46Z</time>
      </trkpt>
      <trkpt lat="44.24609" lon="0.7517">
        <ele>199.2</ele>
        <time>2021-05-09T09:57:48Z</time>
      </trkpt>
      <trkpt lat="44.2461" lon="0.75167">
        <ele>199.4</ele>
        <time>2021-05-09T09:57:50Z</time>
      </trkpt>
      <trkpt lat="44.2461" lon="0.75163">
        <ele>199.4</ele>
        <time>2021-05-09T09:57:52Z</time>
      </trkpt>
      <trkpt lat="44.2461" lon="0.7516">
        <ele>199.6</ele>
        <time>2021-05-09T09:57:54Z</time>
      </trkpt>
      <trkpt lat="44.24611" lon="0.75156">
        <ele>199.6</ele>
        <time>2021-05-09T09:57:56Z</time>
      </trkpt>
      <trkpt lat="44.24611" lon="0.75152">
        <ele>199.6</ele>
        <time>2021-05-09T09:57:58Z</time>
      </trkpt>
      <trkpt lat="44.24611" lon="0.75149">
        <ele>199.6</ele>
        <time>2021-05-09T09:58:00Z</time>
      </trkpt>
      <trkpt lat="44.24611" lon="0.75146">
        <ele>199.6</ele>
        <time>2021-05-09T09:58:02Z</time>
      </trkpt>
      <trkpt lat="44.24611" lon="0.75143">
        <ele>199.6</ele>
        <time>2021-05-09T09:58:04Z</time>
      </trkpt>
      <trkpt lat="44.24611" lon="0.75139">
        <ele>199.6</ele>
        <time>2021-05-09T09:58:06Z</time>
      </trkpt>
      <trkpt lat="44.24611" lon="0.75136">
        <ele>199.6</ele>
        <time>2021-05-09T09:58:08Z</time>
      </trkpt>
      <trkpt lat="44.2461" lon="0.75133">
        <ele>199.6</ele>
        <time>2021-05-09T09:58:10Z</time>
      </trkpt>
      <trkpt lat="44.24609" lon="0.75129">
        <ele>199.4</ele>
        <time>2021-05-09T09:58:12Z</time>
      </trkpt>
      <trkpt lat="44.24609" lon="0.75126">
        <ele>199.6</ele>
        <time>2021-05-09T09:58:14Z</time>
      </trkpt>
      <trkpt lat="44.24609" lon="0.75122">
        <ele>199.6</ele>
        <time>2021-05-09T09:58:16Z</time>
      </trkpt>
      <trkpt lat="44.24609" lon="0.75119">
        <ele>199.4</ele>
        <time>2021-05-09T09:58:18Z</time>
      </trkpt>
      <trkpt lat="44.24609" lon="0.75116">
        <ele>199.4</ele>
        <time>2021-05-09T09:58:20Z</time>
      </trkpt>
      <trkpt lat="44.24609" lon="0.75113">
        <ele>199.4</ele>
        <time>2021-05-09T09:58:21Z</time>
      </trkpt>
      <trkpt lat="44.24609" lon="0.75109">
        <ele>199.4</ele>
        <time>2021-05-09T09:58:23Z</time>
      </trkpt>
      <trkpt lat="44.24609" lon="0.75107">
        <ele>199.4</ele>
        <time>2021-05-09T09:58:25Z</time>
      </trkpt>
      <trkpt lat="44.24609" lon="0.75102">
        <ele>199.4</ele>
        <time>2021-05-09T09:58:27Z</time>
      </trkpt>
      <trkpt lat="44.2461" lon="0.75098">
        <ele>199.6</ele>
        <time>2021-05-09T09:58:29Z</time>
      </trkpt>
      <trkpt lat="44.2461" lon="0.75094">
        <ele>199.8</ele>
        <time>2021-05-09T09:58:31Z</time>
      </trkpt>
      <trkpt lat="44.24611" lon="0.7509">
        <ele>199.8</ele>
        <time>2021-05-09T09:58:33Z</time>
      </trkpt>
      <trkpt lat="44.24611" lon="0.75086">
        <ele>199.8</ele>
        <time>2021-05-09T09:58:35Z</time>
      </trkpt>
      <trkpt lat="44.24612" lon="0.75083">
        <ele>199.8</ele>
        <time>2021-05-09T09:58:37Z</time>
      </trkpt>
      <trkpt lat="44.24612" lon="0.75079">
        <ele>200</ele>
        <time>2021-05-09T09:58:39Z</time>
      </trkpt>
      <trkpt lat="44.24612" lon="0.75077">
        <ele>199.8</ele>
        <time>2021-05-09T09:58:41Z</time>
      </trkpt>
      <trkpt lat="44.24612" lon="0.75073">
        <ele>199.6</ele>
        <time>2021-05-09T09:58:43Z</time>
      </trkpt>
      <trkpt lat="44.24613" lon="0.75064">
        <ele>199.4</ele>
        <time>2021-05-09T09:58:55Z</time>
      </trkpt>
      <trkpt lat="44.24615" lon="0.75035">
        <ele>199.8</ele>
        <time>2021-05-09T09:59:18Z</time>
      </trkpt>
      <trkpt lat="44.24615" lon="0.75031">
        <ele>199.6</ele>
        <time>2021-05-09T09:59:20Z</time>
      </trkpt>
      <trkpt lat="44.24615" lon="0.75028">
        <ele>199.6</ele>
        <time>2021-05-09T09:59:24Z</time>
      </trkpt>
      <trkpt lat="44.24615" lon="0.7502">
        <ele>199.8</ele>
        <time>2021-05-09T09:59:30Z</time>
      </trkpt>
      <trkpt lat="44.24616" lon="0.75018">
        <ele>200</ele>
        <time>2021-05-09T09:59:31Z</time>
      </trkpt>
      <trkpt lat="44.24615" lon="0.75014">
        <ele>200</ele>
        <time>2021-05-09T09:59:34Z</time>
      </trkpt>
      <trkpt lat="44.24616" lon="0.75011">
        <ele>200</ele>
        <time>2021-05-09T09:59:36Z</time>
      </trkpt>
      <trkpt lat="44.24617" lon="0.75006">
        <ele>200</ele>
        <time>2021-05-09T09:59:38Z</time>
      </trkpt>
      <trkpt lat="44.24617" lon="0.75004">
        <ele>200.2</ele>
        <time>2021-05-09T09:59:40Z</time>
      </trkpt>
      <trkpt lat="44.24618" lon="0.75">
        <ele>200.2</ele>
        <time>2021-05-09T09:59:43Z</time>
      </trkpt>
      <trkpt lat="44.24618" lon="0.74997">
        <ele>200.4</ele>
        <time>2021-05-09T09:59:45Z</time>
      </trkpt>
      <trkpt lat="44.24618" lon="0.74994">
        <ele>200.4</ele>
        <time>2021-05-09T09:59:47Z</time>
      </trkpt>
      <trkpt lat="44.24619" lon="0.7499">
        <ele>200.6</ele>
        <time>2021-05-09T09:59:49Z</time>
      </trkpt>
      <trkpt lat="44.24619" lon="0.74987">
        <ele>200.6</ele>
        <time>2021-05-09T09:59:51Z</time>
      </trkpt>
      <trkpt lat="44.24619" lon="0.74984">
        <ele>200.8</ele>
        <time>2021-05-09T09:59:53Z</time>
      </trkpt>
      <trkpt lat="44.24619" lon="0.74981">
        <ele>200.8</ele>
        <time>2021-05-09T09:59:55Z</time>
      </trkpt>
      <trkpt lat="44.2462" lon="0.74977">
        <ele>200.8</ele>
        <time>2021-05-09T09:59:57Z</time>
      </trkpt>
      <trkpt lat="44.2462" lon="0.74974">
        <ele>200.8</ele>
        <time>2021-05-09T09:59:59Z</time>
      </trkpt>
      <trkpt lat="44.2462" lon="0.7497">
        <ele>200.8</ele>
        <time>2021-05-09T10:00:01Z</time>
      </trkpt>
      <trkpt lat="44.24621" lon="0.74967">
        <ele>200.8</ele>
        <time>2021-05-09T10:00:03Z</time>
      </trkpt>
      <trkpt lat="44.24621" lon="0.74964">
        <ele>201</ele>
        <time>2021-05-09T10:00:05Z</time>
      </trkpt>
      <trkpt lat="44.24621" lon="0.74961">
        <ele>201</ele>
        <time>2021-05-09T10:00:07Z</time>
      </trkpt>
      <trkpt lat="44.24622" lon="0.74958">
        <ele>201</ele>
        <time>2021-05-09T10:00:09Z</time>
      </trkpt>
      <trkpt lat="44.24623" lon="0.74954">
        <ele>201.2</ele>
        <time>2021-05-09T10:00:11Z</time>
      </trkpt>
      <trkpt lat="44.24624" lon="0.74951">
        <ele>201.2</ele>
        <time>2021-05-09T10:00:14Z</time>
      </trkpt>
      <trkpt lat="44.24624" lon="0.74948">
        <ele>201.2</ele>
        <time>2021-05-09T10:00:16Z</time>
      </trkpt>
      <trkpt lat="44.24625" lon="0.74944">
        <ele>201.2</ele>
        <time>2021-05-09T10:00:19Z</time>
      </trkpt>
      <trkpt lat="44.24626" lon="0.74941">
        <ele>201.2</ele>
        <time>2021-05-09T10:00:21Z</time>
      </trkpt>
      <trkpt lat="44.24627" lon="0.74938">
        <ele>201.4</ele>
        <time>2021-05-09T10:00:23Z</time>
      </trkpt>
      <trkpt lat="44.24629" lon="0.74933">
        <ele>201.6</ele>
        <time>2021-05-09T10:00:25Z</time>
      </trkpt>
      <trkpt lat="44.24629" lon="0.74929">
        <ele>201.8</ele>
        <time>2021-05-09T10:00:27Z</time>
      </trkpt>
      <trkpt lat="44.24631" lon="0.74926">
        <ele>202</ele>
        <time>2021-05-09T10:00:29Z</time>
      </trkpt>
      <trkpt lat="44.24632" lon="0.74923">
        <ele>202.2</ele>
        <time>2021-05-09T10:00:31Z</time>
      </trkpt>
      <trkpt lat="44.24634" lon="0.7492">
        <ele>202.4</ele>
        <time>2021-05-09T10:00:33Z</time>
      </trkpt>
      <trkpt lat="44.24635" lon="0.74916">
        <ele>202.6</ele>
        <time>2021-05-09T10:00:36Z</time>
      </trkpt>
      <trkpt lat="44.24637" lon="0.74913">
        <ele>202.8</ele>
        <time>2021-05-09T10:00:38Z</time>
      </trkpt>
      <trkpt lat="44.24638" lon="0.74909">
        <ele>202.8</ele>
        <time>2021-05-09T10:00:40Z</time>
      </trkpt>
      <trkpt lat="44.24639" lon="0.74905">
        <ele>202.8</ele>
        <time>2021-05-09T10:00:42Z</time>
      </trkpt>
      <trkpt lat="44.24641" lon="0.74903">
        <ele>202.8</ele>
        <time>2021-05-09T10:00:44Z</time>
      </trkpt>
      <trkpt lat="44.24642" lon="0.74899">
        <ele>202.8</ele>
        <time>2021-05-09T10:00:46Z</time>
      </trkpt>
      <trkpt lat="44.24643" lon="0.74895">
        <ele>202.8</ele>
        <time>2021-05-09T10:00:48Z</time>
      </trkpt>
      <trkpt lat="44.24645" lon="0.74892">
        <ele>202.8</ele>
        <time>2021-05-09T10:00:50Z</time>
      </trkpt>
      <trkpt lat="44.24646" lon="0.7489">
        <ele>202.8</ele>
        <time>2021-05-09T10:00:52Z</time>
      </trkpt>
      <trkpt lat="44.24648" lon="0.74887">
        <ele>202.8</ele>
        <time>2021-05-09T10:00:54Z</time>
      </trkpt>
      <trkpt lat="44.24649" lon="0.74883">
        <ele>202.8</ele>
        <time>2021-05-09T10:00:56Z</time>
      </trkpt>
      <trkpt lat="44.2465" lon="0.74882">
        <ele>202.8</ele>
        <time>2021-05-09T10:00:57Z</time>
      </trkpt>
      <trkpt lat="44.24651" lon="0.74879">
        <ele>203</ele>
        <time>2021-05-09T10:00:59Z</time>
      </trkpt>
      <trkpt lat="44.24652" lon="0.74876">
        <ele>203</ele>
        <time>2021-05-09T10:01:01Z</time>
      </trkpt>
      <trkpt lat="44.24654" lon="0.74874">
        <ele>203</ele>
        <time>2021-05-09T10:01:02Z</time>
      </trkpt>
      <trkpt lat="44.24656" lon="0.74873">
        <ele>203.2</ele>
        <time>2021-05-09T10:01:05Z</time>
      </trkpt>
      <trkpt lat="44.2466" lon="0.74859">
        <ele>203.2</ele>
        <time>2021-05-09T10:01:26Z</time>
      </trkpt>
      <trkpt lat="44.24662" lon="0.74855">
        <ele>203.2</ele>
        <time>2021-05-09T10:01:28Z</time>
      </trkpt>
      <trkpt lat="44.24663" lon="0.74852">
        <ele>203</ele>
        <time>2021-05-09T10:01:30Z</time>
      </trkpt>
      <trkpt lat="44.24664" lon="0.74849">
        <ele>203</ele>
        <time>2021-05-09T10:01:32Z</time>
      </trkpt>
      <trkpt lat="44.24665" lon="0.74845">
        <ele>202.8</ele>
        <time>2021-05-09T10:01:34Z</time>
      </trkpt>
      <trkpt lat="44.24666" lon="0.74842">
        <ele>202.8</ele>
        <time>2021-05-09T10:01:35Z</time>
      </trkpt>
      <trkpt lat="44.24666" lon="0.7484">
        <ele>202.6</ele>
        <time>2021-05-09T10:01:37Z</time>
      </trkpt>
      <trkpt lat="44.24668" lon="0.74836">
        <ele>202.4</ele>
        <time>2021-05-09T10:01:39Z</time>
      </trkpt>
      <trkpt lat="44.24669" lon="0.74832">
        <ele>202.2</ele>
        <time>2021-05-09T10:01:41Z</time>
      </trkpt>
      <trkpt lat="44.2467" lon="0.7483">
        <ele>202.2</ele>
        <time>2021-05-09T10:01:42Z</time>
      </trkpt>
      <trkpt lat="44.2467" lon="0.74826">
        <ele>202</ele>
        <time>2021-05-09T10:01:44Z</time>
      </trkpt>
      <trkpt lat="44.24671" lon="0.74823">
        <ele>201.8</ele>
        <time>2021-05-09T10:01:46Z</time>
      </trkpt>
      <trkpt lat="44.24672" lon="0.7482">
        <ele>201.8</ele>
        <time>2021-05-09T10:01:48Z</time>
      </trkpt>
      <trkpt lat="44.24674" lon="0.74816">
        <ele>201.6</ele>
        <time>2021-05-09T10:01:50Z</time>
      </trkpt>
      <trkpt lat="44.24675" lon="0.74812">
        <ele>201.8</ele>
        <time>2021-05-09T10:01:52Z</time>
      </trkpt>
      <trkpt lat="44.24676" lon="0.74808">
        <ele>201.8</ele>
        <time>2021-05-09T10:01:54Z</time>
      </trkpt>
      <trkpt lat="44.24677" lon="0.74804">
        <ele>201.8</ele>
        <time>2021-05-09T10:01:56Z</time>
      </trkpt>
      <trkpt lat="44.24678" lon="0.74802">
        <ele>201.8</ele>
        <time>2021-05-09T10:01:58Z</time>
      </trkpt>
      <trkpt lat="44.24679" lon="0.74798">
        <ele>201.6</ele>
        <time>2021-05-09T10:02:00Z</time>
      </trkpt>
      <trkpt lat="44.2468" lon="0.74795">
        <ele>201.6</ele>
        <time>2021-05-09T10:02:02Z</time>
      </trkpt>
      <trkpt lat="44.24682" lon="0.74791">
        <ele>201.4</ele>
        <time>2021-05-09T10:02:04Z</time>
      </trkpt>
      <trkpt lat="44.24682" lon="0.74788">
        <ele>201.4</ele>
        <time>2021-05-09T10:02:06Z</time>
      </trkpt>
      <trkpt lat="44.24683" lon="0.74784">
        <ele>201.6</ele>
        <time>2021-05-09T10:02:08Z</time>
      </trkpt>
      <trkpt lat="44.24685" lon="0.74781">
        <ele>201.6</ele>
        <time>2021-05-09T10:02:10Z</time>
      </trkpt>
      <trkpt lat="44.24686" lon="0.74778">
        <ele>201.6</ele>
        <time>2021-05-09T10:02:12Z</time>
      </trkpt>
      <trkpt lat="44.24688" lon="0.74776">
        <ele>201.6</ele>
        <time>2021-05-09T10:02:14Z</time>
      </trkpt>
      <trkpt lat="44.2469" lon="0.74773">
        <ele>201.6</ele>
        <time>2021-05-09T10:02:16Z</time>
      </trkpt>
      <trkpt lat="44.24691" lon="0.74771">
        <ele>201.6</ele>
        <time>2021-05-09T10:02:18Z</time>
      </trkpt>
      <trkpt lat="44.24692" lon="0.74768">
        <ele>201.6</ele>
        <time>2021-05-09T10:02:20Z</time>
      </trkpt>
      <trkpt lat="44.24694" lon="0.74766">
        <ele>201.4</ele>
        <time>2021-05-09T10:02:22Z</time>
      </trkpt>
      <trkpt lat="44.24695" lon="0.74763">
        <ele>201.4</ele>
        <time>2021-05-09T10:02:24Z</time>
      </trkpt>
      <trkpt lat="44.24697" lon="0.7476">
        <ele>201.4</ele>
        <time>2021-05-09T10:02:26Z</time>
      </trkpt>
      <trkpt lat="44.24699" lon="0.74755">
        <ele>200.6</ele>
        <time>2021-05-09T10:02:34Z</time>
      </trkpt>
      <trkpt lat="44.247" lon="0.74752">
        <ele>200.2</ele>
        <time>2021-05-09T10:02:36Z</time>
      </trkpt>
      <trkpt lat="44.247" lon="0.74749">
        <ele>200.2</ele>
        <time>2021-05-09T10:02:38Z</time>
      </trkpt>
      <trkpt lat="44.24701" lon="0.74746">
        <ele>200.2</ele>
        <time>2021-05-09T10:02:40Z</time>
      </trkpt>
      <trkpt lat="44.24702" lon="0.74743">
        <ele>200.2</ele>
        <time>2021-05-09T10:02:42Z</time>
      </trkpt>
      <trkpt lat="44.24703" lon="0.7474">
        <ele>200.2</ele>
        <time>2021-05-09T10:02:44Z</time>
      </trkpt>
      <trkpt lat="44.24705" lon="0.74737">
        <ele>200</ele>
        <time>2021-05-09T10:02:47Z</time>
      </trkpt>
      <trkpt lat="44.24706" lon="0.74734">
        <ele>200</ele>
        <time>2021-05-09T10:02:49Z</time>
      </trkpt>
      <trkpt lat="44.24708" lon="0.74731">
        <ele>200</ele>
        <time>2021-05-09T10:02:51Z</time>
      </trkpt>
      <trkpt lat="44.24709" lon="0.7473">
        <ele>199.8</ele>
        <time>2021-05-09T10:02:53Z</time>
      </trkpt>
      <trkpt lat="44.2471" lon="0.74726">
        <ele>199.6</ele>
        <time>2021-05-09T10:02:55Z</time>
      </trkpt>
      <trkpt lat="44.24711" lon="0.74722">
        <ele>199.4</ele>
        <time>2021-05-09T10:02:57Z</time>
      </trkpt>
      <trkpt lat="44.24712" lon="0.74719">
        <ele>199.2</ele>
        <time>2021-05-09T10:02:59Z</time>
      </trkpt>
      <trkpt lat="44.24714" lon="0.74717">
        <ele>199.2</ele>
        <time>2021-05-09T10:03:01Z</time>
      </trkpt>
      <trkpt lat="44.24716" lon="0.74713">
        <ele>199.2</ele>
        <time>2021-05-09T10:03:03Z</time>
      </trkpt>
      <trkpt lat="44.24717" lon="0.7471">
        <ele>199</ele>
        <time>2021-05-09T10:03:05Z</time>
      </trkpt>
      <trkpt lat="44.24719" lon="0.74707">
        <ele>198.8</ele>
        <time>2021-05-09T10:03:07Z</time>
      </trkpt>
      <trkpt lat="44.24721" lon="0.74704">
        <ele>198.8</ele>
        <time>2021-05-09T10:03:09Z</time>
      </trkpt>
      <trkpt lat="44.24723" lon="0.74701">
        <ele>198.8</ele>
        <time>2021-05-09T10:03:11Z</time>
      </trkpt>
      <trkpt lat="44.24725" lon="0.74698">
        <ele>198.6</ele>
        <time>2021-05-09T10:03:13Z</time>
      </trkpt>
      <trkpt lat="44.24726" lon="0.74695">
        <ele>198.4</ele>
        <time>2021-05-09T10:03:15Z</time>
      </trkpt>
      <trkpt lat="44.24728" lon="0.74691">
        <ele>198.2</ele>
        <time>2021-05-09T10:03:17Z</time>
      </trkpt>
      <trkpt lat="44.24729" lon="0.74688">
        <ele>198</ele>
        <time>2021-05-09T10:03:19Z</time>
      </trkpt>
      <trkpt lat="44.2473" lon="0.74685">
        <ele>197.8</ele>
        <time>2021-05-09T10:03:21Z</time>
      </trkpt>
      <trkpt lat="44.24731" lon="0.74682">
        <ele>197.8</ele>
        <time>2021-05-09T10:03:24Z</time>
      </trkpt>
      <trkpt lat="44.24737" lon="0.74663">
        <ele>195.4</ele>
        <time>2021-05-09T10:03:54Z</time>
      </trkpt>
      <trkpt lat="44.24738" lon="0.7466">
        <ele>195.2</ele>
        <time>2021-05-09T10:03:56Z</time>
      </trkpt>
      <trkpt lat="44.24739" lon="0.74656">
        <ele>195.2</ele>
        <time>2021-05-09T10:03:58Z</time>
      </trkpt>
      <trkpt lat="44.2474" lon="0.74654">
        <ele>195</ele>
        <time>2021-05-09T10:04:00Z</time>
      </trkpt>
      <trkpt lat="44.24741" lon="0.7465">
        <ele>195</ele>
        <time>2021-05-09T10:04:03Z</time>
      </trkpt>
      <trkpt lat="44.24741" lon="0.74646">
        <ele>195</ele>
        <time>2021-05-09T10:04:06Z</time>
      </trkpt>
      <trkpt lat="44.24742" lon="0.74644">
        <ele>195</ele>
        <time>2021-05-09T10:04:08Z</time>
      </trkpt>
      <trkpt lat="44.24743" lon="0.74641">
        <ele>195.2</ele>
        <time>2021-05-09T10:04:10Z</time>
      </trkpt>
      <trkpt lat="44.24744" lon="0.74638">
        <ele>195.2</ele>
        <time>2021-05-09T10:04:13Z</time>
      </trkpt>
      <trkpt lat="44.24745" lon="0.74635">
        <ele>195.2</ele>
        <time>2021-05-09T10:04:15Z</time>
      </trkpt>
      <trkpt lat="44.24747" lon="0.74632">
        <ele>195</ele>
        <time>2021-05-09T10:04:18Z</time>
      </trkpt>
      <trkpt lat="44.24748" lon="0.74628">
        <ele>195</ele>
        <time>2021-05-09T10:04:20Z</time>
      </trkpt>
      <trkpt lat="44.24749" lon="0.74626">
        <ele>195</ele>
        <time>2021-05-09T10:04:22Z</time>
      </trkpt>
      <trkpt lat="44.24751" lon="0.74623">
        <ele>194.8</ele>
        <time>2021-05-09T10:04:24Z</time>
      </trkpt>
      <trkpt lat="44.24752" lon="0.7462">
        <ele>194.6</ele>
        <time>2021-05-09T10:04:26Z</time>
      </trkpt>
      <trkpt lat="44.24753" lon="0.74616">
        <ele>194.6</ele>
        <time>2021-05-09T10:04:28Z</time>
      </trkpt>
      <trkpt lat="44.24755" lon="0.74612">
        <ele>194.6</ele>
        <time>2021-05-09T10:04:30Z</time>
      </trkpt>
      <trkpt lat="44.24756" lon="0.74609">
        <ele>194.6</ele>
        <time>2021-05-09T10:04:32Z</time>
      </trkpt>
      <trkpt lat="44.24757" lon="0.74606">
        <ele>194.6</ele>
        <time>2021-05-09T10:04:34Z</time>
      </trkpt>
      <trkpt lat="44.24758" lon="0.74603">
        <ele>194.6</ele>
        <time>2021-05-09T10:04:36Z</time>
      </trkpt>
      <trkpt lat="44.2476" lon="0.74599">
        <ele>194.4</ele>
        <time>2021-05-09T10:04:38Z</time>
      </trkpt>
      <trkpt lat="44.24761" lon="0.74595">
        <ele>194.4</ele>
        <time>2021-05-09T10:04:40Z</time>
      </trkpt>
      <trkpt lat="44.24763" lon="0.74591">
        <ele>194.4</ele>
        <time>2021-05-09T10:04:42Z</time>
      </trkpt>
      <trkpt lat="44.24764" lon="0.74587">
        <ele>194.4</ele>
        <time>2021-05-09T10:04:44Z</time>
      </trkpt>
      <trkpt lat="44.24764" lon="0.74585">
        <ele>194.6</ele>
        <time>2021-05-09T10:04:46Z</time>
      </trkpt>
      <trkpt lat="44.24766" lon="0.74581">
        <ele>194.6</ele>
        <time>2021-05-09T10:04:48Z</time>
      </trkpt>
      <trkpt lat="44.24767" lon="0.74577">
        <ele>194.8</ele>
        <time>2021-05-09T10:04:50Z</time>
      </trkpt>
      <trkpt lat="44.24769" lon="0.74573">
        <ele>195</ele>
        <time>2021-05-09T10:04:52Z</time>
      </trkpt>
      <trkpt lat="44.2477" lon="0.7457">
        <ele>194.8</ele>
        <time>2021-05-09T10:04:54Z</time>
      </trkpt>
      <trkpt lat="44.24771" lon="0.74567">
        <ele>194.8</ele>
        <time>2021-05-09T10:04:56Z</time>
      </trkpt>
      <trkpt lat="44.24772" lon="0.74564">
        <ele>194.8</ele>
        <time>2021-05-09T10:04:58Z</time>
      </trkpt>
      <trkpt lat="44.24773" lon="0.74562">
        <ele>194.8</ele>
        <time>2021-05-09T10:05:00Z</time>
      </trkpt>
      <trkpt lat="44.24775" lon="0.74559">
        <ele>194.6</ele>
        <time>2021-05-09T10:05:03Z</time>
      </trkpt>
      <trkpt lat="44.24776" lon="0.74556">
        <ele>194.6</ele>
        <time>2021-05-09T10:05:05Z</time>
      </trkpt>
      <trkpt lat="44.24778" lon="0.74552">
        <ele>194.6</ele>
        <time>2021-05-09T10:05:07Z</time>
      </trkpt>
      <trkpt lat="44.24779" lon="0.74549">
        <ele>194.6</ele>
        <time>2021-05-09T10:05:09Z</time>
      </trkpt>
      <trkpt lat="44.24781" lon="0.74545">
        <ele>194.6</ele>
        <time>2021-05-09T10:05:11Z</time>
      </trkpt>
      <trkpt lat="44.24783" lon="0.74542">
        <ele>194.4</ele>
        <time>2021-05-09T10:05:13Z</time>
      </trkpt>
      <trkpt lat="44.24783" lon="0.74539">
        <ele>194.4</ele>
        <time>2021-05-09T10:05:15Z</time>
      </trkpt>
      <trkpt lat="44.24785" lon="0.74536">
        <ele>194.2</ele>
        <time>2021-05-09T10:05:17Z</time>
      </trkpt>
      <trkpt lat="44.24786" lon="0.74533">
        <ele>194.2</ele>
        <time>2021-05-09T10:05:19Z</time>
      </trkpt>
      <trkpt lat="44.24787" lon="0.7453">
        <ele>194.2</ele>
        <time>2021-05-09T10:05:21Z</time>
      </trkpt>
      <trkpt lat="44.24789" lon="0.74527">
        <ele>194.2</ele>
        <time>2021-05-09T10:05:23Z</time>
      </trkpt>
      <trkpt lat="44.24789" lon="0.74524">
        <ele>194</ele>
        <time>2021-05-09T10:05:25Z</time>
      </trkpt>
      <trkpt lat="44.24791" lon="0.74521">
        <ele>193.8</ele>
        <time>2021-05-09T10:05:27Z</time>
      </trkpt>
      <trkpt lat="44.24791" lon="0.74518">
        <ele>193.8</ele>
        <time>2021-05-09T10:05:29Z</time>
      </trkpt>
      <trkpt lat="44.24792" lon="0.74515">
        <ele>193.8</ele>
        <time>2021-05-09T10:05:31Z</time>
      </trkpt>
      <trkpt lat="44.24793" lon="0.74511">
        <ele>193.6</ele>
        <time>2021-05-09T10:05:33Z</time>
      </trkpt>
      <trkpt lat="44.24794" lon="0.74508">
        <ele>193.6</ele>
        <time>2021-05-09T10:05:35Z</time>
      </trkpt>
      <trkpt lat="44.24795" lon="0.74505">
        <ele>193.6</ele>
        <time>2021-05-09T10:05:37Z</time>
      </trkpt>
      <trkpt lat="44.24795" lon="0.74503">
        <ele>193.4</ele>
        <time>2021-05-09T10:05:39Z</time>
      </trkpt>
      <trkpt lat="44.24797" lon="0.745">
        <ele>193.2</ele>
        <time>2021-05-09T10:05:42Z</time>
      </trkpt>
      <trkpt lat="44.24797" lon="0.74497">
        <ele>193</ele>
        <time>2021-05-09T10:05:44Z</time>
      </trkpt>
      <trkpt lat="44.24799" lon="0.74494">
        <ele>193</ele>
        <time>2021-05-09T10:05:46Z</time>
      </trkpt>
      <trkpt lat="44.248" lon="0.74491">
        <ele>192.8</ele>
        <time>2021-05-09T10:05:48Z</time>
      </trkpt>
      <trkpt lat="44.24801" lon="0.74488">
        <ele>192.8</ele>
        <time>2021-05-09T10:05:50Z</time>
      </trkpt>
      <trkpt lat="44.24803" lon="0.74486">
        <ele>192.6</ele>
        <time>2021-05-09T10:05:52Z</time>
      </trkpt>
      <trkpt lat="44.24805" lon="0.74484">
        <ele>192.4</ele>
        <time>2021-05-09T10:05:54Z</time>
      </trkpt>
      <trkpt lat="44.24807" lon="0.74482">
        <ele>192.2</ele>
        <time>2021-05-09T10:05:56Z</time>
      </trkpt>
      <trkpt lat="44.24808" lon="0.7448">
        <ele>192</ele>
        <time>2021-05-09T10:05:58Z</time>
      </trkpt>
      <trkpt lat="44.2481" lon="0.74478">
        <ele>192</ele>
        <time>2021-05-09T10:06:00Z</time>
      </trkpt>
      <trkpt lat="44.24812" lon="0.74476">
        <ele>191.8</ele>
        <time>2021-05-09T10:06:02Z</time>
      </trkpt>
      <trkpt lat="44.24814" lon="0.74475">
        <ele>191.6</ele>
        <time>2021-05-09T10:06:04Z</time>
      </trkpt>
      <trkpt lat="44.24817" lon="0.74473">
        <ele>191.4</ele>
        <time>2021-05-09T10:06:06Z</time>
      </trkpt>
      <trkpt lat="44.24818" lon="0.74471">
        <ele>191.2</ele>
        <time>2021-05-09T10:06:08Z</time>
      </trkpt>
      <trkpt lat="44.2482" lon="0.74468">
        <ele>191</ele>
        <time>2021-05-09T10:06:10Z</time>
      </trkpt>
      <trkpt lat="44.24822" lon="0.74467">
        <ele>191</ele>
        <time>2021-05-09T10:06:12Z</time>
      </trkpt>
      <trkpt lat="44.24825" lon="0.74466">
        <ele>191</ele>
        <time>2021-05-09T10:06:14Z</time>
      </trkpt>
      <trkpt lat="44.24827" lon="0.74464">
        <ele>190.8</ele>
        <time>2021-05-09T10:06:16Z</time>
      </trkpt>
      <trkpt lat="44.2483" lon="0.74463">
        <ele>190.6</ele>
        <time>2021-05-09T10:06:18Z</time>
      </trkpt>
      <trkpt lat="44.24832" lon="0.74461">
        <ele>190.6</ele>
        <time>2021-05-09T10:06:20Z</time>
      </trkpt>
      <trkpt lat="44.24835" lon="0.7446">
        <ele>190.6</ele>
        <time>2021-05-09T10:06:22Z</time>
      </trkpt>
      <trkpt lat="44.24837" lon="0.74458">
        <ele>190.4</ele>
        <time>2021-05-09T10:06:24Z</time>
      </trkpt>
      <trkpt lat="44.24839" lon="0.74456">
        <ele>190.2</ele>
        <time>2021-05-09T10:06:26Z</time>
      </trkpt>
      <trkpt lat="44.24842" lon="0.74455">
        <ele>190</ele>
        <time>2021-05-09T10:06:28Z</time>
      </trkpt>
      <trkpt lat="44.24844" lon="0.74453">
        <ele>189.8</ele>
        <time>2021-05-09T10:06:30Z</time>
      </trkpt>
      <trkpt lat="44.24846" lon="0.74452">
        <ele>189.6</ele>
        <time>2021-05-09T10:06:32Z</time>
      </trkpt>
      <trkpt lat="44.24849" lon="0.7445">
        <ele>189.4</ele>
        <time>2021-05-09T10:06:34Z</time>
      </trkpt>
      <trkpt lat="44.24851" lon="0.74448">
        <ele>189.4</ele>
        <time>2021-05-09T10:06:36Z</time>
      </trkpt>
      <trkpt lat="44.24853" lon="0.74446">
        <ele>189.2</ele>
        <time>2021-05-09T10:06:38Z</time>
      </trkpt>
      <trkpt lat="44.24855" lon="0.74444">
        <ele>189</ele>
        <time>2021-05-09T10:06:40Z</time>
      </trkpt>
      <trkpt lat="44.24857" lon="0.74441">
        <ele>189</ele>
        <time>2021-05-09T10:06:42Z</time>
      </trkpt>
      <trkpt lat="44.24859" lon="0.74437">
        <ele>189</ele>
        <time>2021-05-09T10:06:44Z</time>
      </trkpt>
      <trkpt lat="44.24861" lon="0.74435">
        <ele>189</ele>
        <time>2021-05-09T10:06:46Z</time>
      </trkpt>
      <trkpt lat="44.24862" lon="0.74433">
        <ele>189</ele>
        <time>2021-05-09T10:06:48Z</time>
      </trkpt>
      <trkpt lat="44.24863" lon="0.7443">
        <ele>189</ele>
        <time>2021-05-09T10:06:50Z</time>
      </trkpt>
      <trkpt lat="44.24864" lon="0.74427">
        <ele>188.8</ele>
        <time>2021-05-09T10:06:52Z</time>
      </trkpt>
      <trkpt lat="44.24866" lon="0.74424">
        <ele>188.8</ele>
        <time>2021-05-09T10:06:54Z</time>
      </trkpt>
      <trkpt lat="44.24867" lon="0.74421">
        <ele>188.6</ele>
        <time>2021-05-09T10:06:56Z</time>
      </trkpt>
      <trkpt lat="44.24869" lon="0.74418">
        <ele>188.4</ele>
        <time>2021-05-09T10:06:58Z</time>
      </trkpt>
      <trkpt lat="44.2487" lon="0.74415">
        <ele>188.4</ele>
        <time>2021-05-09T10:07:00Z</time>
      </trkpt>
      <trkpt lat="44.24871" lon="0.74413">
        <ele>188.2</ele>
        <time>2021-05-09T10:07:02Z</time>
      </trkpt>
      <trkpt lat="44.24872" lon="0.7441">
        <ele>188</ele>
        <time>2021-05-09T10:07:04Z</time>
      </trkpt>
      <trkpt lat="44.24874" lon="0.74408">
        <ele>187.6</ele>
        <time>2021-05-09T10:07:07Z</time>
      </trkpt>
      <trkpt lat="44.24875" lon="0.74405">
        <ele>187.2</ele>
        <time>2021-05-09T10:07:09Z</time>
      </trkpt>
      <trkpt lat="44.24875" lon="0.74402">
        <ele>186.8</ele>
        <time>2021-05-09T10:07:13Z</time>
      </trkpt>
      <trkpt lat="44.24878" lon="0.74397">
        <ele>186.2</ele>
        <time>2021-05-09T10:07:18Z</time>
      </trkpt>
      <trkpt lat="44.24878" lon="0.74394">
        <ele>186</ele>
        <time>2021-05-09T10:07:20Z</time>
      </trkpt>
      <trkpt lat="44.2488" lon="0.7439">
        <ele>185.8</ele>
        <time>2021-05-09T10:07:22Z</time>
      </trkpt>
      <trkpt lat="44.24881" lon="0.74387">
        <ele>185.4</ele>
        <time>2021-05-09T10:07:24Z</time>
      </trkpt>
      <trkpt lat="44.24883" lon="0.74384">
        <ele>185.2</ele>
        <time>2021-05-09T10:07:26Z</time>
      </trkpt>
      <trkpt lat="44.24884" lon="0.74382">
        <ele>184.8</ele>
        <time>2021-05-09T10:07:28Z</time>
      </trkpt>
      <trkpt lat="44.24884" lon="0.74379">
        <ele>184.6</ele>
        <time>2021-05-09T10:07:30Z</time>
      </trkpt>
      <trkpt lat="44.24886" lon="0.74376">
        <ele>184.4</ele>
        <time>2021-05-09T10:07:32Z</time>
      </trkpt>
      <trkpt lat="44.24887" lon="0.74373">
        <ele>184.2</ele>
        <time>2021-05-09T10:07:34Z</time>
      </trkpt>
      <trkpt lat="44.24889" lon="0.7437">
        <ele>184</ele>
        <time>2021-05-09T10:07:36Z</time>
      </trkpt>
      <trkpt lat="44.24889" lon="0.74368">
        <ele>184</ele>
        <time>2021-05-09T10:07:38Z</time>
      </trkpt>
      <trkpt lat="44.24889" lon="0.74365">
        <ele>183.8</ele>
        <time>2021-05-09T10:07:40Z</time>
      </trkpt>
      <trkpt lat="44.24891" lon="0.74362">
        <ele>183.6</ele>
        <time>2021-05-09T10:07:42Z</time>
      </trkpt>
      <trkpt lat="44.24892" lon="0.74358">
        <ele>183.2</ele>
        <time>2021-05-09T10:07:45Z</time>
      </trkpt>
      <trkpt lat="44.24892" lon="0.74356">
        <ele>183</ele>
        <time>2021-05-09T10:07:47Z</time>
      </trkpt>
      <trkpt lat="44.24893" lon="0.74353">
        <ele>182.8</ele>
        <time>2021-05-09T10:07:49Z</time>
      </trkpt>
      <trkpt lat="44.24895" lon="0.74351">
        <ele>182.6</ele>
        <time>2021-05-09T10:07:51Z</time>
      </trkpt>
      <trkpt lat="44.24896" lon="0.74347">
        <ele>182.6</ele>
        <time>2021-05-09T10:07:53Z</time>
      </trkpt>
      <trkpt lat="44.24897" lon="0.74344">
        <ele>182.4</ele>
        <time>2021-05-09T10:07:55Z</time>
      </trkpt>
      <trkpt lat="44.24898" lon="0.74341">
        <ele>182.2</ele>
        <time>2021-05-09T10:07:57Z</time>
      </trkpt>
      <trkpt lat="44.249" lon="0.74337">
        <ele>182</ele>
        <time>2021-05-09T10:07:59Z</time>
      </trkpt>
      <trkpt lat="44.24901" lon="0.74335">
        <ele>181.8</ele>
        <time>2021-05-09T10:08:01Z</time>
      </trkpt>
      <trkpt lat="44.24902" lon="0.74331">
        <ele>181.6</ele>
        <time>2021-05-09T10:08:03Z</time>
      </trkpt>
      <trkpt lat="44.24903" lon="0.74328">
        <ele>181.6</ele>
        <time>2021-05-09T10:08:05Z</time>
      </trkpt>
      <trkpt lat="44.24904" lon="0.74325">
        <ele>181.4</ele>
        <time>2021-05-09T10:08:07Z</time>
      </trkpt>
      <trkpt lat="44.24905" lon="0.74322">
        <ele>181.2</ele>
        <time>2021-05-09T10:08:09Z</time>
      </trkpt>
      <trkpt lat="44.24906" lon="0.74318">
        <ele>181</ele>
        <time>2021-05-09T10:08:11Z</time>
      </trkpt>
      <trkpt lat="44.24907" lon="0.74316">
        <ele>180.8</ele>
        <time>2021-05-09T10:08:13Z</time>
      </trkpt>
      <trkpt lat="44.24908" lon="0.74314">
        <ele>180.6</ele>
        <time>2021-05-09T10:08:15Z</time>
      </trkpt>
      <trkpt lat="44.24909" lon="0.74311">
        <ele>180.4</ele>
        <time>2021-05-09T10:08:17Z</time>
      </trkpt>
      <trkpt lat="44.24911" lon="0.74309">
        <ele>180.2</ele>
        <time>2021-05-09T10:08:19Z</time>
      </trkpt>
      <trkpt lat="44.24912" lon="0.74306">
        <ele>180</ele>
        <time>2021-05-09T10:08:21Z</time>
      </trkpt>
      <trkpt lat="44.24913" lon="0.74302">
        <ele>179.8</ele>
        <time>2021-05-09T10:08:23Z</time>
      </trkpt>
      <trkpt lat="44.24915" lon="0.74299">
        <ele>179.8</ele>
        <time>2021-05-09T10:08:25Z</time>
      </trkpt>
      <trkpt lat="44.24915" lon="0.74296">
        <ele>179.4</ele>
        <time>2021-05-09T10:08:28Z</time>
      </trkpt>
      <trkpt lat="44.24916" lon="0.74293">
        <ele>179.2</ele>
        <time>2021-05-09T10:08:31Z</time>
      </trkpt>
      <trkpt lat="44.24917" lon="0.74289">
        <ele>179</ele>
        <time>2021-05-09T10:08:34Z</time>
      </trkpt>
      <trkpt lat="44.2496" lon="0.74205">
        <ele>169.6</ele>
        <time>2021-05-09T10:10:14Z</time>
      </trkpt>
      <trkpt lat="44.2496" lon="0.74202">
        <ele>169.4</ele>
        <time>2021-05-09T10:10:18Z</time>
      </trkpt>
      <trkpt lat="44.24959" lon="0.74196">
        <ele>169</ele>
        <time>2021-05-09T10:10:22Z</time>
      </trkpt>
      <trkpt lat="44.24959" lon="0.74193">
        <ele>169</ele>
        <time>2021-05-09T10:10:24Z</time>
      </trkpt>
      <trkpt lat="44.24959" lon="0.74189">
        <ele>169</ele>
        <time>2021-05-09T10:10:26Z</time>
      </trkpt>
      <trkpt lat="44.24959" lon="0.74187">
        <ele>168.8</ele>
        <time>2021-05-09T10:10:28Z</time>
      </trkpt>
      <trkpt lat="44.24959" lon="0.74183">
        <ele>168.6</ele>
        <time>2021-05-09T10:10:30Z</time>
      </trkpt>
      <trkpt lat="44.24959" lon="0.7418">
        <ele>168.6</ele>
        <time>2021-05-09T10:10:32Z</time>
      </trkpt>
      <trkpt lat="44.24959" lon="0.74177">
        <ele>168.4</ele>
        <time>2021-05-09T10:10:34Z</time>
      </trkpt>
      <trkpt lat="44.2496" lon="0.74173">
        <ele>168.4</ele>
        <time>2021-05-09T10:10:36Z</time>
      </trkpt>
      <trkpt lat="44.2496" lon="0.7417">
        <ele>168.4</ele>
        <time>2021-05-09T10:10:38Z</time>
      </trkpt>
      <trkpt lat="44.24961" lon="0.74166">
        <ele>168.4</ele>
        <time>2021-05-09T10:10:40Z</time>
      </trkpt>
      <trkpt lat="44.24961" lon="0.74163">
        <ele>168.4</ele>
        <time>2021-05-09T10:10:42Z</time>
      </trkpt>
      <trkpt lat="44.24961" lon="0.74159">
        <ele>168.4</ele>
        <time>2021-05-09T10:10:44Z</time>
      </trkpt>
      <trkpt lat="44.24961" lon="0.74156">
        <ele>168.4</ele>
        <time>2021-05-09T10:10:46Z</time>
      </trkpt>
      <trkpt lat="44.24962" lon="0.74152">
        <ele>168.2</ele>
        <time>2021-05-09T10:10:48Z</time>
      </trkpt>
      <trkpt lat="44.24962" lon="0.74149">
        <ele>168.2</ele>
        <time>2021-05-09T10:10:51Z</time>
      </trkpt>
      <trkpt lat="44.24963" lon="0.74146">
        <ele>168.2</ele>
        <time>2021-05-09T10:10:53Z</time>
      </trkpt>
      <trkpt lat="44.24964" lon="0.74143">
        <ele>168</ele>
        <time>2021-05-09T10:10:55Z</time>
      </trkpt>
      <trkpt lat="44.24964" lon="0.7414">
        <ele>167.8</ele>
        <time>2021-05-09T10:10:57Z</time>
      </trkpt>
      <trkpt lat="44.24965" lon="0.74137">
        <ele>167.6</ele>
        <time>2021-05-09T10:10:59Z</time>
      </trkpt>
      <trkpt lat="44.24966" lon="0.74134">
        <ele>167.4</ele>
        <time>2021-05-09T10:11:01Z</time>
      </trkpt>
      <trkpt lat="44.24967" lon="0.74131">
        <ele>167.2</ele>
        <time>2021-05-09T10:11:03Z</time>
      </trkpt>
      <trkpt lat="44.24967" lon="0.74128">
        <ele>167.2</ele>
        <time>2021-05-09T10:11:05Z</time>
      </trkpt>
      <trkpt lat="44.24968" lon="0.74124">
        <ele>167.2</ele>
        <time>2021-05-09T10:11:07Z</time>
      </trkpt>
      <trkpt lat="44.24968" lon="0.74121">
        <ele>167</ele>
        <time>2021-05-09T10:11:09Z</time>
      </trkpt>
      <trkpt lat="44.24969" lon="0.74119">
        <ele>167</ele>
        <time>2021-05-09T10:11:11Z</time>
      </trkpt>
      <trkpt lat="44.2497" lon="0.74115">
        <ele>166.8</ele>
        <time>2021-05-09T10:11:13Z</time>
      </trkpt>
      <trkpt lat="44.2497" lon="0.74111">
        <ele>167</ele>
        <time>2021-05-09T10:11:15Z</time>
      </trkpt>
      <trkpt lat="44.24971" lon="0.74108">
        <ele>167</ele>
        <time>2021-05-09T10:11:17Z</time>
      </trkpt>
      <trkpt lat="44.24971" lon="0.74104">
        <ele>167.2</ele>
        <time>2021-05-09T10:11:19Z</time>
      </trkpt>
      <trkpt lat="44.24972" lon="0.74101">
        <ele>167.2</ele>
        <time>2021-05-09T10:11:21Z</time>
      </trkpt>
      <trkpt lat="44.24972" lon="0.74098">
        <ele>167.4</ele>
        <time>2021-05-09T10:11:23Z</time>
      </trkpt>
      <trkpt lat="44.24973" lon="0.74095">
        <ele>167.4</ele>
        <time>2021-05-09T10:11:25Z</time>
      </trkpt>
      <trkpt lat="44.24974" lon="0.74092">
        <ele>167.4</ele>
        <time>2021-05-09T10:11:27Z</time>
      </trkpt>
      <trkpt lat="44.24974" lon="0.74089">
        <ele>167.4</ele>
        <time>2021-05-09T10:11:29Z</time>
      </trkpt>
      <trkpt lat="44.24976" lon="0.74085">
        <ele>167.4</ele>
        <time>2021-05-09T10:11:32Z</time>
      </trkpt>
      <trkpt lat="44.24976" lon="0.74082">
        <ele>167.4</ele>
        <time>2021-05-09T10:11:34Z</time>
      </trkpt>
      <trkpt lat="44.24977" lon="0.74078">
        <ele>167.4</ele>
        <time>2021-05-09T10:11:36Z</time>
      </trkpt>
      <trkpt lat="44.24977" lon="0.74075">
        <ele>167.4</ele>
        <time>2021-05-09T10:11:38Z</time>
      </trkpt>
      <trkpt lat="44.24977" lon="0.74072">
        <ele>167.6</ele>
        <time>2021-05-09T10:11:40Z</time>
      </trkpt>
      <trkpt lat="44.24978" lon="0.7407">
        <ele>167.4</ele>
        <time>2021-05-09T10:11:42Z</time>
      </trkpt>
      <trkpt lat="44.24978" lon="0.74066">
        <ele>167.4</ele>
        <time>2021-05-09T10:11:44Z</time>
      </trkpt>
      <trkpt lat="44.24979" lon="0.74063">
        <ele>167.2</ele>
        <time>2021-05-09T10:11:46Z</time>
      </trkpt>
      <trkpt lat="44.2498" lon="0.74059">
        <ele>167.2</ele>
        <time>2021-05-09T10:11:48Z</time>
      </trkpt>
      <trkpt lat="44.2498" lon="0.74056">
        <ele>167.2</ele>
        <time>2021-05-09T10:11:50Z</time>
      </trkpt>
      <trkpt lat="44.2498" lon="0.74054">
        <ele>167</ele>
        <time>2021-05-09T10:11:52Z</time>
      </trkpt>
      <trkpt lat="44.2498" lon="0.74051">
        <ele>166.8</ele>
        <time>2021-05-09T10:11:54Z</time>
      </trkpt>
      <trkpt lat="44.2498" lon="0.74047">
        <ele>166.6</ele>
        <time>2021-05-09T10:11:56Z</time>
      </trkpt>
      <trkpt lat="44.2498" lon="0.74043">
        <ele>166.4</ele>
        <time>2021-05-09T10:11:58Z</time>
      </trkpt>
      <trkpt lat="44.24978" lon="0.74041">
        <ele>166.2</ele>
        <time>2021-05-09T10:12:00Z</time>
      </trkpt>
      <trkpt lat="44.24977" lon="0.74037">
        <ele>166.2</ele>
        <time>2021-05-09T10:12:02Z</time>
      </trkpt>
      <trkpt lat="44.24976" lon="0.74034">
        <ele>166</ele>
        <time>2021-05-09T10:12:04Z</time>
      </trkpt>
      <trkpt lat="44.24974" lon="0.74032">
        <ele>166</ele>
        <time>2021-05-09T10:12:06Z</time>
      </trkpt>
      <trkpt lat="44.24972" lon="0.7403">
        <ele>165.8</ele>
        <time>2021-05-09T10:12:08Z</time>
      </trkpt>
      <trkpt lat="44.24971" lon="0.74028">
        <ele>165.8</ele>
        <time>2021-05-09T10:12:10Z</time>
      </trkpt>
      <trkpt lat="44.24969" lon="0.74027">
        <ele>165.8</ele>
        <time>2021-05-09T10:12:12Z</time>
      </trkpt>
      <trkpt lat="44.24966" lon="0.74027">
        <ele>165.6</ele>
        <time>2021-05-09T10:12:14Z</time>
      </trkpt>
      <trkpt lat="44.24964" lon="0.74027">
        <ele>165.6</ele>
        <time>2021-05-09T10:12:16Z</time>
      </trkpt>
      <trkpt lat="44.24962" lon="0.74027">
        <ele>165.6</ele>
        <time>2021-05-09T10:12:18Z</time>
      </trkpt>
      <trkpt lat="44.24959" lon="0.74027">
        <ele>165.6</ele>
        <time>2021-05-09T10:12:20Z</time>
      </trkpt>
      <trkpt lat="44.24956" lon="0.74026">
        <ele>165.6</ele>
        <time>2021-05-09T10:12:23Z</time>
      </trkpt>
      <trkpt lat="44.24954" lon="0.74026">
        <ele>165.4</ele>
        <time>2021-05-09T10:12:25Z</time>
      </trkpt>
      <trkpt lat="44.24952" lon="0.74025">
        <ele>165.6</ele>
        <time>2021-05-09T10:12:27Z</time>
      </trkpt>
      <trkpt lat="44.24949" lon="0.74025">
        <ele>165.6</ele>
        <time>2021-05-09T10:12:30Z</time>
      </trkpt>
      <trkpt lat="44.24947" lon="0.74025">
        <ele>165.6</ele>
        <time>2021-05-09T10:12:32Z</time>
      </trkpt>
      <trkpt lat="44.24944" lon="0.74025">
        <ele>165.8</ele>
        <time>2021-05-09T10:12:34Z</time>
      </trkpt>
      <trkpt lat="44.24942" lon="0.74024">
        <ele>165.8</ele>
        <time>2021-05-09T10:12:36Z</time>
      </trkpt>
      <trkpt lat="44.24939" lon="0.74024">
        <ele>166</ele>
        <time>2021-05-09T10:12:38Z</time>
      </trkpt>
      <trkpt lat="44.24937" lon="0.74024">
        <ele>166</ele>
        <time>2021-05-09T10:12:41Z</time>
      </trkpt>
      <trkpt lat="44.24935" lon="0.74023">
        <ele>166</ele>
        <time>2021-05-09T10:12:43Z</time>
      </trkpt>
      <trkpt lat="44.24932" lon="0.74023">
        <ele>166.2</ele>
        <time>2021-05-09T10:12:45Z</time>
      </trkpt>
      <trkpt lat="44.24931" lon="0.74022">
        <ele>166.2</ele>
        <time>2021-05-09T10:12:47Z</time>
      </trkpt>
      <trkpt lat="44.24929" lon="0.74021">
        <ele>166.4</ele>
        <time>2021-05-09T10:12:49Z</time>
      </trkpt>
      <trkpt lat="44.24926" lon="0.7402">
        <ele>166.4</ele>
        <time>2021-05-09T10:12:51Z</time>
      </trkpt>
      <trkpt lat="44.24925" lon="0.74018">
        <ele>166.6</ele>
        <time>2021-05-09T10:12:53Z</time>
      </trkpt>
      <trkpt lat="44.24923" lon="0.74017">
        <ele>166.8</ele>
        <time>2021-05-09T10:12:55Z</time>
      </trkpt>
      <trkpt lat="44.2492" lon="0.74016">
        <ele>166.8</ele>
        <time>2021-05-09T10:12:57Z</time>
      </trkpt>
      <trkpt lat="44.24918" lon="0.74015">
        <ele>167</ele>
        <time>2021-05-09T10:12:59Z</time>
      </trkpt>
      <trkpt lat="44.24916" lon="0.74013">
        <ele>167</ele>
        <time>2021-05-09T10:13:01Z</time>
      </trkpt>
      <trkpt lat="44.24913" lon="0.74012">
        <ele>167.2</ele>
        <time>2021-05-09T10:13:04Z</time>
      </trkpt>
      <trkpt lat="44.2491" lon="0.7401">
        <ele>167.2</ele>
        <time>2021-05-09T10:13:06Z</time>
      </trkpt>
      <trkpt lat="44.24909" lon="0.74008">
        <ele>167.4</ele>
        <time>2021-05-09T10:13:08Z</time>
      </trkpt>
      <trkpt lat="44.24907" lon="0.74007">
        <ele>167.4</ele>
        <time>2021-05-09T10:13:10Z</time>
      </trkpt>
      <trkpt lat="44.24905" lon="0.74004">
        <ele>167.6</ele>
        <time>2021-05-09T10:13:13Z</time>
      </trkpt>
      <trkpt lat="44.24903" lon="0.74003">
        <ele>167.6</ele>
        <time>2021-05-09T10:13:14Z</time>
      </trkpt>
      <trkpt lat="44.24902" lon="0.74">
        <ele>167.6</ele>
        <time>2021-05-09T10:13:17Z</time>
      </trkpt>
      <trkpt lat="44.249" lon="0.73998">
        <ele>167.8</ele>
        <time>2021-05-09T10:13:19Z</time>
      </trkpt>
      <trkpt lat="44.24897" lon="0.73995">
        <ele>167.8</ele>
        <time>2021-05-09T10:13:21Z</time>
      </trkpt>
      <trkpt lat="44.24895" lon="0.73994">
        <ele>168</ele>
        <time>2021-05-09T10:13:22Z</time>
      </trkpt>
      <trkpt lat="44.24895" lon="0.73991">
        <ele>168</ele>
        <time>2021-05-09T10:13:24Z</time>
      </trkpt>
      <trkpt lat="44.24894" lon="0.73987">
        <ele>167.8</ele>
        <time>2021-05-09T10:13:26Z</time>
      </trkpt>
      <trkpt lat="44.24893" lon="0.73983">
        <ele>167.8</ele>
        <time>2021-05-09T10:13:28Z</time>
      </trkpt>
      <trkpt lat="44.24892" lon="0.73981">
        <ele>167.8</ele>
        <time>2021-05-09T10:13:30Z</time>
      </trkpt>
      <trkpt lat="44.24891" lon="0.73978">
        <ele>167.8</ele>
        <time>2021-05-09T10:13:32Z</time>
      </trkpt>
      <trkpt lat="44.24891" lon="0.73975">
        <ele>167.8</ele>
        <time>2021-05-09T10:13:34Z</time>
      </trkpt>
      <trkpt lat="44.24891" lon="0.73971">
        <ele>167.8</ele>
        <time>2021-05-09T10:13:36Z</time>
      </trkpt>
      <trkpt lat="44.24891" lon="0.73968">
        <ele>167.8</ele>
        <time>2021-05-09T10:13:38Z</time>
      </trkpt>
      <trkpt lat="44.24891" lon="0.73965">
        <ele>167.8</ele>
        <time>2021-05-09T10:13:40Z</time>
      </trkpt>
      <trkpt lat="44.24891" lon="0.73962">
        <ele>167.8</ele>
        <time>2021-05-09T10:13:42Z</time>
      </trkpt>
      <trkpt lat="44.24891" lon="0.73958">
        <ele>167.8</ele>
        <time>2021-05-09T10:13:45Z</time>
      </trkpt>
      <trkpt lat="44.24892" lon="0.73955">
        <ele>167.8</ele>
        <time>2021-05-09T10:13:48Z</time>
      </trkpt>
      <trkpt lat="44.24892" lon="0.73952">
        <ele>167.8</ele>
        <time>2021-05-09T10:13:50Z</time>
      </trkpt>
      <trkpt lat="44.24892" lon="0.73949">
        <ele>167.8</ele>
        <time>2021-05-09T10:13:52Z</time>
      </trkpt>
      <trkpt lat="44.24892" lon="0.73946">
        <ele>167.8</ele>
        <time>2021-05-09T10:13:54Z</time>
      </trkpt>
      <trkpt lat="44.24892" lon="0.73942">
        <ele>167.8</ele>
        <time>2021-05-09T10:13:56Z</time>
      </trkpt>
      <trkpt lat="44.24892" lon="0.73939">
        <ele>167.8</ele>
        <time>2021-05-09T10:13:58Z</time>
      </trkpt>
      <trkpt lat="44.24892" lon="0.73936">
        <ele>167.8</ele>
        <time>2021-05-09T10:14:00Z</time>
      </trkpt>
      <trkpt lat="44.24892" lon="0.73932">
        <ele>168</ele>
        <time>2021-05-09T10:14:02Z</time>
      </trkpt>
      <trkpt lat="44.24893" lon="0.73929">
        <ele>168</ele>
        <time>2021-05-09T10:14:04Z</time>
      </trkpt>
      <trkpt lat="44.24893" lon="0.73925">
        <ele>168</ele>
        <time>2021-05-09T10:14:06Z</time>
      </trkpt>
      <trkpt lat="44.24892" lon="0.73922">
        <ele>168</ele>
        <time>2021-05-09T10:14:08Z</time>
      </trkpt>
      <trkpt lat="44.24892" lon="0.73918">
        <ele>167.8</ele>
        <time>2021-05-09T10:14:10Z</time>
      </trkpt>
      <trkpt lat="44.24892" lon="0.73915">
        <ele>167.8</ele>
        <time>2021-05-09T10:14:12Z</time>
      </trkpt>
      <trkpt lat="44.24891" lon="0.73911">
        <ele>167.6</ele>
        <time>2021-05-09T10:14:14Z</time>
      </trkpt>
      <trkpt lat="44.24891" lon="0.73908">
        <ele>167.6</ele>
        <time>2021-05-09T10:14:16Z</time>
      </trkpt>
      <trkpt lat="44.2489" lon="0.73905">
        <ele>167.6</ele>
        <time>2021-05-09T10:14:18Z</time>
      </trkpt>
      <trkpt lat="44.24888" lon="0.73902">
        <ele>167.6</ele>
        <time>2021-05-09T10:14:20Z</time>
      </trkpt>
      <trkpt lat="44.24887" lon="0.73899">
        <ele>167.8</ele>
        <time>2021-05-09T10:14:22Z</time>
      </trkpt>
      <trkpt lat="44.24887" lon="0.73896">
        <ele>167.8</ele>
        <time>2021-05-09T10:14:24Z</time>
      </trkpt>
      <trkpt lat="44.24886" lon="0.73893">
        <ele>167.8</ele>
        <time>2021-05-09T10:14:26Z</time>
      </trkpt>
      <trkpt lat="44.24886" lon="0.7389">
        <ele>167.8</ele>
        <time>2021-05-09T10:14:28Z</time>
      </trkpt>
      <trkpt lat="44.24887" lon="0.73887">
        <ele>167.8</ele>
        <time>2021-05-09T10:14:30Z</time>
      </trkpt>
      <trkpt lat="44.24888" lon="0.73885">
        <ele>167.8</ele>
        <time>2021-05-09T10:14:32Z</time>
      </trkpt>
      <trkpt lat="44.24889" lon="0.73881">
        <ele>167.8</ele>
        <time>2021-05-09T10:14:34Z</time>
      </trkpt>
      <trkpt lat="44.24889" lon="0.73878">
        <ele>167.8</ele>
        <time>2021-05-09T10:14:36Z</time>
      </trkpt>
      <trkpt lat="44.2489" lon="0.73875">
        <ele>168</ele>
        <time>2021-05-09T10:14:38Z</time>
      </trkpt>
      <trkpt lat="44.24891" lon="0.73873">
        <ele>168.2</ele>
        <time>2021-05-09T10:14:40Z</time>
      </trkpt>
      <trkpt lat="44.24891" lon="0.7387">
        <ele>168.2</ele>
        <time>2021-05-09T10:14:42Z</time>
      </trkpt>
      <trkpt lat="44.24892" lon="0.73867">
        <ele>168.2</ele>
        <time>2021-05-09T10:14:44Z</time>
      </trkpt>
    </trkseg>
  </trk>
</gpx>